# Wetter Temperatur Luftdruck Luftfeuchtigkeit Sichtweite Windgeschwindigkeit Windrichtung Zeit
1 Clouds 4 1022 75 2860 2.24 153 14:37 01.02.2023
2 Clouds 3 1023 76 346 2.68 183 13:20 01.02.2023
3 Clouds 3 1023 77 3192 2.68 183 12:59 01.02.2023
4 Clouds 2 1026 80 5611 1.34 79 11:56 01.02.2023
5 Snow 0 1027 82 394 1.34 191 08:56 01.02.2023
6 Clouds 0 1025 69 964 1.34 178 03:18 01.02.2023
7 Clouds 1 1028 62 10000 2.24 167 21:38 31.01.2023
8 Clouds 1 1028 63 10000 0.45 56 19:48 31.01.2023
9 Snow 2 1027 58 7894 1.79 192 18:50 31.01.2023
10 Clouds 2 1030 66 10000 2.06 260 15:37 31.01.2023
11 Clouds 2 1030 66 10000 2.03 260 15:18 31.01.2023
12 Clouds 3 1030 58 10000 0.89 164 14:52 31.01.2023
13 Clouds 2 1028 63 10000 4.02 189 12:19 31.01.2023
14 Clouds 2 1025 77 10000 1.34 141 11:19 31.01.2023
15 Clouds 0 1025 80 10000 1.79 138 09:52 31.01.2023
16 Clouds -2 1026 91 10000 0.45 184 08:59 31.01.2023
17 Clouds -1 1033 91 10000 2.52 185 08:35 31.01.2023
18 Clouds -1 1034 95 10000 2.52 191 05:39 31.01.2023
19 Snow 0 1024 84 118 0.45 154 23:56 30.01.2023
20 Snow 1 1024 81 98 0.45 138 22:51 30.01.2023
21 Snow 1 1024 83 98 0.89 121 22:30 30.01.2023
22 Snow 0 1023 93 94 2.45 295 20:48 30.01.2023
23 Snow 0 1023 94 175 2.64 282 20:27 30.01.2023
24 Rain 1 1022 87 101 2.33 253 17:50 30.01.2023
25 Clouds 2 1020 58 115 0.45 219 16:32 30.01.2023
26 Clear 3 1020 56 10000 2.68 212 14:27 30.01.2023
27 Clouds 0 1021 67 10000 1.79 113 12:26 30.01.2023
28 Clouds 0 1027 41 10000 1.79 177 10:55 30.01.2023
29 Clouds -4 1025 65 10000 2.2 266 09:54 30.01.2023
30 Clouds -5 1025 66 10000 2.32 235 08:54 30.01.2023
31 Clouds -6 1028 72 10000 2.58 211 06:46 30.01.2023
32 Clouds -5 1028 77 10000 2.96 184 01:38 30.01.2023
33 Clouds -7 1023 91 10000 1.79 208 23:35 29.01.2023
34 Clouds -6 1023 87 10000 0.45 152 22:37 29.01.2023
35 Clouds -6 1023 87 10000 0.89 202 21:35 29.01.2023
36 Clouds -4 1023 85 10000 0.89 189 20:36 29.01.2023
37 Clouds -4 1023 81 10000 0.45 161 19:33 29.01.2023
38 Clouds -3 1023 78 10000 1.34 349 18:42 29.01.2023
39 Clouds -2 1022 73 10000 0.45 17 17:31 29.01.2023
40 Clouds -1 1022 68 10000 1.11 324 16:20 29.01.2023
41 Clouds 0 1023 63 10000 0.45 311 14:43 29.01.2023
42 Clouds 0 1023 66 10000 0.89 80 13:25 29.01.2023
43 Clouds -1 1024 68 10000 0.45 103 12:39 29.01.2023
44 Clouds -1 1024 68 10000 0.45 103 12:39 29.01.2023
45 Clear -1 1024 67 10000 0.45 103 12:21 29.01.2023
46 Clear -2 1026 74 10000 1.06 346 11:42 29.01.2023
47 Clear -2 1027 72 10000 1.07 147 11:23 29.01.2023
48 Clear -6 1029 84 10000 1.51 161 08:55 29.01.2023
49 Clear -6 1028 86 10000 0.45 140 07:18 29.01.2023
50 Clouds -5 1031 91 10000 2.43 155 00:36 29.01.2023
51 Clouds -4 1031 93 10000 2.15 147 21:50 28.01.2023
52 Clouds -3 1030 95 10000 1.88 137 20:24 28.01.2023
53 Clouds -4 1031 85 10000 1.88 137 19:46 28.01.2023
54 Clouds -4 1030 84 2928 1.41 104 18:21 28.01.2023
55 Clouds -3 1025 80 2379 1.65 58 16:59 28.01.2023
56 Clouds -2 1020 80 1837 2.23 41 16:20 28.01.2023
57 Clouds -2 1020 80 1837 0.89 318 15:38 28.01.2023
58 Clouds -2 1024 83 10000 1.79 303 14:21 28.01.2023
59 Clouds -2 1023 83 10000 0.45 350 12:48 28.01.2023
60 Clouds -2 1020 85 10000 0.45 107 11:27 28.01.2023
61 Clouds -3 1020 85 10000 1.35 76 10:33 28.01.2023
62 Clouds -9 1027 92 10000 2.2 148 06:35 28.01.2023
63 Clouds -4 1025 93 5912 1.45 138 01:35 28.01.2023
64 Clouds -4 1025 94 10000 1.91 148 00:23 28.01.2023
65 Clouds -4 1025 84 4691 1.55 123 20:57 27.01.2023
66 Clouds -4 1024 85 4517 1.33 88 17:59 27.01.2023
67 Clouds -3 1020 81 4573 1.35 88 17:39 27.01.2023
68 Clouds -3 1020 81 7117 1.83 50 17:18 27.01.2023
69 Clouds -3 1019 79 7117 0.89 1 16:33 27.01.2023
70 Clouds -3 1015 73 6667 0.45 316 14:53 27.01.2023
71 Clouds -3 1019 78 10000 0.45 146 14:24 27.01.2023
72 Clouds -3 1016 77 10000 1.34 42 12:48 27.01.2023
73 Clouds -5 1022 86 10000 1.77 139 08:39 27.01.2023
74 Clouds -6 1024 83 10000 0.89 2 03:56 27.01.2023
75 Clouds -5 1020 83 10000 1.4 149 22:52 26.01.2023
76 Clouds -5 1020 82 8579 1.79 155 21:22 26.01.2023
77 Clouds -5 1020 82 8579 1.79 155 21:22 26.01.2023
78 Clouds -5 1020 81 8579 1.79 181 20:35 26.01.2023
79 Clouds -4 1020 83 4928 0.89 62 18:28 26.01.2023
80 Clouds -4 1020 83 4928 0.45 338 17:42 26.01.2023
81 Clouds -3 1016 83 10000 0.45 195 16:27 26.01.2023
82 Clouds -3 1016 83 10000 0.45 195 15:53 26.01.2023
83 Clouds -3 1016 79 10000 0.45 73 15:30 26.01.2023
84 Clouds -3 1016 79 10000 0.45 73 14:49 26.01.2023
85 Clouds -3 1019 79 10000 1.91 352 12:48 26.01.2023
86 Clouds -2 1019 77 10000 1.33 349 11:31 26.01.2023
87 Clouds -4 1021 84 10000 0.41 130 10:30 26.01.2023
88 Clouds -4 1021 83 10000 0.41 129 09:44 26.01.2023
89 Clouds -5 1017 86 10000 0.89 161 08:25 26.01.2023
90 Clouds -2 1024 74 10000 1.05 198 02:26 26.01.2023
91 Clouds -3 1027 83 10000 0.45 145 23:38 25.01.2023
92 Clouds -3 1023 87 10000 0.89 237 21:59 25.01.2023
93 Clouds -3 1024 87 10000 0.89 207 21:21 25.01.2023
94 Clouds -3 1025 89 10000 0.45 178 19:41 25.01.2023
95 Clouds -3 1026 88 10000 0.45 233 18:23 25.01.2023
96 Clouds -2 1025 91 10000 1.19 33 15:51 25.01.2023
97 Clear 2 1025 91 10000 1.66 31 13:33 25.01.2023
98 Clear -2 1027 71 10000 0.63 60 11:25 25.01.2023
99 Clear -2 1034 89 10000 0.89 164 09:49 25.01.2023
100 Clouds -4 1030 91 10000 0.89 150 07:45 25.01.2023
101 Clouds -3 1032 88 10000 1.83 149 01:37 25.01.2023
102 Clouds -3 1033 89 10000 0.45 150 00:25 25.01.2023
103 Clouds -3 1033 90 10000 0.45 230 21:35 24.01.2023
104 Clouds -4 1034 88 10000 0.45 236 20:23 24.01.2023
105 Clouds -4 1033 91 10000 1.34 218 18:47 24.01.2023
106 Clouds -2 1032 87 10000 0.45 161 17:31 24.01.2023
107 Clear -2 1028 82 10000 0.45 161 16:53 24.01.2023
108 Clear 0 1028 74 10000 0.45 168 16:26 24.01.2023
109 Clear 0 1029 80 10000 1.09 36 13:46 24.01.2023
110 Clouds -1 1030 73 10000 0.85 56 11:43 24.01.2023
111 Clouds -6 1037 89 10000 1.95 143 08:38 24.01.2023
112 Clouds -6 1037 89 10000 2.39 152 08:18 24.01.2023
113 Clouds -5 1036 89 10000 2.39 152 07:47 24.01.2023
114 Clouds -5 1030 87 10000 0.45 241 02:43 24.01.2023
115 Clouds -4 1029 87 10000 0.89 242 00:37 24.01.2023
116 Clouds -4 1029 86 10000 0.45 264 22:28 23.01.2023
117 Clouds -5 1033 90 10000 2.55 132 20:26 23.01.2023
118 Clouds -4 1028 87 10000 0.89 193 19:21 23.01.2023
119 Clouds -3 1023 84 10000 0.45 31 17:19 23.01.2023
120 Clouds -3 1023 79 10000 0.45 338 15:32 23.01.2023
121 Clouds -3 1022 77 10000 1.9 59 13:56 23.01.2023
122 Clouds -4 1023 79 10000 0.45 256 12:55 23.01.2023
123 Clouds -5 1024 83 10000 0.45 129 11:46 23.01.2023
124 Clouds -5 1024 84 10000 0.45 129 11:28 23.01.2023
125 Clouds -5 1024 84 10000 0.45 129 11:28 23.01.2023
126 Clouds -7 1032 92 10000 2.07 144 08:24 23.01.2023
127 Clouds -5 1033 94 10000 2.16 155 00:22 23.01.2023
128 Clouds -5 1032 95 10000 1.92 148 21:51 22.01.2023
129 Clouds -5 1031 87 4801 1.67 147 21:19 22.01.2023
130 Clouds -4 1030 88 2999 1.48 144 19:56 22.01.2023
131 Clouds -4 1030 88 2999 1.48 144 19:37 22.01.2023
132 Clouds -4 1030 88 1266 1.29 130 18:37 22.01.2023
133 Clouds -4 1029 88 820 0.85 96 17:55 22.01.2023
134 Clouds -4 1022 84 729 0.45 353 17:24 22.01.2023
135 Clouds -3 1021 83 10000 1.34 24 15:26 22.01.2023
136 Clouds -3 1021 82 10000 1.79 334 14:34 22.01.2023
137 Clouds -3 1021 81 10000 2.68 16 13:27 22.01.2023
138 Clouds -3 1021 78 10000 1.74 27 12:30 22.01.2023
139 Clouds -3 1021 78 10000 0.45 103 11:33 22.01.2023
140 Clouds -6 1020 90 10000 1.11 144 09:35 22.01.2023
141 Clouds -5 1027 97 1692 1.39 152 04:22 22.01.2023
142 Snow -6 1029 90 725 1.09 142 23:44 21.01.2023
143 Clouds -6 1029 90 590 0.89 120 22:55 21.01.2023
144 Snow -5 1024 90 791 0.75 79 21:34 21.01.2023
145 Snow -5 1023 89 229 0.45 60 18:55 21.01.2023
146 Snow -4 1018 88 241 0.45 320 16:40 21.01.2023
147 Snow -4 1017 88 419 1.34 304 13:57 21.01.2023
148 Snow -4 1017 89 663 1.79 29 12:57 21.01.2023
149 Snow -4 1018 90 752 2.7 20 11:40 21.01.2023
150 Snow -5 1018 91 812 2.58 23 10:49 21.01.2023
151 Snow -5 1017 92 135 0.45 16 08:47 21.01.2023
152 Snow -5 1017 92 153 0.45 349 04:30 21.01.2023
153 Snow -4 1016 91 226 1.05 347 22:28 20.01.2023
154 Snow -4 1016 90 226 1.05 347 21:37 20.01.2023
155 Snow -4 1016 90 183 0.99 341 20:54 20.01.2023
156 Snow -4 1016 89 184 0.83 315 19:20 20.01.2023
157 Snow -4 1015 91 632 0.45 340 16:37 20.01.2023
158 Snow -4 1014 86 5419 0.45 178 14:46 20.01.2023
159 Snow -4 1018 85 2922 0.45 252 13:36 20.01.2023
160 Clouds -6 1017 81 9262 0.45 241 10:24 20.01.2023
161 Clouds -8 1016 83 946 0.45 171 08:22 20.01.2023
162 Clouds -9 1013 81 10000 0.89 220 03:33 20.01.2023
163 Clouds -9 1012 83 10000 0.89 167 02:28 20.01.2023
164 Clouds -8 1011 86 10000 0.45 164 22:32 19.01.2023
165 Clouds -7 1016 81 10000 2.08 158 20:22 19.01.2023
166 Clouds -6 1011 81 10000 0.89 221 19:20 19.01.2023
167 Clouds -3 1011 71 10000 0.45 353 15:39 19.01.2023
168 Clouds -3 1008 76 10000 1.34 184 10:53 19.01.2023
169 Clouds -5 1013 92 10000 1.1 210 08:59 19.01.2023
170 Snow -3 1004 89 338 1.55 326 23:52 18.01.2023
171 Snow -3 1005 89 265 1.79 302 20:56 18.01.2023
172 Snow -3 1004 89 257 3.13 320 20:19 18.01.2023
173 Snow -3 1003 87 257 1.34 328 19:37 18.01.2023
174 Snow -2 1001 88 233 1.34 312 17:35 18.01.2023
175 Snow 0 995 80 1300 2.68 303 15:24 18.01.2023
176 Clouds 0 996 79 10000 1.79 205 13:29 18.01.2023
177 Clouds 0 996 75 5612 1.55 266 11:20 18.01.2023
178 Clouds -2 993 87 2910 0.45 264 08:23 18.01.2023
179 Snow -2 989 85 173 0.89 193 01:28 18.01.2023
180 Snow -1 990 87 696 0.45 198 23:46 17.01.2023
181 Clouds -1 989 89 10000 0.45 72 20:37 17.01.2023
182 Clouds -1 987 89 10000 2.68 172 19:34 17.01.2023
183 Snow -1 987 82 10000 1.34 172 18:28 17.01.2023
184 Snow 0 986 74 10000 0.45 152 16:33 17.01.2023
185 Clouds 0 986 73 10000 0.89 354 14:56 17.01.2023
186 Clouds 0 987 78 10000 1.54 121 13:52 17.01.2023
187 Clouds -1 987 75 10000 1.91 125 12:27 17.01.2023
188 Clouds -2 990 81 10000 0.45 233 11:38 17.01.2023
189 Clouds -3 990 67 10000 1.84 119 09:34 17.01.2023
190 Clear -5 990 92 10000 0.45 86 07:53 17.01.2023
191 Clouds -2 991 91 10000 0.89 178 03:57 17.01.2023
192 Clouds 0 992 85 10000 1.79 144 00:57 17.01.2023
193 Clouds 0 991 82 10000 0.45 164 23:32 16.01.2023
194 Clouds 0 991 86 10000 1.34 168 21:52 16.01.2023
195 Snow 1 995 87 10000 1.97 230 20:24 16.01.2023
196 Snow 1 990 88 10000 4.47 11 19:30 16.01.2023
197 Clouds 1 990 87 10000 4.47 11 18:52 16.01.2023
198 Clouds 1 990 89 10000 2.06 212 18:20 16.01.2023
199 Clouds 0 990 86 10000 0.45 141 17:34 16.01.2023
200 Clouds 0 990 86 10000 0.45 141 17:34 16.01.2023
201 Clouds 1 991 78 10000 0.89 54 14:37 16.01.2023
202 Clouds 1 992 79 10000 0.89 26 13:38 16.01.2023
203 Clouds -1 997 39 10000 3.3 150 10:28 16.01.2023
204 Clouds -1 997 39 10000 3.3 150 09:53 16.01.2023
205 Clouds -1 1009 89 10000 0.45 211 23:22 15.01.2023
206 Clouds -1 1011 92 10000 0.89 236 21:42 15.01.2023
207 Clouds 0 1012 92 10000 0.89 136 20:35 15.01.2023
208 Snow 0 1012 90 10000 0.45 167 19:44 15.01.2023
209 Snow 1 1013 83 429 1.34 77 17:40 15.01.2023
210 Rain 1 1013 92 122 0.89 98 15:22 15.01.2023
211 Rain 4 1011 85 1631 2.2 265 12:31 15.01.2023
212 Clouds 7 1005 83 2366 0.45 252 11:35 15.01.2023
213 Clouds 7 1006 87 10000 0.45 95 10:28 15.01.2023
214 Clouds 6 1007 89 10000 1.34 129 09:34 15.01.2023
215 Clouds 6 1012 76 10000 0.89 171 01:47 15.01.2023
216 Clouds 4 1011 84 10000 3.26 174 22:50 14.01.2023
217 Clouds 4 1012 84 10000 0.89 142 21:55 14.01.2023
218 Clouds 4 1013 83 10000 0.45 291 21:36 14.01.2023
219 Clouds 4 1013 84 10000 0.45 291 21:18 14.01.2023
220 Clouds 4 1013 84 10000 0.45 291 21:18 14.01.2023
221 Clouds 5 1015 77 10000 0.45 285 20:31 14.01.2023
222 Clouds 4 1013 89 10000 1.34 199 18:38 14.01.2023
223 Clouds 6 1015 78 10000 0.89 227 15:48 14.01.2023
224 Clouds 6 1015 78 10000 0.89 227 15:26 14.01.2023
225 Clouds 7 1015 72 10000 2.3 179 14:25 14.01.2023
226 Clouds 7 1017 57 10000 1.34 163 13:33 14.01.2023
227 Clouds 3 1022 74 10000 3.13 216 10:51 14.01.2023
228 Clouds 2 1023 77 10000 2.24 168 09:56 14.01.2023
229 Clouds 2 1025 91 10000 2.68 180 04:56 14.01.2023
230 Rain 3 1022 89 167 2.24 255 23:21 13.01.2023
231 Rain 3 1024 88 167 1.34 88 22:45 13.01.2023
232 Rain 4 1021 86 349 1.34 88 21:58 13.01.2023
233 Clouds 3 1021 89 257 1.34 239 20:52 13.01.2023
234 Clouds 3 1019 87 140 0.89 161 19:34 13.01.2023
235 Rain 5 1018 81 465 3.13 142 17:43 13.01.2023
236 Rain 5 1018 83 6031 4.02 133 16:24 13.01.2023
237 Rain 6 1018 82 3482 4.47 187 12:36 13.01.2023
238 Clouds 6 1018 84 10000 4.47 187 12:18 13.01.2023
239 Clouds 5 1017 71 10000 1.79 156 10:23 13.01.2023
240 Clouds 4 1014 78 10000 0.89 226 09:45 13.01.2023
241 Clouds 4 1016 69 10000 0.89 226 08:52 13.01.2023
242 Clouds 3 1014 79 10000 0.45 177 07:43 13.01.2023
243 Rain 3 1014 79 10000 0.45 177 06:49 13.01.2023
244 Clouds 2 1016 80 10000 0.89 195 03:21 13.01.2023
245 Clouds 3 1019 77 10000 1.79 156 22:57 12.01.2023
246 Clouds 3 1019 77 10000 2.24 213 22:00 12.01.2023
247 Clouds 3 1020 78 10000 1.34 153 20:55 12.01.2023
248 Clouds 3 1021 77 10000 0.45 197 18:40 12.01.2023
249 Clouds 4 1022 74 10000 1.34 160 17:33 12.01.2023
250 Clouds 5 1022 67 10000 0.89 173 15:45 12.01.2023
251 Clouds 6 1019 68 10000 1.79 132 14:43 12.01.2023
252 Clouds 5 1019 68 10000 1.79 132 14:20 12.01.2023
253 Clouds 4 1020 82 10000 0.89 218 12:44 12.01.2023
254 Clouds 3 1024 82 10000 1.79 220 10:30 12.01.2023
255 Clouds 2 1021 91 10000 0.89 173 07:44 12.01.2023
256 Clouds 3 1025 86 10000 1.34 80 01:40 12.01.2023
257 Clouds 4 1025 87 9443 1.79 75 23:58 11.01.2023
258 Clouds 3 1025 92 9443 0.89 166 23:39 11.01.2023
259 Clouds 3 1025 93 2937 0.89 166 23:20 11.01.2023
260 Clouds 4 1024 95 1707 0.89 195 21:41 11.01.2023
261 Rain 4 1022 94 83 1.79 189 19:30 11.01.2023
262 Rain 4 1023 94 102 0.45 217 18:19 11.01.2023
263 Clouds 5 1019 89 4846 0.45 81 15:53 11.01.2023
264 Clouds 5 1016 92 10000 0.45 120 13:59 11.01.2023
265 Clouds 7 1019 76 10000 1.6 220 12:34 11.01.2023
266 Clouds 6 1019 78 10000 1.79 177 11:40 11.01.2023
267 Clouds 3 1018 94 10000 1.34 173 09:32 11.01.2023
268 Clouds 2 1019 93 10000 0.45 113 07:31 11.01.2023
269 Clouds 2 1019 94 10000 1.34 141 06:47 11.01.2023
270 Clouds 1 1023 75 5721 1.34 163 23:55 10.01.2023
271 Snow -1 1021 87 10000 0.45 188 22:34 10.01.2023
272 Clouds -1 1021 84 10000 0.89 205 21:28 10.01.2023
273 Clouds -2 1026 78 10000 1.34 168 19:55 10.01.2023
274 Clouds -1 1026 79 10000 1.34 168 19:27 10.01.2023
275 Clouds -1 1031 82 10000 1.34 168 18:37 10.01.2023
276 Clouds -1 1030 79 10000 1.79 183 17:33 10.01.2023
277 Clouds 1 1026 85 10000 0.45 169 15:47 10.01.2023
278 Clouds 3 1023 87 10000 0.45 169 15:21 10.01.2023
279 Clouds 2 1023 93 10000 0.45 239 13:33 10.01.2023
280 Snow 0 1026 94 2966 0.89 114 10:38 10.01.2023
281 Snow 0 1023 96 111 0.45 116 08:39 10.01.2023
282 Snow 0 1023 96 97 1.34 326 07:57 10.01.2023
283 Snow 0 1022 96 56 1.79 111 07:24 10.01.2023
284 Snow 1 1016 94 181 0.45 31 00:47 10.01.2023
285 Rain 1 1014 93 84 0.89 114 22:41 09.01.2023
286 Rain 1 1013 92 302 0.89 7 20:55 09.01.2023
287 Rain 1 1013 92 95 1.34 131 20:18 09.01.2023
288 Clouds 2 1011 85 126 0.45 254 18:30 09.01.2023
289 Clouds 3 1008 86 221 0.45 254 17:49 09.01.2023
290 Clouds 2 1010 86 245 1.34 316 16:34 09.01.2023
291 Clouds 3 1009 84 1614 0.45 342 15:36 09.01.2023
292 Clouds 4 1007 79 10000 0.45 342 14:59 09.01.2023
293 Clouds 4 1006 80 4403 1.34 172 14:41 09.01.2023
294 Clouds 4 1006 82 10000 1.34 219 12:54 09.01.2023
295 Clouds 4 1006 79 10000 0.89 185 11:52 09.01.2023
296 Clouds 4 1007 76 10000 2.11 265 11:19 09.01.2023
297 Clouds 4 1007 76 10000 2.11 265 11:19 09.01.2023
298 Clouds 3 1006 88 243 0.45 167 06:58 09.01.2023
299 Rain 4 1004 90 3020 1.34 166 02:55 09.01.2023
300 Rain 4 1004 89 10000 2.68 159 00:59 09.01.2023
301 Clouds 4 1005 85 10000 0.45 94 22:19 08.01.2023
302 Rain 4 1004 84 10000 0.45 146 21:22 08.01.2023
303 Clouds 4 1005 85 10000 0.45 100 20:33 08.01.2023
304 Clouds 4 1005 86 10000 0.45 304 18:45 08.01.2023
305 Clouds 5 1006 81 10000 0.45 313 17:21 08.01.2023
306 Clouds 6 1008 73 10000 0.89 176 16:37 08.01.2023
307 Clouds 6 1009 76 10000 1.34 144 15:34 08.01.2023
308 Rain 6 1010 75 10000 1.34 160 13:58 08.01.2023
309 Clouds 5 1010 76 10000 0.89 214 13:30 08.01.2023
310 Rain 4 1010 87 10000 0.38 239 12:46 08.01.2023
311 Clouds 4 1014 73 10000 2.25 166 10:28 08.01.2023
312 Clouds 4 1015 75 10000 0.45 168 09:36 08.01.2023
313 Clouds 3 1014 91 10000 2.36 191 07:47 08.01.2023
314 Clouds 5 1018 68 10000 1.34 162 23:59 07.01.2023
315 Clouds 6 1018 66 10000 1.34 180 22:47 07.01.2023
316 Clouds 6 1018 66 10000 1.34 180 22:24 07.01.2023
317 Clouds 6 1018 68 10000 1.79 181 21:47 07.01.2023
318 Clouds 5 1019 69 10000 1.79 168 20:32 07.01.2023
319 Clouds 4 1020 73 10000 2.68 163 19:30 07.01.2023
320 Clear 5 1018 68 10000 0.45 191 18:26 07.01.2023
321 Clear 5 1019 71 10000 0.89 179 17:44 07.01.2023
322 Clear 5 1019 76 10000 0.89 179 17:21 07.01.2023
323 Clear 6 1016 68 10000 0.45 244 16:32 07.01.2023
324 Clear 7 1016 62 10000 0.89 20 15:46 07.01.2023
325 Clear 8 1016 62 10000 0.89 20 15:24 07.01.2023
326 Clear 7 1016 61 10000 0.45 13 14:26 07.01.2023
327 Clear 9 1018 33 10000 0.49 232 13:44 07.01.2023
328 Clouds 5 1016 49 10000 0.77 214 13:22 07.01.2023
329 Clouds 5 1016 47 10000 1.33 182 12:21 07.01.2023
330 Clouds 9 1018 30 10000 0.45 144 11:18 07.01.2023
331 Clouds 9 1019 32 10000 0.89 168 10:25 07.01.2023
332 Clouds 3 1020 91 10000 2.5 165 08:21 07.01.2023
333 Clouds 2 1018 91 10000 0.45 158 07:43 07.01.2023
334 Clouds 2 1018 91 10000 0.45 158 06:49 07.01.2023
335 Clouds 3 1022 91 10000 0.89 179 23:55 06.01.2023
336 Clouds 4 1025 86 10000 0.89 218 22:22 06.01.2023
337 Clouds 3 1026 92 10000 0.89 218 21:58 06.01.2023
338 Clouds 3 1026 91 10000 0.45 205 20:52 06.01.2023
339 Clouds 3 1023 91 10000 0.45 226 19:56 06.01.2023
340 Clouds 3 1022 91 10000 1.71 170 19:38 06.01.2023
341 Clouds 3 1026 90 10000 1.67 173 19:20 06.01.2023
342 Clouds 3 1022 89 10000 0.45 203 18:24 06.01.2023
343 Clouds 5 1024 79 10000 0.89 239 16:54 06.01.2023
344 Clouds 7 1024 71 10000 1.34 217 16:23 06.01.2023
345 Clouds 7 1024 74 10000 1.34 217 15:53 06.01.2023
346 Clouds 8 1024 71 10000 1.34 165 15:31 06.01.2023
347 Clouds 8 1023 74 10000 1.41 296 13:47 06.01.2023
348 Clouds 7 1023 82 10000 0.89 351 12:21 06.01.2023
349 Clouds 7 1026 50 10000 1.27 239 10:57 06.01.2023
350 Clouds 5 1027 74 10000 0.45 160 08:51 06.01.2023
351 Clouds 5 1027 71 10000 0.45 152 05:23 06.01.2023
352 Clouds 5 1027 86 10000 1.79 179 23:39 05.01.2023
353 Clouds 6 1027 88 10000 0.89 211 22:45 05.01.2023
354 Clouds 7 1027 88 10000 3.58 171 21:19 05.01.2023
355 Clouds 7 1027 89 10000 0.89 155 17:39 05.01.2023
356 Clouds 7 1027 89 10000 0.89 155 17:21 05.01.2023
357 Clouds 8 1026 76 10000 0.89 158 15:58 05.01.2023
358 Clouds 8 1026 76 10000 0.89 158 15:58 05.01.2023
359 Clouds 9 1026 72 10000 0.45 314 15:34 05.01.2023
360 Clouds 9 1024 83 10000 0.45 0 13:36 05.01.2023
361 Clouds 8 1026 83 4343 0.45 120 12:41 05.01.2023
362 Clouds 8 1027 82 9344 2.24 170 11:36 05.01.2023
363 Clouds 7 1026 93 10000 0.45 268 09:43 05.01.2023
364 Clouds 7 1025 95 10000 0.45 170 08:22 05.01.2023
365 Clouds 7 1025 95 10000 1.34 226 06:49 05.01.2023
366 Clouds 7 1027 89 7244 4.02 176 02:56 05.01.2023
367 Clouds 6 1025 80 10000 1.79 144 22:27 04.01.2023
368 Clouds 7 1027 73 10000 0.89 189 21:31 04.01.2023
369 Clouds 6 1025 85 10000 0.45 298 20:21 04.01.2023
370 Clouds 6 1028 72 10000 3.03 221 19:45 04.01.2023
371 Clouds 7 1028 65 10000 2.88 215 19:27 04.01.2023
372 Clouds 7 1029 74 10000 0.89 149 18:18 04.01.2023
373 Clouds 8 1028 62 10000 1.79 176 16:30 04.01.2023
374 Clouds 7 1031 50 10000 1.9 253 14:50 04.01.2023
375 Clouds 6 1030 81 10000 1.93 257 12:19 04.01.2023
376 Clouds 6 1033 66 10000 0.45 356 11:23 04.01.2023
377 Clouds 5 1030 68 10000 2.06 229 10:44 04.01.2023
378 Clouds 4 1031 91 10000 2.19 208 10:24 04.01.2023
379 Clouds 3 1032 91 10000 2.58 193 09:24 04.01.2023
380 Clouds 3 1032 91 10000 2.52 182 05:38 04.01.2023
381 Clouds 3 1032 91 10000 1.53 203 01:20 04.01.2023
382 Clouds 3 1029 94 10000 1.02 205 23:37 03.01.2023
383 Clouds 3 1029 94 10000 0.89 229 22:55 03.01.2023
384 Clouds 4 1029 95 10000 0.45 215 21:37 03.01.2023
385 Clouds 4 1029 94 10000 0.62 232 20:28 03.01.2023
386 Clouds 5 1029 96 143 1.34 178 18:22 03.01.2023
387 Rain 6 1028 96 166 0.89 305 16:39 03.01.2023
388 Clouds 5 1030 95 324 0.89 350 14:21 03.01.2023
389 Clouds 5 1031 97 291 1.34 23 13:32 03.01.2023
390 Clouds 5 1031 97 291 1.34 23 13:32 03.01.2023
391 Clouds 5 1031 95 297 1.34 23 12:58 03.01.2023
392 Clouds 5 1031 97 297 0.45 339 12:31 03.01.2023
393 Clouds 6 1031 96 487 0.45 58 11:41 03.01.2023
394 Clouds 5 1030 93 364 0.45 173 08:23 03.01.2023
395 Clouds 5 1030 91 593 1.24 347 04:26 03.01.2023
396 Clouds 5 1030 91 593 0.89 185 03:46 03.01.2023
397 Clouds 5 1030 91 1590 0.89 185 03:26 03.01.2023
398 Clouds 6 1028 76 10000 0.89 160 22:46 02.01.2023
399 Clouds 6 1028 76 10000 0.89 160 22:24 02.01.2023
400 Clouds 8 1027 67 10000 1.34 165 20:46 02.01.2023
401 Clouds 8 1027 67 10000 1.34 165 20:26 02.01.2023
402 Clouds 9 1026 59 10000 0.89 177 18:26 02.01.2023
403 Clouds 10 1025 50 10000 0.45 189 15:31 02.01.2023
404 Clouds 12 1020 47 10000 0.45 63 13:39 02.01.2023
405 Clouds 11 1022 69 10000 2.36 189 12:18 02.01.2023
406 Clouds 10 1023 68 10000 3.23 175 10:53 02.01.2023
407 Clouds 8 1020 54 10000 0.45 99 07:39 02.01.2023
408 Clouds 6 1021 72 10000 0.45 274 02:48 02.01.2023
409 Clouds 7 1025 75 10000 3.86 168 22:41 01.01.2023
410 Clouds 7 1025 76 10000 3.64 169 21:39 01.01.2023
411 Clouds 6 1022 84 10000 1.79 185 20:48 01.01.2023
412 Clouds 6 1022 84 10000 1.79 185 19:49 01.01.2023
413 Clouds 7 1023 78 10000 1.79 203 18:39 01.01.2023
414 Clouds 10 1024 67 10000 1.34 204 17:23 01.01.2023
415 Clouds 12 1024 58 10000 0.89 219 16:34 01.01.2023
416 Clouds 14 1023 52 10000 0.89 247 15:27 01.01.2023
417 Clouds 14 1023 50 10000 1.34 18 13:41 01.01.2023
418 Clear 12 1023 64 10000 2.08 173 12:41 01.01.2023
419 Clear 10 1024 75 10000 0.45 234 11:39 01.01.2023
420 Clear 10 1025 73 10000 2.77 174 10:47 01.01.2023
421 Clear 6 1027 75 10000 3.4 165 08:59 01.01.2023
422 Clear 6 1027 75 10000 3.37 164 08:23 01.01.2023
423 Clouds 5 1027 75 10000 3.16 173 07:27 01.01.2023
424 Clouds 5 1022 87 10000 0.45 233 03:47 01.01.2023
425 Clouds 7 1024 83 10000 3.53 165 23:44 31.12.2022
426 Clouds 7 1024 61 10000 3.68 165 22:35 31.12.2022
427 Clouds 7 1022 83 10000 1.34 140 21:41 31.12.2022
428 Clouds 7 1022 83 10000 1.34 140 21:19 31.12.2022
429 Clouds 8 1020 80 10000 0.89 336 19:42 31.12.2022
430 Clouds 9 1020 79 10000 2.24 211 18:45 31.12.2022
431 Clouds 9 1020 79 10000 2.24 211 18:19 31.12.2022
432 Clouds 10 1020 78 10000 2.95 167 17:48 31.12.2022
433 Clouds 11 1020 76 10000 2.82 168 16:59 31.12.2022
434 Clouds 11 1021 74 10000 2.65 169 16:29 31.12.2022
435 Clouds 15 1021 49 10000 1.79 185 14:45 31.12.2022
436 Clouds 16 1022 49 10000 5.36 166 13:44 31.12.2022
437 Clouds 15 1022 55 10000 0.45 205 12:40 31.12.2022
438 Clouds 15 1023 56 10000 0.45 158 12:20 31.12.2022
439 Clouds 14 1023 62 10000 3.58 180 11:50 31.12.2022
440 Clouds 11 1022 88 10000 1.34 190 10:37 31.12.2022
441 Clouds 11 1023 75 10000 1.34 190 09:55 31.12.2022
442 Clouds 9 1022 88 10000 2.78 174 09:35 31.12.2022
443 Clouds 9 1022 88 10000 1.34 140 07:49 31.12.2022
444 Clouds 9 1022 74 10000 3.13 183 00:43 31.12.2022
445 Clouds 9 1019 77 10000 5.36 170 23:47 30.12.2022
446 Rain 9 1019 75 10000 1.79 167 22:50 30.12.2022
447 Clouds 9 1018 75 10000 2.68 191 21:45 30.12.2022
448 Clouds 9 1018 75 10000 2.68 191 21:26 30.12.2022
449 Rain 7 1018 78 10000 2.24 182 18:59 30.12.2022
450 Rain 7 1016 88 10000 1.34 179 17:51 30.12.2022
451 Rain 7 1015 87 10000 2.61 182 17:32 30.12.2022
452 Rain 8 1014 80 10000 2.27 175 15:57 30.12.2022
453 Clouds 8 1015 66 10000 1.34 180 14:38 30.12.2022
454 Clouds 3 1019 93 10000 0.45 322 10:25 30.12.2022
455 Clouds 3 1017 94 10000 0.89 180 08:21 30.12.2022
456 Rain 3 1017 88 10000 0.89 296 03:39 30.12.2022
457 Rain 4 1016 86 10000 0.89 149 01:53 30.12.2022
458 Clouds 3 1015 85 10000 0.89 201 22:54 29.12.2022
459 Clouds 4 1015 82 10000 2.71 176 21:31 29.12.2022
460 Clouds 4 1015 82 10000 2.49 180 20:54 29.12.2022
461 Clouds 5 1015 81 10000 0.45 159 20:25 29.12.2022
462 Clouds 5 1018 81 10000 2.79 170 18:30 29.12.2022
463 Clouds 5 1018 79 10000 2.93 170 17:32 29.12.2022
464 Rain 4 1018 91 10000 3.12 171 16:55 29.12.2022
465 Clouds 7 1017 72 10000 2 190 16:21 29.12.2022
466 Clouds 9 1016 51 10000 1.41 194 15:29 29.12.2022
467 Clouds 11 1016 50 10000 1.29 187 13:33 29.12.2022
468 Clouds 4 1016 79 10000 2.7 168 11:28 29.12.2022
469 Clouds 2 1015 81 10000 1.34 204 07:43 29.12.2022
470 Clouds 2 1017 85 10000 0.89 165 23:45 28.12.2022
471 Clouds 2 1017 84 10000 0.89 165 23:26 28.12.2022
472 Clouds 2 1018 87 10000 0.45 207 21:21 28.12.2022
473 Clouds 3 1018 86 10000 0.45 244 20:24 28.12.2022
474 Clouds 3 1021 77 10000 1.34 183 19:23 28.12.2022
475 Clouds 4 1018 87 10000 0.45 48 16:56 28.12.2022
476 Clouds 6 1021 52 10000 0.89 176 14:38 28.12.2022
477 Clouds 6 1022 60 10000 1.27 217 12:54 28.12.2022
478 Clouds 4 1023 69 10000 0.45 82 11:52 28.12.2022
479 Clouds 3 1029 76 10000 0.45 148 10:37 28.12.2022
480 Clouds 0 1025 84 10000 0.89 150 07:51 28.12.2022
481 Clouds 0 1026 88 10000 0.89 130 06:48 28.12.2022
482 Clouds 1 1028 92 10000 0.89 157 03:43 28.12.2022
483 Clouds 0 1028 91 10000 1.34 170 23:22 27.12.2022
484 Clouds 3 1029 89 10000 0.89 152 19:53 27.12.2022
485 Clouds 3 1029 89 10000 0.89 152 19:20 27.12.2022
486 Clouds 3 1034 89 10000 0.45 162 17:20 27.12.2022
487 Clouds 4 1030 87 10000 1.5 179 16:35 27.12.2022
488 Clouds 6 1027 79 10000 0.45 244 14:55 27.12.2022
489 Clouds 4 1028 90 10000 0.45 196 12:28 27.12.2022
490 Clouds 4 1028 93 10000 0.89 186 10:37 27.12.2022
491 Clouds 3 1027 93 10000 1.34 136 09:45 27.12.2022
492 Clouds 3 1030 92 10000 1.34 136 09:22 27.12.2022
493 Clouds 3 1033 92 64 0.45 100 06:48 27.12.2022
494 Rain 5 1027 92 136 1.85 246 00:43 27.12.2022
495 Rain 6 1024 85 6508 1.79 218 22:20 26.12.2022
496 Rain 5 1025 87 2138 3.13 185 20:46 26.12.2022
497 Rain 5 1025 87 603 3.13 185 20:18 26.12.2022
498 Rain 5 1025 92 197 1.79 135 18:43 26.12.2022
499 Rain 6 1024 90 3413 0.89 292 17:26 26.12.2022
500 Rain 7 1025 83 10000 0.45 29 15:42 26.12.2022
501 Clouds 11 1020 60 10000 2.24 165 12:59 26.12.2022
502 Clouds 10 1021 62 10000 3.13 173 11:45 26.12.2022
503 Clouds 3 1019 92 10000 0.89 233 05:47 26.12.2022
504 Clouds 4 1019 92 10000 0.89 217 23:43 25.12.2022
505 Clouds 4 1019 93 10000 0.89 217 22:56 25.12.2022
506 Clear 4 1019 93 10000 0.89 133 22:26 25.12.2022
507 Clear 4 1018 93 10000 0.45 336 19:58 25.12.2022
508 Clear 6 1017 94 10000 0.89 215 17:52 25.12.2022
509 Clear 7 1017 92 10000 0.45 238 17:34 25.12.2022
510 Clear 9 1016 89 10000 0.89 226 16:47 25.12.2022
511 Clouds 13 1016 74 10000 0.45 85 14:26 25.12.2022
512 Clouds 9 1018 87 10000 0.89 141 11:47 25.12.2022
513 Clouds 6 1020 94 10000 0.45 154 06:18 25.12.2022
514 Clouds 5 1019 98 10000 2.07 167 22:56 24.12.2022
515 Clouds 5 1021 95 7634 1.79 169 19:54 24.12.2022
516 Clouds 5 1020 93 960 0.45 210 17:35 24.12.2022
517 Rain 6 1020 92 981 0.56 193 15:38 24.12.2022
518 Clouds 6 1021 91 690 0.45 65 14:30 24.12.2022
519 Clouds 5 1020 92 160 0.45 75 12:20 24.12.2022
520 Rain 4 1019 93 177 3.13 181 10:23 24.12.2022
521 Rain 5 1019 93 177 0.45 185 09:37 24.12.2022
522 Rain 5 1018 92 168 1.34 209 08:36 24.12.2022
523 Rain 8 1016 83 10000 5.36 186 02:52 24.12.2022
524 Rain 8 1015 83 3873 2.68 348 00:29 24.12.2022
525 Rain 8 1016 86 10000 3.13 122 22:30 23.12.2022
526 Rain 9 1014 90 10000 1.79 79 21:37 23.12.2022
527 Rain 8 1013 94 3799 1.79 110 19:40 23.12.2022
528 Rain 8 1013 93 3321 1.79 110 19:22 23.12.2022
529 Rain 8 1013 93 10000 4.92 164 18:53 23.12.2022
530 Rain 8 1013 93 10000 4.92 164 18:22 23.12.2022
531 Rain 8 1013 93 10000 0.89 243 17:43 23.12.2022
532 Rain 8 1012 92 10000 4.02 173 15:45 23.12.2022
533 Rain 8 1014 94 4015 2.68 175 12:53 23.12.2022
534 Rain 8 1013 95 5169 2.24 170 09:53 23.12.2022
535 Rain 8 1013 95 5169 2.24 170 09:34 23.12.2022
536 Clouds 7 1013 94 10000 0.89 98 07:29 23.12.2022
537 Rain 7 1013 94 10000 0.45 170 06:49 23.12.2022
538 Rain 5 1013 85 10000 2.68 173 23:36 22.12.2022
539 Rain 5 1013 85 9938 2.68 173 23:18 22.12.2022
540 Rain 5 1014 86 10000 1.79 179 21:49 22.12.2022
541 Clouds 5 1014 84 10000 1.34 256 19:47 22.12.2022
542 Clouds 5 1014 84 10000 1.34 256 19:18 22.12.2022
543 Clouds 5 1019 83 10000 2.96 184 17:59 22.12.2022
544 Clouds 6 1019 82 10000 0.89 194 16:48 22.12.2022
545 Clouds 8 1016 69 5875 1.34 341 15:38 22.12.2022
546 Clouds 9 1014 64 6867 1.34 341 15:18 22.12.2022
547 Rain 10 1013 66 8135 1.34 53 14:18 22.12.2022
548 Clouds 9 1014 70 10000 0.45 84 13:19 22.12.2022
549 Clouds 7 1015 76 9530 3.58 147 11:36 22.12.2022
550 Clouds 5 1013 90 10000 1.34 131 10:31 22.12.2022
551 Clouds 4 1014 93 10000 1.79 210 09:22 22.12.2022
552 Clouds 4 1015 90 10000 1.79 212 08:35 22.12.2022
553 Clouds 4 1015 91 10000 0.89 156 07:24 22.12.2022
554 Clouds 4 1016 90 10000 3.58 182 04:18 22.12.2022
555 Clouds 4 1017 89 10000 0.89 139 00:25 22.12.2022
556 Clouds 4 1018 94 10000 1.34 164 22:26 21.12.2022
557 Clouds 4 1018 93 10000 0.45 230 21:24 21.12.2022
558 Clouds 4 1018 95 10000 0.45 230 20:54 21.12.2022
559 Clouds 4 1019 95 10000 1.34 149 20:29 21.12.2022
560 Clouds 5 1018 92 10000 0.45 204 19:44 21.12.2022
561 Clouds 5 1018 92 10000 0.45 204 19:25 21.12.2022
562 Clouds 5 1018 93 9085 1.34 208 18:47 21.12.2022
563 Clouds 5 1018 95 10000 1.34 208 17:49 21.12.2022
564 Clouds 6 1018 89 10000 0.89 71 14:59 21.12.2022
565 Clouds 6 1018 86 10000 0.89 131 13:41 21.12.2022
566 Clouds 6 1022 88 10000 1.89 202 11:48 21.12.2022
567 Clouds 7 1022 85 10000 2.07 200 11:20 21.12.2022
568 Rain 5 1019 86 10000 0.45 216 09:50 21.12.2022
569 Rain 5 1019 81 10000 0.45 261 07:48 21.12.2022
570 Clouds 4 1017 85 10000 0.45 247 03:48 21.12.2022
571 Clouds 3 1017 89 10000 0.45 213 23:21 20.12.2022
572 Clouds 3 1018 90 10000 1.34 139 21:23 20.12.2022
573 Clouds 3 1018 93 10000 0.89 102 20:24 20.12.2022
574 Clouds 6 1022 73 10000 0.45 154 19:41 20.12.2022
575 Clouds 5 1020 81 10000 0.89 105 18:37 20.12.2022
576 Clouds 5 1020 81 10000 0.89 105 18:19 20.12.2022
577 Clouds 5 1020 81 10000 0.45 78 17:46 20.12.2022
578 Clouds 3 1021 91 10000 3.3 157 16:35 20.12.2022
579 Clouds 5 1020 67 10000 2.98 158 15:30 20.12.2022
580 Clouds 10 1020 44 10000 2.59 157 14:47 20.12.2022
581 Clouds 11 1020 44 10000 2.34 170 14:28 20.12.2022
582 Rain 12 1021 44 10000 0.45 108 12:58 20.12.2022
583 Clouds 12 1021 44 10000 0.45 108 12:28 20.12.2022
584 Clouds 9 1023 48 10000 0.89 183 11:33 20.12.2022
585 Clouds 3 1024 91 10000 3.01 163 08:48 20.12.2022
586 Clouds 3 1025 91 10000 2.6 158 01:20 20.12.2022
587 Clouds 2 1027 91 10000 2.75 159 22:39 19.12.2022
588 Clouds 3 1027 91 10000 2.81 160 21:45 19.12.2022
589 Clouds 5 1029 66 10000 0.45 322 19:57 19.12.2022
590 Clouds 5 1029 66 10000 0.45 322 19:39 19.12.2022
591 Clouds 2 1025 94 10000 2.85 174 18:33 19.12.2022
592 Clouds 3 1027 91 10000 2.73 175 16:47 19.12.2022
593 Clouds 9 1027 50 10000 2.72 157 13:28 19.12.2022
594 Clouds 4 1026 66 10000 2.49 162 11:56 19.12.2022
595 Clouds 10 1028 49 10000 0.45 144 10:41 19.12.2022
596 Clouds 5 1030 60 10000 2.24 164 07:41 19.12.2022
597 Snow 1 1028 91 10000 3.31 168 03:31 19.12.2022
598 Clouds -3 1025 92 10000 0.89 212 22:33 18.12.2022
599 Clouds -4 1031 47 10000 3.58 160 21:43 18.12.2022
600 Clouds -5 1031 49 10000 3.48 163 21:21 18.12.2022
601 Clouds -5 1031 50 10000 3.44 164 19:50 18.12.2022
602 Clouds -5 1031 50 10000 3.44 164 19:31 18.12.2022
603 Clouds -6 1030 54 10000 3.5 163 17:53 18.12.2022
604 Clouds 1 1031 91 10000 3.34 164 16:32 18.12.2022
605 Clouds 4 1029 52 10000 0.45 141 15:40 18.12.2022
606 Clouds 5 1029 51 10000 0.45 141 15:19 18.12.2022
607 Clouds 5 1030 52 10000 1.34 166 13:40 18.12.2022
608 Clear 5 1030 23 10000 0.45 152 12:53 18.12.2022
609 Clear 5 1030 53 10000 0.45 152 12:19 18.12.2022
610 Clear 3 1031 54 10000 0.89 158 10:22 18.12.2022
611 Clear -8 1031 49 10000 3.11 163 08:47 18.12.2022
612 Clear -11 1031 50 10000 3.26 165 07:21 18.12.2022
613 Clear -10 1031 50 10000 3.14 167 06:21 18.12.2022
614 Clear -11 1031 52 10000 3.04 166 03:40 18.12.2022
615 Clouds -5 1031 75 10000 0.89 151 00:34 18.12.2022
616 Clouds -6 1032 90 10000 0.45 165 21:54 17.12.2022
617 Clear -6 1027 91 10000 0.45 212 19:27 17.12.2022
618 Clear -5 1026 90 10000 0.45 242 16:49 17.12.2022
619 Clear -2 1021 85 10000 1.34 346 14:31 17.12.2022
620 Clouds -2 1020 89 10000 0.63 60 11:39 17.12.2022
621 Clouds -4 1020 93 10000 0.41 82 10:47 17.12.2022
622 Clouds -6 1029 93 10000 0.45 160 09:46 17.12.2022
623 Clouds -6 1027 92 10000 2.15 163 07:48 17.12.2022
624 Clouds -6 1026 92 10000 2.12 164 06:46 17.12.2022
625 Clouds -4 1018 93 933 0.45 78 23:57 16.12.2022
626 Snow -4 1016 94 312 1.34 341 21:34 16.12.2022
627 Snow -3 1015 95 233 1.34 354 19:57 16.12.2022
628 Snow -2 1012 95 126 0.89 320 16:55 16.12.2022
629 Snow -1 1010 96 148 1.34 11 14:49 16.12.2022
630 Snow -1 1009 97 161 0.45 342 13:48 16.12.2022
631 Snow 0 1009 97 176 0.45 12 11:59 16.12.2022
632 Snow -1 1008 97 135 1.34 339 10:22 16.12.2022
633 Snow -1 1005 98 125 0.89 356 09:26 16.12.2022
634 Snow -1 1004 98 122 1.28 304 08:25 16.12.2022
635 Snow -1 1006 95 122 1.28 304 07:53 16.12.2022
636 Clouds 0 999 98 855 0.98 193 23:39 15.12.2022
637 Clouds 0 999 98 3314 0.89 352 22:29 15.12.2022
638 Clouds 1 1000 98 10000 0.45 121 20:40 15.12.2022
639 Snow 2 1001 96 10000 1.47 126 19:37 15.12.2022
640 Snow 2 1001 96 10000 1.75 130 18:25 15.12.2022
641 Snow 2 1001 96 10000 0.45 1 17:26 15.12.2022
642 Rain 3 1004 91 10000 0.45 154 15:36 15.12.2022
643 Clouds 4 1005 89 10000 0.45 3 13:52 15.12.2022
644 Clouds 4 1006 87 10000 0.95 46 12:34 15.12.2022
645 Clouds 3 1007 85 10000 0.89 164 09:42 15.12.2022
646 Clouds 3 1007 90 10000 0.45 102 08:54 15.12.2022
647 Clouds 2 1003 95 10000 0.45 67 06:24 15.12.2022
648 Clouds 2 1002 95 10000 1.52 203 05:18 15.12.2022
649 Clouds 3 1001 95 10000 1.79 134 21:25 14.12.2022
650 Clouds 3 1001 95 10000 1.79 134 20:59 14.12.2022
651 Clouds 3 1001 95 10000 2.45 188 20:31 14.12.2022
652 Clouds 3 1002 94 3129 1.34 180 18:26 14.12.2022
653 Clouds 4 1000 89 10000 1.79 181 16:57 14.12.2022
654 Rain 5 999 88 9920 1.79 181 15:40 14.12.2022
655 Rain 4 999 88 10000 0.89 235 14:22 14.12.2022
656 Rain 4 999 82 10000 0.89 160 12:21 14.12.2022
657 Rain 4 999 87 10000 0.89 184 10:36 14.12.2022
658 Rain 2 1000 91 10000 1.34 134 08:54 14.12.2022
659 Clouds -4 1006 81 10000 2.25 150 23:22 13.12.2022
660 Snow -1 1008 93 10000 2.13 153 21:49 13.12.2022
661 Clouds -2 1008 93 1898 2.19 158 21:19 13.12.2022
662 Snow -5 1007 91 1898 2.19 158 20:46 13.12.2022
663 Clouds -3 1010 92 10000 1.83 159 17:55 13.12.2022
664 Clouds -3 1009 84 10000 0.38 133 15:58 13.12.2022
665 Clouds -2 1009 76 10000 0.43 21 14:52 13.12.2022
666 Clouds -2 1009 49 10000 0.82 160 12:27 13.12.2022
667 Clouds -3 1010 51 10000 0.45 150 10:36 13.12.2022
668 Clouds -4 1011 50 10000 0.45 191 09:43 13.12.2022
669 Clouds -7 1011 57 10000 0.89 93 07:43 13.12.2022
670 Clear -8 1016 72 10000 1.79 135 22:23 12.12.2022
671 Clear -7 1016 76 10000 1.34 174 21:27 12.12.2022
672 Clear -9 1013 80 10000 0.89 167 19:28 12.12.2022
673 Clouds -8 1013 83 10000 0.45 233 17:21 12.12.2022
674 Clouds -4 1008 70 10000 0.45 240 15:22 12.12.2022
675 Clouds -4 1008 70 10000 0.45 240 15:22 12.12.2022
676 Clouds -5 1009 76 10000 0.94 331 12:24 12.12.2022
677 Clouds -10 1014 83 10000 0.45 139 09:19 12.12.2022
678 Clouds -12 1008 83 10000 2.19 171 04:55 12.12.2022
679 Clear -10 1015 55 10000 2.32 167 03:21 12.12.2022
680 Clear -11 1007 88 10000 2.34 165 22:54 11.12.2022
681 Clear -8 1011 88 10000 2.19 166 20:48 11.12.2022
682 Clouds -8 1011 87 10000 2.06 176 19:48 11.12.2022
683 Clouds -8 1011 87 10000 2.06 176 19:30 11.12.2022
684 Clouds -7 1016 89 10000 1.46 186 18:18 11.12.2022
685 Clouds -6 1011 87 10000 0.45 205 17:31 11.12.2022
686 Clouds -6 1011 86 10000 0.45 205 16:52 11.12.2022
687 Clouds -5 1010 84 10000 0.45 358 15:47 11.12.2022
688 Clouds -4 1010 84 10000 0.45 358 14:50 11.12.2022
689 Clouds -4 1010 84 10000 1.57 333 12:44 11.12.2022
690 Clouds -3 1007 83 10000 1.47 341 11:53 11.12.2022
691 Clouds -6 1015 91 1325 1.09 330 08:25 11.12.2022
692 Snow -4 1010 93 392 0.45 280 00:34 11.12.2022
693 Snow -4 1011 94 203 0.45 317 22:54 10.12.2022
694 Snow -4 1011 94 203 0.45 317 22:33 10.12.2022
695 Snow -4 1010 94 187 0.45 342 21:19 10.12.2022
696 Snow -3 1010 94 223 0.89 348 20:26 10.12.2022
697 Snow -3 1009 95 173 1.34 347 18:46 10.12.2022
698 Snow -2 1008 95 110 2.24 360 16:48 10.12.2022
699 Snow -2 1007 95 112 2.24 360 15:58 10.12.2022
700 Clouds -1 1007 95 112 1.34 329 15:37 10.12.2022
701 Snow -1 1004 96 133 2.24 339 14:21 10.12.2022
702 Snow -1 1005 95 145 0.89 353 12:49 10.12.2022
703 Clouds -1 1003 96 146 1.34 348 11:35 10.12.2022
704 Clouds -1 1003 96 141 1.34 6 10:34 10.12.2022
705 Snow -1 1005 95 120 0.45 323 08:37 10.12.2022
706 Snow -1 1004 95 116 0.89 51 07:19 10.12.2022
707 Clouds 0 1004 89 495 0.09 212 23:56 09.12.2022
708 Clouds 1 1004 89 656 0.34 166 22:44 09.12.2022
709 Clouds 0 1003 88 2835 0.89 339 21:48 09.12.2022
710 Clouds 0 1006 89 1478 0.46 203 21:21 09.12.2022
711 Clouds 0 1005 88 1478 0.45 7 20:41 09.12.2022
712 Clouds 0 1002 86 321 0.89 3 18:40 09.12.2022
713 Clouds 0 1002 85 333 0.45 355 17:45 09.12.2022
714 Clouds 1 1001 82 626 0.45 35 16:30 09.12.2022
715 Snow 1 1001 81 1189 0.45 75 15:33 09.12.2022
716 Snow 1 1001 71 1504 0.81 319 14:25 09.12.2022
717 Snow 1 1005 53 10000 0.45 200 10:52 09.12.2022
718 Snow 0 1005 53 10000 0.45 200 10:29 09.12.2022
719 Snow 0 1005 66 10000 0.45 169 08:23 09.12.2022
720 Clouds -2 1007 63 10000 1.94 147 03:18 09.12.2022
721 Clouds -3 1006 87 10000 2.64 162 23:36 08.12.2022
722 Clouds -3 1009 88 10000 0.89 145 20:56 08.12.2022
723 Clear -3 1009 88 10000 0.89 145 20:20 08.12.2022
724 Clear -1 1010 84 10000 0.89 168 16:51 08.12.2022
725 Clear 3 1007 69 10000 0.89 150 14:43 08.12.2022
726 Clear 3 1007 69 10000 0.89 150 14:20 08.12.2022
727 Clear 0 1009 71 10000 2.24 146 10:49 08.12.2022
728 Clear 0 1009 76 10000 0.89 213 09:34 08.12.2022
729 Clear -2 1017 87 10000 0.45 27 08:28 08.12.2022
730 Clouds -1 1018 94 10000 0.45 157 22:44 07.12.2022
731 Clouds -1 1018 94 10000 0.45 157 22:18 07.12.2022
732 Clouds -1 1019 94 10000 1.85 164 21:47 07.12.2022
733 Clouds -1 1019 94 10000 1.77 171 20:35 07.12.2022
734 Clouds 0 1016 91 10000 0.45 33 18:41 07.12.2022
735 Clouds 0 1016 91 10000 0.89 329 15:53 07.12.2022
736 Clouds 0 1016 91 10000 0.89 329 15:53 07.12.2022
737 Clouds 0 1017 91 10000 1.34 354 14:30 07.12.2022
738 Clouds 0 1018 93 10000 1.34 2 11:36 07.12.2022
739 Clouds 0 1018 93 10000 1.2 307 10:30 07.12.2022
740 Clouds -1 1018 93 10000 0.45 350 09:32 07.12.2022
741 Clouds -1 1018 92 10000 0.45 77 08:36 07.12.2022
742 Clouds -1 1018 91 10000 0.45 167 05:26 07.12.2022
743 Clouds -1 1018 91 10000 1.59 196 02:58 07.12.2022
744 Clouds 0 1018 87 10000 0.45 126 22:18 06.12.2022
745 Clouds 0 1018 84 10000 0.89 151 19:38 06.12.2022
746 Clouds 1 1018 76 10000 1.15 182 17:20 06.12.2022
747 Clouds 2 1017 75 10000 1.79 167 16:30 06.12.2022
748 Clouds 3 1017 71 10000 0.45 60 15:37 06.12.2022
749 Clouds 3 1017 74 10000 0.89 277 14:40 06.12.2022
750 Clouds 3 1017 75 10000 0.89 277 14:19 06.12.2022
751 Clouds 4 1020 73 10000 1.34 155 12:42 06.12.2022
752 Clouds 3 1020 71 10000 1.34 187 11:59 06.12.2022
753 Clouds -2 1020 77 10000 1.34 148 07:51 06.12.2022
754 Clear -2 1020 88 10000 1.34 165 03:26 06.12.2022
755 Clouds 0 1021 87 10000 2.68 179 23:45 05.12.2022
756 Clouds 0 1021 91 10000 0.89 221 21:56 05.12.2022
757 Clouds 0 1021 89 10000 0.89 180 20:54 05.12.2022
758 Clouds 0 1021 89 10000 0.89 180 20:22 05.12.2022
759 Clouds 0 1021 86 10000 1.34 169 19:36 05.12.2022
760 Clouds 0 1024 86 10000 1.63 176 16:55 05.12.2022
761 Snow 1 1024 88 2031 1.79 179 15:31 05.12.2022
762 Snow 1 1021 94 1432 1.63 257 14:52 05.12.2022
763 Snow 1 1020 91 1345 1.99 299 12:58 05.12.2022
764 Clouds 1 1020 91 1345 1.99 299 12:38 05.12.2022
765 Clouds 2 1018 86 1942 1.88 299 11:43 05.12.2022
766 Clouds 1 1020 90 836 1.34 173 09:23 05.12.2022
767 Clouds 0 1012 96 10000 0.45 178 00:19 05.12.2022
768 Clouds 1 1012 94 10000 0.45 296 22:44 04.12.2022
769 Clouds 0 1012 95 10000 0.45 296 22:19 04.12.2022
770 Clouds 0 1011 95 10000 2.16 165 21:39 04.12.2022
771 Clouds 1 1011 93 10000 1.6 188 20:26 04.12.2022
772 Clouds 1 1010 93 10000 1.14 188 19:24 04.12.2022
773 Clouds 1 1009 92 10000 0.45 232 18:37 04.12.2022
774 Clouds 1 1009 92 10000 1.62 163 17:22 04.12.2022
775 Clouds 2 1010 93 10000 1.62 163 16:37 04.12.2022
776 Clouds 1 1010 93 10000 1.33 255 16:19 04.12.2022
777 Clouds 2 1012 93 10000 1.3 265 15:31 04.12.2022
778 Clouds 3 1012 82 10000 1.36 280 14:32 04.12.2022
779 Clouds 6 1011 74 10000 0.89 343 12:52 04.12.2022
780 Rain 6 1011 74 10000 0.89 343 12:33 04.12.2022
781 Clouds 5 1011 75 10000 0.27 312 11:35 04.12.2022
782 Clouds 2 1011 91 10000 1.78 145 09:19 04.12.2022
783 Clouds -2 1013 76 10000 2.88 155 02:52 04.12.2022
784 Clouds 1 1013 91 10000 3.26 157 23:44 03.12.2022
785 Clouds 1 1013 91 10000 3.24 156 22:47 03.12.2022
786 Clouds 2 1014 91 10000 3.15 155 21:53 03.12.2022
787 Clouds -1 1011 92 10000 0.45 193 20:46 03.12.2022
788 Clouds -1 1014 77 10000 2.79 158 18:57 03.12.2022
789 Clouds -1 1014 77 10000 2.79 158 18:38 03.12.2022
790 Clouds 2 1016 80 10000 0.45 132 15:53 03.12.2022
791 Clouds 2 1012 62 10000 1.3 117 13:50 03.12.2022
792 Clouds 3 1012 56 10000 1.34 126 12:53 03.12.2022
793 Clouds 3 1013 91 10000 1.68 129 12:21 03.12.2022
794 Clouds 2 1020 81 10000 0.89 165 09:47 03.12.2022
795 Clouds -2 1017 89 10000 0.45 167 06:27 03.12.2022
796 Clouds -1 1018 93 10000 0.45 222 00:23 03.12.2022
797 Clouds 0 1018 92 10000 1.91 154 22:19 02.12.2022
798 Clouds 0 1018 91 10000 0.89 159 20:53 02.12.2022
799 Clouds 0 1018 91 10000 0.45 178 18:18 02.12.2022
800 Rain 2 1015 91 10000 0.45 357 15:58 02.12.2022
801 Snow 2 1015 86 10000 1.3 354 14:38 02.12.2022
802 Snow 2 1015 85 10000 1.23 354 14:19 02.12.2022
803 Snow 2 1015 78 10000 0.45 254 12:51 02.12.2022
804 Snow 1 1016 81 10000 0.89 177 11:31 02.12.2022
805 Clouds 0 1019 86 10000 1.2 168 08:19 02.12.2022
806 Clouds 0 1019 87 10000 0.45 183 07:23 02.12.2022
807 Clouds 0 1021 90 10000 0.45 353 22:54 01.12.2022
808 Clouds 0 1021 90 10000 0.45 353 22:54 01.12.2022
809 Clouds 0 1021 90 10000 0.89 325 21:44 01.12.2022
810 Clouds 0 1021 90 10000 0.89 325 21:22 01.12.2022
811 Clouds 1 1021 91 10000 0.45 75 19:19 01.12.2022
812 Clouds 1 1021 90 6032 0.89 327 17:31 01.12.2022
813 Clouds 1 1021 90 10000 1.34 340 14:47 01.12.2022
814 Clouds 1 1021 92 10000 1.34 357 11:23 01.12.2022
815 Clouds 1 1022 93 10000 0.89 353 09:55 01.12.2022
816 Clouds 0 1022 93 10000 0.45 321 09:37 01.12.2022
817 Clouds 0 1021 94 4609 0.67 28 07:18 01.12.2022
818 Clouds 0 1021 95 2502 1.34 356 23:59 30.11.2022
819 Clouds 1 1021 95 3475 0.89 327 22:21 30.11.2022
820 Clouds 1 1021 95 1644 0.45 321 21:19 30.11.2022
821 Clouds 1 1021 95 832 0.45 339 20:25 30.11.2022
822 Snow 1 1020 95 2106 0.89 10 19:35 30.11.2022
823 Clouds 1 1020 95 1151 0.89 3 18:32 30.11.2022
824 Clouds 1 1020 96 1058 1.34 343 17:33 30.11.2022
825 Clouds 2 1020 95 9859 0.89 342 14:46 30.11.2022
826 Clouds 2 1020 95 9859 0.89 342 14:46 30.11.2022
827 Clouds 2 1020 95 4549 0.89 342 14:27 30.11.2022
828 Clouds 2 1020 95 1625 1.79 355 12:29 30.11.2022
829 Clouds 2 1017 94 1391 1 55 09:52 30.11.2022
830 Clouds 2 1020 94 257 0.45 354 08:38 30.11.2022
831 Clouds 2 1020 94 184 0.19 344 06:44 30.11.2022
832 Clouds 2 1019 93 45 0.45 155 23:32 29.11.2022
833 Rain 2 1019 93 35 0.91 285 22:20 29.11.2022
834 Rain 3 1017 93 33 0.45 216 20:52 29.11.2022
835 Rain 3 1016 92 33 0.45 204 20:32 29.11.2022
836 Clouds 4 1016 92 31 0.93 290 18:44 29.11.2022
837 Rain 4 1016 91 28 0.45 51 16:57 29.11.2022
838 Rain 4 1015 92 27 1.34 21 15:38 29.11.2022
839 Rain 4 1015 92 28 0.45 357 14:48 29.11.2022
840 Rain 4 1017 92 31 0.45 11 12:43 29.11.2022
841 Clouds 4 1017 93 38 0.45 345 11:31 29.11.2022
842 Clouds 4 1017 94 47 0.45 11 10:31 29.11.2022
843 Clouds 4 1014 94 50 0.64 308 09:28 29.11.2022
844 Clouds 3 1016 93 50 0.68 314 07:27 29.11.2022
845 Clouds 3 1016 87 75 0.45 185 00:29 29.11.2022
846 Clouds 4 1016 87 84 0.45 139 23:27 28.11.2022
847 Rain 4 1016 85 108 0.45 162 22:22 28.11.2022
848 Rain 4 1015 83 108 0.45 189 21:43 28.11.2022
849 Rain 5 1015 82 121 1.79 179 20:30 28.11.2022
850 Clouds 5 1015 79 90 2.24 186 19:37 28.11.2022
851 Clouds 5 1015 77 82 0.45 153 18:28 28.11.2022
852 Clouds 5 1015 75 79 0.55 189 17:23 28.11.2022
853 Clouds 6 1017 54 361 0.18 195 14:57 28.11.2022
854 Clouds 6 1017 67 2799 0.45 188 13:56 28.11.2022
855 Clouds 7 1015 57 10000 0.45 355 13:19 28.11.2022
856 Clouds 6 1016 59 10000 0.89 124 11:36 28.11.2022
857 Rain 4 1015 72 10000 2.68 180 08:26 28.11.2022
858 Rain 3 1015 91 10000 2.3 168 04:57 28.11.2022
859 Rain 3 1015 91 10000 2.3 168 04:38 28.11.2022
860 Rain 3 1017 91 10000 2.14 153 03:22 28.11.2022
861 Clouds 3 1018 91 10000 2.42 172 00:29 28.11.2022
862 Clouds 3 1020 91 10000 2.85 162 22:24 27.11.2022
863 Clouds 3 1020 91 10000 2.9 163 20:49 27.11.2022
864 Clouds 2 1020 83 10000 0.45 210 18:39 27.11.2022
865 Clouds 4 1021 69 10000 1.34 210 16:25 27.11.2022
866 Clear 7 1024 42 10000 0.45 120 13:54 27.11.2022
867 Clouds 6 1028 19 10000 1.79 179 12:24 27.11.2022
868 Clouds 4 1030 51 10000 0.89 154 09:31 27.11.2022
869 Clouds -3 1026 91 10000 0.45 193 07:20 27.11.2022
870 Clouds -1 1031 86 10000 0.89 152 23:23 26.11.2022
871 Clouds 0 1032 90 10000 0.89 212 21:27 26.11.2022
872 Clouds 0 1032 91 10000 0.45 178 19:57 26.11.2022
873 Clouds 1 1032 89 10000 0.45 183 18:41 26.11.2022
874 Clouds 4 1032 84 10000 0.45 136 16:38 26.11.2022
875 Clouds 6 1029 79 10000 1.18 15 14:48 26.11.2022
876 Clouds 6 1028 82 10000 1.34 319 12:51 26.11.2022
877 Clouds 4 1029 92 10000 0.81 103 10:53 26.11.2022
878 Clouds 3 1032 92 10000 0.47 133 09:43 26.11.2022
879 Clouds 2 1031 94 10000 0.45 69 07:48 26.11.2022
880 Clouds 3 1027 92 42 0.89 189 22:43 25.11.2022
881 Clouds 4 1026 94 45 0.45 192 21:34 25.11.2022
882 Clouds 4 1025 92 47 0.78 256 20:20 25.11.2022
883 Rain 5 1024 83 10000 0.89 326 16:51 25.11.2022
884 Clouds 7 1022 71 10000 0.45 44 15:26 25.11.2022
885 Clouds 3 1019 67 10000 1.79 170 09:44 25.11.2022
886 Clouds 0 1017 92 10000 0.45 231 08:43 25.11.2022
887 Clouds 0 1016 91 10000 0.45 214 06:59 25.11.2022
888 Clouds 0 1016 91 10000 0.45 214 06:59 25.11.2022
889 Clouds 1 1019 77 10000 0.89 151 06:40 25.11.2022
890 Clouds 0 1016 93 10000 0.45 209 00:29 25.11.2022
891 Clouds 0 1016 93 10000 0.45 171 22:59 24.11.2022
892 Clouds 1 1016 93 10000 1.34 143 21:59 24.11.2022
893 Clouds 1 1017 93 10000 0.89 211 21:26 24.11.2022
894 Clear 2 1017 92 10000 0.45 233 19:34 24.11.2022
895 Clouds 3 1019 86 10000 1.79 177 17:45 24.11.2022
896 Clouds 3 1019 86 10000 1.79 177 17:21 24.11.2022
897 Clouds 3 1020 90 5928 1.79 158 16:19 24.11.2022
898 Clouds 4 1019 90 94 0.89 225 14:23 24.11.2022
899 Clouds 4 1016 92 7551 2.59 238 12:20 24.11.2022
900 Clouds 4 1017 87 1789 0.89 186 10:37 24.11.2022
901 Clouds 3 1017 89 10000 0.45 148 07:54 24.11.2022
902 Clouds 3 1014 90 10000 0.45 265 03:23 24.11.2022
903 Clouds 3 1013 87 10000 4.02 192 23:46 23.11.2022
904 Clouds 3 1012 93 1860 1.34 329 22:24 23.11.2022
905 Rain 2 1010 92 1860 0.89 144 21:30 23.11.2022
906 Rain 2 1009 88 305 0.89 161 20:45 23.11.2022
907 Rain 3 1006 72 5903 1.34 346 19:27 23.11.2022
908 Rain 2 1003 81 4520 0.89 108 18:41 23.11.2022
909 Clouds 3 1005 65 10000 0.89 167 16:56 23.11.2022
910 Clear 7 1004 58 10000 1.79 148 13:41 23.11.2022
911 Clouds 6 1004 58 10000 1.79 148 13:21 23.11.2022
912 Clouds 6 1004 62 10000 0.45 192 12:21 23.11.2022
913 Clouds 5 1004 72 10000 0.89 157 11:41 23.11.2022
914 Clouds 2 1007 84 10000 0.45 187 10:43 23.11.2022
915 Clouds 1 1007 86 10000 0.45 163 09:44 23.11.2022
916 Clouds 0 1007 87 10000 0.45 163 09:25 23.11.2022
917 Clouds 0 1006 88 10000 0.89 146 08:37 23.11.2022
918 Clouds 2 1009 91 10000 2.17 163 06:23 23.11.2022
919 Clouds 2 1007 89 10000 0.45 174 05:18 23.11.2022
920 Rain 2 1006 92 126 0.89 147 23:24 22.11.2022
921 Rain 2 1006 90 126 0.89 167 22:33 22.11.2022
922 Rain 2 1006 90 114 0.89 217 21:34 22.11.2022
923 Clouds 2 1006 89 270 0.89 217 20:49 22.11.2022
924 Clouds 2 1006 86 256 0.89 235 19:57 22.11.2022
925 Rain 3 1005 88 129 0.89 184 17:56 22.11.2022
926 Rain 3 1005 86 626 0.45 154 17:26 22.11.2022
927 Rain 3 1005 86 626 0.45 154 17:26 22.11.2022
928 Rain 3 1004 81 10000 1.34 161 15:53 22.11.2022
929 Rain 4 1002 89 10000 0.45 241 13:47 22.11.2022
930 Rain 3 1002 94 3103 1.79 142 11:52 22.11.2022
931 Rain 3 1001 94 74 2.24 118 09:25 22.11.2022
932 Rain 3 1002 94 78 0.89 182 07:55 22.11.2022
933 Clouds 2 999 90 10000 0.89 46 01:50 22.11.2022
934 Clouds 2 998 93 10000 1.88 182 23:41 21.11.2022
935 Snow 2 998 93 10000 0.45 158 22:43 21.11.2022
936 Snow 1 998 93 10000 0.45 158 21:59 21.11.2022
937 Clouds 1 998 93 10000 0.45 183 20:53 21.11.2022
938 Clouds 1 1000 92 10000 0.45 184 19:42 21.11.2022
939 Clouds 1 1000 91 10000 0.45 184 18:54 21.11.2022
940 Clouds 2 1001 90 10000 0.45 251 18:25 21.11.2022
941 Clouds 3 1004 77 10000 0.89 167 16:56 21.11.2022
942 Clouds 4 1005 73 10000 0.89 167 16:37 21.11.2022
943 Clouds 4 1005 80 9673 0.45 215 15:50 21.11.2022
944 Clouds 7 1005 73 10000 0.89 232 14:29 21.11.2022
945 Clouds 7 1006 72 10000 0.66 158 13:43 21.11.2022
946 Clouds 4 1009 90 10000 0.89 153 11:38 21.11.2022
947 Rain 2 1011 87 191 2.68 82 09:18 21.11.2022
948 Clouds 2 1009 90 127 0.45 295 07:39 21.11.2022
949 Rain 2 1010 82 1961 0.89 102 22:38 20.11.2022
950 Clouds 2 1010 86 10000 0.89 129 21:36 20.11.2022
951 Clouds 1 1010 86 10000 1.79 205 20:32 20.11.2022
952 Clouds 2 1011 86 10000 0.45 197 18:39 20.11.2022
953 Clouds 5 1011 72 10000 0.45 232 16:32 20.11.2022
954 Clouds 6 1011 67 10000 1.34 207 15:30 20.11.2022
955 Clouds 6 1011 67 9897 1.34 207 14:54 20.11.2022
956 Clouds 6 1013 63 10000 1.81 290 13:34 20.11.2022
957 Clouds 6 1013 66 10000 0.45 89 12:42 20.11.2022
958 Clouds 5 1013 78 10000 0.45 188 11:26 20.11.2022
959 Clouds 4 1013 80 10000 0.45 188 10:49 20.11.2022
960 Clouds 3 1013 84 10000 1.34 129 09:28 20.11.2022
961 Clouds 3 1013 85 10000 1.34 146 08:35 20.11.2022
962 Clouds 3 1013 90 9192 0.45 303 07:30 20.11.2022
963 Clouds 3 1013 90 9192 0.45 303 07:30 20.11.2022
964 Clouds 3 1013 90 9192 0.45 303 07:30 20.11.2022
965 Clouds 3 1012 93 327 0.89 214 04:26 20.11.2022
966 Clouds 3 1012 93 550 0.45 158 01:21 20.11.2022
967 Clouds 3 1014 92 550 0.45 10 00:42 20.11.2022
968 Clouds 3 1014 91 922 0.45 10 00:23 20.11.2022
969 Clouds 3 1014 91 922 0.45 10 23:51 19.11.2022
970 Clouds 3 1014 91 1078 0.45 187 23:24 19.11.2022
971 Rain 3 1014 90 1078 0.45 196 22:39 19.11.2022
972 Clouds 3 1014 89 1633 0.89 337 21:32 19.11.2022
973 Clouds 3 1014 87 2569 0.89 337 20:57 19.11.2022
974 Rain 3 1014 86 2569 0.45 98 20:33 19.11.2022
975 Clouds 4 1013 83 8552 0.89 65 18:57 19.11.2022
976 Clouds 5 1010 76 7195 0.89 172 17:41 19.11.2022
977 Clouds 5 1010 75 10000 0.89 172 17:19 19.11.2022
978 Clouds 7 1009 63 10000 1.34 265 15:41 19.11.2022
979 Clouds 7 1009 65 10000 1.49 313 14:30 19.11.2022
980 Clouds 7 1010 76 10000 0.45 77 11:58 19.11.2022
981 Clouds 3 1012 92 10000 1.34 190 10:40 19.11.2022
982 Clouds 2 1012 93 10000 0.89 226 08:39 19.11.2022
983 Clouds 2 1014 92 10000 2.13 198 04:51 19.11.2022
984 Clouds 2 1010 92 10000 0.89 189 01:55 19.11.2022
985 Clouds 2 1014 92 10000 0.89 178 23:45 18.11.2022
986 Clouds 3 1010 91 10000 0.45 166 22:35 18.11.2022
987 Clouds 3 1010 91 10000 0.89 201 21:37 18.11.2022
988 Rain 3 1010 94 10000 0.89 201 20:59 18.11.2022
989 Rain 3 1010 93 8390 1.34 166 20:26 18.11.2022
990 Clouds 4 1010 92 8390 1.57 212 19:46 18.11.2022
991 Clouds 3 1009 94 316 1.79 187 18:28 18.11.2022
992 Clouds 4 1008 94 337 1.34 145 16:44 18.11.2022
993 Rain 5 1005 89 51 1.34 280 13:40 18.11.2022
994 Rain 5 1005 91 81 0.89 87 11:28 18.11.2022
995 Rain 5 1003 91 132 0.45 84 08:29 18.11.2022
996 Rain 5 1003 92 132 0.89 225 07:40 18.11.2022
997 Rain 5 1003 91 136 0.45 266 05:18 18.11.2022
998 Clouds 6 1001 90 10000 0.89 226 00:42 18.11.2022
999 Clouds 6 1001 87 10000 0.45 158 21:26 17.11.2022
1000 Clouds 6 1001 87 10000 0.45 261 20:29 17.11.2022
1001 Clouds 6 1001 86 10000 0.89 188 19:50 17.11.2022
1002 Clouds 7 1001 83 10000 0.45 234 18:35 17.11.2022
1003 Clouds 9 1001 72 10000 0.45 72 17:32 17.11.2022
1004 Clouds 10 1001 69 10000 2.24 186 16:48 17.11.2022
1005 Clouds 10 1002 66 10000 0.89 172 12:53 17.11.2022
1006 Clouds 10 1001 77 10000 0.45 350 11:21 17.11.2022
1007 Clouds 6 1001 89 10000 0.45 211 08:19 17.11.2022
1008 Rain 3 1001 91 10000 2.65 162 02:35 17.11.2022
1009 Rain 7 1003 50 10000 0.45 170 00:20 17.11.2022
1010 Clouds 3 1003 94 10000 0.45 163 22:28 16.11.2022
1011 Clouds 4 1005 87 10000 1.34 164 20:35 16.11.2022
1012 Clouds 5 1005 88 10000 0.89 166 19:30 16.11.2022
1013 Clouds 6 1006 88 10000 0.45 208 18:35 16.11.2022
1014 Clouds 8 1006 83 10000 0.45 149 16:37 16.11.2022
1015 Clouds 10 1006 79 10000 0.45 126 13:30 16.11.2022
1016 Clouds 7 1007 94 10000 1.34 205 08:45 16.11.2022
1017 Rain 7 1004 85 10000 0.45 126 01:57 16.11.2022
1018 Rain 7 1005 85 10000 0.45 130 01:25 16.11.2022
1019 Clouds 8 1008 75 10000 0.45 109 21:55 15.11.2022
1020 Clouds 8 1009 73 10000 0.45 125 20:32 15.11.2022
1021 Clouds 8 1010 75 10000 0.45 209 19:18 15.11.2022
1022 Clouds 9 1011 70 10000 0.45 238 17:39 15.11.2022
1023 Rain 9 1011 68 10000 0.45 238 16:53 15.11.2022
1024 Rain 10 1011 63 10000 0.45 214 16:18 15.11.2022
1025 Clouds 12 1012 56 10000 0.89 302 14:42 15.11.2022
1026 Clouds 12 1010 56 10000 0.89 354 12:59 15.11.2022
1027 Clouds 10 1013 59 10000 1.34 86 11:29 15.11.2022
1028 Clouds 9 1015 53 10000 0.76 225 10:35 15.11.2022
1029 Clear 2 1015 65 10000 2.43 160 06:33 15.11.2022
1030 Clouds 4 1018 86 10000 2.65 153 00:32 15.11.2022
1031 Clouds 5 1017 87 10000 0.89 220 22:52 14.11.2022
1032 Clouds 6 1017 84 10000 0.45 334 21:18 14.11.2022
1033 Clouds 7 1017 82 10000 1.34 127 20:30 14.11.2022
1034 Clouds 9 1018 70 10000 1.34 177 18:28 14.11.2022
1035 Clouds 11 1018 60 10000 0.45 11 15:40 14.11.2022
1036 Clouds 11 1018 55 10000 1.34 350 11:49 14.11.2022
1037 Clouds 10 1017 62 10000 1.34 12 11:28 14.11.2022
1038 Clouds 10 1017 62 10000 1.34 12 11:28 14.11.2022
1039 Clouds 7 1019 52 10000 0.45 345 08:48 14.11.2022
1040 Clouds 4 1019 81 10000 3.19 162 07:53 14.11.2022
1041 Clouds 8 1019 54 10000 0.45 158 05:46 14.11.2022
1042 Clouds 9 1020 46 10000 0.45 154 23:24 13.11.2022
1043 Clouds 2 1020 73 10000 2.48 172 21:43 13.11.2022
1044 Clouds 2 1020 73 10000 2.48 172 21:43 13.11.2022
1045 Clouds 9 1020 49 10000 0.89 152 20:55 13.11.2022
1046 Clear 2 1019 80 10000 1.81 186 19:24 13.11.2022
1047 Clear 3 1019 93 10000 1.9 175 17:50 13.11.2022
1048 Clear 4 1019 92 10000 1.26 171 16:56 13.11.2022
1049 Clear 17 1017 29 10000 0.4 298 14:54 13.11.2022
1050 Clear 13 1019 31 10000 0.89 164 13:24 13.11.2022
1051 Clear 16 1018 47 10000 0.11 63 12:34 13.11.2022
1052 Clear 11 1022 35 10000 0.45 177 10:42 13.11.2022
1053 Clouds 1 1022 47 10000 1.34 168 06:31 13.11.2022
1054 Clouds 3 1026 52 10000 1.82 159 00:34 13.11.2022
1055 Clouds 4 1028 58 10000 1.77 155 21:59 12.11.2022
1056 Clouds 4 1028 62 10000 1.6 154 21:23 12.11.2022
1057 Clouds 4 1028 66 10000 1.24 167 19:52 12.11.2022
1058 Clouds 8 1028 80 10000 1.02 172 17:33 12.11.2022
1059 Clouds 11 1030 60 10000 1.34 171 16:19 12.11.2022
1060 Clouds 13 1030 54 10000 0.55 45 14:46 12.11.2022
1061 Clouds 14 1033 33 10000 0.89 161 10:39 12.11.2022
1062 Clouds 3 1033 50 10000 2.11 159 08:25 12.11.2022
1063 Clouds 3 1033 54 10000 2.39 167 00:40 12.11.2022
1064 Clouds 4 1033 57 10000 2.58 160 21:31 11.11.2022
1065 Clouds 9 1036 51 10000 0.45 164 20:44 11.11.2022
1066 Clouds 9 1036 51 10000 0.45 164 20:44 11.11.2022
1067 Clouds 5 1033 87 10000 2.2 159 19:28 11.11.2022
1068 Clouds 7 1032 82 10000 0.45 157 18:41 11.11.2022
1069 Clouds 8 1032 81 10000 1.85 150 17:41 11.11.2022
1070 Clouds 12 1034 57 10000 0.81 96 15:30 11.11.2022
1071 Clouds 14 1033 44 10000 0.89 166 14:18 11.11.2022
1072 Clouds 12 1035 38 10000 0.89 172 12:46 11.11.2022
1073 Clouds 10 1036 41 10000 0.45 144 09:32 11.11.2022
1074 Clouds 10 1036 41 10000 0.45 144 09:32 11.11.2022
1075 Clouds 9 1036 37 10000 0.45 154 08:27 11.11.2022
1076 Clouds 4 1032 60 10000 2.44 150 00:40 11.11.2022
1077 Clouds 4 1033 93 10000 2.67 154 22:54 10.11.2022
1078 Clouds 5 1035 91 10000 0.89 153 21:51 10.11.2022
1079 Clouds 5 1035 91 10000 0.89 153 21:28 10.11.2022
1080 Clouds 6 1035 91 10000 0.89 163 20:46 10.11.2022
1081 Clouds 6 1035 90 10000 0.89 163 20:19 10.11.2022
1082 Clouds 7 1034 89 10000 1.77 154 18:59 10.11.2022
1083 Clouds 8 1028 85 10000 1.34 229 17:44 10.11.2022
1084 Clouds 11 1028 74 10000 0.47 76 16:25 10.11.2022
1085 Clouds 12 1027 68 10000 0.45 297 13:37 10.11.2022
1086 Clouds 9 1026 91 10000 0.61 221 10:26 10.11.2022
1087 Clouds 7 1027 95 10000 1.34 171 08:21 10.11.2022
1088 Rain 9 1021 96 4490 0.45 209 01:23 10.11.2022
1089 Rain 8 1022 95 5412 0.18 191 23:21 09.11.2022
1090 Rain 8 1021 94 3595 1.34 213 21:57 09.11.2022
1091 Rain 9 1020 91 4560 0.45 212 20:46 09.11.2022
1092 Rain 9 1020 91 4465 0.45 212 20:28 09.11.2022
1093 Rain 9 1021 84 5020 1.79 168 19:26 09.11.2022
1094 Rain 10 1018 71 10000 0.45 352 17:50 09.11.2022
1095 Clouds 13 1016 56 10000 0.45 346 14:59 09.11.2022
1096 Clouds 14 1016 54 10000 0.89 348 14:41 09.11.2022
1097 Clouds 14 1016 54 10000 0.89 348 14:22 09.11.2022
1098 Clouds 14 1016 54 10000 2.68 351 12:57 09.11.2022
1099 Clouds 10 1020 64 10000 0.89 152 09:45 09.11.2022
1100 Clouds 6 1017 69 10000 2.39 177 07:47 09.11.2022
1101 Clouds 5 1017 74 10000 2.61 170 06:55 09.11.2022
1102 Clouds 5 1016 77 10000 0.89 119 22:50 08.11.2022
1103 Clouds 6 1016 74 10000 0.89 242 21:43 08.11.2022
1104 Clouds 6 1016 74 10000 0.89 242 21:21 08.11.2022
1105 Clouds 7 1016 70 10000 2.93 162 20:36 08.11.2022
1106 Clouds 7 1016 71 10000 1.79 151 19:35 08.11.2022
1107 Clouds 10 1015 64 10000 1.34 206 17:38 08.11.2022
1108 Clouds 14 1016 35 10000 0.89 227 15:50 08.11.2022
1109 Clouds 15 1016 30 10000 1.79 182 14:51 08.11.2022
1110 Clouds 15 1017 40 10000 0.45 47 13:34 08.11.2022
1111 Clouds 13 1016 47 10000 0.89 33 11:55 08.11.2022
1112 Clouds 5 1017 50 10000 2.98 163 08:25 08.11.2022
1113 Clouds 4 1018 51 10000 3.12 162 06:29 08.11.2022
1114 Clouds 5 1023 85 10000 2.9 160 23:52 07.11.2022
1115 Clouds 5 1023 84 10000 0.45 139 22:21 07.11.2022
1116 Clouds 5 1021 84 10000 0.45 217 20:59 07.11.2022
1117 Clouds 6 1021 82 10000 0.89 184 19:59 07.11.2022
1118 Clouds 9 1020 71 10000 2.24 169 17:44 07.11.2022
1119 Clouds 11 1020 62 10000 1.79 165 16:26 07.11.2022
1120 Clouds 12 1019 58 10000 1.79 167 15:33 07.11.2022
1121 Clouds 15 1018 50 10000 1.27 307 13:54 07.11.2022
1122 Clouds 14 1019 48 10000 0.8 304 12:32 07.11.2022
1123 Clouds 9 1021 66 10000 1.79 133 10:46 07.11.2022
1124 Clouds 7 1023 70 10000 0.89 165 09:19 07.11.2022
1125 Clouds 5 1021 76 10000 0.89 141 07:21 07.11.2022
1126 Clear 8 1018 69 10000 0.45 156 02:28 07.11.2022
1127 Clouds 7 1017 71 10000 0.45 142 00:36 07.11.2022
1128 Clouds 6 1017 79 10000 0.45 145 21:52 06.11.2022
1129 Rain 6 1016 83 10000 0.45 197 21:18 06.11.2022
1130 Clouds 6 1015 85 10000 1.34 243 19:58 06.11.2022
1131 Clouds 5 1015 85 10000 0.45 76 19:28 06.11.2022
1132 Clouds 6 1016 86 10000 2.9 189 18:21 06.11.2022
1133 Clouds 6 1016 83 10000 2.9 189 17:45 06.11.2022
1134 Clouds 7 1014 79 10000 0.89 140 17:19 06.11.2022
1135 Clouds 9 1014 60 10000 0.89 164 16:19 06.11.2022
1136 Clouds 10 1014 57 10000 2.24 348 15:20 06.11.2022
1137 Clouds 9 1015 60 10000 0.89 205 12:47 06.11.2022
1138 Clouds 7 1014 51 10000 0.78 165 11:40 06.11.2022
1139 Clouds 4 1015 54 10000 0.88 147 10:33 06.11.2022
1140 Clouds -1 1018 95 10000 0.89 136 07:44 06.11.2022
1141 Clouds 3 1025 93 10000 2.12 156 23:25 05.11.2022
1142 Clouds 5 1020 90 10000 0.45 61 20:46 05.11.2022
1143 Clouds 5 1020 86 7935 0.45 158 18:42 05.11.2022
1144 Clouds 6 1019 85 627 0.45 163 16:40 05.11.2022
1145 Clouds 7 1019 81 846 0.45 240 14:43 05.11.2022
1146 Clouds 7 1019 84 1049 0.45 166 13:40 05.11.2022
1147 Rain 5 1019 89 8192 1.34 143 11:51 05.11.2022
1148 Clouds 5 1017 92 103 0.45 246 08:59 05.11.2022
1149 Clouds 4 1016 92 41 0.45 193 07:23 05.11.2022
1150 Clouds 4 1016 92 41 0.45 193 06:54 05.11.2022
1151 Clouds 4 1015 92 10000 0.45 153 00:37 05.11.2022
1152 Rain 4 1014 89 10000 0.45 271 23:27 04.11.2022
1153 Clouds 4 1013 88 10000 0.89 219 20:56 04.11.2022
1154 Clouds 4 1014 85 10000 0.45 175 19:31 04.11.2022
1155 Clouds 4 1014 85 10000 0.45 175 19:31 04.11.2022
1156 Clouds 5 1012 83 10000 1.65 151 17:39 04.11.2022
1157 Clouds 9 1008 69 10000 0.39 102 14:25 04.11.2022
1158 Clouds 7 1008 78 10000 0.89 147 12:28 04.11.2022
1159 Rain 6 1008 83 10000 2.24 212 11:45 04.11.2022
1160 Rain 5 1009 91 10000 0.89 241 09:24 04.11.2022
1161 Rain 5 1009 91 10000 2.24 148 07:46 04.11.2022
1162 Rain 5 1011 88 10000 0.89 168 05:51 04.11.2022
1163 Rain 9 1010 80 10000 4.02 134 00:25 04.11.2022
1164 Rain 9 1006 83 10000 0.89 110 20:53 03.11.2022
1165 Rain 10 1008 83 10000 2.6 162 20:32 03.11.2022
1166 Rain 10 1009 81 10000 0.45 206 19:40 03.11.2022
1167 Rain 10 1011 75 10000 0.89 212 17:52 03.11.2022
1168 Rain 11 1012 73 10000 0.89 216 16:53 03.11.2022
1169 Clouds 13 1011 65 10000 0.4 77 14:53 03.11.2022
1170 Clouds 14 1014 58 10000 0.89 311 13:19 03.11.2022
1171 Clouds 13 1015 60 10000 0.45 121 12:30 03.11.2022
1172 Clouds 9 1015 60 10000 1.81 164 10:21 03.11.2022
1173 Clouds 4 1018 77 10000 2.81 160 07:43 03.11.2022
1174 Clouds 6 1024 90 10000 0.45 276 21:37 02.11.2022
1175 Clouds 6 1025 89 10000 0.45 209 20:44 02.11.2022
1176 Clouds 6 1025 89 10000 0.45 209 19:59 02.11.2022
1177 Clouds 9 1026 79 10000 0.89 161 17:29 02.11.2022
1178 Clouds 12 1024 71 10000 1.01 44 16:19 02.11.2022
1179 Clouds 12 1024 71 10000 1.16 356 14:58 02.11.2022
1180 Clouds 11 1026 77 10000 0.45 80 12:45 02.11.2022
1181 Clouds 11 1026 78 10000 0.45 80 11:50 02.11.2022
1182 Clouds 9 1027 91 10000 1.34 167 09:22 02.11.2022
1183 Clouds 8 1026 93 10000 0.45 191 05:36 02.11.2022
1184 Clouds 7 1023 92 10000 0.89 140 00:28 02.11.2022
1185 Clouds 9 1025 89 10000 0.89 153 22:19 01.11.2022
1186 Clouds 10 1024 87 10000 0.89 168 21:41 01.11.2022
1187 Clouds 11 1024 84 10000 1.27 179 20:26 01.11.2022
1188 Clouds 11 1024 84 10000 1.27 179 19:54 01.11.2022
1189 Clouds 11 1024 82 10000 0.45 111 19:35 01.11.2022
1190 Clouds 14 1022 72 10000 0.34 233 17:33 01.11.2022
1191 Clouds 14 1022 73 10000 0.45 316 16:22 01.11.2022
1192 Clouds 15 1022 68 10000 1.34 315 14:25 01.11.2022
1193 Clouds 14 1022 70 10000 1.34 344 12:28 01.11.2022
1194 Rain 14 1022 70 10000 0.45 294 11:24 01.11.2022
1195 Rain 13 1022 72 10000 0.45 294 10:56 01.11.2022
1196 Clouds 11 1022 71 10000 0.45 243 08:43 01.11.2022
1197 Rain 12 1023 56 10000 1.29 236 07:30 01.11.2022
1198 Rain 12 1023 56 10000 1.36 227 07:30 01.11.2022
1199 Rain 12 1023 56 10000 1.29 236 07:30 01.11.2022
1200 Clouds 11 1022 61 10000 1.81 200 06:47 01.11.2022
1201 Clouds 8 1020 78 10000 2.06 192 05:57 01.11.2022
1202 Clouds 8 1019 75 10000 3.08 166 03:38 01.11.2022
1203 Clouds 10 1020 61 10000 3.33 165 21:57 31.10.2022
1204 Clouds 10 1020 77 10000 3.16 167 20:50 31.10.2022
1205 Clouds 11 1019 76 10000 3 165 19:53 31.10.2022
1206 Clouds 14 1018 70 10000 0.45 176 17:51 31.10.2022
1207 Clouds 18 1018 45 10000 1.41 161 16:42 31.10.2022
1208 Clouds 20 1019 41 10000 0.89 11 13:29 31.10.2022
1209 Clouds 19 1020 37 10000 0.45 2 11:54 31.10.2022
1210 Clouds 12 1021 58 10000 2.34 158 08:38 31.10.2022
1211 Clouds 9 1022 63 10000 2.68 161 05:33 31.10.2022
1212 Clouds 9 1023 58 10000 2.47 164 02:23 31.10.2022
1213 Clouds 10 1023 57 10000 2.54 167 23:19 30.10.2022
1214 Clouds 12 1023 78 10000 2.47 171 21:40 30.10.2022
1215 Clouds 12 1023 77 10000 2.41 170 20:37 30.10.2022
1216 Clouds 15 1022 62 10000 0.45 221 18:39 30.10.2022
1217 Clouds 19 1021 44 10000 0.45 83 16:18 30.10.2022
1218 Clouds 19 1021 44 10000 0.45 83 16:18 30.10.2022
1219 Clouds 23 1021 38 10000 1.79 183 13:53 30.10.2022
1220 Clouds 23 1021 34 10000 1.79 183 13:20 30.10.2022
1221 Clouds 22 1021 39 10000 0.89 188 11:42 30.10.2022
1222 Clouds 17 1022 50 10000 1.64 168 09:37 30.10.2022
1223 Clouds 12 1023 59 10000 2.43 164 08:38 30.10.2022
1224 Clouds 12 1024 72 10000 3.16 162 02:56 30.10.2022
1225 Clouds 13 1025 70 10000 3.08 158 00:28 30.10.2022
1226 Clouds 13 1025 70 10000 3.08 158 23:45 29.10.2022
1227 Clouds 14 1025 67 10000 2.79 156 21:27 29.10.2022
1228 Clouds 18 1024 59 10000 0.45 221 18:21 29.10.2022
1229 Clouds 22 1023 40 10000 0.45 160 17:20 29.10.2022
1230 Clouds 25 1024 35 10000 0.89 179 15:38 29.10.2022
1231 Clouds 24 1024 39 10000 0.89 179 14:48 29.10.2022
1232 Clouds 21 1026 45 10000 1.34 169 12:35 29.10.2022
1233 Clouds 19 1026 45 10000 0.89 167 11:32 29.10.2022
1234 Clouds 11 1027 53 10000 2.65 167 07:38 29.10.2022
1235 Clouds 11 1027 53 10000 2.65 167 07:38 29.10.2022
1236 Clouds 11 1027 53 10000 2.91 169 05:56 29.10.2022
1237 Clouds 13 1027 54 10000 3.14 166 04:19 29.10.2022
1238 Clouds 14 1028 53 10000 2.96 165 23:42 28.10.2022
1239 Clouds 14 1028 73 10000 2.77 167 20:56 28.10.2022
1240 Clouds 16 1026 70 10000 0.89 212 19:29 28.10.2022
1241 Clouds 18 1026 64 10000 2.24 219 18:31 28.10.2022
1242 Clouds 23 1025 43 10000 1.34 168 15:37 28.10.2022
1243 Clouds 24 1026 42 10000 0.89 69 14:44 28.10.2022
1244 Clouds 24 1026 42 10000 0.89 69 14:44 28.10.2022
1245 Clouds 21 1026 44 10000 1.34 162 12:58 28.10.2022
1246 Clouds 20 1027 48 10000 0.45 171 11:53 28.10.2022
1247 Clouds 20 1027 38 10000 0.45 171 11:25 28.10.2022
1248 Clouds 18 1027 41 10000 0.45 163 09:49 28.10.2022
1249 Clouds 14 1028 57 10000 2.89 165 08:34 28.10.2022
1250 Clouds 14 1028 61 10000 2.72 165 03:51 28.10.2022
1251 Clouds 14 1028 61 10000 2.72 165 03:51 28.10.2022
1252 Clouds 13 1028 59 10000 2.43 163 23:50 27.10.2022
1253 Clouds 16 1029 45 10000 0.89 157 22:58 27.10.2022
1254 Clouds 12 1028 61 10000 2.38 165 21:56 27.10.2022
1255 Clear 12 1027 80 10000 0.89 148 20:30 27.10.2022
1256 Clouds 17 1026 63 10000 0.45 184 18:23 27.10.2022
1257 Clouds 21 1026 48 10000 1.34 348 14:52 27.10.2022
1258 Clouds 18 1027 40 10000 1.34 183 11:33 27.10.2022
1259 Clouds 9 1027 51 10000 2.41 165 07:30 27.10.2022
1260 Clouds 9 1026 93 10000 0.45 187 00:22 27.10.2022
1261 Clouds 10 1027 85 10000 0.89 162 23:46 26.10.2022
1262 Clouds 11 1027 85 10000 0.89 174 22:38 26.10.2022
1263 Clouds 13 1026 81 10000 0.89 155 20:36 26.10.2022
1264 Clouds 18 1024 64 10000 0.45 240 17:27 26.10.2022
1265 Clouds 17 1023 65 10000 1.33 287 14:53 26.10.2022
1266 Clouds 15 1022 76 10000 0.89 79 12:39 26.10.2022
1267 Clouds 13 1023 81 10000 1.34 159 11:35 26.10.2022
1268 Rain 12 1022 83 10000 1.79 151 09:18 26.10.2022
1269 Rain 12 1022 83 10000 6.26 180 08:44 26.10.2022
1270 Clouds 12 1020 70 10000 0.89 158 00:50 26.10.2022
1271 Clouds 13 1020 53 10000 0.89 158 00:29 26.10.2022
1272 Clouds 9 1020 88 10000 0.89 216 21:58 25.10.2022
1273 Clouds 10 1020 88 10000 1.34 217 21:25 25.10.2022
1274 Clouds 11 1021 86 10000 0.45 137 20:26 25.10.2022
1275 Clouds 13 1021 78 10000 0.89 217 18:38 25.10.2022
1276 Clear 17 1020 61 10000 1.79 334 15:28 25.10.2022
1277 Clear 15 1021 73 10000 0.45 77 11:40 25.10.2022
1278 Clear 12 1024 78 10000 1.34 175 10:46 25.10.2022
1279 Clear 11 1024 83 10000 1.34 175 10:28 25.10.2022
1280 Clouds 9 1022 92 10000 0.45 100 08:19 25.10.2022
1281 Clouds 9 1022 90 10000 0.45 100 07:54 25.10.2022
1282 Clouds 9 1022 90 10000 0.45 115 07:26 25.10.2022
1283 Clouds 9 1021 91 10000 2.68 165 04:26 25.10.2022
1284 Clouds 9 1020 96 10000 0.89 152 03:20 25.10.2022
1285 Clouds 10 1020 94 10000 0.45 196 00:31 25.10.2022
1286 Clouds 10 1019 90 10000 0.45 211 22:25 24.10.2022
1287 Clouds 10 1019 90 10000 0.89 170 21:34 24.10.2022
1288 Clouds 10 1019 90 10000 0.89 170 21:34 24.10.2022
1289 Clouds 10 1020 86 10000 0.89 197 20:44 24.10.2022
1290 Clouds 10 1020 86 10000 0.89 197 20:44 24.10.2022
1291 Clouds 10 1020 86 10000 0.89 197 20:44 24.10.2022
1292 Clouds 10 1019 89 10000 1.79 174 19:36 24.10.2022
1293 Rain 10 1021 91 10000 5.36 186 17:53 24.10.2022
1294 Rain 11 1019 93 10000 1.34 177 16:54 24.10.2022
1295 Rain 12 1019 97 10000 0.45 196 14:31 24.10.2022
1296 Rain 13 1019 97 10000 0.89 2 13:41 24.10.2022
1297 Rain 13 1019 96 10000 0.7 121 11:55 24.10.2022
1298 Clouds 12 1018 95 10000 1.34 159 08:51 24.10.2022
1299 Clouds 14 1021 71 10000 0.45 168 00:55 24.10.2022
1300 Clouds 15 1017 75 10000 3.57 160 21:24 23.10.2022
1301 Clouds 16 1017 69 10000 3.51 166 19:53 23.10.2022
1302 Clouds 17 1016 71 10000 3.12 162 18:25 23.10.2022
1303 Clouds 21 1014 39 10000 5.36 187 17:27 23.10.2022
1304 Clouds 22 1014 48 10000 0.45 197 15:21 23.10.2022
1305 Clouds 22 1016 41 10000 2.68 152 13:22 23.10.2022
1306 Clouds 18 1017 44 10000 2.24 171 11:18 23.10.2022
1307 Clouds 8 1019 74 10000 3.46 162 08:19 23.10.2022
1308 Clouds 8 1021 92 10000 2.58 159 23:56 22.10.2022
1309 Clouds 9 1020 91 10000 2.55 154 22:31 22.10.2022
1310 Clouds 9 1020 91 10000 0.45 211 21:42 22.10.2022
1311 Clear 10 1021 84 10000 0.89 159 20:49 22.10.2022
1312 Clear 12 1021 82 10000 1.34 160 19:45 22.10.2022
1313 Clear 12 1021 81 10000 1.34 160 19:24 22.10.2022
1314 Clouds 16 1020 66 10000 0.89 215 17:36 22.10.2022
1315 Clouds 17 1019 61 10000 0.45 45 15:37 22.10.2022
1316 Clouds 16 1020 63 10000 0.97 295 14:39 22.10.2022
1317 Clouds 16 1021 67 10000 1.34 188 13:39 22.10.2022
1318 Rain 11 1019 88 10000 2.24 185 09:51 22.10.2022
1319 Rain 11 1019 89 10000 2.24 185 09:24 22.10.2022
1320 Rain 10 1019 90 10000 1.34 164 07:33 22.10.2022
1321 Rain 12 1017 94 10000 1.34 168 02:55 22.10.2022
1322 Clouds 12 1017 93 10000 0.89 154 23:46 21.10.2022
1323 Rain 13 1016 89 10000 2.24 203 21:35 21.10.2022
1324 Rain 13 1017 88 10000 2.24 203 20:56 21.10.2022
1325 Rain 13 1017 89 10000 0.45 43 19:19 21.10.2022
1326 Rain 15 1017 84 10000 0.45 204 16:51 21.10.2022
1327 Rain 15 1017 74 8167 0.45 83 13:56 21.10.2022
1328 Clouds 15 1016 77 10000 0.89 179 12:39 21.10.2022
1329 Clouds 15 1013 69 10000 0.89 160 10:40 21.10.2022
1330 Clouds 13 1013 74 10000 1.93 158 09:42 21.10.2022
1331 Clouds 13 1014 80 10000 1.34 94 08:37 21.10.2022
1332 Clouds 11 1015 90 10000 2.56 148 06:21 21.10.2022
1333 Clouds 12 1019 84 10000 0.45 137 00:24 21.10.2022
1334 Clouds 12 1017 88 10000 1.53 228 21:50 20.10.2022
1335 Clouds 13 1017 85 10000 0.45 248 20:25 20.10.2022
1336 Clouds 15 1016 72 10000 0.45 186 19:32 20.10.2022
1337 Clouds 16 1017 71 10000 0.45 145 17:52 20.10.2022
1338 Clouds 18 1018 63 10000 0.45 267 16:30 20.10.2022
1339 Clouds 22 1016 33 10000 0.94 188 12:36 20.10.2022
1340 Clouds 21 1016 33 10000 1.76 173 12:18 20.10.2022
1341 Clouds 19 1018 38 10000 0.45 296 10:57 20.10.2022
1342 Clouds 19 1018 38 10000 0.45 296 10:24 20.10.2022
1343 Clouds 7 1019 56 10000 3.13 169 07:45 20.10.2022
1344 Clouds 9 1020 54 10000 3.02 168 04:58 20.10.2022
1345 Clouds 14 1022 51 10000 0.89 157 00:57 20.10.2022
1346 Clouds 12 1023 83 10000 0.45 160 22:45 19.10.2022
1347 Clouds 12 1023 86 10000 0.45 164 21:55 19.10.2022
1348 Clouds 12 1022 89 10000 0.45 215 20:50 19.10.2022
1349 Clouds 14 1022 87 10000 1.34 328 18:21 19.10.2022
1350 Clouds 16 1022 81 10000 1.79 328 17:24 19.10.2022
1351 Clouds 18 1022 72 10000 2.68 341 15:23 19.10.2022
1352 Clouds 18 1024 69 10000 0.89 68 12:49 19.10.2022
1353 Clear 13 1027 70 10000 0.45 182 09:33 19.10.2022
1354 Clear 11 1027 74 10000 1.56 147 08:26 19.10.2022
1355 Clear 9 1026 92 10000 0.45 229 03:49 19.10.2022
1356 Clear 12 1028 88 10000 0.45 188 00:58 19.10.2022
1357 Clouds 14 1028 80 10000 0.89 187 22:53 18.10.2022
1358 Clouds 15 1028 74 10000 0.89 161 21:37 18.10.2022
1359 Clouds 15 1029 66 10000 0.89 182 20:35 18.10.2022
1360 Clouds 16 1029 69 10000 0.45 178 19:28 18.10.2022
1361 Clear 20 1027 52 10000 0.45 199 17:31 18.10.2022
1362 Clear 20 1027 54 10000 1.79 279 16:20 18.10.2022
1363 Clouds 21 1027 51 10000 1.34 184 13:57 18.10.2022
1364 Clouds 18 1028 62 10000 0.89 130 12:21 18.10.2022
1365 Clouds 17 1029 57 10000 1.07 293 11:20 18.10.2022
1366 Clouds 15 1030 55 10000 1.79 178 09:27 18.10.2022
1367 Clouds 10 1027 81 10000 0.45 91 07:43 18.10.2022
1368 Clouds 14 1029 59 10000 0.45 166 01:57 18.10.2022
1369 Clouds 13 1028 77 10000 1.34 175 21:50 17.10.2022
1370 Clouds 13 1027 82 10000 0.45 189 20:50 17.10.2022
1371 Clouds 14 1028 74 10000 0.89 146 20:30 17.10.2022
1372 Clouds 14 1028 74 10000 0.89 146 20:30 17.10.2022
1373 Clouds 15 1028 72 10000 0.45 216 19:50 17.10.2022
1374 Clouds 18 1027 57 10000 1.34 238 18:42 17.10.2022
1375 Clouds 22 1025 41 10000 0.89 306 16:39 17.10.2022
1376 Clouds 23 1026 37 10000 0.45 359 15:29 17.10.2022
1377 Clouds 23 1026 37 10000 0.45 359 15:29 17.10.2022
1378 Clouds 23 1026 36 10000 1.42 322 14:34 17.10.2022
1379 Clouds 17 1027 30 10000 0.89 166 10:29 17.10.2022
1380 Clouds 10 1025 75 10000 2.98 160 03:58 17.10.2022
1381 Clouds 13 1025 76 10000 0.89 154 23:25 16.10.2022
1382 Clouds 14 1023 77 10000 0.45 159 21:47 16.10.2022
1383 Clouds 15 1023 74 10000 0.45 190 20:33 16.10.2022
1384 Clouds 16 1022 70 10000 0.89 219 19:45 16.10.2022
1385 Clouds 18 1021 57 10000 0.93 72 17:50 16.10.2022
1386 Clouds 22 1020 42 10000 1.34 303 16:33 16.10.2022
1387 Clouds 23 1020 42 10000 1.34 303 15:56 16.10.2022
1388 Clouds 22 1020 44 10000 0.89 334 14:23 16.10.2022
1389 Clouds 20 1021 52 10000 1.79 186 12:21 16.10.2022
1390 Clouds 16 1021 67 10000 1.34 175 10:27 16.10.2022
1391 Clouds 11 1019 91 10000 0.45 289 08:35 16.10.2022
1392 Clouds 12 1018 93 10000 0.45 97 23:50 15.10.2022
1393 Rain 13 1017 91 10000 0.89 201 22:38 15.10.2022
1394 Clouds 14 1017 89 10000 0.89 166 21:23 15.10.2022
1395 Clouds 14 1016 88 10000 0.45 249 20:25 15.10.2022
1396 Clouds 15 1016 89 10000 1.07 181 18:43 15.10.2022
1397 Clouds 18 1015 67 10000 0.89 207 15:46 15.10.2022
1398 Clouds 18 1015 68 10000 1.34 272 14:24 15.10.2022
1399 Clouds 16 1016 81 10000 0.89 310 11:54 15.10.2022
1400 Clouds 13 1016 96 10000 1.07 256 10:31 15.10.2022
1401 Clouds 11 1015 96 10000 0.45 281 08:31 15.10.2022
1402 Rain 11 1015 95 9142 0.89 168 01:55 15.10.2022
1403 Rain 11 1017 94 10000 1.34 178 23:31 14.10.2022
1404 Rain 12 1016 89 9829 1.34 172 22:23 14.10.2022
1405 Rain 11 1017 92 10000 0.45 238 21:27 14.10.2022
1406 Rain 11 1017 92 10000 0.45 238 21:27 14.10.2022
1407 Rain 12 1017 93 10000 0.45 254 19:25 14.10.2022
1408 Rain 14 1017 83 10000 1.34 157 16:26 14.10.2022
1409 Rain 14 1018 83 10000 0.84 269 13:26 14.10.2022
1410 Rain 12 1018 85 10000 1.23 181 11:39 14.10.2022
1411 Clouds 9 1019 93 10000 0.89 174 09:29 14.10.2022
1412 Clouds 9 1021 94 10000 0.45 195 06:54 14.10.2022
1413 Clouds 9 1021 95 10000 1.34 128 06:18 14.10.2022
1414 Clouds 9 1022 94 10000 0.45 154 05:42 14.10.2022
1415 Clouds 9 1022 94 10000 0.89 202 03:43 14.10.2022
1416 Rain 10 1022 94 10000 1.79 156 23:49 13.10.2022
1417 Rain 11 1021 91 10000 0.45 90 22:21 13.10.2022
1418 Rain 12 1020 86 10000 0.45 157 21:21 13.10.2022
1419 Clouds 13 1022 82 10000 0.45 158 19:43 13.10.2022
1420 Clouds 13 1019 90 10000 0.84 231 18:53 13.10.2022
1421 Clouds 15 1019 69 10000 0.45 349 18:22 13.10.2022
1422 Clouds 15 1021 70 10000 0.45 331 16:28 13.10.2022
1423 Clouds 16 1020 66 10000 1.79 332 15:42 13.10.2022
1424 Clouds 15 1021 70 10000 0.45 87 14:18 13.10.2022
1425 Clouds 14 1022 74 10000 0.45 112 12:45 13.10.2022
1426 Clouds 13 1023 75 10000 1.34 183 11:34 13.10.2022
1427 Clouds 11 1025 75 10000 0.45 202 09:21 13.10.2022
1428 Clouds 8 1025 85 10000 0.89 176 07:39 13.10.2022
1429 Clear 8 1023 89 10000 0.45 210 06:28 13.10.2022
1430 Clear 9 1024 92 10000 0.45 154 01:46 13.10.2022
1431 Clear 9 1022 94 10000 1.83 175 00:41 13.10.2022
1432 Clear 10 1024 92 10000 0.45 141 22:45 12.10.2022
1433 Clear 10 1024 92 10000 1.5 171 21:51 12.10.2022
1434 Clear 10 1024 92 10000 1.5 171 21:51 12.10.2022
1435 Clear 11 1024 92 10000 1.25 164 21:20 12.10.2022
1436 Clear 12 1026 91 10000 0.45 152 20:39 12.10.2022
1437 Clouds 12 1025 89 10000 0.66 33 19:24 12.10.2022
1438 Clouds 14 1023 83 10000 0.89 110 18:19 12.10.2022
1439 Clouds 15 1022 79 10000 1.48 1 17:43 12.10.2022
1440 Clouds 16 1022 74 10000 2.24 338 14:51 12.10.2022
1441 Clouds 16 1022 76 10000 2.24 332 13:54 12.10.2022
1442 Clouds 14 1023 81 10000 2.24 335 11:56 12.10.2022
1443 Clear 11 1024 92 10000 0.23 5 09:36 12.10.2022
1444 Clouds 10 1023 91 10000 0.45 112 07:42 12.10.2022
1445 Clouds 10 1025 91 10000 0.45 171 06:44 12.10.2022
1446 Clouds 10 1026 94 10000 0.89 182 05:33 12.10.2022
1447 Clouds 11 1024 94 10000 1.08 169 00:38 12.10.2022
1448 Clouds 12 1024 92 10000 1.14 105 21:26 11.10.2022
1449 Clouds 12 1024 89 10000 0.45 6 20:32 11.10.2022
1450 Clouds 14 1023 84 10000 0.45 3 18:27 11.10.2022
1451 Clouds 16 1022 79 10000 1.79 346 16:27 11.10.2022
1452 Clouds 17 1022 74 10000 1.79 352 13:52 11.10.2022
1453 Clouds 14 1022 62 10000 1.66 21 11:32 11.10.2022
1454 Clouds 12 1023 88 10000 0.68 63 10:27 11.10.2022
1455 Clouds 9 1023 93 10000 0.45 211 08:46 11.10.2022
1456 Clouds 9 1023 93 10000 0.45 212 05:25 11.10.2022
1457 Clouds 8 1022 94 10000 0.45 214 01:55 11.10.2022
1458 Clouds 9 1022 93 10000 0.45 95 00:24 11.10.2022
1459 Clouds 11 1021 89 10000 1.19 175 21:21 10.10.2022
1460 Clouds 13 1021 86 10000 0.99 185 19:45 10.10.2022
1461 Clouds 16 1020 78 10000 0.44 342 18:25 10.10.2022
1462 Clouds 18 1019 62 10000 0.97 345 16:43 10.10.2022
1463 Clouds 18 1019 65 10000 1.79 323 14:46 10.10.2022
1464 Clouds 15 1020 74 10000 0.45 35 12:24 10.10.2022
1465 Clouds 13 1020 78 10000 0.45 326 10:57 10.10.2022
1466 Clouds 8 1019 96 10000 0.45 209 07:47 10.10.2022
1467 Clouds 7 1019 97 10000 2.49 167 05:39 10.10.2022
1468 Clouds 7 1019 95 10000 2.44 171 02:50 10.10.2022
1469 Clouds 9 1019 97 10000 0.89 144 00:25 10.10.2022
1470 Clouds 11 1019 87 10000 1.34 137 22:27 09.10.2022
1471 Clouds 11 1019 88 10000 1.34 137 21:54 09.10.2022
1472 Clouds 11 1020 90 10000 0.89 114 20:57 09.10.2022
1473 Clouds 11 1019 90 10000 1.42 170 19:53 09.10.2022
1474 Clouds 11 1019 89 10000 0.45 69 19:23 09.10.2022
1475 Clouds 12 1019 87 10000 0.45 332 18:29 09.10.2022
1476 Clouds 12 1020 88 10000 0.76 92 16:56 09.10.2022
1477 Clouds 12 1021 88 10000 0.25 349 16:25 09.10.2022
1478 Rain 12 1021 88 10000 0.25 349 15:36 09.10.2022
1479 Rain 12 1021 84 10000 0.45 17 14:28 09.10.2022
1480 Rain 11 1020 85 10000 0.3 60 12:58 09.10.2022
1481 Clouds 11 1021 88 10000 0.45 355 11:44 09.10.2022
1482 Clouds 10 1021 91 10000 0.96 118 10:25 09.10.2022
1483 Clouds 8 1023 95 10000 0.45 171 08:24 09.10.2022
1484 Clouds 9 1023 94 10000 1.53 94 03:36 09.10.2022
1485 Clouds 10 1023 93 10000 1.57 90 02:23 09.10.2022
1486 Clouds 10 1024 87 10000 0.45 302 23:57 08.10.2022
1487 Clouds 10 1024 88 8324 1.34 72 22:53 08.10.2022
1488 Clouds 11 1023 95 10000 0.45 353 21:44 08.10.2022
1489 Clouds 11 1024 92 10000 1.34 112 20:25 08.10.2022
1490 Rain 13 1022 95 10000 0.45 145 18:32 08.10.2022
1491 Rain 13 1021 93 10000 1.78 313 15:59 08.10.2022
1492 Rain 14 1021 88 10000 0.45 349 14:42 08.10.2022
1493 Clouds 14 1023 85 10000 2.24 11 12:38 08.10.2022
1494 Clouds 13 1023 86 10000 1.34 149 10:37 08.10.2022
1495 Clouds 12 1022 87 10000 1.34 149 09:55 08.10.2022
1496 Clouds 11 1021 91 10000 0.45 215 08:47 08.10.2022
1497 Clouds 9 1021 94 10000 0.89 160 03:52 08.10.2022
1498 Clouds 11 1022 92 10000 1.28 203 00:37 08.10.2022
1499 Clouds 12 1022 94 10000 1.03 198 23:21 07.10.2022
1500 Clouds 10 1022 94 10000 1.03 198 22:41 07.10.2022
1501 Clouds 11 1022 91 10000 0.46 204 20:59 07.10.2022
1502 Clouds 13 1022 85 10000 0.89 209 19:32 07.10.2022
1503 Clouds 16 1021 79 10000 1.59 345 17:47 07.10.2022
1504 Clouds 18 1022 67 10000 1.79 325 16:40 07.10.2022
1505 Clouds 18 1023 67 10000 1.79 8 14:59 07.10.2022
1506 Clouds 17 1023 56 10000 1.55 327 13:22 07.10.2022
1507 Clouds 12 1025 68 10000 0.49 261 09:56 07.10.2022
1508 Clouds 9 1025 78 10000 1.13 182 09:19 07.10.2022
1509 Clouds 8 1026 95 10000 1.76 173 07:51 07.10.2022
1510 Clouds 10 1028 93 10000 1.43 164 01:38 07.10.2022
1511 Clouds 12 1030 93 10000 0.45 185 22:51 06.10.2022
1512 Clouds 12 1030 90 10000 1.16 130 21:48 06.10.2022
1513 Clouds 13 1030 89 10000 1.24 116 21:25 06.10.2022
1514 Clouds 14 1030 85 10000 1.24 116 20:31 06.10.2022
1515 Clouds 16 1029 73 10000 2.24 335 18:39 06.10.2022
1516 Clouds 17 1028 71 10000 2.24 335 18:19 06.10.2022
1517 Clouds 17 1028 71 10000 2.24 335 18:19 06.10.2022
1518 Clouds 20 1029 59 10000 2.48 17 15:33 06.10.2022
1519 Clear 17 1032 61 10000 0.45 92 12:22 06.10.2022
1520 Clear 9 1030 78 10000 1.09 186 07:55 06.10.2022
1521 Clear 11 1029 62 10000 1.3 194 03:38 06.10.2022
1522 Clouds 11 1028 76 10000 1.68 202 00:39 06.10.2022
1523 Clouds 12 1025 79 10000 0.89 135 21:41 05.10.2022
1524 Clouds 15 1024 62 10000 1.34 203 19:30 05.10.2022
1525 Clouds 20 1023 44 10000 0.89 277 17:36 05.10.2022
1526 Clouds 22 1023 36 10000 1.79 342 16:20 05.10.2022
1527 Clear 22 1023 36 10000 0.89 16 14:48 05.10.2022
1528 Clouds 22 1023 37 10000 0.89 16 14:19 05.10.2022
1529 Clouds 22 1023 37 10000 0.89 16 14:19 05.10.2022
1530 Clouds 19 1024 38 10000 0.45 183 12:25 05.10.2022
1531 Clouds 16 1025 30 10000 1.34 177 09:39 05.10.2022
1532 Clouds 7 1024 37 10000 2.28 172 07:51 05.10.2022
1533 Clouds 7 1023 39 10000 2.13 175 06:21 05.10.2022
1534 Clouds 7 1023 39 10000 2.17 175 04:27 05.10.2022
1535 Clear 7 1024 46 10000 2 173 00:53 05.10.2022
1536 Clear 7 1024 48 10000 2.31 171 00:27 05.10.2022
1537 Clear 8 1024 89 10000 2.37 172 22:39 04.10.2022
1538 Clouds 10 1023 85 10000 0.45 208 20:39 04.10.2022
1539 Clouds 11 1023 81 10000 0.89 182 19:42 04.10.2022
1540 Clouds 14 1024 64 10000 0.45 225 18:39 04.10.2022
1541 Clouds 15 1023 58 10000 0.45 225 17:50 04.10.2022
1542 Clouds 18 1022 46 10000 0.89 24 16:36 04.10.2022
1543 Clouds 14 1023 62 10000 0.45 331 13:19 04.10.2022
1544 Clouds 7 1022 41 10000 0.45 350 09:47 04.10.2022
1545 Clouds 4 1023 52 10000 1.53 158 07:24 04.10.2022
1546 Clouds 7 1023 95 10000 0.45 239 02:27 04.10.2022
1547 Clouds 8 1024 93 10000 1.2 154 23:41 03.10.2022
1548 Clouds 10 1025 90 10000 0.45 303 21:53 03.10.2022
1549 Clouds 10 1025 90 10000 1.48 139 21:23 03.10.2022
1550 Clouds 11 1025 88 10000 0.95 135 20:19 03.10.2022
1551 Clouds 13 1024 73 10000 0.89 276 18:28 03.10.2022
1552 Clouds 15 1024 70 10000 1.63 353 17:26 03.10.2022
1553 Clouds 14 1025 70 10000 0.89 355 15:47 03.10.2022
1554 Clouds 14 1025 73 10000 2.68 280 14:20 03.10.2022
1555 Clouds 12 1026 84 10000 1.71 346 12:30 03.10.2022
1556 Clouds 10 1026 96 10000 1.34 36 10:39 03.10.2022
1557 Clouds 9 1026 97 10000 0.89 342 09:38 03.10.2022
1558 Clouds 9 1025 97 3277 0.89 339 06:35 03.10.2022
1559 Clouds 10 1024 96 704 0.45 77 03:34 03.10.2022
1560 Clouds 13 1023 84 5934 1.34 58 22:39 02.10.2022
1561 Rain 14 1022 78 10000 0.45 84 20:52 02.10.2022
1562 Clouds 15 1021 81 9734 2.24 7 18:47 02.10.2022
1563 Clouds 16 1020 75 5590 2.24 7 17:53 02.10.2022
1564 Clouds 15 1020 92 9210 1.79 85 16:44 02.10.2022
1565 Clouds 14 1021 89 10000 1.79 85 16:18 02.10.2022
1566 Rain 14 1021 92 10000 1.34 144 14:52 02.10.2022
1567 Rain 14 1022 90 10000 0.89 171 13:45 02.10.2022
1568 Clouds 13 1023 93 10000 1.34 227 12:30 02.10.2022
1569 Clouds 13 1023 91 10000 2.82 220 11:41 02.10.2022
1570 Clouds 12 1023 91 10000 2.73 214 11:21 02.10.2022
1571 Clouds 11 1022 94 10000 0.45 269 09:29 02.10.2022
1572 Clouds 10 1022 96 10000 0.89 152 07:41 02.10.2022
1573 Clouds 10 1022 95 447 1.79 211 02:55 02.10.2022
1574 Clouds 10 1021 90 2576 0.45 173 00:50 02.10.2022
1575 Clouds 11 1021 88 2576 1.92 221 00:31 02.10.2022
1576 Rain 11 1020 91 4674 0.45 296 22:53 01.10.2022
1577 Rain 9 1019 96 3792 0.45 104 20:54 01.10.2022
1578 Rain 10 1019 89 2695 3.13 119 18:51 01.10.2022
1579 Rain 10 1017 95 4194 0.89 169 16:42 01.10.2022
1580 Rain 10 1016 88 5503 0.45 174 14:42 01.10.2022
1581 Clouds 10 1016 88 10000 2.56 217 13:35 01.10.2022
1582 Rain 10 1016 84 10000 4.47 182 12:33 01.10.2022
1583 Rain 9 1015 83 10000 0.89 176 11:21 01.10.2022
1584 Clouds 9 1014 72 10000 1.87 254 10:38 01.10.2022
1585 Clouds 8 1015 77 10000 1.8 246 10:20 01.10.2022
1586 Clouds 7 1017 93 10000 1.79 180 08:59 01.10.2022
1587 Clouds 5 1017 96 10000 0.45 216 07:29 01.10.2022
1588 Clouds 7 1016 90 10000 2.24 190 03:36 01.10.2022
1589 Clouds 8 1018 93 10000 1.46 205 01:21 01.10.2022
1590 Clouds 8 1014 94 10000 1.45 181 22:55 30.09.2022
1591 Clouds 8 1014 93 10000 0.45 76 21:41 30.09.2022
1592 Clouds 8 1017 95 10000 0.97 160 20:44 30.09.2022
1593 Clouds 9 1013 88 10000 0.45 202 20:19 30.09.2022
1594 Clouds 10 1013 85 10000 1.79 24 17:40 30.09.2022
1595 Clouds 10 1012 80 10000 0.45 359 16:25 30.09.2022
1596 Rain 8 1013 93 10000 0.89 331 13:40 30.09.2022
1597 Rain 8 1011 91 10000 0.89 313 11:59 30.09.2022
1598 Rain 8 1010 92 10000 1.79 321 11:31 30.09.2022
1599 Clouds 6 1011 97 10000 0.45 14 08:37 30.09.2022
1600 Clouds 6 1010 98 10000 0.45 20 06:27 30.09.2022
1601 Clouds 6 1009 96 10000 0.45 57 02:42 30.09.2022
1602 Rain 7 1006 95 10000 0.3 77 23:47 29.09.2022
1603 Rain 7 1005 94 10000 0.07 337 21:29 29.09.2022
1604 Rain 7 1005 94 10000 0.07 337 20:59 29.09.2022
1605 Clouds 8 1004 92 10000 0.99 354 18:45 29.09.2022
1606 Clouds 8 1004 92 7630 1.05 4 17:32 29.09.2022
1607 Rain 8 1004 91 7993 0.45 88 16:28 29.09.2022
1608 Rain 8 1003 91 7993 0.45 64 15:36 29.09.2022
1609 Rain 8 1003 92 1046 1.3 3 14:35 29.09.2022
1610 Clouds 6 1003 96 564 1.37 24 11:48 29.09.2022
1611 Rain 6 1002 95 7382 0.87 118 07:26 29.09.2022
1612 Rain 5 1004 95 306 0.45 229 02:52 29.09.2022
1613 Rain 5 1004 94 121 0.89 152 23:56 28.09.2022
1614 Rain 6 1004 94 86 0.45 168 22:58 28.09.2022
1615 Rain 6 1003 94 88 0.89 326 21:30 28.09.2022
1616 Rain 6 1003 94 88 0.89 326 21:30 28.09.2022
1617 Rain 6 1003 94 88 0.89 326 21:30 28.09.2022
1618 Rain 6 1002 93 81 1.34 322 20:31 28.09.2022
1619 Rain 7 1002 93 550 1.34 326 18:42 28.09.2022
1620 Clouds 9 1002 86 6723 0.45 28 15:34 28.09.2022
1621 Rain 8 1002 90 5275 0.89 82 13:28 28.09.2022
1622 Rain 7 1002 95 10000 0.45 188 11:23 28.09.2022
1623 Rain 6 1001 94 7150 3 187 09:18 28.09.2022
1624 Rain 6 1001 94 10000 1.34 145 07:40 28.09.2022
1625 Rain 5 1002 95 10000 0.89 154 04:34 28.09.2022
1626 Rain 6 1006 91 10000 0.89 190 01:38 28.09.2022
1627 Rain 6 1007 93 7426 2.45 201 23:27 27.09.2022
1628 Rain 6 1006 92 363 1.34 138 21:47 27.09.2022
1629 Rain 6 1005 91 437 0.45 146 20:44 27.09.2022
1630 Rain 7 1006 88 362 1.79 160 19:48 27.09.2022
1631 Rain 8 1005 85 424 1.79 125 18:49 27.09.2022
1632 Rain 8 1006 79 1929 0.45 296 17:46 27.09.2022
1633 Clouds 8 1005 83 1649 1.34 165 15:58 27.09.2022
1634 Rain 7 1005 81 4711 0.45 327 14:58 27.09.2022
1635 Clouds 8 1006 73 10000 1.34 10 12:53 27.09.2022
1636 Clouds 7 1006 77 10000 1.79 76 12:21 27.09.2022
1637 Rain 7 1004 87 162 1.79 126 09:34 27.09.2022
1638 Clouds 8 1003 86 2181 0.45 35 06:56 27.09.2022
1639 Rain 8 1004 84 10000 0.89 206 02:41 27.09.2022
1640 Clouds 8 1004 82 10000 0.45 183 01:35 27.09.2022
1641 Clouds 8 1006 81 10000 2.24 186 23:35 26.09.2022
1642 Clouds 9 1007 83 10000 1.79 187 22:40 26.09.2022
1643 Rain 9 1008 79 10000 0.45 218 20:46 26.09.2022
1644 Rain 10 1007 73 10000 0.45 225 19:32 26.09.2022
1645 Rain 11 1008 68 10000 1.34 158 18:32 26.09.2022
1646 Clouds 13 1007 54 10000 1.34 80 16:41 26.09.2022
1647 Clouds 11 1009 68 10000 0.45 38 14:41 26.09.2022
1648 Clouds 10 1010 81 10000 0.45 137 11:35 26.09.2022
1649 Clouds 9 1011 90 10000 0.89 152 10:41 26.09.2022
1650 Clouds 9 1011 90 10000 0.89 152 10:21 26.09.2022
1651 Clouds 10 1010 95 10000 0.89 152 09:55 26.09.2022
1652 Clouds 9 1010 95 10000 0.45 209 09:24 26.09.2022
1653 Clouds 9 1010 95 10000 0.45 209 08:57 26.09.2022
1654 Clouds 9 1012 96 10000 0.45 203 02:57 26.09.2022
1655 Clouds 9 1013 95 10000 0.45 208 23:57 25.09.2022
1656 Clouds 9 1013 95 10000 0.45 141 22:45 25.09.2022
1657 Clouds 9 1014 95 10000 0.45 76 21:35 25.09.2022
1658 Clouds 9 1014 95 9356 0.45 76 20:49 25.09.2022
1659 Clouds 10 1012 94 8739 0.45 224 19:43 25.09.2022
1660 Clouds 10 1012 93 5176 0.45 147 18:43 25.09.2022
1661 Clouds 11 1012 93 996 0.45 147 18:20 25.09.2022
1662 Rain 10 1013 93 1104 1.34 9 16:45 25.09.2022
1663 Rain 12 1012 88 9711 0.45 124 15:45 25.09.2022
1664 Rain 12 1013 85 10000 0.89 75 14:29 25.09.2022
1665 Rain 13 1012 79 10000 1.79 12 12:57 25.09.2022
1666 Clouds 11 1013 90 10000 0.45 314 10:36 25.09.2022
1667 Clouds 9 1013 92 10000 0.45 167 08:25 25.09.2022
1668 Clouds 8 1014 94 10000 0.89 165 06:23 25.09.2022
1669 Clouds 8 1015 95 10000 0.89 127 02:57 25.09.2022
1670 Clouds 11 1015 93 10000 0.45 206 22:35 24.09.2022
1671 Clouds 11 1015 93 10000 1.32 159 20:55 24.09.2022
1672 Clouds 12 1014 90 5079 0.45 64 19:23 24.09.2022
1673 Clouds 12 1014 91 9869 0.45 19 17:49 24.09.2022
1674 Rain 13 1014 85 10000 0.66 293 16:25 24.09.2022
1675 Rain 13 1015 81 10000 0.45 7 15:21 24.09.2022
1676 Clouds 14 1014 76 10000 0.89 353 13:27 24.09.2022
1677 Clouds 14 1014 74 10000 0.89 353 12:50 24.09.2022
1678 Clouds 11 1016 87 10000 0.45 347 10:54 24.09.2022
1679 Rain 11 1015 84 10000 0.45 166 09:40 24.09.2022
1680 Clouds 10 1015 85 10000 1.34 179 08:43 24.09.2022
1681 Clouds 10 1015 85 10000 0.89 158 07:24 24.09.2022
1682 Clouds 10 1015 81 10000 1.34 187 04:40 24.09.2022
1683 Clouds 10 1017 79 10000 1.79 177 02:19 24.09.2022
1684 Clouds 11 1018 78 10000 0.45 206 22:29 23.09.2022
1685 Clouds 11 1018 76 10000 0.45 209 21:28 23.09.2022
1686 Clouds 12 1018 74 10000 1.79 174 20:56 23.09.2022
1687 Clouds 12 1018 72 10000 1.79 174 20:20 23.09.2022
1688 Clouds 17 1016 51 10000 1.53 318 18:27 23.09.2022
1689 Clouds 18 1018 48 10000 2.13 317 13:45 23.09.2022
1690 Clouds 13 1018 68 10000 1.42 299 10:45 23.09.2022
1691 Clouds 10 1021 62 10000 1.05 212 09:29 23.09.2022
1692 Clear 8 1022 59 10000 0.45 167 04:59 23.09.2022
1693 Clear 6 1020 89 10000 0.89 214 23:31 22.09.2022
1694 Clear 7 1020 88 10000 0.45 215 22:41 22.09.2022
1695 Clear 7 1020 88 10000 0.45 215 22:19 22.09.2022
1696 Clear 9 1024 80 10000 1.71 172 20:45 22.09.2022
1697 Clear 10 1023 75 10000 0.68 44 19:23 22.09.2022
1698 Clear 16 1019 53 10000 1.34 303 16:53 22.09.2022
1699 Clouds 12 1022 61 10000 0.89 55 11:58 22.09.2022
1700 Clouds 9 1024 69 10000 0.68 3 10:20 22.09.2022
1701 Clouds 6 1026 72 10000 0.45 151 08:39 22.09.2022
1702 Clear 3 1023 88 10000 0.45 159 06:27 22.09.2022
1703 Clear 4 1024 89 10000 0.45 156 02:39 22.09.2022
1704 Clear 6 1024 86 10000 0.45 194 22:32 21.09.2022
1705 Clear 8 1022 81 10000 0.45 149 21:38 21.09.2022
1706 Clear 9 1026 71 10000 0.89 152 19:36 21.09.2022
1707 Clear 14 1020 55 10000 2.68 292 17:46 21.09.2022
1708 Clear 15 1021 53 10000 1.79 285 16:22 21.09.2022
1709 Clear 15 1021 53 10000 1.79 285 16:22 21.09.2022
1710 Clear 14 1021 52 10000 2.24 352 13:57 21.09.2022
1711 Clouds 12 1023 59 10000 0.89 19 12:19 21.09.2022
1712 Clouds 9 1023 69 10000 0.89 346 11:28 21.09.2022
1713 Clouds 8 1024 65 10000 1.46 89 09:47 21.09.2022
1714 Clouds 4 1029 77 10000 0.45 157 08:53 21.09.2022
1715 Clouds 3 1026 89 10000 1.63 127 06:20 21.09.2022
1716 Clouds 6 1026 88 10000 0.45 85 02:44 21.09.2022
1717 Clouds 6 1023 89 10000 0.45 85 02:20 21.09.2022
1718 Clouds 7 1024 88 10000 0.45 61 00:26 21.09.2022
1719 Clouds 7 1026 85 10000 0.45 164 22:30 20.09.2022
1720 Clouds 8 1025 76 10000 0.45 355 20:37 20.09.2022
1721 Clouds 10 1022 67 10000 0.89 357 19:24 20.09.2022
1722 Clouds 12 1021 65 10000 1.34 302 15:58 20.09.2022
1723 Clouds 12 1021 63 10000 1.34 302 14:35 20.09.2022
1724 Clear 11 1021 63 10000 0.89 137 12:45 20.09.2022
1725 Clouds 5 1027 84 10000 0.45 144 08:51 20.09.2022
1726 Clouds 3 1024 90 10000 0.45 144 08:25 20.09.2022
1727 Clouds 4 1023 87 10000 0.45 213 04:44 20.09.2022
1728 Clouds 6 1024 85 10000 0.89 151 02:37 20.09.2022
1729 Clouds 6 1024 85 10000 1.79 182 22:50 19.09.2022
1730 Clouds 6 1026 80 10000 1.79 185 21:38 19.09.2022
1731 Clear 7 1025 78 10000 1.79 181 20:45 19.09.2022
1732 Clouds 9 1022 68 10000 0.45 212 19:42 19.09.2022
1733 Clouds 12 1021 53 10000 0.89 353 17:39 19.09.2022
1734 Clouds 12 1020 56 10000 0.45 5 13:56 19.09.2022
1735 Clouds 11 1021 63 10000 0.89 63 12:48 19.09.2022
1736 Clouds 7 1020 87 10000 1.79 165 10:31 19.09.2022
1737 Clouds 6 1019 92 306 0.89 161 08:42 19.09.2022
1738 Rain 7 1017 85 328 0.89 83 04:39 19.09.2022
1739 Rain 9 1017 66 3303 2.24 85 01:53 19.09.2022
1740 Rain 10 1017 67 10000 0.45 183 23:22 18.09.2022
1741 Rain 10 1017 74 10000 2.84 238 21:32 18.09.2022
1742 Clouds 10 1018 70 10000 0.45 319 19:58 18.09.2022
1743 Clouds 12 1019 65 10000 0.45 68 17:53 18.09.2022
1744 Rain 12 1019 60 10000 2.59 259 16:59 18.09.2022
1745 Clouds 12 1020 60 10000 0.45 167 14:52 18.09.2022
1746 Clouds 11 1022 62 10000 2.67 252 13:46 18.09.2022
1747 Clouds 10 1020 67 10000 1.34 312 12:33 18.09.2022
1748 Clouds 7 1019 89 10000 0.45 251 10:44 18.09.2022
1749 Rain 5 1020 95 119 0.89 52 03:37 18.09.2022
1750 Rain 5 1021 94 98 0.89 230 01:23 18.09.2022
1751 Rain 4 1020 95 72 0.89 168 23:59 17.09.2022
1752 Rain 4 1018 93 140 0.89 156 21:36 17.09.2022
1753 Rain 5 1018 92 73 1.79 147 19:40 17.09.2022
1754 Rain 6 1016 90 68 0.89 212 18:46 17.09.2022
1755 Clouds 6 1016 90 63 1.54 247 15:51 17.09.2022
1756 Clouds 6 1016 89 45 0.89 95 13:38 17.09.2022
1757 Clouds 5 1016 92 141 0.89 132 10:56 17.09.2022
1758 Rain 4 1017 94 87 1.34 165 08:34 17.09.2022
1759 Rain 5 1013 92 116 0.89 165 06:24 17.09.2022
1760 Rain 8 1013 91 2988 1.34 140 23:57 16.09.2022
1761 Rain 8 1014 91 6013 0.45 174 22:51 16.09.2022
1762 Rain 9 1013 94 2298 0.45 338 20:54 16.09.2022
1763 Clouds 10 1012 93 284 0.45 115 19:50 16.09.2022
1764 Rain 11 1012 88 8561 0.89 109 16:30 16.09.2022
1765 Clouds 14 1010 76 10000 2.64 285 14:53 16.09.2022
1766 Clouds 15 1011 70 10000 0.89 295 13:42 16.09.2022
1767 Clouds 13 1012 90 10000 0.45 5 10:46 16.09.2022
1768 Clouds 11 1012 96 7555 0.45 141 08:19 16.09.2022
1769 Clouds 11 1012 96 7433 0.89 157 06:48 16.09.2022
1770 Clouds 11 1012 96 1130 0.89 157 06:25 16.09.2022
1771 Clouds 12 1013 95 3827 0.45 45 02:37 16.09.2022
1772 Clouds 14 1012 96 6844 0.89 259 22:20 15.09.2022
1773 Clouds 14 1012 96 6844 0.89 259 22:20 15.09.2022
1774 Rain 14 1012 93 10000 0.89 173 20:40 15.09.2022
1775 Rain 14 1012 95 10000 0.89 22 19:46 15.09.2022
1776 Rain 15 1011 87 7243 0.45 221 18:29 15.09.2022
1777 Clouds 16 1011 83 7243 0.45 263 17:31 15.09.2022
1778 Rain 16 1011 85 10000 0.45 189 15:50 15.09.2022
1779 Clouds 17 1011 76 9344 0.45 78 13:19 15.09.2022
1780 Clouds 16 1011 87 10000 0.89 159 11:48 15.09.2022
1781 Clouds 15 1011 89 10000 0.89 148 09:46 15.09.2022
1782 Clouds 14 1010 91 10000 1.79 182 07:45 15.09.2022
1783 Rain 15 1011 90 10000 3.13 184 03:49 15.09.2022
1784 Clouds 16 1010 88 10000 0.45 245 23:32 14.09.2022
1785 Clouds 16 1011 93 10000 0.45 101 20:48 14.09.2022
1786 Rain 17 1010 86 10000 1.34 137 19:33 14.09.2022
1787 Rain 17 1010 86 4121 0.45 29 18:26 14.09.2022
1788 Clouds 19 1009 80 8628 0.45 14 16:37 14.09.2022
1789 Clouds 21 1010 71 10000 0.89 233 15:29 14.09.2022
1790 Clouds 24 1010 55 10000 1.79 11 12:57 14.09.2022
1791 Clouds 20 1011 72 10000 2.09 239 10:40 14.09.2022
1792 Clouds 18 1011 78 10000 0.89 173 08:41 14.09.2022
1793 Clouds 17 1011 77 10000 0.89 163 06:50 14.09.2022
1794 Rain 17 1011 76 10000 2.05 217 06:31 14.09.2022
1795 Clouds 16 1011 81 10000 0.45 201 03:21 14.09.2022
1796 Clouds 16 1012 83 10000 0.89 98 01:39 14.09.2022
1797 Clouds 16 1012 85 10000 0.89 98 01:19 14.09.2022
1798 Rain 17 1012 83 10000 2.15 174 23:55 13.09.2022
1799 Clouds 17 1012 82 10000 0.45 209 23:37 13.09.2022
1800 Clouds 17 1012 80 10000 0.45 209 23:19 13.09.2022
1801 Clouds 17 1011 81 10000 2.35 182 22:32 13.09.2022
1802 Clouds 19 1012 69 10000 0.89 226 21:39 13.09.2022
1803 Clouds 22 1012 64 10000 1.41 178 19:26 13.09.2022
1804 Clouds 26 1013 43 10000 1.79 337 16:45 13.09.2022
1805 Clouds 27 1013 38 10000 1.79 329 15:38 13.09.2022
1806 Clouds 26 1013 40 10000 1.79 5 13:41 13.09.2022
1807 Clouds 23 1014 48 10000 1.11 269 11:23 13.09.2022
1808 Clouds 13 1015 82 10000 2.72 182 08:18 13.09.2022
1809 Clear 13 1015 42 10000 2.95 185 02:58 13.09.2022
1810 Clouds 12 1016 82 10000 2.64 187 23:23 12.09.2022
1811 Clouds 12 1017 83 10000 0.45 221 22:44 12.09.2022
1812 Clouds 13 1017 80 10000 0.45 205 21:35 12.09.2022
1813 Clouds 15 1016 71 10000 1.55 181 20:23 12.09.2022
1814 Clouds 21 1016 45 10000 0.89 300 18:40 12.09.2022
1815 Clouds 22 1016 44 10000 1.34 355 15:53 12.09.2022
1816 Clear 19 1017 50 10000 0.45 6 12:35 12.09.2022
1817 Clear 15 1018 45 10000 0.45 166 10:31 12.09.2022
1818 Clear 8 1018 59 10000 1.77 173 07:40 12.09.2022
1819 Clear 7 1018 95 10000 0.45 206 04:36 12.09.2022
1820 Clear 8 1019 95 10000 0.45 209 02:24 12.09.2022
1821 Clear 11 1020 92 10000 1.73 156 22:46 11.09.2022
1822 Clear 12 1020 90 10000 0.45 179 21:27 11.09.2022
1823 Clear 13 1019 87 10000 0.45 241 20:44 11.09.2022
1824 Clouds 16 1019 76 10000 0.89 293 19:39 11.09.2022
1825 Clouds 16 1019 76 10000 0.89 293 19:18 11.09.2022
1826 Clouds 17 1020 68 10000 1.79 186 17:28 11.09.2022
1827 Clouds 17 1020 67 10000 1.79 139 15:51 11.09.2022
1828 Clouds 16 1019 56 10000 1.98 307 13:26 11.09.2022
1829 Rain 13 1021 91 10000 0.89 79 11:26 11.09.2022
1830 Clouds 11 1021 91 10000 0.89 196 08:25 11.09.2022
1831 Clouds 11 1021 90 10000 1.34 148 05:30 11.09.2022
1832 Clouds 12 1021 83 8877 0.89 89 23:51 10.09.2022
1833 Clouds 12 1019 86 10000 1.34 179 22:23 10.09.2022
1834 Clouds 13 1018 85 10000 0.89 129 20:34 10.09.2022
1835 Rain 13 1019 78 10000 0.45 231 19:44 10.09.2022
1836 Rain 14 1019 76 10000 0.45 231 19:25 10.09.2022
1837 Clouds 15 1018 65 10000 1.61 284 17:49 10.09.2022
1838 Clouds 13 1019 81 10000 0.45 12 15:35 10.09.2022
1839 Rain 13 1019 86 10000 2.24 167 13:41 10.09.2022
1840 Clouds 13 1019 85 10000 1.34 163 12:30 10.09.2022
1841 Rain 12 1018 94 10000 2.68 68 10:31 10.09.2022
1842 Clouds 11 1018 95 10000 1.53 180 08:42 10.09.2022
1843 Rain 11 1019 93 10000 1.62 194 08:20 10.09.2022
1844 Clouds 11 1019 91 10000 0.45 207 03:48 10.09.2022
1845 Rain 12 1019 87 10000 0.89 173 23:36 09.09.2022
1846 Clouds 12 1019 88 10000 1.79 351 22:36 09.09.2022
1847 Clouds 13 1017 86 10000 0.89 118 20:57 09.09.2022
1848 Clouds 14 1017 84 10000 0.45 47 20:19 09.09.2022
1849 Clouds 14 1016 82 10000 0.45 212 19:22 09.09.2022
1850 Clouds 14 1017 87 10000 1.34 202 17:19 09.09.2022
1851 Clouds 14 1017 87 10000 0.45 358 15:19 09.09.2022
1852 Rain 14 1017 88 10000 2.24 146 13:31 09.09.2022
1853 Clouds 15 1017 77 10000 0.45 158 10:42 09.09.2022
1854 Clouds 15 1017 77 10000 0.45 158 10:42 09.09.2022
1855 Clouds 13 1016 84 10000 0.45 225 07:45 09.09.2022
1856 Clouds 14 1016 82 10000 0.79 163 03:34 09.09.2022
1857 Clouds 15 1016 81 10000 0.89 210 22:34 08.09.2022
1858 Clouds 15 1016 80 10000 0.89 210 21:51 08.09.2022
1859 Clouds 15 1017 79 10000 0.41 214 20:49 08.09.2022
1860 Clouds 15 1017 79 10000 0.5 193 20:25 08.09.2022
1861 Clouds 16 1015 75 10000 0.53 286 18:43 08.09.2022
1862 Clouds 21 1015 55 10000 0.45 175 17:23 08.09.2022
1863 Clouds 21 1015 51 10000 0.89 132 15:18 08.09.2022
1864 Clouds 17 1015 70 10000 0.45 170 13:28 08.09.2022
1865 Clouds 16 1015 79 10000 0.89 201 12:39 08.09.2022
1866 Rain 15 1015 87 10000 1.34 126 10:59 08.09.2022
1867 Rain 13 1016 92 4241 1.79 132 09:26 08.09.2022
1868 Rain 13 1016 92 4241 1.79 132 09:26 08.09.2022
1869 Rain 14 1015 90 2202 1.79 131 06:53 08.09.2022
1870 Rain 15 1014 91 10000 0.35 220 03:23 08.09.2022
1871 Rain 16 1014 87 10000 0.35 220 02:36 08.09.2022
1872 Rain 16 1014 87 10000 2.44 182 02:18 08.09.2022
1873 Clouds 18 1015 81 10000 0.45 139 22:56 07.09.2022
1874 Rain 18 1014 82 10000 0.45 222 21:44 07.09.2022
1875 Clouds 18 1014 82 10000 0.45 222 21:21 07.09.2022
1876 Clouds 19 1014 75 10000 0.89 205 20:22 07.09.2022
1877 Clouds 24 1015 49 10000 1.34 172 18:41 07.09.2022
1878 Clouds 25 1016 47 10000 0.45 296 15:41 07.09.2022
1879 Clouds 18 1019 82 10000 0.45 146 10:51 07.09.2022
1880 Clouds 18 1018 86 10000 0.54 293 10:30 07.09.2022
1881 Rain 15 1018 90 10000 0.45 127 07:43 07.09.2022
1882 Clouds 16 1018 86 10000 0.45 273 04:46 07.09.2022
1883 Clear 16 1018 90 10000 0.45 207 00:26 07.09.2022
1884 Clear 17 1019 89 10000 0.45 238 21:47 06.09.2022
1885 Clear 17 1019 88 10000 0.45 238 21:27 06.09.2022
1886 Clouds 21 1019 76 10000 1.7 83 19:22 06.09.2022
1887 Rain 22 1019 72 10000 0.45 199 18:27 06.09.2022
1888 Clouds 22 1019 71 10000 0.89 357 17:23 06.09.2022
1889 Clouds 23 1019 67 10000 0.89 349 16:40 06.09.2022
1890 Clouds 24 1019 63 10000 0.89 306 15:23 06.09.2022
1891 Clouds 24 1020 60 10000 0.89 97 13:46 06.09.2022
1892 Clouds 24 1020 60 10000 0.89 97 13:26 06.09.2022
1893 Clouds 22 1021 59 10000 0.89 41 12:37 06.09.2022
1894 Clouds 20 1019 46 10000 0.24 315 10:46 06.09.2022
1895 Rain 15 1022 93 10000 2.24 186 08:54 06.09.2022
1896 Rain 15 1023 90 10000 0.45 239 07:51 06.09.2022
1897 Clouds 14 1022 82 10000 0.45 177 04:48 06.09.2022
1898 Clear 15 1021 81 10000 0.45 231 23:42 05.09.2022
1899 Clear 16 1021 80 10000 0.45 166 22:40 05.09.2022
1900 Clear 18 1021 73 10000 1.34 166 20:58 05.09.2022
1901 Clouds 19 1021 70 10000 0.45 179 19:50 05.09.2022
1902 Clouds 22 1021 72 10000 1.24 34 18:49 05.09.2022
1903 Clouds 25 1021 43 10000 0.89 312 18:22 05.09.2022
1904 Clouds 25 1021 45 10000 0.45 324 17:30 05.09.2022
1905 Clouds 25 1022 46 10000 1.34 342 15:52 05.09.2022
1906 Clouds 24 1023 51 10000 0.45 357 13:27 05.09.2022
1907 Clouds 23 1023 56 10000 0.89 45 12:28 05.09.2022
1908 Clouds 20 1023 62 10000 0.45 157 10:24 05.09.2022
1909 Clouds 12 1023 91 10000 2.35 163 06:46 05.09.2022
1910 Clouds 12 1023 92 10000 0.45 203 02:49 05.09.2022
1911 Clear 15 1023 84 10000 0.45 151 23:28 04.09.2022
1912 Clear 15 1023 84 10000 1.34 153 22:28 04.09.2022
1913 Clear 16 1023 82 10000 1.34 164 21:34 04.09.2022
1914 Clouds 20 1022 68 10000 0.45 319 19:38 04.09.2022
1915 Clouds 23 1021 55 10000 0.89 299 18:20 04.09.2022
1916 Clouds 23 1021 54 10000 2.34 349 16:56 04.09.2022
1917 Clouds 22 1021 56 10000 0.89 338 14:33 04.09.2022
1918 Clouds 22 1021 58 10000 0.89 338 13:49 04.09.2022
1919 Clear 21 1021 63 10000 0.45 76 12:18 04.09.2022
1920 Clear 20 1020 55 10000 1.32 347 10:47 04.09.2022
1921 Clear 11 1020 94 10000 1.51 166 08:20 04.09.2022
1922 Clear 11 1019 95 10000 0.45 244 05:35 04.09.2022
1923 Clear 13 1019 89 10000 0.45 146 00:53 04.09.2022
1924 Rain 14 1018 85 10000 0.89 161 22:24 03.09.2022
1925 Clouds 15 1017 84 10000 0.45 118 21:23 03.09.2022
1926 Clouds 15 1017 84 10000 0.45 118 21:23 03.09.2022
1927 Clouds 17 1017 79 10000 0.45 264 19:42 03.09.2022
1928 Clouds 16 1017 82 7275 0.89 172 17:28 03.09.2022
1929 Clouds 16 1017 84 7275 2.24 149 16:31 03.09.2022
1930 Rain 21 1015 59 10000 1.34 338 14:45 03.09.2022
1931 Rain 20 1015 63 10000 1.34 338 14:26 03.09.2022
1932 Clouds 21 1016 55 10000 2.24 328 12:32 03.09.2022
1933 Clouds 19 1015 55 10000 0.89 102 10:49 03.09.2022
1934 Clouds 14 1016 80 10000 0.45 66 08:29 03.09.2022
1935 Clouds 14 1016 80 10000 0.45 66 08:29 03.09.2022
1936 Clouds 13 1016 80 10000 3.13 163 06:58 03.09.2022
1937 Clouds 13 1014 82 10000 2.29 173 04:38 03.09.2022
1938 Rain 15 1015 82 10000 1.34 166 00:32 03.09.2022
1939 Clouds 16 1015 82 10000 1.34 179 23:20 02.09.2022
1940 Rain 17 1015 81 10000 0.89 180 20:59 02.09.2022
1941 Rain 17 1015 77 10000 0.89 180 20:39 02.09.2022
1942 Clouds 19 1014 72 10000 0.3 77 19:30 02.09.2022
1943 Clouds 21 1014 63 10000 0.45 305 18:43 02.09.2022
1944 Clouds 21 1014 62 10000 0.45 305 18:24 02.09.2022
1945 Clouds 22 1015 61 10000 0.89 277 16:48 02.09.2022
1946 Clouds 21 1015 61 10000 3.13 358 15:21 02.09.2022
1947 Clear 19 1016 66 10000 0.45 337 12:39 02.09.2022
1948 Clear 16 1016 73 10000 0.45 347 10:22 02.09.2022
1949 Clear 14 1017 73 10000 0.78 319 09:40 02.09.2022
1950 Clear 12 1018 75 10000 0.45 156 07:32 02.09.2022
1951 Clear 8 1017 95 10000 0.45 218 06:38 02.09.2022
1952 Clear 10 1018 92 10000 0.45 237 02:52 02.09.2022
1953 Clouds 13 1019 88 10000 0.45 197 22:30 01.09.2022
1954 Clouds 14 1019 83 10000 0.89 184 21:43 01.09.2022
1955 Clouds 15 1018 80 10000 1.5 119 21:25 01.09.2022
1956 Clouds 15 1019 79 10000 0.89 126 20:43 01.09.2022
1957 Clouds 18 1018 67 10000 0.45 341 18:54 01.09.2022
1958 Clouds 18 1018 73 10000 1.79 112 17:22 01.09.2022
1959 Rain 18 1018 72 10000 0.89 49 15:56 01.09.2022
1960 Clouds 18 1018 73 10000 0.45 3 14:22 01.09.2022
1961 Clouds 17 1018 74 10000 2.24 28 12:58 01.09.2022
1962 Clouds 16 1019 74 10000 0.45 11 11:52 01.09.2022
1963 Clouds 16 1019 75 10000 0.45 11 11:31 01.09.2022
1964 Clouds 16 1018 76 10000 0.89 93 10:23 01.09.2022
1965 Clouds 13 1018 93 10000 0.99 111 07:51 01.09.2022
1966 Clouds 12 1018 93 10000 0.45 65 06:22 01.09.2022
1967 Clouds 11 1022 95 10000 1.14 133 01:32 01.09.2022
1968 Clouds 13 1021 94 10000 0.45 21 23:29 31.08.2022
1969 Clouds 14 1020 91 10000 0.45 183 21:30 31.08.2022
1970 Clouds 14 1020 88 10000 2.68 9 19:46 31.08.2022
1971 Clouds 15 1020 89 10000 1.44 66 17:52 31.08.2022
1972 Clouds 15 1021 88 10000 0.45 234 15:44 31.08.2022
1973 Clouds 16 1020 90 226 0.89 63 13:57 31.08.2022
1974 Rain 14 1020 96 577 0.89 331 12:20 31.08.2022
1975 Rain 15 1020 95 705 0.45 357 10:30 31.08.2022
1976 Rain 15 1019 94 9801 0.45 135 08:34 31.08.2022
1977 Rain 15 1019 89 9353 0.45 224 03:46 31.08.2022
1978 Rain 18 1018 76 10000 1.34 209 22:44 30.08.2022
1979 Clouds 18 1018 74 10000 1.34 176 21:33 30.08.2022
1980 Clouds 19 1018 71 10000 0.45 204 20:38 30.08.2022
1981 Clouds 25 1018 51 10000 2.24 347 17:25 30.08.2022
1982 Clouds 25 1019 51 10000 4.47 336 14:41 30.08.2022
1983 Clouds 25 1019 54 10000 2.68 352 12:54 30.08.2022
1984 Clouds 22 1020 62 10000 0.45 121 11:20 30.08.2022
1985 Clouds 20 1019 65 10000 0.45 177 10:20 30.08.2022
1986 Clear 12 1020 93 10000 0.45 239 06:49 30.08.2022
1987 Clouds 14 1020 92 10000 0.45 233 01:44 30.08.2022
1988 Clouds 16 1020 87 10000 0.45 159 22:44 29.08.2022
1989 Clouds 17 1020 84 10000 1.2 162 21:55 29.08.2022
1990 Clouds 18 1020 82 10000 0.45 232 21:23 29.08.2022
1991 Clouds 18 1020 82 10000 0.45 232 21:23 29.08.2022
1992 Clouds 21 1019 67 10000 0.45 356 19:41 29.08.2022
1993 Clear 24 1019 56 10000 2.68 330 17:39 29.08.2022
1994 Clear 25 1019 55 10000 2.68 330 17:18 29.08.2022
1995 Clear 25 1020 54 10000 1.34 328 15:38 29.08.2022
1996 Clear 24 1020 59 10000 0.45 13 13:58 29.08.2022
1997 Clear 21 1020 68 10000 2.24 332 12:32 29.08.2022
1998 Clear 19 1020 75 10000 1.79 51 10:49 29.08.2022
1999 Clear 16 1020 84 10000 0.89 168 09:20 29.08.2022
2000 Clouds 11 1020 95 10000 1.43 163 07:20 29.08.2022
2001 Clouds 13 1020 94 10000 0.89 158 02:33 29.08.2022
2002 Clouds 15 1020 91 10000 0.45 222 23:36 28.08.2022
2003 Clouds 16 1019 87 10000 0.92 93 21:48 28.08.2022
2004 Clouds 17 1019 86 10000 1.08 70 21:27 28.08.2022
2005 Clouds 16 1020 92 10000 0.45 90 20:19 28.08.2022
2006 Clouds 18 1018 87 10000 0.89 329 18:22 28.08.2022
2007 Clouds 18 1017 83 10000 0.45 354 17:59 28.08.2022
2008 Clouds 20 1018 74 10000 0.45 1 16:44 28.08.2022
2009 Clouds 20 1018 74 10000 0.45 335 15:33 28.08.2022
2010 Clouds 21 1018 69 10000 2.24 353 13:32 28.08.2022
2011 Clouds 20 1018 75 8008 1.34 318 11:59 28.08.2022
2012 Clouds 17 1018 84 10000 1.42 356 10:20 28.08.2022
2013 Clouds 14 1018 96 10000 0.71 43 08:52 28.08.2022
2014 Clouds 13 1017 96 10000 0.45 155 07:53 28.08.2022
2015 Clouds 13 1017 96 10000 0.73 153 07:23 28.08.2022
2016 Clouds 15 1017 95 10000 0.45 186 00:37 28.08.2022
2017 Clouds 15 1017 95 10000 0.69 218 23:20 27.08.2022
2018 Rain 15 1017 96 10000 0.45 140 22:27 27.08.2022
2019 Rain 16 1016 95 10000 1 148 20:35 27.08.2022
2020 Rain 17 1016 91 10000 0.89 347 18:57 27.08.2022
2021 Rain 20 1015 77 10000 0.45 290 16:26 27.08.2022
2022 Clouds 21 1015 70 10000 0.89 338 15:31 27.08.2022
2023 Clouds 20 1016 73 10000 1.88 8 13:19 27.08.2022
2024 Clouds 19 1016 79 10000 0.89 57 11:59 27.08.2022
2025 Clouds 16 1016 91 10000 0.45 356 10:27 27.08.2022
2026 Clouds 16 1016 96 10000 0.45 18 09:33 27.08.2022
2027 Rain 15 1015 94 10000 0.45 66 06:52 27.08.2022
2028 Rain 15 1017 93 10000 0.45 184 00:52 27.08.2022
2029 Rain 15 1017 93 10000 0.45 184 00:52 27.08.2022
2030 Rain 16 1017 86 10000 0.89 92 23:46 26.08.2022
2031 Clouds 17 1015 92 10000 1.3 208 21:46 26.08.2022
2032 Clouds 21 1013 53 10000 0.45 27 19:50 26.08.2022
2033 Clouds 22 1013 56 10000 1.51 325 17:53 26.08.2022
2034 Clouds 26 1014 44 10000 1.79 348 15:45 26.08.2022
2035 Clouds 27 1014 44 10000 1.79 348 15:23 26.08.2022
2036 Clouds 25 1015 50 10000 1.34 293 12:59 26.08.2022
2037 Clouds 23 1015 53 10000 0.45 18 11:47 26.08.2022
2038 Clouds 23 1015 54 10000 0.45 18 11:21 26.08.2022
2039 Clouds 19 1016 58 10000 0.45 164 08:21 26.08.2022
2040 Clouds 15 1016 85 10000 2.05 169 03:51 26.08.2022
2041 Clear 17 1017 72 10000 0.89 175 23:47 25.08.2022
2042 Clear 18 1017 69 10000 1.34 161 22:20 25.08.2022
2043 Clear 19 1017 62 10000 0.45 200 20:54 25.08.2022
2044 Clear 22 1015 51 10000 0.45 326 19:35 25.08.2022
2045 Clear 26 1015 44 10000 2.09 335 18:29 25.08.2022
2046 Clear 26 1015 45 10000 2.09 335 17:31 25.08.2022
2047 Clear 27 1016 39 10000 1.79 9 16:40 25.08.2022
2048 Clear 26 1016 45 10000 0.45 211 15:29 25.08.2022
2049 Clear 26 1017 48 10000 2.68 325 13:51 25.08.2022
2050 Clear 21 1017 57 10000 1.34 12 10:49 25.08.2022
2051 Clear 19 1018 63 10000 0.89 162 09:52 25.08.2022
2052 Clear 16 1019 67 10000 0.45 142 07:35 25.08.2022
2053 Clear 12 1019 88 10000 1.91 162 02:41 25.08.2022
2054 Clouds 15 1020 79 10000 0.45 214 23:30 24.08.2022
2055 Clouds 15 1020 77 10000 0.45 214 22:54 24.08.2022
2056 Clear 17 1020 70 10000 0.89 161 21:39 24.08.2022
2057 Clear 17 1020 69 10000 0.89 161 21:20 24.08.2022
2058 Clear 23 1019 45 10000 0.89 304 19:43 24.08.2022
2059 Clouds 25 1018 41 10000 2.24 321 16:51 24.08.2022
2060 Clouds 25 1018 40 10000 2.24 321 15:53 24.08.2022
2061 Clouds 25 1019 42 10000 2.68 313 14:58 24.08.2022
2062 Clouds 22 1019 48 10000 1.79 5 12:28 24.08.2022
2063 Clouds 21 1020 54 10000 0.45 342 11:18 24.08.2022
2064 Clear 16 1021 59 10000 0.45 145 08:38 24.08.2022
2065 Clear 10 1020 85 10000 2.06 148 03:54 24.08.2022
2066 Clear 14 1021 73 10000 0.45 153 23:53 23.08.2022
2067 Clear 15 1021 66 10000 1.34 168 22:35 23.08.2022
2068 Clear 16 1020 63 10000 0.45 263 21:46 23.08.2022
2069 Clear 18 1019 53 10000 0.89 213 20:33 23.08.2022
2070 Clear 21 1018 43 10000 1.79 329 18:53 23.08.2022
2071 Clear 24 1018 36 10000 2.24 336 17:53 23.08.2022
2072 Clear 24 1018 38 10000 1.34 298 17:18 23.08.2022
2073 Clear 24 1018 38 10000 1.34 298 17:18 23.08.2022
2074 Clear 24 1018 39 10000 1.34 334 15:49 23.08.2022
2075 Clear 22 1019 42 10000 2.24 13 13:36 23.08.2022
2076 Clear 22 1019 42 10000 1.34 58 12:45 23.08.2022
2077 Clear 20 1019 55 10000 0.45 55 10:53 23.08.2022
2078 Clear 18 1019 66 10000 0.89 350 10:32 23.08.2022
2079 Clear 15 1020 70 10000 0.45 168 08:55 23.08.2022
2080 Clear 14 1020 70 10000 0.45 168 08:22 23.08.2022
2081 Clear 11 1019 83 10000 0.89 153 07:48 23.08.2022
2082 Clear 10 1018 92 10000 0.45 226 06:58 23.08.2022
2083 Clear 10 1018 92 10000 0.45 189 05:52 23.08.2022
2084 Clear 13 1018 84 10000 1.34 304 01:42 23.08.2022
2085 Clear 13 1017 83 10000 0.45 195 00:26 23.08.2022
2086 Clear 15 1017 76 10000 0.89 173 23:29 22.08.2022
2087 Clear 16 1018 71 10000 0.89 166 21:51 22.08.2022
2088 Clouds 18 1016 66 10000 1.34 327 19:51 22.08.2022
2089 Clouds 21 1015 53 10000 2.34 14 19:27 22.08.2022
2090 Clouds 22 1015 51 10000 1.34 344 17:59 22.08.2022
2091 Clouds 23 1016 47 10000 1.34 283 15:40 22.08.2022
2092 Clouds 22 1016 51 10000 1.79 314 14:46 22.08.2022
2093 Clear 19 1017 64 10000 0.45 18 11:20 22.08.2022
2094 Clear 14 1017 82 10000 0.45 80 08:54 22.08.2022
2095 Clouds 11 1017 90 10000 0.45 168 04:42 22.08.2022
2096 Clouds 13 1017 86 10000 1.34 182 00:53 22.08.2022
2097 Clouds 13 1017 85 10000 1.34 182 00:34 22.08.2022
2098 Clear 14 1017 82 10000 0.89 155 22:56 21.08.2022
2099 Clear 16 1017 77 10000 0.89 149 21:45 21.08.2022
2100 Clear 16 1017 76 10000 0.45 216 20:58 21.08.2022
2101 Clouds 21 1016 53 10000 0.89 288 19:28 21.08.2022
2102 Clear 22 1016 52 10000 2.24 350 18:21 21.08.2022
2103 Clear 23 1016 49 10000 2.24 343 16:21 21.08.2022
2104 Clear 23 1017 48 10000 1.79 358 15:43 21.08.2022
2105 Clear 22 1015 51 10000 2.72 354 14:35 21.08.2022
2106 Clear 22 1018 53 10000 1.34 293 13:43 21.08.2022
2107 Clear 21 1018 57 10000 1.79 352 12:47 21.08.2022
2108 Clear 17 1019 80 10000 0.45 12 09:56 21.08.2022
2109 Clear 14 1020 93 10000 0.68 21 08:56 21.08.2022
2110 Clear 13 1020 93 10000 0.45 232 08:38 21.08.2022
2111 Clear 11 1020 94 10000 0.45 176 07:28 21.08.2022
2112 Clear 12 1020 95 10000 0.89 153 04:26 21.08.2022
2113 Clouds 14 1021 93 10000 0.45 193 00:53 21.08.2022
2114 Clouds 14 1021 94 10000 0.89 211 22:59 20.08.2022
2115 Rain 15 1021 94 10000 0.89 187 21:43 20.08.2022
2116 Rain 15 1021 93 10000 0.45 24 20:44 20.08.2022
2117 Rain 16 1021 92 10000 0.89 176 19:41 20.08.2022
2118 Rain 17 1019 83 8767 0.89 150 18:35 20.08.2022
2119 Rain 19 1019 80 10000 0.45 21 17:58 20.08.2022
2120 Clouds 19 1019 76 10000 0.45 334 17:18 20.08.2022
2121 Rain 18 1019 77 10000 0.89 191 15:50 20.08.2022
2122 Clouds 21 1019 63 10000 2.03 316 13:36 20.08.2022
2123 Clouds 18 1019 85 10000 1.79 188 11:53 20.08.2022
2124 Rain 15 1019 97 10000 0.45 200 09:43 20.08.2022
2125 Clouds 14 1019 98 10000 0.45 200 08:53 20.08.2022
2126 Rain 14 1018 97 10000 0.45 202 05:58 20.08.2022
2127 Clouds 14 1018 97 10000 0.89 97 03:28 20.08.2022
2128 Rain 14 1019 97 10000 0.45 182 00:51 20.08.2022
2129 Rain 14 1018 97 4742 1.79 152 23:19 19.08.2022
2130 Rain 14 1019 97 4742 0.45 217 22:35 19.08.2022
2131 Rain 15 1017 97 4539 0.45 205 20:28 19.08.2022
2132 Rain 15 1017 96 4020 0.45 121 18:46 19.08.2022
2133 Rain 16 1015 94 902 2.32 297 15:21 19.08.2022
2134 Rain 15 1015 97 781 1.34 163 13:26 19.08.2022
2135 Rain 15 1014 96 457 0.89 165 11:33 19.08.2022
2136 Clouds 15 1014 96 2798 0.89 3 10:26 19.08.2022
2137 Clouds 14 1014 96 3061 0.45 53 06:58 19.08.2022
2138 Clouds 15 1014 97 10000 0.45 353 00:58 19.08.2022
2139 Clouds 15 1014 96 10000 0.45 312 00:30 19.08.2022
2140 Clouds 15 1014 96 10000 0.45 159 23:44 18.08.2022
2141 Clouds 15 1014 95 10000 0.45 159 22:50 18.08.2022
2142 Clouds 16 1014 95 10000 1.34 176 21:57 18.08.2022
2143 Clouds 16 1014 94 10000 1.34 176 21:34 18.08.2022
2144 Clouds 17 1013 95 10000 0.38 327 19:56 18.08.2022
2145 Clouds 17 1013 95 10000 1.03 343 19:28 18.08.2022
2146 Rain 16 1013 96 10000 0.45 186 17:50 18.08.2022
2147 Rain 18 1012 90 10000 0.89 174 16:59 18.08.2022
2148 Clouds 19 1012 80 10000 1.79 26 14:52 18.08.2022
2149 Clouds 19 1012 81 10000 0.89 348 14:19 18.08.2022
2150 Clouds 18 1013 83 10000 1.79 359 12:55 18.08.2022
2151 Clouds 18 1014 84 10000 1.34 24 11:34 18.08.2022
2152 Clouds 17 1014 86 10000 0.45 174 09:43 18.08.2022
2153 Clouds 15 1015 91 10000 0.45 162 08:40 18.08.2022
2154 Rain 15 1014 92 10000 0.82 237 07:19 18.08.2022
2155 Clouds 15 1016 90 6989 0.42 90 03:57 18.08.2022
2156 Clouds 18 1014 85 10000 0.45 58 23:34 17.08.2022
2157 Rain 20 1012 73 10000 0.89 171 21:40 17.08.2022
2158 Rain 20 1012 70 10000 1.17 105 20:18 17.08.2022
2159 Rain 21 1012 69 10000 1.44 99 19:28 17.08.2022
2160 Clouds 26 1013 51 10000 1.79 323 17:35 17.08.2022
2161 Clouds 26 1013 52 10000 0.45 337 16:22 17.08.2022
2162 Clouds 26 1013 52 10000 0.45 337 16:22 17.08.2022
2163 Clouds 26 1014 48 10000 0.45 354 15:22 17.08.2022
2164 Clouds 24 1014 51 10000 1.34 297 12:54 17.08.2022
2165 Clouds 22 1013 60 10000 0.45 15 11:36 17.08.2022
2166 Clouds 20 1013 62 10000 0.75 329 09:31 17.08.2022
2167 Clouds 17 1014 73 10000 1.46 191 07:55 17.08.2022
2168 Clouds 16 1013 83 10000 0.45 241 02:24 17.08.2022
2169 Clouds 18 1014 78 10000 2.09 154 23:49 16.08.2022
2170 Clouds 19 1014 70 10000 1.34 209 21:59 16.08.2022
2171 Clouds 20 1013 72 10000 0.89 234 20:52 16.08.2022
2172 Clouds 21 1011 59 10000 0.89 335 19:53 16.08.2022
2173 Clouds 24 1012 51 10000 1.34 285 18:34 16.08.2022
2174 Clouds 27 1013 43 10000 1.79 352 17:41 16.08.2022
2175 Clouds 26 1013 45 10000 1.34 346 15:47 16.08.2022
2176 Clear 26 1013 46 10000 1.34 346 14:55 16.08.2022
2177 Clear 25 1013 47 10000 0.89 333 14:37 16.08.2022
2178 Clear 22 1013 57 10000 1.34 45 12:43 16.08.2022
2179 Clear 19 1012 68 10000 0.89 343 10:35 16.08.2022
2180 Clear 17 1012 67 10000 0.85 34 09:43 16.08.2022
2181 Clear 16 1013 68 10000 0.76 114 08:45 16.08.2022
2182 Clear 11 1013 98 10000 1.65 144 07:33 16.08.2022
2183 Clouds 13 1013 94 10000 2.21 157 01:42 16.08.2022
2184 Clouds 14 1013 92 10000 1.39 164 22:29 15.08.2022
2185 Clouds 14 1014 93 10000 0.89 162 21:53 15.08.2022
2186 Clouds 14 1013 93 10000 1.34 138 20:48 15.08.2022
2187 Clouds 14 1013 93 10000 1.34 138 20:19 15.08.2022
2188 Rain 16 1011 84 6574 3.58 177 18:36 15.08.2022
2189 Rain 22 1009 59 10000 1.34 295 16:47 15.08.2022
2190 Rain 24 1009 47 10000 1.34 295 16:21 15.08.2022
2191 Clouds 22 1010 63 10000 0.45 301 13:55 15.08.2022
2192 Clouds 20 1011 71 10000 0.45 53 12:29 15.08.2022
2193 Clouds 17 1011 87 10000 0.45 220 09:59 15.08.2022
2194 Clouds 15 1011 91 10000 1.34 213 08:22 15.08.2022
2195 Rain 16 1012 85 10000 0.89 139 04:55 15.08.2022
2196 Clouds 17 1011 80 10000 1.79 173 01:35 15.08.2022
2197 Rain 19 1011 63 10000 2.24 159 22:39 14.08.2022
2198 Clouds 20 1010 60 10000 1.31 202 21:38 14.08.2022
2199 Clouds 22 1009 48 10000 0.89 24 19:58 14.08.2022
2200 Clouds 25 1010 40 10000 1.47 314 18:59 14.08.2022
2201 Clouds 26 1010 38 10000 2.25 329 18:19 14.08.2022
2202 Clouds 26 1009 33 10000 0.89 279 16:53 14.08.2022
2203 Clouds 28 1008 30 10000 0.89 262 15:49 14.08.2022
2204 Clouds 27 1009 30 10000 2.68 343 14:33 14.08.2022
2205 Clouds 28 1010 31 10000 2.68 343 13:50 14.08.2022
2206 Clouds 26 1011 35 10000 4.02 345 13:20 14.08.2022
2207 Clouds 24 1010 40 10000 1.34 46 12:28 14.08.2022
2208 Clouds 22 1011 40 10000 1.79 195 10:50 14.08.2022
2209 Clouds 19 1011 42 10000 0.89 161 08:51 14.08.2022
2210 Clear 11 1013 61 10000 2.53 159 06:22 14.08.2022
2211 Clear 11 1015 82 10000 0.45 224 02:49 14.08.2022
2212 Clouds 14 1016 69 10000 0.45 211 23:53 13.08.2022
2213 Clouds 15 1016 66 10000 0.45 243 22:52 13.08.2022
2214 Clouds 17 1016 60 10000 0.45 217 20:58 13.08.2022
2215 Clouds 18 1016 53 10000 1.53 125 20:33 13.08.2022
2216 Clouds 20 1016 47 10000 1.34 277 19:44 13.08.2022
2217 Clouds 23 1016 42 10000 0.89 353 17:59 13.08.2022
2218 Clouds 24 1016 42 10000 1.79 326 15:31 13.08.2022
2219 Clouds 24 1016 42 10000 2.24 305 14:28 13.08.2022
2220 Clouds 23 1016 44 10000 3.58 354 13:40 13.08.2022
2221 Clouds 21 1016 57 10000 2.68 333 11:52 13.08.2022
2222 Clouds 17 1016 62 10000 1.34 9 10:31 13.08.2022
2223 Clear 15 1017 66 10000 0.45 169 08:45 13.08.2022
2224 Clear 10 1018 83 10000 0.89 171 05:34 13.08.2022
2225 Clear 14 1019 69 10000 0.45 159 23:58 12.08.2022
2226 Clear 16 1018 60 10000 0.45 170 21:46 12.08.2022
2227 Clear 17 1018 57 10000 0.89 299 20:53 12.08.2022
2228 Clouds 18 1017 55 10000 1.92 39 19:40 12.08.2022
2229 Clouds 22 1016 42 10000 1.34 304 18:48 12.08.2022
2230 Clouds 23 1017 41 10000 0.89 286 17:25 12.08.2022
2231 Clouds 22 1016 45 10000 1.79 347 15:52 12.08.2022
2232 Clouds 23 1017 41 10000 1.34 326 14:41 12.08.2022
2233 Clouds 23 1017 43 10000 3.13 332 12:55 12.08.2022
2234 Clouds 19 1017 65 10000 2.22 20 10:45 12.08.2022
2235 Clear 14 1019 79 10000 0.77 65 07:50 12.08.2022
2236 Clouds 12 1019 88 10000 0.45 168 06:39 12.08.2022
2237 Clouds 14 1019 84 10000 1.14 149 02:39 12.08.2022
2238 Clouds 16 1020 77 10000 0.45 233 00:27 12.08.2022
2239 Clouds 16 1020 77 10000 0.45 193 23:35 11.08.2022
2240 Clouds 18 1019 75 10000 1.36 118 22:27 11.08.2022
2241 Clouds 18 1019 70 10000 1.36 118 21:43 11.08.2022
2242 Clouds 19 1019 67 10000 1.34 5 20:51 11.08.2022
2243 Clouds 19 1019 67 10000 1.34 5 20:19 11.08.2022
2244 Clouds 23 1018 57 10000 0.89 98 19:32 11.08.2022
2245 Clouds 25 1019 50 10000 2.24 273 17:48 11.08.2022
2246 Clouds 25 1020 50 10000 2.24 351 16:37 11.08.2022
2247 Clouds 25 1020 53 10000 1.34 338 15:24 11.08.2022
2248 Clouds 23 1020 56 10000 1.79 336 13:37 11.08.2022
2249 Clouds 20 1019 66 10000 1.27 345 10:27 11.08.2022
2250 Clear 16 1021 72 10000 0.45 163 07:47 11.08.2022
2251 Clear 12 1022 84 10000 0.45 214 03:54 11.08.2022
2252 Clear 14 1022 77 10000 0.45 164 00:50 11.08.2022
2253 Clear 16 1023 70 10000 1.65 129 22:32 10.08.2022
2254 Clear 17 1022 67 10000 0.89 158 21:25 10.08.2022
2255 Clear 18 1022 65 10000 0.45 217 20:55 10.08.2022
2256 Clouds 22 1021 51 10000 1.34 274 19:27 10.08.2022
2257 Clouds 23 1021 50 10000 1.34 37 18:22 10.08.2022
2258 Clouds 25 1022 47 10000 3.34 17 16:36 10.08.2022
2259 Clear 23 1022 52 10000 2.68 281 13:36 10.08.2022
2260 Clear 22 1022 55 10000 1.34 14 12:41 10.08.2022
2261 Clear 18 1022 64 10000 1.29 67 09:25 10.08.2022
2262 Clear 15 1024 76 10000 1.29 67 08:33 10.08.2022
2263 Clear 13 1025 75 10000 0.45 170 07:18 10.08.2022
2264 Clear 12 1025 84 10000 0.45 144 03:25 10.08.2022
2265 Clear 15 1025 75 10000 0.45 221 23:34 09.08.2022
2266 Clear 15 1025 73 10000 0.89 163 22:56 09.08.2022
2267 Clear 15 1025 73 10000 1.89 111 21:35 09.08.2022
2268 Clear 19 1024 59 10000 0.45 158 20:26 09.08.2022
2269 Clear 25 1023 44 10000 2.68 295 18:42 09.08.2022
2270 Clear 25 1023 44 10000 1.34 340 17:28 09.08.2022
2271 Clear 25 1023 44 10000 1.34 340 17:28 09.08.2022
2272 Clear 24 1023 49 10000 2.68 348 16:40 09.08.2022
2273 Clear 24 1023 49 10000 2.68 348 15:58 09.08.2022
2274 Clear 23 1023 54 10000 2.68 306 12:51 09.08.2022
2275 Clear 17 1024 72 10000 1.75 38 09:36 09.08.2022
2276 Clear 16 1024 80 10000 1.19 67 08:39 09.08.2022
2277 Clear 14 1025 81 10000 1.02 107 07:52 09.08.2022
2278 Clear 12 1024 89 10000 1.87 140 04:22 09.08.2022
2279 Clear 16 1024 78 10000 0.45 178 23:27 08.08.2022
2280 Clear 16 1024 78 10000 1.87 126 22:54 08.08.2022
2281 Clear 17 1023 75 10000 1.34 213 21:58 08.08.2022
2282 Clouds 18 1023 70 10000 0.45 354 20:59 08.08.2022
2283 Clouds 22 1022 78 10000 1.94 31 19:50 08.08.2022
2284 Clear 23 1022 50 10000 1.34 232 18:45 08.08.2022
2285 Clear 24 1021 51 10000 3.58 341 16:40 08.08.2022
2286 Clear 24 1021 54 10000 1.79 313 15:39 08.08.2022
2287 Clear 23 1022 55 10000 1.34 328 13:50 08.08.2022
2288 Clear 21 1022 66 10000 1.79 55 11:58 08.08.2022
2289 Clouds 16 1022 90 10000 0.45 358 09:43 08.08.2022
2290 Clouds 13 1022 96 10000 0.45 91 05:43 08.08.2022
2291 Clouds 14 1021 93 10000 0.96 134 02:27 08.08.2022
2292 Clouds 16 1022 92 10000 0.45 5 22:25 07.08.2022
2293 Clouds 17 1021 87 10000 0.45 30 21:38 07.08.2022
2294 Clouds 18 1021 83 10000 1.79 130 20:25 07.08.2022
2295 Clouds 18 1021 83 10000 1.79 130 19:54 07.08.2022
2296 Clouds 18 1020 81 10000 1.34 79 19:33 07.08.2022
2297 Clouds 19 1020 78 10000 2.16 11 18:22 07.08.2022
2298 Clouds 20 1018 69 10000 2.25 15 16:54 07.08.2022
2299 Clouds 20 1018 67 10000 2.51 18 16:28 07.08.2022
2300 Clouds 20 1018 65 10000 2.78 9 15:19 07.08.2022
2301 Clouds 19 1018 61 10000 2.89 5 13:22 07.08.2022
2302 Clouds 18 1019 69 10000 2.08 21 10:59 07.08.2022
2303 Clouds 17 1021 85 10000 0.89 357 10:33 07.08.2022
2304 Clouds 14 1022 94 10000 1.79 12 05:48 07.08.2022
2305 Clouds 15 1023 94 10000 0.45 67 03:19 07.08.2022
2306 Clouds 15 1024 92 10000 2.68 331 23:44 06.08.2022
2307 Clouds 15 1024 92 10000 1.12 69 22:20 06.08.2022
2308 Clouds 16 1023 89 10000 0.45 149 20:26 06.08.2022
2309 Clouds 16 1023 89 10000 0.45 134 19:41 06.08.2022
2310 Clouds 16 1023 89 9102 1.34 31 18:25 06.08.2022
2311 Clouds 16 1023 90 10000 1.79 356 17:28 06.08.2022
2312 Clouds 17 1024 85 5298 1.79 352 14:31 06.08.2022
2313 Clouds 16 1024 91 4294 2.68 353 13:40 06.08.2022
2314 Clouds 16 1024 93 5138 1.34 345 11:24 06.08.2022
2315 Clouds 16 1023 92 9403 0.89 1 09:51 06.08.2022
2316 Clouds 16 1023 93 10000 0.45 196 08:28 06.08.2022
2317 Clouds 16 1023 91 2510 1.74 35 03:35 06.08.2022
2318 Rain 16 1024 89 9224 0.45 178 23:32 05.08.2022
2319 Clouds 20 1019 80 2897 1.34 183 21:54 05.08.2022
2320 Rain 23 1018 67 10000 1.79 182 19:32 05.08.2022
2321 Rain 27 1017 57 10000 0.45 322 18:44 05.08.2022
2322 Clouds 28 1017 50 10000 1.79 347 17:27 05.08.2022
2323 Clouds 29 1017 49 10000 0.89 327 16:48 05.08.2022
2324 Clouds 28 1018 51 10000 0.45 9 15:21 05.08.2022
2325 Clouds 27 1016 40 10000 3 322 13:53 05.08.2022
2326 Clouds 28 1016 38 10000 2.48 324 13:23 05.08.2022
2327 Rain 27 1016 39 10000 2.21 327 12:24 05.08.2022
2328 Rain 27 1016 39 10000 2.21 327 12:24 05.08.2022
2329 Clouds 26 1016 54 10000 1.83 327 10:44 05.08.2022
2330 Clouds 22 1016 58 10000 1.34 185 07:58 05.08.2022
2331 Rain 18 1016 79 10000 2.46 170 06:41 05.08.2022
2332 Clouds 21 1017 65 10000 0.89 178 00:30 05.08.2022
2333 Clouds 23 1016 60 10000 0.89 176 22:26 04.08.2022
2334 Clouds 25 1016 55 10000 0.89 153 21:26 04.08.2022
2335 Clouds 25 1014 46 10000 1.31 160 20:42 04.08.2022
2336 Clouds 27 1014 46 10000 0.45 153 19:37 04.08.2022
2337 Clouds 29 1016 39 10000 1.79 342 18:36 04.08.2022
2338 Clouds 32 1017 34 10000 0.89 33 17:37 04.08.2022
2339 Clear 31 1018 33 10000 1.79 344 13:57 04.08.2022
2340 Clear 29 1017 44 10000 0.89 22 12:43 04.08.2022
2341 Clear 27 1017 46 10000 0.89 3 10:51 04.08.2022
2342 Clear 22 1017 49 10000 0.45 143 07:53 04.08.2022
2343 Clear 18 1018 73 10000 2.32 174 04:43 04.08.2022
2344 Clear 17 1019 83 10000 0.45 183 02:27 04.08.2022
2345 Clear 20 1019 73 10000 2.14 171 23:44 03.08.2022
2346 Clear 21 1019 65 10000 0.45 162 22:30 03.08.2022
2347 Clear 23 1017 57 10000 0.28 133 20:50 03.08.2022
2348 Clouds 28 1017 39 10000 0.89 6 19:35 03.08.2022
2349 Clouds 29 1018 39 10000 1.79 351 18:23 03.08.2022
2350 Clouds 30 1018 41 10000 1.79 325 16:24 03.08.2022
2351 Clear 29 1018 41 10000 1.34 298 14:51 03.08.2022
2352 Clouds 26 1019 50 10000 2.24 342 12:32 03.08.2022
2353 Clouds 20 1019 55 10000 0.89 173 08:50 03.08.2022
2354 Clear 14 1019 91 10000 0.45 179 04:47 03.08.2022
2355 Clear 15 1019 85 10000 0.45 185 03:30 03.08.2022
2356 Clouds 16 1020 86 10000 0.45 209 01:35 03.08.2022
2357 Clouds 18 1020 81 10000 0.45 239 23:23 02.08.2022
2358 Clouds 19 1020 77 10000 0.89 168 21:55 02.08.2022
2359 Clouds 20 1019 73 10000 0.89 168 21:30 02.08.2022
2360 Clouds 25 1019 54 10000 0.89 298 19:19 02.08.2022
2361 Clouds 27 1019 49 10000 0.45 276 16:38 02.08.2022
2362 Clouds 24 1020 58 10000 1.34 347 12:55 02.08.2022
2363 Clouds 19 1020 77 10000 1.58 348 09:42 02.08.2022
2364 Clouds 15 1020 78 10000 0.52 187 07:56 02.08.2022
2365 Clouds 13 1020 95 10000 0.45 217 07:25 02.08.2022
2366 Clouds 13 1021 94 10000 0.45 354 04:55 02.08.2022
2367 Rain 18 1021 82 3449 0.45 204 23:52 01.08.2022
2368 Clouds 15 1021 96 9478 0.78 36 22:57 01.08.2022
2369 Clouds 16 1020 89 9511 1.12 325 20:57 01.08.2022
2370 Clouds 24 1016 53 10000 3.13 319 19:41 01.08.2022
2371 Clouds 24 1016 51 10000 1.79 327 18:43 01.08.2022
2372 Clear 26 1017 41 10000 0.89 181 16:54 01.08.2022
2373 Clear 27 1018 37 10000 3 319 16:29 01.08.2022
2374 Clear 27 1018 39 10000 2.24 58 15:31 01.08.2022
2375 Clear 27 1019 38 10000 1.34 38 14:43 01.08.2022
2376 Clear 26 1019 45 10000 0.89 15 12:52 01.08.2022
2377 Clear 22 1020 58 10000 0.45 235 10:30 01.08.2022
2378 Clouds 18 1020 73 10000 0.45 76 08:41 01.08.2022
2379 Clouds 16 1020 78 10000 1.79 178 06:50 01.08.2022
2380 Clouds 17 1020 74 10000 1.79 163 04:24 01.08.2022
2381 Clouds 19 1020 66 10000 2.24 188 00:55 01.08.2022
2382 Clouds 20 1020 66 10000 2.24 184 22:42 31.07.2022
2383 Clouds 21 1021 67 10000 2.31 184 21:46 31.07.2022
2384 Clouds 21 1019 56 10000 1.63 182 20:18 31.07.2022
2385 Clouds 23 1019 47 10000 0.45 191 18:38 31.07.2022
2386 Clouds 25 1020 43 10000 2.24 214 16:18 31.07.2022
2387 Clouds 25 1021 44 10000 0.89 219 13:59 31.07.2022
2388 Clouds 23 1021 52 10000 1.34 168 12:43 31.07.2022
2389 Clouds 20 1021 69 10000 1.64 288 10:22 31.07.2022
2390 Clouds 16 1021 78 10000 0.45 187 08:19 31.07.2022
2391 Clouds 15 1021 79 10000 0.45 223 04:30 31.07.2022
2392 Clouds 16 1022 75 10000 0.45 12 00:56 31.07.2022
2393 Clouds 17 1023 75 10000 2.61 187 22:20 30.07.2022
2394 Clouds 18 1022 62 10000 1.79 183 21:50 30.07.2022
2395 Clouds 18 1021 64 10000 1.79 183 21:20 30.07.2022
2396 Clouds 18 1021 61 10000 0.45 75 20:24 30.07.2022
2397 Clouds 21 1021 68 10000 1.27 221 19:27 30.07.2022
2398 Clouds 22 1020 48 10000 0.89 296 17:48 30.07.2022
2399 Clouds 21 1020 52 10000 1.34 180 16:21 30.07.2022
2400 Clouds 23 1021 44 10000 0.45 350 15:27 30.07.2022
2401 Clouds 21 1021 54 10000 2.24 222 13:21 30.07.2022
2402 Clouds 20 1021 64 10000 2.24 99 12:20 30.07.2022
2403 Clouds 17 1021 81 10000 1.34 136 10:36 30.07.2022
2404 Clouds 16 1021 85 10000 1.34 136 09:59 30.07.2022
2405 Clouds 14 1021 91 10000 0.89 161 08:44 30.07.2022
2406 Clouds 13 1020 95 10000 0.45 211 05:29 30.07.2022
2407 Clear 13 1021 90 10000 0.89 169 02:31 30.07.2022
2408 Rain 14 1021 92 10000 0.89 152 22:54 29.07.2022
2409 Rain 16 1020 94 9905 1.53 236 21:28 29.07.2022
2410 Rain 16 1020 95 9905 1.53 236 20:50 29.07.2022
2411 Rain 16 1020 92 5227 0.45 139 19:29 29.07.2022
2412 Rain 22 1017 59 5505 1.79 317 16:43 29.07.2022
2413 Clouds 23 1018 55 10000 1.86 339 13:46 29.07.2022
2414 Rain 20 1016 51 10000 1.89 325 11:34 29.07.2022
2415 Clouds 20 1016 53 10000 0.45 183 08:51 29.07.2022
2416 Clouds 15 1017 91 10000 1.72 165 08:21 29.07.2022
2417 Clouds 14 1017 95 10000 2.25 163 03:55 29.07.2022
2418 Rain 15 1019 87 10000 1.79 168 23:30 28.07.2022
2419 Rain 18 1014 77 6244 2.44 151 21:31 28.07.2022
2420 Clouds 19 1014 76 10000 0.45 165 20:50 28.07.2022
2421 Clouds 21 1013 70 5440 0.45 334 19:58 28.07.2022
2422 Clouds 19 1013 74 3900 0.45 334 19:26 28.07.2022
2423 Clouds 21 1013 69 10000 0.89 79 17:45 28.07.2022
2424 Clouds 22 1013 69 9375 0.89 79 17:19 28.07.2022
2425 Clouds 24 1014 59 9375 2.24 340 16:39 28.07.2022
2426 Clear 25 1015 57 10000 0.89 323 13:56 28.07.2022
2427 Clear 23 1015 55 10000 1.34 322 12:33 28.07.2022
2428 Clouds 13 1015 92 10000 1.08 146 07:33 28.07.2022
2429 Clouds 12 1016 89 10000 0.89 150 05:37 28.07.2022
2430 Clouds 12 1016 89 10000 0.89 150 05:18 28.07.2022
2431 Clouds 16 1017 79 10000 0.89 168 23:19 27.07.2022
2432 Clouds 16 1017 76 10000 1.43 113 21:30 27.07.2022
2433 Clouds 20 1016 63 10000 0.45 319 19:46 27.07.2022
2434 Clouds 20 1016 62 10000 0.45 319 18:49 27.07.2022
2435 Clouds 19 1016 67 10000 1.79 339 16:31 27.07.2022
2436 Clouds 22 1016 53 10000 2.24 317 15:41 27.07.2022
2437 Clouds 19 1016 70 10000 0.89 24 14:41 27.07.2022
2438 Clouds 18 1016 72 10000 0.45 302 13:29 27.07.2022
2439 Clouds 16 1017 81 10000 0.89 78 09:27 27.07.2022
2440 Clouds 14 1017 89 10000 0.54 92 07:40 27.07.2022
2441 Clouds 14 1018 89 10000 0.58 169 02:52 27.07.2022
2442 Clouds 16 1018 76 10000 0.89 166 22:47 26.07.2022
2443 Clouds 17 1018 78 10000 0.45 192 21:36 26.07.2022
2444 Clouds 18 1017 73 10000 1.34 176 20:49 26.07.2022
2445 Clouds 21 1018 71 10000 1.34 150 18:46 26.07.2022
2446 Clouds 21 1018 71 10000 1.34 150 18:28 26.07.2022
2447 Clouds 21 1018 66 10000 0.89 140 16:54 26.07.2022
2448 Clouds 20 1018 76 10000 0.89 175 15:43 26.07.2022
2449 Clouds 19 1019 81 10000 1.34 150 14:38 26.07.2022
2450 Clouds 17 1018 88 9583 0.89 16 11:47 26.07.2022
2451 Clouds 17 1018 88 9583 0.89 16 11:47 26.07.2022
2452 Clouds 16 1018 90 986 0.45 97 09:35 26.07.2022
2453 Clouds 15 1018 94 10000 1.79 167 07:56 26.07.2022
2454 Rain 17 1018 88 10000 0.45 148 01:44 26.07.2022
2455 Rain 18 1018 80 10000 3.13 185 23:37 25.07.2022
2456 Rain 18 1018 91 10000 2.36 162 22:33 25.07.2022
2457 Rain 16 1019 92 10000 1.52 197 21:43 25.07.2022
2458 Rain 17 1018 93 10000 2.93 172 20:42 25.07.2022
2459 Rain 18 1018 91 7309 3.5 194 19:51 25.07.2022
2460 Clouds 19 1016 68 10000 4.33 216 18:23 25.07.2022
2461 Clouds 28 1011 46 10000 1.34 344 17:34 25.07.2022
2462 Clouds 32 1015 31 10000 1.34 286 15:37 25.07.2022
2463 Clear 30 1014 35 10000 0.89 175 12:33 25.07.2022
2464 Clear 27 1015 52 10000 0.45 112 10:42 25.07.2022
2465 Clear 20 1017 74 10000 2.54 174 06:52 25.07.2022
2466 Clear 20 1018 75 10000 0.45 212 23:57 24.07.2022
2467 Clear 21 1019 74 10000 0.45 206 23:21 24.07.2022
2468 Clear 21 1018 69 10000 0.45 181 22:41 24.07.2022
2469 Clear 22 1018 68 10000 0.45 173 21:30 24.07.2022
2470 Clear 22 1018 69 10000 1.02 121 20:56 24.07.2022
2471 Clouds 23 1017 63 10000 1.57 17 20:29 24.07.2022
2472 Clouds 27 1018 52 10000 1.79 337 18:57 24.07.2022
2473 Clouds 29 1019 46 10000 1.34 351 16:51 24.07.2022
2474 Clouds 29 1019 47 10000 1.79 335 15:53 24.07.2022
2475 Clouds 28 1020 49 10000 1.79 323 14:40 24.07.2022
2476 Clouds 27 1021 51 10000 0.89 310 13:25 24.07.2022
2477 Clouds 26 1021 56 10000 3.13 356 12:19 24.07.2022
2478 Clouds 24 1021 61 10000 0.45 44 11:26 24.07.2022
2479 Clouds 21 1022 71 10000 0.45 44 09:23 24.07.2022
2480 Clouds 18 1022 80 10000 0.45 148 07:53 24.07.2022
2481 Clouds 15 1022 90 10000 1.85 161 06:34 24.07.2022
2482 Clouds 17 1022 82 10000 0.45 233 01:50 24.07.2022
2483 Clouds 19 1021 72 10000 1.21 194 22:25 23.07.2022
2484 Clouds 21 1019 70 10000 0.45 325 20:35 23.07.2022
2485 Clouds 21 1020 75 9345 1.33 330 18:52 23.07.2022
2486 Clouds 23 1020 63 10000 1.34 345 17:48 23.07.2022
2487 Clouds 23 1020 62 10000 1.34 345 17:23 23.07.2022
2488 Clouds 25 1019 57 10000 0.89 334 15:51 23.07.2022
2489 Clouds 24 1019 58 10000 0.45 343 15:20 23.07.2022
2490 Clouds 24 1021 60 10000 0.45 4 14:36 23.07.2022
2491 Clouds 23 1021 61 10000 0.89 322 13:53 23.07.2022
2492 Rain 19 1022 86 6037 0.45 8 11:46 23.07.2022
2493 Rain 19 1021 83 8598 0.89 217 10:28 23.07.2022
2494 Clouds 18 1021 83 10000 0.45 198 09:26 23.07.2022
2495 Clouds 17 1020 90 10000 1.67 156 04:59 23.07.2022
2496 Rain 18 1020 88 10000 2.23 167 02:30 23.07.2022
2497 Rain 20 1021 91 10000 3.28 155 23:39 22.07.2022
2498 Clouds 23 1017 50 4870 2.24 170 21:18 22.07.2022
2499 Clouds 26 1015 50 10000 1.01 306 19:55 22.07.2022
2500 Clouds 26 1015 54 10000 0.45 23 18:36 22.07.2022
2501 Clouds 30 1018 39 10000 1.34 1 17:37 22.07.2022
2502 Clear 30 1018 48 10000 3.13 344 15:26 22.07.2022
2503 Clear 26 1018 61 10000 1.6 356 12:23 22.07.2022
2504 Clear 21 1019 70 10000 0.45 92 09:43 22.07.2022
2505 Clear 21 1019 71 10000 0.45 92 09:18 22.07.2022
2506 Clear 15 1021 91 10000 1.47 150 07:21 22.07.2022
2507 Clear 16 1021 87 10000 0.45 154 04:18 22.07.2022
2508 Clouds 19 1022 79 10000 1.45 159 22:56 21.07.2022
2509 Clouds 21 1022 74 10000 1.79 155 21:35 21.07.2022
2510 Clouds 23 1022 63 10000 0.45 148 19:31 21.07.2022
2511 Clouds 23 1023 62 10000 0.45 180 18:28 21.07.2022
2512 Clouds 23 1023 63 10000 1.65 349 17:20 21.07.2022
2513 Clouds 22 1023 65 10000 0.45 312 15:39 21.07.2022
2514 Clouds 21 1023 68 10000 1.34 162 14:39 21.07.2022
2515 Clouds 21 1024 73 10000 1.82 332 12:54 21.07.2022
2516 Clouds 20 1024 76 10000 0.89 170 11:23 21.07.2022
2517 Clouds 18 1023 87 10000 1.33 324 09:42 21.07.2022
2518 Clouds 18 1023 90 10000 0.9 315 08:52 21.07.2022
2519 Clouds 17 1024 93 10000 1.34 177 07:50 21.07.2022
2520 Clouds 17 1022 92 10000 0.45 173 06:25 21.07.2022
2521 Clouds 19 1021 76 10000 2.24 173 01:54 21.07.2022
2522 Clouds 21 1020 76 10000 1.98 289 22:22 20.07.2022
2523 Clouds 18 1023 95 10000 1.98 289 21:42 20.07.2022
2524 Rain 22 1021 93 10000 1.86 214 20:39 20.07.2022
2525 Clouds 22 1021 91 10000 1.57 197 19:43 20.07.2022
2526 Rain 19 1020 94 10000 2.74 143 18:52 20.07.2022
2527 Rain 20 1022 94 9919 3.22 82 18:29 20.07.2022
2528 Rain 25 1018 54 9563 3.58 180 16:46 20.07.2022
2529 Rain 27 1017 48 7544 0.45 113 15:32 20.07.2022
2530 Clouds 32 1020 35 10000 1.34 347 14:26 20.07.2022
2531 Clouds 31 1019 37 10000 1.34 305 12:34 20.07.2022
2532 Clear 27 1019 48 10000 0.45 333 10:24 20.07.2022
2533 Clouds 19 1020 59 10000 2.79 175 04:50 20.07.2022
2534 Clouds 19 1020 67 10000 0.45 213 00:54 20.07.2022
2535 Clear 19 1020 66 10000 0.89 212 00:25 20.07.2022
2536 Clear 22 1020 56 10000 0.45 226 22:34 19.07.2022
2537 Clear 22 1020 56 10000 0.45 226 21:53 19.07.2022
2538 Clear 21 1020 69 10000 1.2 140 20:48 19.07.2022
2539 Clear 30 1018 50 10000 1.91 10 19:21 19.07.2022
2540 Clear 31 1019 29 10000 2.24 302 18:34 19.07.2022
2541 Clear 32 1020 30 10000 0.89 349 17:49 19.07.2022
2542 Clear 31 1020 32 10000 2.24 345 14:58 19.07.2022
2543 Clear 27 1021 44 10000 2.68 4 11:58 19.07.2022
2544 Clear 26 1021 47 10000 0.89 16 11:18 19.07.2022
2545 Clear 23 1019 52 10000 0.95 130 09:26 19.07.2022
2546 Clear 22 1020 43 10000 0.45 173 08:39 19.07.2022
2547 Clear 15 1022 78 10000 2.07 149 07:19 19.07.2022
2548 Clear 19 1022 50 10000 0.89 165 05:48 19.07.2022
2549 Clear 14 1023 77 10000 2.2 151 04:56 19.07.2022
2550 Clouds 16 1023 73 10000 0.89 170 01:50 19.07.2022
2551 Clouds 18 1024 60 10000 0.45 166 23:49 18.07.2022
2552 Clouds 19 1024 57 10000 0.45 205 23:18 18.07.2022
2553 Clouds 21 1024 51 10000 0.45 172 22:18 18.07.2022
2554 Clouds 23 1022 42 10000 1.21 106 20:51 18.07.2022
2555 Clouds 26 1023 35 10000 0.45 352 19:33 18.07.2022
2556 Clouds 29 1023 30 10000 3.13 8 17:38 18.07.2022
2557 Clouds 29 1024 30 10000 1.34 300 15:55 18.07.2022
2558 Clouds 28 1024 32 10000 2.68 331 14:51 18.07.2022
2559 Clouds 27 1025 36 10000 2.68 357 13:23 18.07.2022
2560 Clouds 24 1025 44 10000 0.89 301 11:31 18.07.2022
2561 Clear 21 1024 57 10000 0.89 328 09:28 18.07.2022
2562 Clouds 18 1027 61 10000 0.45 160 07:43 18.07.2022
2563 Clear 15 1026 74 10000 0.45 160 01:43 18.07.2022
2564 Clear 18 1027 54 10000 0.45 181 22:46 17.07.2022
2565 Clear 18 1027 54 10000 0.45 181 22:22 17.07.2022
2566 Clear 19 1025 49 10000 0.69 88 21:23 17.07.2022
2567 Clear 21 1025 47 10000 0.89 326 20:44 17.07.2022
2568 Clear 24 1024 45 10000 1.79 338 19:34 17.07.2022
2569 Clear 26 1024 38 10000 1.79 338 18:56 17.07.2022
2570 Clear 26 1024 39 10000 1.34 336 17:39 17.07.2022
2571 Clear 27 1024 40 10000 1.34 336 16:51 17.07.2022
2572 Clear 26 1024 41 10000 0.45 320 16:27 17.07.2022
2573 Clear 26 1024 41 10000 1.34 326 14:58 17.07.2022
2574 Clear 25 1025 43 10000 1.34 357 13:32 17.07.2022
2575 Clear 22 1025 52 10000 2.6 2 11:50 17.07.2022
2576 Clear 19 1024 61 10000 0.45 334 09:30 17.07.2022
2577 Clear 11 1025 83 10000 1.62 153 05:54 17.07.2022
2578 Clear 13 1026 72 10000 1.92 150 02:33 17.07.2022
2579 Clear 16 1026 63 10000 1.43 130 23:21 16.07.2022
2580 Clear 16 1026 83 10000 0.98 111 21:47 16.07.2022
2581 Clear 19 1022 54 10000 0.45 6 19:53 16.07.2022
2582 Clear 24 1022 41 10000 1.34 283 18:35 16.07.2022
2583 Clear 25 1022 41 10000 2.68 309 17:19 16.07.2022
2584 Clear 23 1022 47 10000 2.68 312 14:31 16.07.2022
2585 Clear 21 1022 52 10000 0.89 3 11:38 16.07.2022
2586 Clear 18 1022 70 10000 2.15 334 09:35 16.07.2022
2587 Clear 16 1023 68 10000 0.89 165 08:47 16.07.2022
2588 Clear 15 1023 73 10000 0.89 165 08:29 16.07.2022
2589 Clear 13 1022 78 10000 0.45 166 04:28 16.07.2022
2590 Clear 14 1022 76 10000 0.45 204 03:29 16.07.2022
2591 Clouds 18 1021 64 10000 1.34 9 23:38 15.07.2022
2592 Clouds 19 1020 60 10000 1.34 173 22:41 15.07.2022
2593 Clouds 19 1020 58 10000 1.34 176 21:29 15.07.2022
2594 Clouds 19 1020 55 10000 0.77 340 20:31 15.07.2022
2595 Clouds 25 1020 45 10000 0.45 125 18:44 15.07.2022
2596 Clouds 24 1020 47 10000 2.65 324 17:48 15.07.2022
2597 Clear 24 1020 52 10000 0.45 302 14:57 15.07.2022
2598 Clouds 22 1021 55 10000 1.79 316 13:20 15.07.2022
2599 Clouds 21 1020 61 10000 1.34 25 11:45 15.07.2022
2600 Clouds 20 1020 66 10000 0.89 51 10:27 15.07.2022
2601 Clouds 16 1021 73 10000 0.45 293 06:30 15.07.2022
2602 Clouds 18 1021 70 10000 0.45 77 01:32 15.07.2022
2603 Clouds 21 1019 63 10000 0.45 221 00:37 15.07.2022
2604 Clouds 18 1020 78 10000 2.63 186 22:53 14.07.2022
2605 Clouds 23 1017 49 10000 1.79 174 21:54 14.07.2022
2606 Clouds 23 1017 49 10000 1.79 174 21:30 14.07.2022
2607 Clouds 25 1016 45 10000 2.16 225 20:45 14.07.2022
2608 Clouds 25 1016 45 10000 1.62 246 20:24 14.07.2022
2609 Clouds 27 1015 36 10000 0.89 175 19:19 14.07.2022
2610 Clouds 30 1017 33 10000 2.24 306 16:23 14.07.2022
2611 Clouds 30 1018 33 10000 0.89 33 15:34 14.07.2022
2612 Clouds 30 1020 31 10000 0.89 236 14:31 14.07.2022
2613 Clouds 29 1019 27 10000 2.68 186 12:58 14.07.2022
2614 Clouds 28 1019 32 10000 1.79 120 11:54 14.07.2022
2615 Clouds 28 1020 31 10000 1.34 183 11:23 14.07.2022
2616 Clouds 25 1019 40 10000 0.89 340 10:37 14.07.2022
2617 Rain 19 1022 55 10000 0.45 110 07:50 14.07.2022
2618 Clouds 18 1024 62 10000 1.77 195 01:27 14.07.2022
2619 Clouds 19 1024 61 10000 1.77 195 00:54 14.07.2022
2620 Clouds 20 1024 59 10000 1.81 185 22:57 13.07.2022
2621 Clouds 21 1024 75 10000 1.36 193 22:22 13.07.2022
2622 Clouds 20 1023 75 10000 0.52 257 21:19 13.07.2022
2623 Clouds 24 1021 41 10000 0.89 170 19:58 13.07.2022
2624 Clouds 29 1022 28 10000 1.34 335 17:52 13.07.2022
2625 Clouds 28 1022 28 10000 2.24 352 16:46 13.07.2022
2626 Clouds 28 1023 30 10000 2.68 336 15:26 13.07.2022
2627 Clouds 26 1024 38 10000 0.89 333 13:24 13.07.2022
2628 Clouds 22 1024 45 10000 0.45 13 10:46 13.07.2022
2629 Clouds 22 1024 45 10000 0.45 13 10:25 13.07.2022
2630 Clouds 19 1024 55 10000 0.93 135 09:26 13.07.2022
2631 Clear 16 1024 53 10000 1.59 143 07:52 13.07.2022
2632 Clear 12 1025 85 10000 0.45 157 03:19 13.07.2022
2633 Clouds 14 1026 76 10000 1.87 145 00:18 13.07.2022
2634 Clouds 16 1025 64 10000 1.43 120 22:18 12.07.2022
2635 Clouds 17 1027 89 10000 1.43 120 21:35 12.07.2022
2636 Clouds 15 1026 86 10000 1.17 73 20:42 12.07.2022
2637 Clouds 23 1024 39 10000 1.34 344 19:37 12.07.2022
2638 Clouds 24 1024 39 10000 0.89 321 17:55 12.07.2022
2639 Clouds 24 1024 40 10000 2.24 340 16:20 12.07.2022
2640 Clouds 23 1024 47 10000 2.24 325 14:31 12.07.2022
2641 Clouds 22 1024 53 10000 2.24 280 13:21 12.07.2022
2642 Clouds 20 1024 63 10000 2.24 346 11:42 12.07.2022
2643 Clouds 18 1024 69 10000 0.45 7 10:18 12.07.2022
2644 Clouds 14 1026 84 10000 0.19 46 08:26 12.07.2022
2645 Clouds 13 1026 86 10000 0.45 173 07:38 12.07.2022
2646 Clouds 10 1025 90 10000 0.45 210 05:42 12.07.2022
2647 Clear 12 1024 87 10000 0.89 217 03:29 12.07.2022
2648 Clouds 13 1027 82 10000 1.16 166 23:43 11.07.2022
2649 Clouds 14 1026 80 10000 1.05 156 22:36 11.07.2022
2650 Clear 16 1024 72 10000 1.34 13 20:54 11.07.2022
2651 Clouds 19 1022 58 10000 2.24 306 20:25 11.07.2022
2652 Clouds 21 1022 54 10000 1.79 328 18:38 11.07.2022
2653 Clouds 21 1022 54 10000 1.79 328 17:55 11.07.2022
2654 Clouds 22 1022 54 10000 2.24 334 16:22 11.07.2022
2655 Clouds 21 1022 55 10000 1.79 333 14:49 11.07.2022
2656 Clear 19 1022 56 10000 1.34 343 12:18 11.07.2022
2657 Clear 16 1023 62 10000 0.45 40 10:42 11.07.2022
2658 Clear 16 1023 66 10000 0.45 40 09:54 11.07.2022
2659 Clear 13 1025 77 10000 0.45 322 08:35 11.07.2022
2660 Clear 11 1024 83 10000 0.15 66 07:24 11.07.2022
2661 Clouds 12 1027 78 10000 0.45 105 00:24 11.07.2022
2662 Clouds 12 1027 77 10000 1.19 175 23:32 10.07.2022
2663 Clouds 13 1026 74 10000 0.56 61 22:26 10.07.2022
2664 Clouds 14 1025 77 10000 1.53 10 20:55 10.07.2022
2665 Clouds 18 1022 59 10000 0.89 340 19:55 10.07.2022
2666 Clouds 19 1022 60 10000 2.68 358 19:20 10.07.2022
2667 Clouds 20 1022 58 10000 2.24 336 17:50 10.07.2022
2668 Clouds 19 1022 61 10000 1.79 343 16:59 10.07.2022
2669 Clouds 19 1022 58 10000 1.79 343 16:20 10.07.2022
2670 Clouds 19 1022 60 10000 1.34 75 14:35 10.07.2022
2671 Clouds 16 1023 77 10000 0.45 12 12:38 10.07.2022
2672 Clouds 15 1023 83 10000 0.45 268 11:34 10.07.2022
2673 Clouds 14 1023 89 10000 1.34 331 09:28 10.07.2022
2674 Clouds 14 1022 86 10000 0.45 342 08:38 10.07.2022
2675 Clouds 14 1024 81 10000 0.95 282 06:32 10.07.2022
2676 Clouds 15 1027 68 10000 1.48 187 23:35 09.07.2022
2677 Clouds 15 1027 69 10000 0.45 144 22:26 09.07.2022
2678 Clouds 16 1026 65 10000 0.89 157 21:40 09.07.2022
2679 Clouds 21 1024 47 10000 0.89 356 19:19 09.07.2022
2680 Clouds 22 1024 46 10000 0.89 316 18:25 09.07.2022
2681 Clouds 22 1024 44 10000 2.24 338 17:18 09.07.2022
2682 Clouds 22 1025 44 10000 0.45 353 15:56 09.07.2022
2683 Clouds 22 1025 44 10000 2.24 32 15:36 09.07.2022
2684 Clouds 21 1026 44 10000 2.68 340 13:54 09.07.2022
2685 Clouds 20 1026 47 10000 2.24 341 13:28 09.07.2022
2686 Clouds 19 1027 57 10000 0.45 7 11:34 09.07.2022
2687 Clouds 17 1027 65 10000 0.45 71 10:24 09.07.2022
2688 Clouds 14 1030 70 10000 0.45 345 08:27 09.07.2022
2689 Clear 9 1027 90 10000 0.41 138 06:59 09.07.2022
2690 Clear 9 1029 86 10000 0.45 148 04:35 09.07.2022
2691 Clear 12 1033 75 10000 0.45 156 23:27 08.07.2022
2692 Clear 14 1031 64 10000 0.45 68 21:59 08.07.2022
2693 Clear 14 1031 64 10000 0.45 68 21:18 08.07.2022
2694 Clear 17 1029 56 10000 1.34 356 20:30 08.07.2022
2695 Clear 20 1028 45 10000 2.54 359 18:33 08.07.2022
2696 Clear 20 1028 46 10000 2.24 1 17:33 08.07.2022
2697 Clear 20 1028 50 10000 1.34 355 15:30 08.07.2022
2698 Clear 20 1028 51 10000 1.34 355 14:49 08.07.2022
2699 Clouds 16 1029 65 10000 1.79 353 12:28 08.07.2022
2700 Clouds 14 1029 77 10000 0.89 330 10:45 08.07.2022
2701 Clouds 12 1029 85 10000 1.34 345 08:55 08.07.2022
2702 Clouds 13 1028 85 10000 1.26 323 06:55 08.07.2022
2703 Clouds 14 1026 84 4454 1.33 295 03:22 08.07.2022
2704 Clouds 14 1026 80 7110 0.89 330 23:56 07.07.2022
2705 Clouds 14 1026 80 6016 1.34 165 22:45 07.07.2022
2706 Clouds 13 1026 81 10000 0.45 119 20:59 07.07.2022
2707 Clouds 15 1026 81 10000 0.45 346 18:42 07.07.2022
2708 Clouds 16 1025 68 10000 0.45 4 17:41 07.07.2022
2709 Clouds 15 1025 75 10000 0.89 75 15:34 07.07.2022
2710 Clouds 17 1023 65 10000 0.45 80 13:30 07.07.2022
2711 Clouds 17 1023 66 10000 0.45 267 12:40 07.07.2022
2712 Clouds 17 1023 68 10000 0.45 267 12:20 07.07.2022
2713 Clouds 16 1022 73 10000 0.89 11 11:31 07.07.2022
2714 Clouds 16 1023 76 10000 0.89 324 10:44 07.07.2022
2715 Clouds 16 1023 76 10000 0.89 324 10:25 07.07.2022
2716 Clouds 13 1024 90 10000 0.89 185 07:40 07.07.2022
2717 Clouds 13 1024 87 10000 0.89 196 04:42 07.07.2022
2718 Clouds 14 1024 79 10000 0.45 223 23:37 06.07.2022
2719 Clouds 14 1024 79 10000 0.45 223 23:19 06.07.2022
2720 Clouds 15 1024 70 10000 1.34 171 22:57 06.07.2022
2721 Clouds 16 1024 68 10000 1.34 171 22:38 06.07.2022
2722 Clouds 16 1024 62 10000 2.68 169 21:30 06.07.2022
2723 Clouds 19 1022 56 10000 1.75 6 19:39 06.07.2022
2724 Clouds 23 1022 47 10000 1.34 60 18:29 06.07.2022
2725 Clouds 22 1022 49 10000 0.45 333 16:19 06.07.2022
2726 Clouds 22 1023 51 10000 3.13 326 14:55 06.07.2022
2727 Clear 21 1023 59 10000 2.24 359 12:40 06.07.2022
2728 Clear 21 1023 62 10000 2.24 359 11:49 06.07.2022
2729 Clear 19 1023 69 10000 0.45 106 10:18 06.07.2022
2730 Clear 15 1025 72 10000 0.88 313 07:46 06.07.2022
2731 Clear 13 1025 84 10000 0.76 223 07:23 06.07.2022
2732 Clear 13 1025 86 10000 0.45 235 03:24 06.07.2022
2733 Clouds 17 1022 68 10000 1.79 182 22:45 05.07.2022
2734 Clouds 17 1022 68 10000 1.79 182 22:45 05.07.2022
2735 Clouds 18 1022 63 10000 1.34 204 21:39 05.07.2022
2736 Clouds 18 1022 51 10000 0.38 102 20:38 05.07.2022
2737 Clouds 20 1021 59 10000 0.75 319 19:41 05.07.2022
2738 Clouds 20 1021 59 10000 1.13 325 19:22 05.07.2022
2739 Clouds 19 1022 73 10000 1.34 94 17:47 05.07.2022
2740 Clouds 19 1023 72 10000 0.89 331 16:44 05.07.2022
2741 Clouds 20 1022 72 10000 0.89 350 15:25 05.07.2022
2742 Clouds 21 1022 68 9614 0.45 69 13:53 05.07.2022
2743 Clouds 19 1022 77 8370 0.89 37 12:42 05.07.2022
2744 Clouds 18 1021 87 7678 2.2 329 11:32 05.07.2022
2745 Clouds 16 1021 95 8306 2 326 10:34 05.07.2022
2746 Rain 14 1022 96 10000 0.45 275 08:26 05.07.2022
2747 Rain 14 1022 96 10000 0.89 165 07:31 05.07.2022
2748 Clouds 14 1021 92 10000 0.45 141 04:47 05.07.2022
2749 Clouds 14 1021 92 10000 0.45 141 04:20 05.07.2022
2750 Clouds 15 1021 90 10000 0.45 147 23:42 04.07.2022
2751 Clouds 15 1022 90 10000 0.45 147 22:59 04.07.2022
2752 Clouds 15 1022 90 10000 0.89 210 22:20 04.07.2022
2753 Clouds 16 1021 88 10000 1.34 178 21:18 04.07.2022
2754 Rain 16 1020 92 10000 0.45 170 20:50 04.07.2022
2755 Rain 16 1020 92 10000 0.45 170 20:50 04.07.2022
2756 Rain 16 1021 91 10000 2.68 157 20:32 04.07.2022
2757 Rain 17 1019 88 7732 0.81 211 19:44 04.07.2022
2758 Rain 17 1019 85 7443 1.25 300 19:25 04.07.2022
2759 Clouds 23 1018 65 10000 2.24 330 17:40 04.07.2022
2760 Clouds 25 1019 54 10000 1.34 333 15:42 04.07.2022
2761 Clouds 23 1020 63 10000 0.89 152 14:39 04.07.2022
2762 Clouds 21 1021 75 10000 0.89 102 13:20 04.07.2022
2763 Clouds 19 1020 78 10000 1.79 188 11:43 04.07.2022
2764 Rain 18 1021 85 10000 1.5 324 10:33 04.07.2022
2765 Rain 16 1021 75 10000 1.19 320 09:36 04.07.2022
2766 Clouds 16 1022 87 10000 0.45 351 06:50 04.07.2022
2767 Clouds 16 1021 84 10000 0.89 117 03:23 04.07.2022
2768 Rain 19 1020 76 10000 1.97 194 23:53 03.07.2022
2769 Clear 20 1020 68 10000 0.45 220 22:55 03.07.2022
2770 Clear 24 1019 54 10000 1.34 294 20:46 03.07.2022
2771 Clear 24 1019 54 10000 1.34 294 20:20 03.07.2022
2772 Clear 26 1017 48 10000 0.89 4 19:25 03.07.2022
2773 Clear 28 1019 44 10000 2.12 346 18:31 03.07.2022
2774 Clear 29 1020 38 10000 0.45 330 17:42 03.07.2022
2775 Clear 28 1020 36 10000 0.45 336 15:28 03.07.2022
2776 Clear 28 1020 38 10000 0.45 336 14:54 03.07.2022
2777 Clear 27 1021 37 10000 0.45 55 13:50 03.07.2022
2778 Clear 26 1021 37 10000 1.34 0 12:49 03.07.2022
2779 Clear 26 1021 41 10000 1.79 327 12:19 03.07.2022
2780 Clear 24 1021 47 10000 0.89 71 10:55 03.07.2022
2781 Clear 23 1021 49 10000 0.89 354 10:36 03.07.2022
2782 Clouds 19 1022 61 10000 0.89 167 08:21 03.07.2022
2783 Clouds 18 1022 56 10000 0.89 164 07:34 03.07.2022
2784 Clouds 17 1021 90 10000 2.06 185 00:41 03.07.2022
2785 Clouds 18 1021 83 10000 0.45 179 23:38 02.07.2022
2786 Clouds 19 1020 84 10000 1.34 168 22:31 02.07.2022
2787 Clear 22 1020 70 10000 1.79 326 20:31 02.07.2022
2788 Clear 24 1020 63 10000 1.79 326 19:49 02.07.2022
2789 Clear 25 1020 61 10000 1.79 319 18:36 02.07.2022
2790 Clear 25 1020 62 10000 0.45 359 17:39 02.07.2022
2791 Clear 24 1021 61 10000 0.45 295 16:30 02.07.2022
2792 Clear 22 1019 64 10000 2.57 9 13:40 02.07.2022
2793 Clear 20 1020 44 10000 1.88 21 11:49 02.07.2022
2794 Clear 19 1021 47 10000 1.37 27 10:51 02.07.2022
2795 Clear 19 1022 53 10000 1.15 53 10:25 02.07.2022
2796 Clear 13 1025 76 10000 0.45 332 08:38 02.07.2022
2797 Clear 13 1025 76 10000 0.45 332 08:19 02.07.2022
2798 Clear 9 1024 90 10000 0.45 188 04:19 02.07.2022
2799 Clouds 11 1025 89 10000 0.45 160 00:28 02.07.2022
2800 Clouds 12 1025 87 10000 0.45 218 23:26 01.07.2022
2801 Clouds 13 1024 82 10000 0.89 174 22:33 01.07.2022
2802 Clouds 13 1024 86 10000 1.34 175 21:38 01.07.2022
2803 Clouds 15 1023 84 10000 1.34 175 20:58 01.07.2022
2804 Clouds 16 1023 77 10000 0.45 77 20:32 01.07.2022
2805 Clouds 15 1023 78 10000 0.45 185 19:36 01.07.2022
2806 Clouds 13 1023 89 10000 1.79 153 16:42 01.07.2022
2807 Rain 13 1021 84 10000 0.45 63 14:34 01.07.2022
2808 Rain 13 1022 84 364 0.45 63 13:51 01.07.2022
2809 Clouds 13 1020 88 164 0.89 123 11:22 01.07.2022
2810 Clouds 12 1020 93 316 2.24 124 10:19 01.07.2022
2811 Rain 14 1018 97 496 0.45 305 07:32 01.07.2022
2812 Rain 15 1019 89 683 0.89 147 02:43 01.07.2022
2813 Clouds 17 1015 93 10000 1.79 136 23:52 30.06.2022
2814 Clouds 17 1014 84 10000 2.31 195 22:51 30.06.2022
2815 Clouds 18 1014 83 10000 0.45 118 22:32 30.06.2022
2816 Clouds 18 1014 83 10000 0.45 118 22:32 30.06.2022
2817 Clouds 18 1014 85 10000 0.89 165 21:54 30.06.2022
2818 Clouds 19 1014 81 10000 0.89 166 20:49 30.06.2022
2819 Clouds 20 1014 79 10000 0.89 162 20:21 30.06.2022
2820 Clouds 20 1014 77 10000 0.45 151 19:48 30.06.2022
2821 Clouds 20 1014 79 6818 2.24 182 18:54 30.06.2022
2822 Clouds 17 1013 90 4580 1.87 350 17:56 30.06.2022
2823 Rain 26 1011 69 9390 2.24 305 17:18 30.06.2022
2824 Rain 25 1011 54 10000 1.75 23 16:18 30.06.2022
2825 Clouds 27 1012 55 10000 2.24 310 13:59 30.06.2022
2826 Clouds 26 1013 58 10000 0.89 310 13:21 30.06.2022
2827 Clouds 25 1012 59 10000 1.34 318 12:34 30.06.2022
2828 Clouds 23 1013 64 10000 1.34 1 10:57 30.06.2022
2829 Clouds 21 1013 67 10000 0.45 360 09:51 30.06.2022
2830 Clouds 20 1014 73 10000 0.45 360 09:23 30.06.2022
2831 Clear 16 1015 79 10000 0.45 151 07:41 30.06.2022
2832 Clear 13 1015 93 10000 0.45 214 05:46 30.06.2022
2833 Clouds 16 1016 86 10000 0.45 149 23:56 29.06.2022
2834 Clouds 17 1016 84 10000 0.45 222 22:42 29.06.2022
2835 Clouds 17 1016 83 10000 0.45 222 22:20 29.06.2022
2836 Clouds 19 1015 73 10000 0.89 165 20:54 29.06.2022
2837 Clouds 21 1015 66 10000 0.45 216 20:32 29.06.2022
2838 Clouds 22 1015 64 10000 1.79 101 19:31 29.06.2022
2839 Clouds 23 1016 61 10000 0.89 311 17:39 29.06.2022
2840 Clouds 23 1016 62 10000 0.45 13 16:31 29.06.2022
2841 Clouds 22 1015 65 10000 1.33 342 13:58 29.06.2022
2842 Clouds 21 1016 70 10000 0.45 203 12:38 29.06.2022
2843 Clouds 17 1017 89 10000 0.45 106 10:19 29.06.2022
2844 Clouds 16 1017 94 10000 0.45 337 09:31 29.06.2022
2845 Clouds 15 1016 94 10000 0.45 206 06:57 29.06.2022
2846 Rain 15 1016 92 10000 0.89 174 04:46 29.06.2022
2847 Clouds 15 1017 94 10000 0.45 160 00:54 29.06.2022
2848 Clouds 15 1017 95 10000 1.33 184 00:35 29.06.2022
2849 Clouds 16 1017 93 10000 0.45 182 22:52 28.06.2022
2850 Clouds 16 1017 91 10000 0.61 147 22:18 28.06.2022
2851 Clouds 17 1017 88 10000 0.45 160 21:49 28.06.2022
2852 Clouds 17 1016 87 10000 0.45 160 21:29 28.06.2022
2853 Rain 19 1016 76 2694 0.89 174 20:18 28.06.2022
2854 Clouds 19 1017 79 10000 0.45 307 19:32 28.06.2022
2855 Rain 19 1016 89 10000 0.67 300 18:40 28.06.2022
2856 Rain 18 1016 75 10000 0.19 344 17:36 28.06.2022
2857 Rain 18 1019 82 10000 2.68 178 15:55 28.06.2022
2858 Rain 18 1018 83 10000 1.39 87 14:54 28.06.2022
2859 Rain 18 1018 80 10000 1.53 58 14:19 28.06.2022
2860 Rain 17 1018 85 10000 1.53 58 13:45 28.06.2022
2861 Rain 17 1018 72 10000 2.11 40 12:35 28.06.2022
2862 Clouds 17 1022 81 10000 0.45 281 10:44 28.06.2022
2863 Clouds 16 1021 86 7196 0.45 316 08:56 28.06.2022
2864 Clouds 16 1021 91 7196 1.64 69 08:38 28.06.2022
2865 Clouds 14 1022 95 129 0.45 351 07:20 28.06.2022
2866 Clouds 14 1022 94 753 0.45 67 04:54 28.06.2022
2867 Rain 14 1021 94 501 1.34 286 23:53 27.06.2022
2868 Rain 14 1021 91 271 1.79 353 23:27 27.06.2022
2869 Rain 15 1023 90 271 2.68 147 22:42 27.06.2022
2870 Rain 16 1022 92 672 0.89 7 21:30 27.06.2022
2871 Clouds 17 1020 95 395 0.45 213 20:34 27.06.2022
2872 Clouds 19 1019 86 2049 0.45 139 18:52 27.06.2022
2873 Clouds 21 1019 75 1853 1.34 181 17:44 27.06.2022
2874 Clouds 21 1019 74 10000 1.34 201 15:51 27.06.2022
2875 Clouds 22 1018 70 10000 0.45 181 14:26 27.06.2022
2876 Clouds 25 1016 66 10000 0.89 356 12:59 27.06.2022
2877 Clouds 25 1016 65 10000 0.89 3 12:36 27.06.2022
2878 Clouds 22 1015 67 10000 0.45 72 09:53 27.06.2022
2879 Clouds 20 1015 77 10000 0.47 33 08:43 27.06.2022
2880 Clouds 18 1016 80 10000 0.45 131 07:53 27.06.2022
2881 Clouds 16 1016 83 10000 0.89 162 06:37 27.06.2022
2882 Clear 17 1014 85 10000 0.89 190 01:26 27.06.2022
2883 Clear 19 1015 80 10000 2.99 157 23:27 26.06.2022
2884 Clear 23 1014 69 10000 0.45 269 21:40 26.06.2022
2885 Clear 24 1013 80 10000 2.14 118 20:34 26.06.2022
2886 Clouds 27 1014 50 10000 1.34 284 19:19 26.06.2022
2887 Clouds 26 1014 51 10000 1.79 320 18:23 26.06.2022
2888 Clouds 26 1014 53 10000 3.58 330 15:38 26.06.2022
2889 Clouds 27 1015 52 10000 0.89 329 14:33 26.06.2022
2890 Clear 26 1015 52 10000 1.34 9 13:27 26.06.2022
2891 Clear 25 1015 57 10000 1.79 15 12:37 26.06.2022
2892 Clear 22 1016 63 10000 0.89 351 10:53 26.06.2022
2893 Clear 21 1016 63 10000 0.89 351 10:22 26.06.2022
2894 Clear 18 1017 79 10000 0.45 202 08:45 26.06.2022
2895 Clouds 15 1018 87 10000 1.34 185 06:50 26.06.2022
2896 Clouds 17 1015 80 10000 0.89 154 00:38 26.06.2022
2897 Clouds 17 1015 79 10000 0.89 154 00:19 26.06.2022
2898 Clouds 17 1016 78 10000 1.54 169 23:31 25.06.2022
2899 Clouds 17 1015 79 10000 0.89 178 22:48 25.06.2022
2900 Clouds 17 1015 79 10000 0.89 178 22:25 25.06.2022
2901 Clouds 18 1014 73 10000 0.89 120 21:21 25.06.2022
2902 Clouds 21 1014 62 10000 0.89 282 20:48 25.06.2022
2903 Clouds 21 1014 62 10000 0.89 282 20:25 25.06.2022
2904 Clouds 24 1014 51 10000 2.64 11 18:26 25.06.2022
2905 Clouds 23 1014 57 10000 0.45 335 17:27 25.06.2022
2906 Clouds 24 1014 53 10000 2.24 339 16:28 25.06.2022
2907 Clouds 23 1015 52 10000 0.89 10 14:41 25.06.2022
2908 Clear 22 1015 48 10000 0.45 292 12:51 25.06.2022
2909 Clear 21 1016 53 10000 1.34 12 12:31 25.06.2022
2910 Clear 17 1017 77 10000 0.45 344 09:35 25.06.2022
2911 Clear 16 1017 82 10000 0.45 344 08:54 25.06.2022
2912 Clear 16 1016 88 10000 0.34 144 08:20 25.06.2022
2913 Clear 12 1017 97 10000 1.28 146 06:36 25.06.2022
2914 Clouds 13 1017 96 10000 0.45 194 00:50 25.06.2022
2915 Clouds 12 1016 96 10000 1.79 139 23:57 24.06.2022
2916 Rain 13 1016 96 10000 0.45 216 22:28 24.06.2022
2917 Rain 13 1015 96 10000 0.45 183 21:26 24.06.2022
2918 Rain 13 1015 88 10000 0.89 179 20:23 24.06.2022
2919 Rain 14 1014 88 4375 1.34 125 19:24 24.06.2022
2920 Rain 14 1014 88 4370 1.34 125 18:51 24.06.2022
2921 Rain 13 1014 97 4370 2.83 269 18:31 24.06.2022
2922 Rain 15 1012 88 736 3.54 295 17:49 24.06.2022
2923 Clouds 18 1012 82 9829 1.79 347 16:45 24.06.2022
2924 Clouds 18 1012 82 9829 1.79 347 16:45 24.06.2022
2925 Clouds 18 1010 68 10000 2.23 0 14:30 24.06.2022
2926 Rain 18 1010 65 10000 2.28 14 13:58 24.06.2022
2927 Rain 18 1011 61 10000 1.9 356 12:49 24.06.2022
2928 Clouds 20 1012 70 10000 0.45 43 11:40 24.06.2022
2929 Clouds 17 1013 88 10000 0.45 306 10:36 24.06.2022
2930 Clouds 16 1013 87 10000 0.45 12 09:41 24.06.2022
2931 Clouds 16 1014 88 10000 0.36 103 08:53 24.06.2022
2932 Clouds 16 1014 88 10000 0.36 103 08:53 24.06.2022
2933 Clouds 16 1014 88 10000 0.45 234 07:56 24.06.2022
2934 Clouds 16 1014 83 10000 0.45 220 06:42 24.06.2022
2935 Rain 16 1014 83 10000 0.45 220 06:20 24.06.2022
2936 Clouds 16 1015 80 10000 1.34 188 03:47 24.06.2022
2937 Clouds 17 1014 89 10000 1.79 174 23:19 23.06.2022
2938 Clouds 17 1013 91 10000 0.89 179 22:40 23.06.2022
2939 Clouds 18 1013 93 4752 1.51 275 20:59 23.06.2022
2940 Clouds 17 1011 88 4752 1.51 275 20:35 23.06.2022
2941 Rain 25 1011 53 10000 1.34 215 19:40 23.06.2022
2942 Clouds 26 1011 51 10000 2.68 352 17:53 23.06.2022
2943 Clouds 27 1012 49 10000 1.79 322 17:33 23.06.2022
2944 Clouds 27 1012 49 10000 1.34 304 15:57 23.06.2022
2945 Clouds 27 1013 49 10000 3.13 333 15:24 23.06.2022
2946 Clear 26 1014 50 10000 1.34 325 13:45 23.06.2022
2947 Clear 23 1015 53 10000 0.89 348 11:27 23.06.2022
2948 Clear 21 1016 63 10000 0.89 355 10:37 23.06.2022
2949 Clear 19 1016 66 10000 0.61 7 09:18 23.06.2022
2950 Clouds 14 1016 86 10000 0.89 159 03:39 23.06.2022
2951 Clouds 15 1016 88 10000 0.89 220 00:26 23.06.2022
2952 Clouds 16 1015 91 10000 2.68 161 23:41 22.06.2022
2953 Rain 16 1016 92 10000 0.89 359 22:41 22.06.2022
2954 Rain 17 1014 91 10000 0.45 186 21:22 22.06.2022
2955 Clouds 18 1013 88 10000 0.45 282 20:43 22.06.2022
2956 Clouds 19 1013 88 10000 0.45 282 19:56 22.06.2022
2957 Clouds 18 1014 91 10000 0.45 25 18:47 22.06.2022
2958 Rain 16 1014 91 10000 1.34 145 17:28 22.06.2022
2959 Rain 16 1014 91 7991 0.89 337 16:29 22.06.2022
2960 Clouds 17 1014 91 5762 0.45 291 15:26 22.06.2022
2961 Clouds 18 1015 89 7464 0.45 230 14:20 22.06.2022
2962 Rain 18 1015 86 10000 0.45 330 13:39 22.06.2022
2963 Rain 18 1015 86 8359 0.45 330 13:21 22.06.2022
2964 Rain 20 1014 72 9252 0.89 136 11:49 22.06.2022
2965 Rain 20 1014 69 10000 0.89 112 10:57 22.06.2022
2966 Clouds 21 1014 69 10000 1.34 321 10:19 22.06.2022
2967 Rain 18 1013 68 10000 0.52 122 08:28 22.06.2022
2968 Clouds 15 1014 89 10000 2.38 164 04:50 22.06.2022
2969 Clouds 17 1015 77 10000 2.24 184 01:24 22.06.2022
2970 Clouds 18 1015 75 10000 2.24 174 00:29 22.06.2022
2971 Rain 20 1014 69 10000 3.58 182 22:19 21.06.2022
2972 Clouds 24 1010 56 10000 0.45 166 19:56 21.06.2022
2973 Clouds 23 1010 60 10000 0.89 341 18:35 21.06.2022
2974 Clouds 27 1012 48 10000 0.89 343 17:39 21.06.2022
2975 Clouds 26 1013 60 10000 0.89 330 13:54 21.06.2022
2976 Clouds 23 1015 68 10000 0.89 350 11:49 21.06.2022
2977 Clouds 22 1012 69 10000 0.45 329 10:18 21.06.2022
2978 Clouds 19 1012 76 10000 0.75 310 08:48 21.06.2022
2979 Clouds 15 1015 87 10000 0.45 157 06:36 21.06.2022
2980 Clouds 17 1016 84 10000 1.34 164 01:43 21.06.2022
2981 Clouds 16 1018 88 10000 0.8 230 23:25 20.06.2022
2982 Clouds 18 1016 82 10000 0.42 233 21:55 20.06.2022
2983 Clouds 19 1015 78 10000 0.45 150 20:53 20.06.2022
2984 Clouds 23 1014 62 10000 4.02 335 19:40 20.06.2022
2985 Clouds 25 1013 54 10000 1.79 328 18:46 20.06.2022
2986 Clouds 27 1013 46 10000 1.79 328 18:00 20.06.2022
2987 Clouds 27 1011 47 10000 0.45 154 17:35 20.06.2022
2988 Clouds 28 1014 47 10000 2.8 270 15:57 20.06.2022
2989 Clouds 25 1014 53 10000 3.58 6 12:56 20.06.2022
2990 Clouds 25 1014 50 10000 0.45 95 11:18 20.06.2022
2991 Clear 24 1015 51 10000 1.94 317 09:41 20.06.2022
2992 Clear 21 1015 58 10000 0.89 300 08:44 20.06.2022
2993 Clouds 17 1013 70 10000 0.45 159 06:19 20.06.2022
2994 Clouds 18 1013 70 10000 2.82 181 02:56 20.06.2022
2995 Clouds 20 1014 64 10000 0.45 164 00:32 20.06.2022
2996 Clouds 21 1014 63 10000 0.45 218 23:18 19.06.2022
2997 Clouds 24 1013 46 10000 0.45 183 21:59 19.06.2022
2998 Clouds 25 1012 48 10000 0.45 136 21:40 19.06.2022
2999 Clouds 27 1010 38 10000 0.45 341 20:44 19.06.2022
3000 Clouds 27 1009 38 10000 0.45 27 19:48 19.06.2022
3001 Clouds 27 1009 38 10000 0.45 27 19:20 19.06.2022
3002 Clouds 28 1009 34 10000 1.34 342 18:30 19.06.2022
3003 Clouds 29 1009 32 10000 0.89 358 17:22 19.06.2022
3004 Clouds 31 1011 30 10000 3.13 20 16:36 19.06.2022
3005 Clouds 31 1011 31 10000 2.24 7 15:43 19.06.2022
3006 Clouds 31 1011 30 10000 2.24 7 15:24 19.06.2022
3007 Clear 31 1011 28 10000 2.24 326 14:20 19.06.2022
3008 Clear 31 1012 33 10000 1.34 340 13:37 19.06.2022
3009 Clear 29 1013 36 10000 1.79 19 11:40 19.06.2022
3010 Clear 28 1013 39 10000 0.45 359 10:47 19.06.2022
3011 Clear 25 1014 47 10000 0.89 164 08:54 19.06.2022
3012 Clouds 23 1013 48 10000 0.45 182 08:22 19.06.2022
3013 Clouds 16 1015 73 10000 3.15 170 05:59 19.06.2022
3014 Clouds 17 1016 74 10000 3.41 165 02:59 19.06.2022
3015 Clear 19 1018 69 10000 2.93 158 00:26 19.06.2022
3016 Clear 21 1018 61 10000 0.89 169 23:36 18.06.2022
3017 Clear 21 1018 60 10000 1.34 173 22:55 18.06.2022
3018 Clear 22 1018 55 10000 0.45 185 21:52 18.06.2022
3019 Clear 24 1017 50 10000 1.86 128 20:49 18.06.2022
3020 Clear 26 1016 41 10000 0.45 343 19:48 18.06.2022
3021 Clear 26 1016 40 10000 2.04 51 18:54 18.06.2022
3022 Clear 29 1018 34 10000 1.34 318 17:43 18.06.2022
3023 Clear 31 1019 31 10000 1.34 318 17:22 18.06.2022
3024 Clear 30 1020 32 10000 1.34 311 15:37 18.06.2022
3025 Clear 30 1022 30 10000 2.57 33 14:48 18.06.2022
3026 Clouds 29 1022 27 10000 1.34 8 13:42 18.06.2022
3027 Clouds 28 1023 29 10000 0.89 16 11:58 18.06.2022
3028 Clouds 25 1023 34 10000 0.89 73 10:56 18.06.2022
3029 Clouds 21 1023 39 10000 0.46 121 09:28 18.06.2022
3030 Clouds 20 1023 39 10000 0.46 121 08:32 18.06.2022
3031 Clouds 15 1024 53 10000 1.97 166 07:23 18.06.2022
3032 Clouds 13 1025 75 10000 2.3 173 04:20 18.06.2022
3033 Clouds 14 1025 74 10000 0.89 224 01:27 18.06.2022
3034 Clouds 15 1025 74 10000 0.89 224 00:50 18.06.2022
3035 Clouds 16 1025 69 10000 2.01 178 00:21 18.06.2022
3036 Clouds 17 1026 66 10000 0.89 212 23:29 17.06.2022
3037 Clouds 19 1026 50 10000 1.16 158 21:44 17.06.2022
3038 Clouds 21 1025 47 10000 0.89 342 20:28 17.06.2022
3039 Clouds 25 1024 37 10000 0.89 344 18:59 17.06.2022
3040 Clouds 26 1024 36 10000 0.45 337 17:46 17.06.2022
3041 Clouds 25 1024 37 10000 2.24 341 16:43 17.06.2022
3042 Clouds 25 1024 38 10000 2.24 341 16:19 17.06.2022
3043 Clouds 26 1024 38 10000 1.34 314 15:37 17.06.2022
3044 Clouds 24 1025 42 10000 1.79 45 14:22 17.06.2022
3045 Clouds 25 1025 40 10000 1.79 45 13:51 17.06.2022
3046 Clouds 24 1025 42 10000 0.89 347 13:31 17.06.2022
3047 Clouds 23 1025 46 10000 2.24 6 11:59 17.06.2022
3048 Clouds 23 1025 45 10000 1.34 325 11:39 17.06.2022
3049 Clouds 22 1025 46 10000 1.34 325 11:21 17.06.2022
3050 Clouds 18 1024 75 10000 0.45 91 08:38 17.06.2022
3051 Clouds 16 1024 86 10000 0.45 91 07:53 17.06.2022
3052 Clouds 14 1024 82 10000 1.34 179 06:35 17.06.2022
3053 Clouds 15 1024 85 10000 0.79 180 03:24 17.06.2022
3054 Clouds 16 1024 82 10000 1.34 174 01:27 17.06.2022
3055 Clouds 17 1023 78 10000 1.34 158 23:30 16.06.2022
3056 Clouds 18 1023 77 10000 0.45 190 22:38 16.06.2022
3057 Clouds 18 1023 77 10000 0.45 190 22:38 16.06.2022
3058 Clouds 19 1022 71 10000 0.45 117 21:19 16.06.2022
3059 Clouds 20 1022 67 10000 0.45 117 20:50 16.06.2022
3060 Clouds 21 1021 62 10000 0.45 326 19:59 16.06.2022
3061 Clouds 21 1020 73 10000 0.45 344 18:48 16.06.2022
3062 Clouds 22 1021 70 10000 0.45 323 17:49 16.06.2022
3063 Clouds 22 1022 69 10000 0.45 231 17:27 16.06.2022
3064 Clouds 19 1022 81 10000 2.24 176 16:19 16.06.2022
3065 Rain 21 1021 58 10000 3.88 282 15:21 16.06.2022
3066 Rain 22 1021 77 10000 0.45 220 14:22 16.06.2022
3067 Clouds 22 1021 78 10000 0.45 178 12:53 16.06.2022
3068 Clouds 23 1021 58 10000 3.81 288 12:34 16.06.2022
3069 Clouds 21 1020 52 10000 3.43 276 11:48 16.06.2022
3070 Clouds 21 1020 57 10000 2.43 254 10:41 16.06.2022
3071 Rain 20 1020 58 10000 2.16 273 09:43 16.06.2022
3072 Rain 20 1020 68 10000 2.22 273 08:56 16.06.2022
3073 Clouds 16 1019 79 10000 0.45 130 07:41 16.06.2022
3074 Clouds 15 1019 80 10000 2.53 181 05:51 16.06.2022
3075 Clear 16 1020 73 10000 2.94 189 03:56 16.06.2022
3076 Clouds 17 1021 69 10000 2.99 196 01:52 16.06.2022
3077 Rain 17 1020 68 10000 1.34 147 01:22 16.06.2022
3078 Clouds 17 1019 71 10000 1.34 150 00:22 16.06.2022
3079 Clouds 16 1021 84 10000 2.8 175 22:53 15.06.2022
3080 Clouds 20 1021 83 10000 2.81 172 21:37 15.06.2022
3081 Clouds 21 1019 74 10000 2.2 164 20:59 15.06.2022
3082 Clouds 23 1019 74 10000 2.2 164 20:36 15.06.2022
3083 Clouds 21 1018 69 10000 0.72 212 19:57 15.06.2022
3084 Clouds 28 1018 35 10000 1.41 292 18:37 15.06.2022
3085 Clouds 28 1017 34 10000 2.88 304 17:46 15.06.2022
3086 Clouds 28 1018 36 10000 0.89 132 16:23 15.06.2022
3087 Clouds 27 1019 37 10000 0.45 205 14:57 15.06.2022
3088 Clouds 25 1019 35 10000 0.45 279 13:22 15.06.2022
3089 Clouds 25 1019 43 10000 0.45 74 12:40 15.06.2022
3090 Clear 24 1017 47 10000 0.45 298 11:25 15.06.2022
3091 Clear 22 1017 45 10000 0.45 330 10:22 15.06.2022
3092 Clear 21 1018 47 10000 1.16 257 08:59 15.06.2022
3093 Clouds 15 1018 52 10000 1.57 202 07:36 15.06.2022
3094 Clear 11 1019 55 10000 2.65 182 05:36 15.06.2022
3095 Clear 12 1019 87 10000 0.89 172 02:47 15.06.2022
3096 Clouds 13 1019 86 10000 0.45 205 01:36 15.06.2022
3097 Clouds 15 1020 78 10000 0.45 155 00:19 15.06.2022
3098 Clouds 15 1020 77 10000 1.34 168 23:38 14.06.2022
3099 Clouds 16 1020 73 10000 0.45 173 22:46 14.06.2022
3100 Clouds 17 1020 69 10000 1.66 149 21:43 14.06.2022
3101 Clear 18 1020 67 10000 0.45 78 20:58 14.06.2022
3102 Clear 18 1020 67 10000 0.45 78 20:38 14.06.2022
3103 Clear 21 1019 55 10000 1.79 326 19:47 14.06.2022
3104 Clear 24 1019 48 10000 1.79 316 18:33 14.06.2022
3105 Clear 24 1019 47 10000 0.45 7 16:53 14.06.2022
3106 Clear 24 1020 46 10000 1.79 334 16:34 14.06.2022
3107 Clear 24 1020 48 10000 1.79 344 15:36 14.06.2022
3108 Clear 23 1020 48 10000 1.79 344 14:53 14.06.2022
3109 Clear 22 1020 51 10000 2.24 305 13:59 14.06.2022
3110 Clear 21 1021 51 10000 2.68 334 12:59 14.06.2022
3111 Clear 21 1021 52 10000 1.79 341 11:56 14.06.2022
3112 Clear 19 1021 56 10000 0.89 350 10:52 14.06.2022
3113 Clear 19 1021 60 10000 0.45 108 10:28 14.06.2022
3114 Clear 16 1022 69 10000 0.97 357 09:18 14.06.2022
3115 Clear 16 1021 58 10000 0.97 357 08:37 14.06.2022
3116 Clear 9 1022 92 10000 1.64 173 06:20 14.06.2022
3117 Clear 10 1022 88 10000 0.45 222 03:45 14.06.2022
3118 Clear 12 1022 84 10000 1.28 158 01:37 14.06.2022
3119 Clear 13 1022 80 10000 0.45 227 00:21 14.06.2022
3120 Clear 13 1025 72 10000 0.45 130 22:45 13.06.2022
3121 Clear 13 1025 72 10000 0.45 130 22:22 13.06.2022
3122 Clear 15 1024 61 10000 2.24 181 21:26 13.06.2022
3123 Clouds 17 1022 64 10000 1.59 342 19:59 13.06.2022
3124 Clouds 21 1021 44 10000 0.45 288 18:54 13.06.2022
3125 Clouds 22 1021 43 10000 0.45 192 17:56 13.06.2022
3126 Clouds 21 1021 47 10000 0.45 196 17:24 13.06.2022
3127 Clouds 20 1022 48 10000 1.34 98 16:30 13.06.2022
3128 Clouds 18 1022 65 10000 3.13 116 14:49 13.06.2022
3129 Clouds 18 1022 71 10000 0.45 182 14:31 13.06.2022
3130 Clouds 16 1023 81 10000 0.89 154 13:31 13.06.2022
3131 Clouds 14 1023 85 7953 1.34 130 12:22 13.06.2022
3132 Rain 15 1021 92 2814 1.79 129 10:37 13.06.2022
3133 Rain 15 1021 93 6940 1.79 129 09:54 13.06.2022
3134 Rain 14 1021 93 10000 1.34 176 08:40 13.06.2022
3135 Clouds 15 1020 88 9892 1.82 245 06:36 13.06.2022
3136 Clouds 15 1020 90 7682 1.34 144 04:43 13.06.2022
3137 Rain 16 1023 81 10000 0.89 184 01:45 13.06.2022
3138 Rain 17 1022 73 10000 0.89 184 01:18 13.06.2022
3139 Clear 17 1020 64 10000 0.45 256 23:48 12.06.2022
3140 Clear 18 1020 61 10000 0.45 237 22:39 12.06.2022
3141 Clear 20 1020 48 10000 0.45 157 21:46 12.06.2022
3142 Clear 22 1019 44 10000 1.34 180 20:53 12.06.2022
3143 Clear 24 1018 40 10000 1.31 349 19:58 12.06.2022
3144 Clear 24 1018 40 10000 1.63 336 19:25 12.06.2022
3145 Clear 27 1020 30 10000 0.89 335 17:36 12.06.2022
3146 Clear 27 1021 25 10000 1.79 1 15:52 12.06.2022
3147 Clear 27 1021 30 10000 2.24 354 14:50 12.06.2022
3148 Clear 27 1022 31 10000 1.34 351 14:18 12.06.2022
3149 Clear 26 1022 33 10000 1.34 351 13:45 12.06.2022
3150 Clear 24 1023 35 10000 0.89 282 12:28 12.06.2022
3151 Clear 21 1024 42 10000 1.79 345 10:46 12.06.2022
3152 Clear 20 1023 35 10000 0.45 2 09:42 12.06.2022
3153 Clear 19 1024 39 10000 0.58 95 08:50 12.06.2022
3154 Clear 17 1025 32 10000 0.45 156 07:52 12.06.2022
3155 Clear 12 1024 82 10000 2.04 164 06:27 12.06.2022
3156 Clear 11 1024 85 10000 2.14 163 03:54 12.06.2022
3157 Clear 13 1025 75 10000 0.45 207 02:27 12.06.2022
3158 Clear 12 1025 81 10000 0.45 183 01:35 12.06.2022
3159 Clear 14 1025 72 10000 0.45 74 00:48 12.06.2022
3160 Clear 14 1025 71 10000 0.45 74 00:19 12.06.2022
3161 Clear 15 1025 71 10000 1.57 159 23:21 11.06.2022
3162 Clear 16 1026 65 10000 0.89 180 22:37 11.06.2022
3163 Clear 17 1026 59 10000 0.68 46 21:18 11.06.2022
3164 Clear 20 1024 53 10000 0.45 337 20:26 11.06.2022
3165 Clear 23 1023 41 10000 1.34 337 19:36 11.06.2022
3166 Clear 22 1023 47 10000 1.34 292 18:45 11.06.2022
3167 Clear 24 1023 42 10000 1.34 292 18:26 11.06.2022
3168 Clear 24 1023 41 10000 1.34 308 17:48 11.06.2022
3169 Clear 24 1023 42 10000 1.34 308 17:26 11.06.2022
3170 Clear 24 1023 42 10000 1.79 338 16:43 11.06.2022
3171 Clear 24 1023 42 10000 1.79 338 16:18 11.06.2022
3172 Clear 23 1024 43 10000 2.68 344 14:44 11.06.2022
3173 Clear 22 1024 46 10000 2.68 344 13:52 11.06.2022
3174 Clear 21 1024 45 10000 1.79 315 12:19 11.06.2022
3175 Clear 18 1024 58 10000 0.45 309 10:31 11.06.2022
3176 Clear 16 1024 65 10000 1.34 353 09:41 11.06.2022
3177 Clear 15 1026 68 10000 1.2 355 08:38 11.06.2022
3178 Clear 9 1025 86 10000 0.45 225 06:33 11.06.2022
3179 Clear 8 1024 93 10000 0.45 206 05:33 11.06.2022
3180 Clear 10 1025 88 10000 0.45 212 02:55 11.06.2022
3181 Clear 10 1024 89 10000 0.45 210 01:41 11.06.2022
3182 Clear 11 1025 86 10000 0.89 159 00:55 11.06.2022
3183 Clear 12 1027 82 10000 1.55 143 23:25 10.06.2022
3184 Clear 12 1027 78 10000 0.45 155 22:20 10.06.2022
3185 Clouds 14 1026 70 10000 1.13 66 21:22 10.06.2022
3186 Clouds 15 1025 72 10000 0.45 343 20:37 10.06.2022
3187 Clouds 16 1025 66 10000 0.45 343 20:19 10.06.2022
3188 Clouds 19 1023 55 10000 1.34 327 19:19 10.06.2022
3189 Clouds 19 1023 54 10000 0.45 4 18:29 10.06.2022
3190 Clouds 19 1023 53 10000 2.24 352 17:42 10.06.2022
3191 Clouds 19 1023 55 10000 2.24 352 16:59 10.06.2022
3192 Clouds 19 1023 56 10000 0.89 324 16:23 10.06.2022
3193 Clouds 18 1023 57 10000 0.45 252 15:37 10.06.2022
3194 Clouds 17 1024 61 10000 1.79 270 13:57 10.06.2022
3195 Clouds 17 1024 63 10000 0.89 315 12:50 10.06.2022
3196 Clouds 15 1024 68 10000 0.45 92 11:43 10.06.2022
3197 Clouds 13 1025 74 10000 0.45 327 10:45 10.06.2022
3198 Clouds 12 1025 81 10000 0.89 335 09:48 10.06.2022
3199 Clouds 10 1026 89 10000 0.45 157 08:33 10.06.2022
3200 Clouds 9 1026 93 10000 0.44 108 07:26 10.06.2022
3201 Clouds 9 1026 94 10000 0.45 168 06:44 10.06.2022
3202 Clouds 8 1026 94 10000 0.45 168 06:25 10.06.2022
3203 Clouds 9 1025 92 10000 1.34 161 03:55 10.06.2022
3204 Clouds 10 1023 94 10000 0.45 191 01:41 10.06.2022
3205 Clouds 10 1023 92 10000 0.45 306 00:32 10.06.2022
3206 Clouds 10 1024 87 10000 0.45 225 23:38 09.06.2022
3207 Clouds 11 1024 80 10000 0.54 282 22:18 09.06.2022
3208 Clouds 11 1023 82 10000 1.79 144 21:33 09.06.2022
3209 Clouds 12 1022 79 10000 1.79 144 20:54 09.06.2022
3210 Clouds 13 1020 76 10000 1.34 115 19:59 09.06.2022
3211 Clouds 13 1019 74 7574 0.45 178 19:19 09.06.2022
3212 Clouds 13 1019 69 10000 0.89 201 18:21 09.06.2022
3213 Clouds 14 1018 64 10000 1.79 146 16:50 09.06.2022
3214 Clouds 14 1017 66 10000 2.62 308 15:48 09.06.2022
3215 Clouds 13 1016 59 10000 2.93 302 14:35 09.06.2022
3216 Clouds 13 1016 61 10000 1.88 312 13:51 09.06.2022
3217 Clouds 11 1017 84 10000 0.89 142 13:27 09.06.2022
3218 Rain 10 1017 94 10000 0.89 125 11:54 09.06.2022
3219 Rain 9 1017 94 10000 0.45 208 11:18 09.06.2022
3220 Rain 9 1016 91 7364 1.61 284 09:43 09.06.2022
3221 Rain 10 1015 88 10000 1.83 284 09:23 09.06.2022
3222 Rain 9 1016 91 10000 1.34 130 07:45 09.06.2022
3223 Rain 9 1015 90 10000 4.47 185 06:28 09.06.2022
3224 Clouds 11 1014 92 10000 1.34 157 02:38 09.06.2022
3225 Clouds 11 1015 92 10000 1.34 152 23:36 08.06.2022
3226 Clouds 12 1014 94 10000 1.34 152 22:58 08.06.2022
3227 Clouds 11 1014 93 6738 0.89 148 22:26 08.06.2022
3228 Rain 11 1013 94 6738 0.89 148 21:52 08.06.2022
3229 Rain 11 1014 92 6917 1.34 217 20:59 08.06.2022
3230 Rain 12 1014 88 3706 0.89 193 19:56 08.06.2022
3231 Rain 13 1012 80 2145 0.45 224 19:27 08.06.2022
3232 Rain 13 1012 83 2145 0.45 42 18:42 08.06.2022
3233 Clouds 18 1009 70 10000 1.34 347 16:54 08.06.2022
3234 Clouds 21 1010 54 10000 1.34 281 15:44 08.06.2022
3235 Clouds 19 1011 59 10000 0.45 334 13:44 08.06.2022
3236 Clouds 18 1012 60 10000 1.34 284 11:51 08.06.2022
3237 Clouds 17 1012 65 10000 0.89 310 11:26 08.06.2022
3238 Clouds 15 1013 74 10000 0.89 90 09:55 08.06.2022
3239 Clear 14 1014 80 10000 0.89 83 09:20 08.06.2022
3240 Clouds 13 1015 90 10000 0.78 127 08:22 08.06.2022
3241 Clear 11 1016 92 10000 0.89 182 05:47 08.06.2022
3242 Clear 11 1017 94 10000 0.89 215 03:52 08.06.2022
3243 Clouds 12 1018 83 10000 0.45 203 00:29 08.06.2022
3244 Clouds 12 1018 82 10000 1.79 178 23:27 07.06.2022
3245 Clouds 12 1018 84 10000 1.79 181 22:44 07.06.2022
3246 Clouds 12 1018 83 10000 1.79 181 22:22 07.06.2022
3247 Clouds 13 1018 82 10000 0.45 146 21:28 07.06.2022
3248 Clouds 13 1018 79 10000 0.89 170 20:53 07.06.2022
3249 Clouds 15 1017 76 10000 1.79 187 20:31 07.06.2022
3250 Clouds 16 1017 71 9390 0.45 215 19:27 07.06.2022
3251 Rain 16 1017 75 10000 1.79 147 18:19 07.06.2022
3252 Rain 17 1016 71 10000 0.45 42 17:21 07.06.2022
3253 Clouds 17 1016 71 10000 0.45 137 16:41 07.06.2022
3254 Clouds 16 1017 80 10000 0.45 239 15:43 07.06.2022
3255 Clouds 16 1017 81 10000 0.45 239 15:23 07.06.2022
3256 Rain 15 1017 83 10000 0.89 336 14:46 07.06.2022
3257 Rain 15 1017 83 10000 0.89 336 14:27 07.06.2022
3258 Clouds 14 1017 90 8424 0.45 315 13:30 07.06.2022
3259 Rain 14 1018 89 7357 2.68 21 12:45 07.06.2022
3260 Rain 13 1019 93 10000 0.45 67 11:31 07.06.2022
3261 Rain 13 1018 94 10000 0.89 128 10:26 07.06.2022
3262 Rain 13 1018 95 10000 1.34 135 08:49 07.06.2022
3263 Rain 13 1018 95 10000 1.34 135 08:49 07.06.2022
3264 Rain 13 1018 95 10000 1.34 135 08:49 07.06.2022
3265 Clouds 13 1017 93 1933 0.45 194 07:23 07.06.2022
3266 Rain 13 1017 92 4720 0.89 155 05:56 07.06.2022
3267 Rain 14 1018 90 8073 3.13 181 03:18 07.06.2022
3268 Rain 15 1018 95 10000 1.34 136 00:42 07.06.2022
3269 Rain 15 1019 94 10000 1.34 138 23:35 06.06.2022
3270 Rain 15 1019 92 10000 1.34 173 22:45 06.06.2022
3271 Clouds 15 1019 92 10000 0.45 176 21:43 06.06.2022
3272 Rain 18 1018 79 9313 0.35 47 20:19 06.06.2022
3273 Clouds 20 1018 65 10000 0.45 308 19:23 06.06.2022
3274 Clouds 18 1018 68 10000 2.24 12 18:46 06.06.2022
3275 Clouds 20 1018 62 10000 2.24 12 17:52 06.06.2022
3276 Clouds 21 1018 58 10000 2.68 277 16:39 06.06.2022
3277 Clouds 22 1018 58 10000 1.79 337 15:40 06.06.2022
3278 Clouds 22 1018 57 10000 1.79 337 14:56 06.06.2022
3279 Clouds 20 1019 66 10000 2.68 302 13:37 06.06.2022
3280 Clouds 20 1019 65 10000 1.79 316 12:44 06.06.2022
3281 Clouds 20 1019 65 10000 1.79 316 12:26 06.06.2022
3282 Clouds 19 1019 68 10000 2.24 282 11:45 06.06.2022
3283 Clouds 16 1020 73 10000 1.83 354 09:43 06.06.2022
3284 Clouds 15 1020 67 10000 1.34 331 08:35 06.06.2022
3285 Clouds 14 1021 67 10000 0.45 179 07:41 06.06.2022
3286 Clouds 10 1020 94 10000 0.45 167 05:48 06.06.2022
3287 Clear 11 1020 94 10000 0.89 158 04:28 06.06.2022
3288 Clouds 13 1021 86 10000 0.89 150 01:30 06.06.2022
3289 Clouds 14 1022 86 10000 1.79 187 00:47 06.06.2022
3290 Clouds 14 1022 86 10000 1.79 187 00:28 06.06.2022
3291 Clouds 14 1022 88 10000 0.45 213 22:58 05.06.2022
3292 Rain 15 1021 84 10000 0.89 208 21:56 05.06.2022
3293 Clouds 16 1018 77 10000 1.34 170 20:23 05.06.2022
3294 Clouds 15 1019 84 8929 0.45 204 18:51 05.06.2022
3295 Rain 15 1019 89 4072 1.34 153 17:58 05.06.2022
3296 Rain 14 1017 89 4072 2.65 276 17:38 05.06.2022
3297 Rain 14 1017 89 4072 2.65 276 17:38 05.06.2022
3298 Rain 13 1014 89 3676 4.06 286 17:19 05.06.2022
3299 Rain 15 1014 85 3676 4.06 286 16:46 05.06.2022
3300 Clouds 22 1016 59 10000 1.34 341 14:59 05.06.2022
3301 Clouds 23 1016 57 10000 2.68 20 13:55 05.06.2022
3302 Clouds 23 1013 49 10000 2.41 321 11:58 05.06.2022
3303 Clouds 21 1017 67 10000 0.45 66 10:45 05.06.2022
3304 Clouds 21 1017 69 10000 0.45 66 10:24 05.06.2022
3305 Clouds 20 1017 73 10000 1.34 102 09:21 05.06.2022
3306 Clouds 19 1016 73 10000 0.89 82 08:22 05.06.2022
3307 Clouds 14 1016 94 10000 0.45 181 05:24 05.06.2022
3308 Clouds 14 1017 94 10000 0.45 180 04:36 05.06.2022
3309 Clouds 16 1018 92 10000 0.45 206 02:19 05.06.2022
3310 Clouds 16 1019 90 10000 0.89 207 01:23 05.06.2022
3311 Clouds 18 1020 87 10000 0.45 182 22:48 04.06.2022
3312 Clouds 20 1020 89 10000 2.7 145 21:24 04.06.2022
3313 Clouds 21 1018 65 10000 1.8 134 18:58 04.06.2022
3314 Clouds 26 1018 48 10000 5.36 337 16:48 04.06.2022
3315 Clear 27 1018 47 10000 5.36 337 16:20 04.06.2022
3316 Clear 26 1018 52 10000 1.34 311 15:35 04.06.2022
3317 Clouds 25 1018 56 10000 4.02 339 13:57 04.06.2022
3318 Clouds 22 1019 63 10000 0.89 352 11:28 04.06.2022
3319 Clouds 21 1019 65 10000 0.89 352 10:52 04.06.2022
3320 Clouds 17 1018 57 10000 1.67 350 09:46 04.06.2022
3321 Clouds 19 1018 63 10000 0.45 177 08:50 04.06.2022
3322 Clouds 17 1019 82 10000 1.16 351 08:31 04.06.2022
3323 Clouds 11 1019 93 10000 2.5 161 06:20 04.06.2022
3324 Clouds 11 1019 94 10000 2.4 164 03:37 04.06.2022
3325 Clouds 13 1019 94 10000 2.75 172 00:21 04.06.2022
3326 Clouds 15 1019 85 10000 0.45 198 22:54 03.06.2022
3327 Clouds 16 1019 90 10000 0.89 207 21:46 03.06.2022
3328 Rain 16 1019 90 10000 0.89 132 20:40 03.06.2022
3329 Rain 17 1019 84 10000 0.45 245 19:19 03.06.2022
3330 Rain 18 1017 80 10000 3.13 178 16:54 03.06.2022
3331 Rain 21 1016 65 10000 3.13 131 15:51 03.06.2022
3332 Clouds 26 1016 49 10000 0.89 322 13:51 03.06.2022
3333 Clouds 24 1016 52 10000 1.79 344 11:51 03.06.2022
3334 Clouds 21 1017 62 10000 0.45 290 09:54 03.06.2022
3335 Clouds 19 1018 69 10000 0.45 340 09:29 03.06.2022
3336 Clouds 19 1018 69 10000 0.45 340 09:29 03.06.2022
3337 Clouds 15 1018 74 10000 1.81 157 07:42 03.06.2022
3338 Clouds 12 1019 94 10000 0.45 219 06:46 03.06.2022
3339 Clouds 12 1019 94 10000 0.45 219 06:27 03.06.2022
3340 Clouds 13 1019 92 10000 0.45 239 02:50 03.06.2022
3341 Clouds 15 1020 87 10000 1.95 155 23:36 02.06.2022
3342 Clouds 16 1019 83 10000 1.34 155 21:58 02.06.2022
3343 Clouds 18 1019 74 10000 0.45 92 20:34 02.06.2022
3344 Clouds 20 1019 72 10000 0.45 92 19:54 02.06.2022
3345 Clouds 20 1019 65 10000 2.24 314 19:36 02.06.2022
3346 Rain 21 1018 60 10000 1.34 343 18:34 02.06.2022
3347 Clouds 19 1018 67 10000 0.89 167 16:28 02.06.2022
3348 Clouds 20 1019 64 10000 0.89 167 15:46 02.06.2022
3349 Clouds 19 1018 58 9854 2.59 330 13:30 02.06.2022
3350 Clouds 19 1018 58 9854 2.59 330 13:30 02.06.2022
3351 Clouds 18 1019 73 10000 1.34 51 12:46 02.06.2022
3352 Rain 16 1019 81 10000 0.45 244 10:34 02.06.2022
3353 Clouds 14 1018 91 10000 0.89 12 09:29 02.06.2022
3354 Clouds 13 1019 95 10000 0.89 12 08:38 02.06.2022
3355 Clouds 13 1019 96 10000 0.28 72 08:19 02.06.2022
3356 Clouds 11 1019 97 10000 0.45 197 06:20 02.06.2022
3357 Clouds 11 1018 97 10000 0.45 357 03:49 02.06.2022
3358 Rain 12 1019 95 10000 0.45 105 00:39 02.06.2022
3359 Rain 12 1019 95 10000 1.34 202 22:57 01.06.2022
3360 Clouds 13 1018 94 10000 0.45 138 21:52 01.06.2022
3361 Clouds 13 1018 93 10000 0.1 164 21:22 01.06.2022
3362 Clouds 13 1018 93 10000 0.45 161 20:38 01.06.2022
3363 Clouds 13 1018 92 10000 0.45 161 19:50 01.06.2022
3364 Rain 13 1018 91 2636 1.34 146 18:24 01.06.2022
3365 Rain 15 1017 81 10000 0.45 217 16:48 01.06.2022
3366 Rain 17 1016 67 10000 2.3 317 15:42 01.06.2022
3367 Rain 17 1016 67 10000 2.3 317 15:42 01.06.2022
3368 Clouds 19 1016 58 10000 1.79 348 14:35 01.06.2022
3369 Clouds 21 1016 51 10000 1.79 13 13:18 01.06.2022
3370 Clouds 17 1016 64 10000 0.45 3 10:42 01.06.2022
3371 Clouds 15 1017 75 10000 0.45 51 09:27 01.06.2022
3372 Clouds 12 1017 93 10000 1.28 188 07:59 01.06.2022
3373 Clouds 10 1017 94 10000 1.78 177 07:20 01.06.2022
3374 Clouds 10 1017 95 10000 0.45 185 03:22 01.06.2022
3375 Clouds 11 1017 94 10000 0.89 177 23:47 31.05.2022
3376 Clouds 11 1016 94 10000 0.89 166 22:38 31.05.2022
3377 Clouds 11 1016 94 10000 0.89 166 22:18 31.05.2022
3378 Rain 11 1016 93 10000 1.34 156 21:22 31.05.2022
3379 Rain 12 1016 91 10000 1.72 201 20:41 31.05.2022
3380 Rain 12 1015 89 5990 1.79 135 18:57 31.05.2022
3381 Rain 13 1015 84 7394 1.4 317 18:19 31.05.2022
3382 Rain 12 1015 98 7394 1.4 317 17:35 31.05.2022
3383 Rain 16 1014 58 10000 0.89 42 15:42 31.05.2022
3384 Rain 18 1013 46 10000 1.34 218 14:36 31.05.2022
3385 Clouds 20 1013 41 10000 2.68 351 12:39 31.05.2022
3386 Clouds 20 1013 41 10000 2.68 351 12:18 31.05.2022
3387 Clouds 17 1013 48 10000 0.45 129 09:53 31.05.2022
3388 Clouds 10 1013 59 10000 1.37 155 07:42 31.05.2022
3389 Clouds 6 1013 89 10000 2.73 162 05:25 31.05.2022
3390 Clouds 6 1013 87 10000 0.45 224 02:51 31.05.2022
3391 Clouds 9 1014 82 10000 0.45 190 23:29 30.05.2022
3392 Clouds 9 1014 80 10000 0.45 190 23:00 30.05.2022
3393 Clouds 9 1013 78 10000 0.45 228 22:31 30.05.2022
3394 Clouds 10 1015 84 10000 2 145 21:35 30.05.2022
3395 Clouds 8 1013 83 10000 1.24 119 20:41 30.05.2022
3396 Clouds 9 1013 83 10000 1.08 130 19:38 30.05.2022
3397 Clouds 12 1014 61 10000 1.23 161 17:44 30.05.2022
3398 Clouds 11 1014 63 10000 0.89 6 16:54 30.05.2022
3399 Clouds 12 1013 63 9146 1.34 153 15:43 30.05.2022
3400 Clouds 13 1011 56 10000 1.34 331 12:58 30.05.2022
3401 Clouds 12 1010 62 10000 0.45 355 11:26 30.05.2022
3402 Clouds 9 1010 80 10000 0.45 28 09:39 30.05.2022
3403 Clouds 5 1011 91 10000 0.45 49 07:24 30.05.2022
3404 Clouds 4 1011 92 10000 0.45 197 05:51 30.05.2022
3405 Clouds 4 1013 92 10000 1.34 137 02:36 30.05.2022
3406 Clouds 5 1014 92 10000 0.45 222 23:28 29.05.2022
3407 Clouds 6 1012 89 10000 0.45 330 22:39 29.05.2022
3408 Clouds 7 1011 85 10000 1.34 154 21:40 29.05.2022
3409 Clouds 8 1012 82 10000 1.34 159 19:57 29.05.2022
3410 Clouds 9 1012 85 10000 1.34 163 19:27 29.05.2022
3411 Rain 8 1012 77 10000 1.34 316 17:48 29.05.2022
3412 Clouds 9 1011 79 6039 3.13 13 15:50 29.05.2022
3413 Rain 10 1011 75 6039 1.79 353 15:32 29.05.2022
3414 Clouds 10 1009 69 6090 2.66 331 14:31 29.05.2022
3415 Clouds 12 1011 66 8072 0.45 321 11:55 29.05.2022
3416 Clouds 9 1011 75 10000 2.29 332 10:44 29.05.2022
3417 Rain 9 1011 80 10000 1.84 333 09:52 29.05.2022
3418 Rain 6 1012 87 10000 0.38 13 07:28 29.05.2022
3419 Clouds 5 1014 87 10000 0.45 77 04:50 29.05.2022
3420 Clouds 5 1014 87 10000 0.89 125 04:31 29.05.2022
3421 Clouds 7 1019 78 10000 1.1 115 00:35 29.05.2022
3422 Clouds 8 1020 75 10000 0.45 204 23:42 28.05.2022
3423 Clouds 9 1018 71 10000 0.45 102 22:46 28.05.2022
3424 Clouds 8 1020 75 10000 0.88 72 21:42 28.05.2022
3425 Clouds 11 1018 63 10000 1.34 307 20:30 28.05.2022
3426 Clouds 11 1018 61 10000 0.89 332 19:18 28.05.2022
3427 Clouds 13 1017 63 10000 1.79 12 17:48 28.05.2022
3428 Clouds 14 1016 56 10000 0.45 227 16:53 28.05.2022
3429 Clouds 14 1017 62 10000 2.68 302 15:44 28.05.2022
3430 Clouds 14 1018 65 10000 0.89 352 14:37 28.05.2022
3431 Clouds 14 1019 72 10000 1.34 335 13:26 28.05.2022
3432 Clouds 13 1019 81 10000 0.89 352 12:41 28.05.2022
3433 Clouds 10 1021 94 5286 0.89 181 11:27 28.05.2022
3434 Clouds 10 1021 94 973 1.34 355 10:25 28.05.2022
3435 Clouds 11 1019 89 973 0.45 322 09:30 28.05.2022
3436 Clouds 10 1019 90 7653 0.45 167 07:47 28.05.2022
3437 Clouds 10 1020 91 7726 1.26 318 06:32 28.05.2022
3438 Clouds 10 1020 87 9440 3.13 144 04:21 28.05.2022
3439 Clouds 11 1024 89 2334 1.44 301 00:50 28.05.2022
3440 Clouds 14 1022 78 8085 2.24 356 23:42 27.05.2022
3441 Clouds 13 1023 75 10000 0.45 346 22:24 27.05.2022
3442 Clouds 15 1022 74 10000 0.45 176 20:57 27.05.2022
3443 Clouds 17 1021 65 10000 1.79 308 20:31 27.05.2022
3444 Clouds 18 1020 63 10000 1.79 308 19:55 27.05.2022
3445 Clouds 17 1020 70 10000 0.89 346 19:33 27.05.2022
3446 Clouds 19 1019 69 10000 0.45 36 18:29 27.05.2022
3447 Clouds 21 1020 55 10000 0.45 153 16:42 27.05.2022
3448 Clouds 22 1020 52 10000 0.89 239 15:34 27.05.2022
3449 Clouds 22 1020 50 10000 2.68 294 14:44 27.05.2022
3450 Clouds 22 1021 47 10000 0.89 126 13:30 27.05.2022
3451 Clouds 18 1022 60 10000 0.45 329 11:41 27.05.2022
3452 Clouds 18 1022 61 10000 0.45 329 11:23 27.05.2022
3453 Clouds 17 1023 64 10000 2.24 129 10:32 27.05.2022
3454 Clouds 16 1021 66 10000 2.1 298 09:37 27.05.2022
3455 Clouds 12 1023 86 10000 1.23 252 08:19 27.05.2022
3456 Clouds 9 1025 91 10000 0.45 168 06:45 27.05.2022
3457 Clouds 10 1025 88 10000 0.45 181 02:53 27.05.2022
3458 Clouds 12 1026 82 10000 0.89 159 00:37 27.05.2022
3459 Clouds 13 1027 76 10000 0.45 156 22:47 26.05.2022
3460 Clouds 14 1026 74 10000 1.15 192 21:42 26.05.2022
3461 Clouds 14 1025 73 10000 0.59 249 20:59 26.05.2022
3462 Clouds 19 1023 54 10000 1.34 213 19:27 26.05.2022
3463 Clouds 19 1023 55 10000 1.77 324 18:19 26.05.2022
3464 Clouds 19 1023 56 10000 0.45 323 16:56 26.05.2022
3465 Clouds 20 1023 54 10000 0.89 329 15:46 26.05.2022
3466 Clouds 20 1023 53 10000 0.89 279 14:46 26.05.2022
3467 Clouds 17 1024 63 10000 0.89 5 13:23 26.05.2022
3468 Clouds 16 1025 63 10000 1.34 65 11:36 26.05.2022
3469 Clouds 15 1024 71 10000 1.49 301 10:24 26.05.2022
3470 Clouds 13 1023 83 10000 1.49 301 09:35 26.05.2022
3471 Clouds 11 1027 80 10000 1.32 301 08:37 26.05.2022
3472 Clouds 8 1024 88 10000 0.45 227 05:22 26.05.2022
3473 Clouds 10 1024 84 10000 1.34 178 01:24 26.05.2022
3474 Clouds 11 1023 86 10000 0.89 156 23:40 25.05.2022
3475 Clouds 12 1022 84 10000 1.34 169 22:29 25.05.2022
3476 Clouds 13 1023 82 10000 0.89 171 21:33 25.05.2022
3477 Clouds 14 1020 76 10000 0.89 181 20:38 25.05.2022
3478 Clouds 16 1019 65 10000 0.45 224 19:31 25.05.2022
3479 Clouds 16 1019 61 10000 0.89 328 17:46 25.05.2022
3480 Clouds 16 1019 63 10000 0.45 224 16:40 25.05.2022
3481 Clouds 16 1019 63 10000 0.45 224 15:57 25.05.2022
3482 Clouds 16 1018 62 10000 0.89 226 14:55 25.05.2022
3483 Clouds 15 1018 64 10000 0.45 41 14:33 25.05.2022
3484 Clouds 15 1018 66 10000 0.45 41 13:56 25.05.2022
3485 Clouds 15 1017 61 10000 0.64 322 12:45 25.05.2022
3486 Clouds 10 1019 93 10000 0.45 338 10:54 25.05.2022
3487 Clouds 10 1019 93 10000 1.34 331 10:19 25.05.2022
3488 Rain 10 1016 96 10000 0.89 157 08:41 25.05.2022
3489 Rain 10 1016 95 10000 0.96 210 07:23 25.05.2022
3490 Clouds 10 1015 94 4262 0.45 321 04:23 25.05.2022
3491 Rain 11 1015 90 7637 1.69 209 00:23 25.05.2022
3492 Clouds 11 1015 89 7637 0.89 174 23:47 24.05.2022
3493 Clouds 11 1015 89 7637 0.89 174 23:47 24.05.2022
3494 Clouds 11 1014 86 5834 1.34 189 22:33 24.05.2022
3495 Rain 12 1014 82 6297 0.45 186 21:41 24.05.2022
3496 Clouds 12 1014 82 10000 0.45 186 21:21 24.05.2022
3497 Clouds 11 1015 85 10000 0.45 206 20:23 24.05.2022
3498 Clouds 12 1015 79 10000 0.87 314 18:56 24.05.2022
3499 Clouds 13 1012 74 10000 0.89 117 16:58 24.05.2022
3500 Clouds 13 1012 74 10000 0.92 296 16:23 24.05.2022
3501 Clouds 13 1012 75 10000 1.79 152 14:59 24.05.2022
3502 Clouds 13 1012 80 10000 0.45 205 14:21 24.05.2022
3503 Clouds 11 1012 91 5373 1.79 154 12:50 24.05.2022
3504 Clouds 12 1012 95 1857 0.89 210 11:40 24.05.2022
3505 Rain 12 1011 92 2611 0.45 150 09:46 24.05.2022
3506 Clouds 12 1010 90 845 0.45 150 08:50 24.05.2022
3507 Clouds 12 1009 96 1053 1.34 177 06:58 24.05.2022
3508 Rain 12 1009 93 6237 1.79 183 04:30 24.05.2022
3509 Rain 13 1010 92 10000 4.92 180 02:37 24.05.2022
3510 Rain 13 1010 94 10000 0.46 159 01:42 24.05.2022
3511 Rain 14 1009 92 5580 0.45 208 23:43 23.05.2022
3512 Rain 14 1008 88 7974 2.24 171 21:59 23.05.2022
3513 Rain 14 1008 91 7974 2.24 171 21:41 23.05.2022
3514 Rain 14 1008 90 10000 2.24 193 20:42 23.05.2022
3515 Rain 14 1009 91 10000 0.45 349 19:33 23.05.2022
3516 Rain 15 1007 87 6957 1.34 184 18:59 23.05.2022
3517 Rain 19 1006 75 6957 1.34 184 18:35 23.05.2022
3518 Rain 22 1006 63 10000 3.68 266 17:38 23.05.2022
3519 Rain 23 1005 59 10000 2.68 321 15:37 23.05.2022
3520 Clouds 25 1005 48 10000 0.89 312 13:32 23.05.2022
3521 Clouds 24 1007 51 10000 0.89 11 11:34 23.05.2022
3522 Clouds 21 1008 60 10000 0.45 337 10:42 23.05.2022
3523 Clouds 19 1009 59 10000 0.45 149 09:39 23.05.2022
3524 Clouds 18 1009 63 10000 0.66 108 08:38 23.05.2022
3525 Clouds 13 1009 88 10000 0.98 215 06:47 23.05.2022
3526 Clouds 13 1009 89 10000 2.17 181 06:23 23.05.2022
3527 Clouds 14 1011 86 10000 3.1 171 02:35 23.05.2022
3528 Clouds 14 1011 84 10000 2.76 170 01:46 23.05.2022
3529 Clouds 15 1012 79 10000 3.14 169 00:44 23.05.2022
3530 Clouds 17 1013 71 10000 1.34 219 22:43 22.05.2022
3531 Clouds 17 1013 68 10000 1.34 219 21:56 22.05.2022
3532 Clouds 17 1013 65 10000 0.45 166 21:36 22.05.2022
3533 Clouds 19 1013 60 10000 1.34 16 20:37 22.05.2022
3534 Clouds 19 1013 60 6201 1.34 16 20:18 22.05.2022
3535 Clouds 21 1013 61 10000 2.24 327 18:58 22.05.2022
3536 Clouds 22 1013 62 10000 1.34 348 18:31 22.05.2022
3537 Clouds 23 1013 59 10000 1.34 348 17:51 22.05.2022
3538 Rain 22 1013 59 10000 1.34 343 16:51 22.05.2022
3539 Clouds 23 1014 60 10000 1.79 296 14:56 22.05.2022
3540 Clouds 23 1015 60 10000 0.45 319 13:57 22.05.2022
3541 Rain 21 1014 63 10000 2.13 283 12:53 22.05.2022
3542 Rain 20 1014 65 10000 2.5 296 11:52 22.05.2022
3543 Rain 18 1016 70 10000 0.89 340 10:29 22.05.2022
3544 Clouds 17 1017 72 10000 0.45 351 09:19 22.05.2022
3545 Clouds 14 1019 74 10000 0.89 181 07:34 22.05.2022
3546 Clear 12 1018 85 10000 2.24 178 06:40 22.05.2022
3547 Clear 12 1019 91 10000 1.88 198 03:20 22.05.2022
3548 Clouds 14 1020 83 10000 1.34 162 00:48 22.05.2022
3549 Clouds 15 1020 80 10000 2.24 178 23:56 21.05.2022
3550 Clouds 16 1020 78 10000 2.24 178 23:22 21.05.2022
3551 Clouds 16 1020 78 10000 0.79 183 21:59 21.05.2022
3552 Clouds 17 1020 74 10000 0.45 335 21:30 21.05.2022
3553 Clouds 18 1021 69 10000 0.45 339 20:29 21.05.2022
3554 Clouds 20 1021 63 10000 0.89 202 19:43 21.05.2022
3555 Clouds 21 1021 58 10000 1.34 299 18:31 21.05.2022
3556 Clouds 22 1022 56 10000 2.66 290 16:57 21.05.2022
3557 Clouds 21 1022 62 10000 0.45 167 14:38 21.05.2022
3558 Clouds 21 1022 63 10000 0.45 167 13:54 21.05.2022
3559 Clouds 19 1023 68 10000 0.89 296 13:18 21.05.2022
3560 Clouds 17 1023 80 10000 0.89 314 12:38 21.05.2022
3561 Clouds 15 1024 90 10000 1.34 2 10:53 21.05.2022
3562 Rain 15 1023 89 10000 1.92 294 09:53 21.05.2022
3563 Clouds 15 1023 95 10000 0.45 88 08:58 21.05.2022
3564 Rain 14 1024 96 10000 0.45 137 08:36 21.05.2022
3565 Rain 15 1024 90 10000 1.79 164 05:30 21.05.2022
3566 Clouds 14 1024 87 10000 2.27 231 01:33 21.05.2022
3567 Clouds 13 1024 87 10000 3.14 192 23:30 20.05.2022
3568 Clouds 14 1023 78 10000 3.95 180 22:26 20.05.2022
3569 Clouds 14 1023 78 10000 3.95 180 21:55 20.05.2022
3570 Rain 21 1022 74 10000 3.52 182 21:18 20.05.2022
3571 Rain 22 1018 56 10000 0.89 157 20:44 20.05.2022
3572 Clouds 26 1015 29 10000 2.45 186 19:45 20.05.2022
3573 Clouds 27 1016 27 10000 1.99 307 18:48 20.05.2022
3574 Clouds 30 1018 25 10000 1.79 238 17:48 20.05.2022
3575 Clouds 30 1018 30 10000 1.79 106 16:22 20.05.2022
3576 Clouds 29 1019 30 10000 1.79 106 15:53 20.05.2022
3577 Clouds 29 1020 31 10000 1.34 344 14:32 20.05.2022
3578 Clouds 29 1020 31 10000 2.68 180 13:56 20.05.2022
3579 Clouds 27 1022 33 10000 1.34 210 11:51 20.05.2022
3580 Clouds 25 1023 48 10000 2.24 181 10:30 20.05.2022
3581 Clouds 21 1024 55 10000 0.45 311 08:59 20.05.2022
3582 Clouds 17 1025 61 10000 1.78 167 07:42 20.05.2022
3583 Clouds 13 1024 87 10000 0.45 176 06:39 20.05.2022
3584 Clouds 13 1025 85 10000 2.75 163 05:39 20.05.2022
3585 Clouds 15 1025 87 10000 0.45 212 01:18 20.05.2022
3586 Clouds 16 1025 83 10000 0.45 197 23:28 19.05.2022
3587 Clouds 17 1025 80 10000 0.45 221 22:33 19.05.2022
3588 Clouds 16 1025 82 10000 0.45 221 21:49 19.05.2022
3589 Clouds 17 1024 73 10000 0.45 232 21:23 19.05.2022
3590 Clouds 18 1024 74 10000 0.45 166 20:40 19.05.2022
3591 Rain 17 1025 78 10000 1.34 75 19:54 19.05.2022
3592 Rain 18 1025 89 10000 2.07 147 18:45 19.05.2022
3593 Clouds 21 1025 88 7861 1.12 143 17:35 19.05.2022
3594 Clouds 27 1022 36 10000 0.89 158 15:33 19.05.2022
3595 Clouds 27 1022 37 10000 0.45 215 14:30 19.05.2022
3596 Clouds 26 1023 41 10000 0.45 215 13:53 19.05.2022
3597 Clouds 24 1024 48 10000 0.89 156 11:46 19.05.2022
3598 Clouds 24 1023 50 10000 1.37 246 09:47 19.05.2022
3599 Clouds 17 1023 71 10000 1.83 193 08:31 19.05.2022
3600 Clouds 11 1024 84 10000 3.15 170 06:39 19.05.2022
3601 Clear 12 1023 83 10000 3.03 165 02:57 19.05.2022
3602 Clear 15 1023 73 10000 0.89 165 00:47 19.05.2022
3603 Clear 16 1023 66 10000 0.45 172 23:00 18.05.2022
3604 Clear 16 1023 68 10000 1.34 207 22:40 18.05.2022
3605 Clouds 17 1023 59 10000 0.45 106 21:32 18.05.2022
3606 Clear 19 1022 53 10000 0.89 107 20:55 18.05.2022
3607 Clear 19 1022 53 10000 0.89 107 20:55 18.05.2022
3608 Clouds 19 1022 53 10000 0.89 107 20:19 18.05.2022
3609 Clouds 23 1021 42 10000 1.34 283 18:46 18.05.2022
3610 Clouds 24 1021 40 10000 1.34 342 17:41 18.05.2022
3611 Clouds 24 1021 40 10000 1.34 342 17:23 18.05.2022
3612 Clouds 24 1022 41 10000 3.58 319 16:35 18.05.2022
3613 Clouds 24 1022 40 10000 2.24 359 15:42 18.05.2022
3614 Clouds 24 1022 42 10000 2.24 359 14:54 18.05.2022
3615 Clouds 24 1023 43 10000 1.34 14 13:47 18.05.2022
3616 Clouds 23 1023 47 10000 0.89 355 12:53 18.05.2022
3617 Clouds 21 1023 54 10000 1.34 10 11:41 18.05.2022
3618 Clouds 21 1023 56 10000 1.34 10 11:23 18.05.2022
3619 Clouds 20 1023 57 10000 0.89 98 09:57 18.05.2022
3620 Clouds 14 1024 74 10000 0.72 137 07:55 18.05.2022
3621 Clouds 11 1024 91 10000 1.52 167 06:49 18.05.2022
3622 Clouds 14 1022 82 10000 0.45 210 02:23 18.05.2022
3623 Clouds 14 1022 80 10000 0.89 226 00:26 18.05.2022
3624 Clouds 15 1023 91 10000 1.55 152 22:47 17.05.2022
3625 Clouds 15 1022 90 10000 0.82 100 21:20 17.05.2022
3626 Clouds 18 1021 85 10000 1.27 29 20:29 17.05.2022
3627 Clouds 20 1020 72 10000 2.02 12 19:28 17.05.2022
3628 Clouds 22 1020 49 10000 1.34 299 17:52 17.05.2022
3629 Clouds 22 1021 48 10000 1.79 337 17:22 17.05.2022
3630 Clouds 22 1021 49 10000 2.24 357 16:34 17.05.2022
3631 Clouds 22 1021 50 10000 0.89 336 15:32 17.05.2022
3632 Clouds 21 1021 51 10000 1.34 340 14:31 17.05.2022
3633 Clouds 21 1022 53 10000 1.34 254 13:38 17.05.2022
3634 Clouds 20 1022 58 10000 1.79 282 12:23 17.05.2022
3635 Clouds 17 1023 71 10000 1.34 72 09:53 17.05.2022
3636 Clouds 15 1024 66 10000 0.45 305 08:43 17.05.2022
3637 Clouds 11 1024 90 10000 0.45 224 06:52 17.05.2022
3638 Clouds 12 1023 88 10000 0.45 138 04:28 17.05.2022
3639 Clouds 13 1024 91 10000 1.34 177 00:47 17.05.2022
3640 Rain 13 1024 95 10000 2.24 173 22:44 16.05.2022
3641 Rain 13 1024 95 10000 2.24 173 22:18 16.05.2022
3642 Rain 14 1023 90 10000 1.34 216 20:49 16.05.2022
3643 Rain 14 1021 86 10000 0.89 5 19:57 16.05.2022
3644 Rain 16 1021 82 4150 2.24 119 18:21 16.05.2022
3645 Rain 21 1020 53 10000 0.89 220 16:28 16.05.2022
3646 Clouds 21 1020 51 10000 2.24 151 14:42 16.05.2022
3647 Clouds 19 1021 66 8219 1.34 213 13:25 16.05.2022
3648 Clouds 20 1020 66 10000 1.74 315 11:33 16.05.2022
3649 Rain 21 1019 68 8840 1 320 09:58 16.05.2022
3650 Rain 14 1019 79 10000 1.79 172 07:33 16.05.2022
3651 Clouds 14 1019 82 10000 0.89 153 05:23 16.05.2022
3652 Clouds 16 1019 74 10000 0.89 202 23:56 15.05.2022
3653 Clouds 17 1018 69 10000 0.45 163 22:36 15.05.2022
3654 Clouds 17 1018 66 10000 0.89 151 21:48 15.05.2022
3655 Clouds 17 1018 66 10000 0.89 151 21:19 15.05.2022
3656 Clouds 20 1016 56 10000 0.89 352 19:56 15.05.2022
3657 Clouds 24 1017 47 10000 1.34 323 17:55 15.05.2022
3658 Clouds 24 1017 45 10000 2.24 333 16:36 15.05.2022
3659 Clouds 23 1017 49 10000 1.79 343 14:18 15.05.2022
3660 Clouds 23 1018 51 10000 1.79 301 13:27 15.05.2022
3661 Clouds 22 1019 55 10000 3.13 16 11:55 15.05.2022
3662 Clouds 19 1019 61 10000 0.45 329 10:35 15.05.2022
3663 Clouds 16 1020 64 10000 0.89 163 08:52 15.05.2022
3664 Clouds 13 1021 71 10000 0.89 163 06:59 15.05.2022
3665 Clouds 9 1020 92 10000 0.45 162 06:38 15.05.2022
3666 Clouds 12 1021 85 10000 0.45 160 01:43 15.05.2022
3667 Clouds 13 1021 79 10000 0.45 211 23:56 14.05.2022
3668 Clouds 14 1022 78 10000 0.89 210 23:34 14.05.2022
3669 Clouds 14 1022 72 10000 0.45 153 21:45 14.05.2022
3670 Clear 14 1022 72 10000 0.45 153 21:19 14.05.2022
3671 Clouds 17 1020 66 10000 0.89 329 19:40 14.05.2022
3672 Clouds 17 1020 66 10000 0.89 329 19:40 14.05.2022
3673 Clouds 17 1020 66 10000 0.89 329 19:40 14.05.2022
3674 Clouds 19 1020 60 10000 0.89 329 19:20 14.05.2022
3675 Clouds 20 1019 55 10000 1.79 22 18:47 14.05.2022
3676 Clouds 21 1019 53 10000 1.79 322 17:36 14.05.2022
3677 Clouds 21 1020 52 10000 1.34 285 15:47 14.05.2022
3678 Clouds 22 1021 53 10000 2.68 324 14:36 14.05.2022
3679 Clouds 20 1021 60 10000 1.79 293 12:51 14.05.2022
3680 Clouds 18 1021 67 10000 1.34 32 11:37 14.05.2022
3681 Clouds 16 1022 79 10000 0.45 312 10:23 14.05.2022
3682 Clouds 16 1022 80 10000 0.45 312 09:54 14.05.2022
3683 Clouds 14 1023 86 10000 0.45 357 08:56 14.05.2022
3684 Clouds 12 1022 90 10000 0.45 311 06:52 14.05.2022
3685 Clouds 12 1022 91 10000 0.45 166 03:41 14.05.2022
3686 Clouds 14 1023 83 10000 0.89 171 23:48 13.05.2022
3687 Clouds 14 1023 83 10000 0.89 171 23:22 13.05.2022
3688 Clouds 14 1023 82 10000 0.89 168 22:51 13.05.2022
3689 Clouds 14 1023 79 10000 0.89 168 22:19 13.05.2022
3690 Clouds 14 1023 81 10000 0.94 310 20:49 13.05.2022
3691 Clouds 16 1022 78 10000 1.34 154 20:27 13.05.2022
3692 Clouds 16 1022 75 10000 0.45 214 19:34 13.05.2022
3693 Clouds 18 1022 72 10000 0.45 144 18:41 13.05.2022
3694 Clouds 18 1021 72 10000 1.79 178 17:29 13.05.2022
3695 Rain 17 1022 78 10000 0.45 349 16:23 13.05.2022
3696 Clouds 17 1022 78 10000 1.89 295 15:39 13.05.2022
3697 Clouds 16 1022 80 10000 2.24 339 13:54 13.05.2022
3698 Clouds 17 1022 71 10000 0.89 136 12:32 13.05.2022
3699 Clouds 17 1021 78 10000 0.89 91 11:23 13.05.2022
3700 Clouds 17 1021 78 10000 0.89 91 11:23 13.05.2022
3701 Clouds 15 1022 86 10000 0.89 171 09:35 13.05.2022
3702 Clouds 14 1023 88 10000 3.13 183 08:49 13.05.2022
3703 Rain 14 1022 89 10000 0.45 185 07:48 13.05.2022
3704 Rain 13 1022 90 10000 1.79 140 06:33 13.05.2022
3705 Rain 13 1022 90 10000 1.79 140 06:33 13.05.2022
3706 Rain 15 1023 86 10000 0.45 154 03:34 13.05.2022
3707 Clouds 15 1023 80 10000 1.79 187 00:39 13.05.2022
3708 Rain 16 1022 68 10000 0.45 141 22:45 12.05.2022
3709 Clouds 14 1022 94 10000 2.17 162 21:56 12.05.2022
3710 Clouds 14 1020 85 4969 2.15 262 20:29 12.05.2022
3711 Clouds 21 1018 44 7286 0.45 86 19:18 12.05.2022
3712 Clouds 23 1017 38 10000 0.89 160 17:24 12.05.2022
3713 Clouds 24 1018 32 10000 1.34 339 16:18 12.05.2022
3714 Clouds 25 1020 34 10000 2.24 318 14:42 12.05.2022
3715 Clouds 24 1020 38 10000 2.24 14 13:46 12.05.2022
3716 Clouds 22 1021 43 10000 1.79 90 10:52 12.05.2022
3717 Clouds 19 1021 55 10000 0.89 74 09:30 12.05.2022
3718 Clouds 17 1021 68 10000 0.89 74 08:51 12.05.2022
3719 Clouds 14 1021 70 10000 0.45 1 07:40 12.05.2022
3720 Clouds 13 1020 80 10000 0.45 300 06:34 12.05.2022
3721 Clouds 13 1019 80 10000 0.45 246 02:58 12.05.2022
3722 Clouds 16 1019 70 10000 0.45 195 00:39 12.05.2022
3723 Clear 18 1021 60 10000 3.05 176 22:39 11.05.2022
3724 Clear 13 1021 65 10000 3.02 175 21:52 11.05.2022
3725 Clouds 18 1020 70 10000 2.74 178 21:24 11.05.2022
3726 Clouds 22 1015 48 10000 1.03 233 18:58 11.05.2022
3727 Clouds 24 1015 43 10000 0.45 348 16:59 11.05.2022
3728 Clouds 25 1016 38 10000 1.79 282 15:50 11.05.2022
3729 Clouds 24 1017 40 10000 0.89 9 14:39 11.05.2022
3730 Clouds 24 1017 39 10000 0.89 9 14:19 11.05.2022
3731 Clouds 22 1019 40 10000 2.68 117 11:54 11.05.2022
3732 Clouds 22 1019 42 10000 1.34 184 11:23 11.05.2022
3733 Clouds 16 1021 58 10000 0.89 165 08:46 11.05.2022
3734 Clouds 10 1020 83 10000 0.89 211 05:31 11.05.2022
3735 Clouds 13 1021 74 10000 0.45 288 01:23 11.05.2022
3736 Clouds 15 1021 65 10000 1.34 175 22:32 10.05.2022
3737 Clouds 16 1020 68 10000 2.11 179 21:57 10.05.2022
3738 Clouds 16 1022 64 10000 1.79 169 20:58 10.05.2022
3739 Clouds 16 1022 64 10000 1.79 169 20:18 10.05.2022
3740 Clouds 20 1020 49 10000 1.65 311 18:27 10.05.2022
3741 Clouds 21 1020 47 10000 1.34 19 17:34 10.05.2022
3742 Clouds 21 1021 44 10000 1.34 20 15:41 10.05.2022
3743 Clear 20 1022 50 10000 1.79 9 12:47 10.05.2022
3744 Clear 19 1022 53 10000 1.79 9 11:51 10.05.2022
3745 Clear 18 1022 55 10000 1.34 8 11:21 10.05.2022
3746 Clear 18 1022 54 10000 1.34 8 10:54 10.05.2022
3747 Clear 14 1023 70 10000 0.36 222 09:26 10.05.2022
3748 Clear 7 1024 94 10000 2.21 168 07:26 10.05.2022
3749 Clear 7 1023 94 10000 0.45 200 04:32 10.05.2022
3750 Clouds 9 1025 88 10000 0.89 176 01:34 10.05.2022
3751 Clouds 11 1025 87 10000 0.45 66 23:26 09.05.2022
3752 Clouds 12 1025 88 10000 0.45 129 21:58 09.05.2022
3753 Clouds 12 1027 87 10000 0.45 149 21:18 09.05.2022
3754 Rain 15 1024 79 10000 1.34 178 19:29 09.05.2022
3755 Rain 15 1023 75 7047 0.89 184 17:52 09.05.2022
3756 Clouds 14 1024 82 5025 1.02 0 16:38 09.05.2022
3757 Rain 15 1025 77 5061 0.45 74 15:52 09.05.2022
3758 Rain 16 1025 75 4845 0.45 74 15:27 09.05.2022
3759 Rain 17 1024 72 10000 0.45 311 14:31 09.05.2022
3760 Rain 17 1023 70 10000 0.45 346 13:50 09.05.2022
3761 Clouds 16 1024 71 10000 0.89 174 12:26 09.05.2022
3762 Clouds 15 1025 77 10000 0.89 324 11:37 09.05.2022
3763 Clouds 15 1023 74 10000 1.16 7 10:43 09.05.2022
3764 Clouds 13 1023 80 10000 0.66 41 08:51 09.05.2022
3765 Clouds 9 1027 96 10000 1.79 184 07:54 09.05.2022
3766 Clouds 9 1026 96 10000 0.89 161 03:36 09.05.2022
3767 Clouds 10 1026 93 10000 1.69 147 23:37 08.05.2022
3768 Clouds 11 1026 92 10000 0.45 180 22:56 08.05.2022
3769 Clouds 11 1025 90 10000 1.42 130 21:55 08.05.2022
3770 Clouds 12 1025 88 10000 0.89 7 20:35 08.05.2022
3771 Clouds 12 1024 85 10000 0.45 308 19:45 08.05.2022
3772 Clouds 15 1020 72 10000 1.52 54 18:54 08.05.2022
3773 Clouds 15 1020 74 10000 1.83 38 18:18 08.05.2022
3774 Clouds 15 1021 71 10000 0.45 349 16:44 08.05.2022
3775 Clouds 14 1021 75 10000 0.89 343 15:39 08.05.2022
3776 Clouds 14 1021 73 10000 0.45 9 14:45 08.05.2022
3777 Clouds 14 1021 83 10000 0.89 53 12:27 08.05.2022
3778 Clouds 12 1021 86 10000 0.89 84 10:32 08.05.2022
3779 Clouds 12 1021 88 10000 0.89 84 09:57 08.05.2022
3780 Clouds 11 1021 92 10000 0.45 359 08:56 08.05.2022
3781 Clouds 9 1022 96 10000 0.45 338 06:58 08.05.2022
3782 Clouds 9 1022 97 10000 0.45 40 03:40 08.05.2022
3783 Clouds 9 1023 96 10000 1.08 107 02:45 08.05.2022
3784 Clouds 9 1023 96 10000 1.18 120 00:24 08.05.2022
3785 Rain 9 1023 96 10000 1.18 120 23:49 07.05.2022
3786 Clouds 9 1023 95 10000 1.3 124 22:46 07.05.2022
3787 Clouds 9 1022 96 10000 1.34 10 21:58 07.05.2022
3788 Clouds 10 1022 95 10000 1.34 10 21:33 07.05.2022
3789 Clouds 10 1022 94 10000 0.45 350 20:28 07.05.2022
3790 Clouds 11 1020 92 10000 0.45 2 19:23 07.05.2022
3791 Clouds 11 1019 91 10000 2.02 45 17:34 07.05.2022
3792 Clouds 12 1019 91 10000 2.24 38 15:41 07.05.2022
3793 Clouds 10 1025 95 10000 1.79 28 12:50 07.05.2022
3794 Clouds 10 1021 94 10000 1.56 44 10:33 07.05.2022
3795 Clouds 10 1021 95 10000 1.13 35 08:52 07.05.2022
3796 Clouds 9 1025 97 10000 0.95 51 07:50 07.05.2022
3797 Clouds 8 1025 97 10000 0.45 176 06:43 07.05.2022
3798 Clouds 9 1025 97 10000 0.45 356 04:35 07.05.2022
3799 Rain 9 1026 96 10000 0.47 51 00:56 07.05.2022
3800 Clouds 9 1026 96 7753 0.45 12 23:28 06.05.2022
3801 Clouds 9 1024 96 10000 1.34 7 22:21 06.05.2022
3802 Clouds 9 1023 96 10000 1.34 12 21:36 06.05.2022
3803 Rain 10 1023 96 907 0.45 356 20:20 06.05.2022
3804 Clouds 10 1023 95 818 0.89 354 19:29 06.05.2022
3805 Clouds 10 1023 95 818 1.34 8 18:54 06.05.2022
3806 Clouds 11 1020 90 1503 3.13 310 17:38 06.05.2022
3807 Rain 11 1022 89 615 1.79 349 15:56 06.05.2022
3808 Clouds 12 1020 85 615 2.24 352 15:33 06.05.2022
3809 Clouds 12 1020 85 2671 1.58 357 14:22 06.05.2022
3810 Clouds 11 1020 92 654 0.45 12 12:52 06.05.2022
3811 Clouds 10 1022 94 1792 0.89 72 12:20 06.05.2022
3812 Clouds 10 1021 90 1792 0.45 48 11:31 06.05.2022
3813 Clouds 9 1020 95 10000 0.51 355 09:48 06.05.2022
3814 Clouds 9 1020 95 10000 0.51 355 09:48 06.05.2022
3815 Clouds 9 1020 96 10000 0.36 12 09:19 06.05.2022
3816 Clouds 9 1020 96 2001 0.45 338 07:56 06.05.2022
3817 Clouds 8 1022 96 246 0.9 359 06:28 06.05.2022
3818 Clouds 8 1022 97 256 0.95 330 04:29 06.05.2022
3819 Clouds 9 1021 95 1268 1.17 294 02:38 06.05.2022
3820 Clouds 9 1022 96 1304 0.89 359 23:25 05.05.2022
3821 Clouds 10 1020 94 4571 0.45 308 21:51 05.05.2022
3822 Rain 10 1019 91 4214 0.75 81 20:37 05.05.2022
3823 Clouds 10 1019 90 6316 2.24 306 19:20 05.05.2022
3824 Rain 13 1018 77 6172 0.89 143 16:49 05.05.2022
3825 Rain 14 1018 71 7961 2.68 330 15:46 05.05.2022
3826 Clouds 15 1018 63 9682 0.89 9 13:41 05.05.2022
3827 Clouds 16 1018 63 10000 0.89 9 13:18 05.05.2022
3828 Clouds 15 1019 61 10000 1.25 19 11:42 05.05.2022
3829 Clouds 12 1019 75 10000 0.89 80 09:46 05.05.2022
3830 Clouds 11 1019 80 10000 0.89 80 08:54 05.05.2022
3831 Clouds 7 1018 92 10000 2.59 167 06:28 05.05.2022
3832 Clouds 8 1020 86 10000 0.45 226 02:27 05.05.2022
3833 Clouds 8 1021 87 10000 2.9 165 01:44 05.05.2022
3834 Clouds 9 1021 89 10000 2.93 165 00:49 05.05.2022
3835 Clouds 9 1021 92 10000 2.95 164 23:22 04.05.2022
3836 Clouds 9 1020 76 10000 0.89 179 21:59 04.05.2022
3837 Clouds 10 1020 76 10000 0.89 179 21:34 04.05.2022
3838 Clouds 10 1020 72 10000 2.6 166 20:55 04.05.2022
3839 Clouds 10 1020 72 10000 2.66 173 20:18 04.05.2022
3840 Clouds 12 1017 68 10000 2.24 220 19:35 04.05.2022
3841 Clouds 12 1018 70 9909 2.24 164 18:43 04.05.2022
3842 Clouds 12 1018 70 4826 2.24 164 18:19 04.05.2022
3843 Rain 12 1018 76 5139 2.68 150 17:22 04.05.2022
3844 Rain 13 1017 73 5179 1.79 178 15:34 04.05.2022
3845 Rain 15 1018 56 5103 1.24 286 14:41 04.05.2022
3846 Rain 16 1016 49 5201 1.11 283 14:19 04.05.2022
3847 Clouds 14 1019 57 9684 0.89 320 12:39 04.05.2022
3848 Clouds 14 1017 63 10000 0.67 245 11:40 04.05.2022
3849 Clouds 11 1020 73 8362 0.89 179 10:27 04.05.2022
3850 Clouds 11 1018 78 8063 1.02 212 09:21 04.05.2022
3851 Clouds 9 1018 83 10000 0.45 164 07:51 04.05.2022
3852 Clouds 7 1018 89 10000 0.89 181 04:45 04.05.2022
3853 Clouds 8 1018 86 10000 0.89 215 02:33 04.05.2022
3854 Rain 9 1017 81 10000 1.34 175 22:59 03.05.2022
3855 Clouds 10 1018 84 10000 1.34 160 21:53 03.05.2022
3856 Clouds 10 1017 82 10000 1.79 138 21:31 03.05.2022
3857 Rain 11 1016 70 10000 2.24 173 20:46 03.05.2022
3858 Clouds 13 1015 66 10000 0.45 166 19:32 03.05.2022
3859 Clouds 13 1015 63 10000 1.79 240 18:43 03.05.2022
3860 Rain 15 1014 54 10000 1.34 222 17:21 03.05.2022
3861 Rain 16 1014 44 10000 0.45 285 15:57 03.05.2022
3862 Clouds 16 1014 53 10000 2.24 357 14:23 03.05.2022
3863 Rain 15 1015 54 10000 1.34 356 12:35 03.05.2022
3864 Clouds 14 1015 59 10000 1.79 325 11:35 03.05.2022
3865 Clouds 13 1015 65 10000 1.34 54 10:44 03.05.2022
3866 Clouds 9 1016 85 10000 1.52 166 08:19 03.05.2022
3867 Clouds 3 1014 95 10000 0.45 195 06:45 03.05.2022
3868 Clouds 7 1015 91 10000 0.89 211 02:39 03.05.2022
3869 Rain 8 1016 85 10000 2.68 167 23:19 02.05.2022
3870 Rain 8 1016 85 10000 1.79 168 22:28 02.05.2022
3871 Rain 10 1016 84 10000 1.34 234 21:37 02.05.2022
3872 Clouds 13 1016 65 9522 1.19 17 19:26 02.05.2022
3873 Clouds 13 1016 64 7919 0.45 345 18:26 02.05.2022
3874 Clouds 14 1015 56 7919 1.34 10 17:39 02.05.2022
3875 Clouds 16 1013 52 7729 1.37 359 16:43 02.05.2022
3876 Clouds 14 1016 56 10000 0.45 171 15:41 02.05.2022
3877 Clouds 16 1014 51 10000 1.51 9 14:45 02.05.2022
3878 Clouds 14 1015 51 10000 2.24 302 13:42 02.05.2022
3879 Clouds 13 1016 61 10000 2.68 322 11:41 02.05.2022
3880 Clouds 9 1017 72 10000 0.45 36 09:45 02.05.2022
3881 Clouds 7 1019 73 10000 0.89 172 08:29 02.05.2022
3882 Clouds 2 1016 93 10000 0.45 143 06:53 02.05.2022
3883 Clouds 5 1020 86 10000 1.47 154 00:46 02.05.2022
3884 Clouds 5 1020 86 10000 1.28 151 00:22 02.05.2022
3885 Clouds 7 1020 84 10000 0.89 149 22:55 01.05.2022
3886 Clouds 8 1020 79 10000 0.89 147 21:43 01.05.2022
3887 Clouds 10 1020 73 10000 0.89 302 20:36 01.05.2022
3888 Clouds 11 1017 66 10000 1.34 315 19:22 01.05.2022
3889 Clouds 12 1017 65 10000 1.34 315 18:52 01.05.2022
3890 Clouds 11 1021 70 10000 1.34 341 17:50 01.05.2022
3891 Clouds 13 1018 87 10000 0.81 31 16:38 01.05.2022
3892 Clouds 12 1018 67 10000 1.1 27 15:57 01.05.2022
3893 Clouds 12 1018 65 10000 2.68 338 14:45 01.05.2022
3894 Clouds 10 1022 72 8884 1.34 98 12:40 01.05.2022
3895 Clouds 9 1019 82 10000 0.45 3 10:22 01.05.2022
3896 Clouds 7 1019 92 10000 0.45 288 08:50 01.05.2022
3897 Clouds 6 1021 94 10000 0.45 106 06:50 01.05.2022
3898 Clouds 6 1022 92 10000 0.45 37 02:31 01.05.2022
3899 Clouds 6 1023 90 10000 0.45 70 22:51 30.04.2022
3900 Clouds 7 1023 88 10000 0.25 142 21:33 30.04.2022
3901 Clouds 7 1022 85 10000 0.89 164 20:19 30.04.2022
3902 Clouds 8 1020 84 7914 0.45 354 19:25 30.04.2022
3903 Clouds 10 1021 71 10000 0.45 346 17:32 30.04.2022
3904 Clouds 11 1020 71 10000 0.45 298 15:53 30.04.2022
3905 Clouds 11 1020 75 10000 2.24 157 15:18 30.04.2022
3906 Clouds 9 1021 87 7446 0.45 166 13:59 30.04.2022
3907 Rain 7 1024 90 575 0.89 151 11:58 30.04.2022
3908 Rain 8 1021 92 575 0.45 211 11:31 30.04.2022
3909 Rain 7 1023 93 415 0.89 91 10:23 30.04.2022
3910 Rain 7 1023 90 10000 0.89 128 07:47 30.04.2022
3911 Clouds 8 1021 77 10000 0.89 167 04:25 30.04.2022
3912 Clouds 9 1023 71 10000 1.5 190 23:57 29.04.2022
3913 Clouds 9 1023 70 10000 1.34 173 22:56 29.04.2022
3914 Clouds 11 1025 64 10000 2.24 186 21:56 29.04.2022
3915 Clouds 10 1025 61 10000 2.24 186 21:25 29.04.2022
3916 Clouds 11 1025 59 10000 0.95 315 20:24 29.04.2022
3917 Clouds 14 1024 52 10000 0.45 167 19:28 29.04.2022
3918 Clouds 17 1022 46 10000 2.68 4 17:35 29.04.2022
3919 Clouds 16 1022 48 10000 1.34 334 16:38 29.04.2022
3920 Clouds 17 1023 45 10000 3.58 292 14:37 29.04.2022
3921 Clouds 16 1024 43 10000 1.34 299 13:42 29.04.2022
3922 Clouds 15 1024 48 10000 1.34 338 12:37 29.04.2022
3923 Clear 11 1025 53 10000 0.45 101 10:32 29.04.2022
3924 Clear 6 1026 64 10000 1.1 162 07:57 29.04.2022
3925 Clear 3 1027 90 10000 2.22 164 07:26 29.04.2022
3926 Clear 2 1024 90 10000 0.89 207 06:32 29.04.2022
3927 Clear 5 1026 85 10000 0.45 161 02:23 29.04.2022
3928 Clear 6 1026 76 10000 0.45 213 23:58 28.04.2022
3929 Clear 7 1030 70 10000 2.19 142 23:25 28.04.2022
3930 Clear 9 1029 85 10000 1.93 133 22:24 28.04.2022
3931 Clear 9 1029 85 10000 1.93 133 21:41 28.04.2022
3932 Clear 12 1028 84 10000 1.56 122 20:45 28.04.2022
3933 Clear 7 1025 79 10000 1.27 65 19:52 28.04.2022
3934 Clear 15 1024 45 10000 1.59 34 19:24 28.04.2022
3935 Clear 15 1024 44 10000 1.59 34 18:51 28.04.2022
3936 Clear 16 1023 43 10000 1.79 285 17:42 28.04.2022
3937 Clear 17 1023 43 10000 1.79 285 16:52 28.04.2022
3938 Clear 17 1024 44 10000 2.68 299 16:20 28.04.2022
3939 Clear 17 1024 44 10000 2.68 299 16:20 28.04.2022
3940 Clear 16 1024 46 10000 3.13 308 15:43 28.04.2022
3941 Clouds 16 1024 47 10000 3.13 308 14:58 28.04.2022
3942 Clear 14 1025 58 10000 0.89 347 13:33 28.04.2022
3943 Clear 13 1025 63 10000 1.64 26 12:29 28.04.2022
3944 Clear 10 1025 70 10000 2.24 325 10:59 28.04.2022
3945 Clear 9 1025 74 10000 1.34 13 10:26 28.04.2022
3946 Clear 9 1027 74 10000 0.45 109 09:47 28.04.2022
3947 Clear 4 1025 82 10000 0.91 133 07:40 28.04.2022
3948 Clear 2 1023 92 10000 2.03 156 06:42 28.04.2022
3949 Clear 2 1023 91 10000 2.35 159 05:52 28.04.2022
3950 Clear 2 1022 90 10000 0.45 206 04:42 28.04.2022
3951 Clear 4 1025 86 10000 2.53 153 01:53 28.04.2022
3952 Clear 6 1028 84 10000 2.35 140 23:25 27.04.2022
3953 Clear 6 1027 86 10000 0.89 103 22:18 27.04.2022
3954 Clear 6 1027 84 10000 0.45 152 21:34 27.04.2022
3955 Clear 8 1025 76 10000 0.45 352 20:45 27.04.2022
3956 Clouds 9 1025 74 10000 0.89 325 19:55 27.04.2022
3957 Clouds 11 1022 64 10000 1.79 309 19:34 27.04.2022
3958 Clouds 13 1020 57 10000 1.79 314 18:39 27.04.2022
3959 Clouds 13 1020 56 10000 1.79 314 17:55 27.04.2022
3960 Clear 14 1020 52 10000 2.68 338 15:57 27.04.2022
3961 Clouds 12 1020 53 10000 1.34 328 12:59 27.04.2022
3962 Clouds 10 1020 62 10000 0.89 354 11:24 27.04.2022
3963 Clouds 9 1020 73 10000 0.7 58 10:28 27.04.2022
3964 Clouds 4 1022 92 10000 0.89 302 07:53 27.04.2022
3965 Clouds 3 1025 91 10000 1.93 163 06:41 27.04.2022
3966 Rain 4 1024 89 10000 0.45 177 02:26 27.04.2022
3967 Rain 5 1019 92 10000 0.89 134 01:21 27.04.2022
3968 Rain 4 1023 90 10000 0.89 184 00:27 27.04.2022
3969 Clouds 5 1022 84 10000 3.13 181 23:24 26.04.2022
3970 Clouds 4 1023 90 10000 0.45 172 22:45 26.04.2022
3971 Clouds 5 1023 88 10000 2.36 184 21:59 26.04.2022
3972 Clouds 5 1023 88 10000 2.1 190 21:18 26.04.2022
3973 Clouds 6 1019 84 10000 0.89 313 20:36 26.04.2022
3974 Clouds 7 1018 78 10000 0.89 117 19:44 26.04.2022
3975 Clouds 7 1018 79 10000 0.89 117 19:24 26.04.2022
3976 Clouds 7 1020 75 10000 0.45 164 18:20 26.04.2022
3977 Clouds 8 1020 68 10000 1.84 267 17:38 26.04.2022
3978 Clouds 5 1016 89 78 1.3 255 14:59 26.04.2022
3979 Rain 4 1016 89 42 1.34 159 13:38 26.04.2022
3980 Rain 5 1015 88 68 1.34 195 12:35 26.04.2022
3981 Clouds 8 1013 84 498 3.58 354 10:57 26.04.2022
3982 Clouds 8 1013 87 5825 1.79 324 10:29 26.04.2022
3983 Clouds 7 1012 91 10000 0.45 66 08:29 26.04.2022
3984 Clouds 6 1015 92 10000 2.36 172 04:38 26.04.2022
3985 Clouds 7 1015 91 10000 2.13 173 03:25 26.04.2022
3986 Clouds 8 1012 90 10000 0.89 208 00:39 26.04.2022
3987 Clouds 8 1013 88 10000 0.45 212 23:44 25.04.2022
3988 Clouds 9 1014 85 10000 1.31 191 21:44 25.04.2022
3989 Clouds 8 1014 97 10000 0.98 193 20:49 25.04.2022
3990 Clouds 10 1011 78 8142 0.45 183 19:39 25.04.2022
3991 Clouds 10 1011 82 7161 1.62 299 18:25 25.04.2022
3992 Clouds 10 1011 82 7161 1.34 9 17:39 25.04.2022
3993 Clouds 11 1010 72 10000 2.68 341 15:51 25.04.2022
3994 Rain 11 1010 70 10000 0.92 261 15:18 25.04.2022
3995 Clouds 8 1012 88 4747 1.07 225 13:59 25.04.2022
3996 Clouds 7 1013 96 4514 0.45 91 12:22 25.04.2022
3997 Clouds 7 1011 90 7147 0.45 2 10:29 25.04.2022
3998 Clouds 6 1009 93 143 0.45 217 09:23 25.04.2022
3999 Clouds 5 1011 95 216 0.45 232 07:19 25.04.2022
4000 Rain 5 1009 94 188 1.79 156 05:32 25.04.2022
4001 Clouds 5 1009 92 248 0.89 184 01:24 25.04.2022
4002 Rain 6 1007 89 146 0.89 134 23:53 24.04.2022
4003 Rain 6 1006 90 164 0.89 206 22:52 24.04.2022
4004 Rain 6 1006 91 165 0.89 206 22:31 24.04.2022
4005 Clouds 6 1006 89 135 0.45 293 21:42 24.04.2022
4006 Rain 6 1006 89 174 0.45 293 21:18 24.04.2022
4007 Rain 6 1007 88 177 0.89 92 20:37 24.04.2022
4008 Rain 6 1006 87 215 0.89 92 19:50 24.04.2022
4009 Rain 7 1005 81 1302 0.89 33 18:28 24.04.2022
4010 Rain 8 1003 77 1302 0.45 265 17:37 24.04.2022
4011 Rain 8 1003 77 8684 0.45 265 17:19 24.04.2022
4012 Rain 8 1004 76 8684 0.45 150 16:35 24.04.2022
4013 Rain 10 1002 66 8894 0.45 306 15:56 24.04.2022
4014 Clouds 10 1002 64 8894 2.68 328 15:31 24.04.2022
4015 Clouds 10 1002 64 8894 2.68 328 15:31 24.04.2022
4016 Clouds 11 1002 62 10000 1.79 61 13:58 24.04.2022
4017 Clouds 11 1001 60 10000 2.24 338 13:25 24.04.2022
4018 Clouds 11 1001 58 10000 1.29 271 12:32 24.04.2022
4019 Clouds 10 1001 60 10000 1.34 318 11:33 24.04.2022
4020 Clouds 8 1003 76 10000 0.45 343 10:27 24.04.2022
4021 Clouds 8 1000 70 2748 1.34 207 09:26 24.04.2022
4022 Clouds 6 1001 98 1321 2.34 259 06:45 24.04.2022
4023 Clouds 7 997 88 10000 1.34 134 03:55 24.04.2022
4024 Clouds 6 997 92 10000 3.08 159 01:38 24.04.2022
4025 Clouds 7 998 90 10000 3.53 153 00:24 24.04.2022
4026 Clouds 8 999 89 10000 0.45 185 23:44 23.04.2022
4027 Clouds 8 999 89 10000 0.45 185 23:21 23.04.2022
4028 Clouds 9 1000 86 10000 0.45 245 21:51 23.04.2022
4029 Clouds 10 1000 83 10000 2.94 139 21:33 23.04.2022
4030 Clouds 11 1001 80 10000 2.39 144 20:45 23.04.2022
4031 Clouds 11 1001 80 10000 2.39 144 20:45 23.04.2022
4032 Clouds 12 1001 77 10000 1.96 114 19:46 23.04.2022
4033 Clouds 12 1001 77 10000 1.07 82 19:19 23.04.2022
4034 Clouds 12 1001 76 10000 1.07 82 18:49 23.04.2022
4035 Clouds 12 1001 75 10000 0.85 72 17:51 23.04.2022
4036 Rain 13 1001 73 10000 1.79 344 17:20 23.04.2022
4037 Clouds 13 1001 71 10000 1.79 329 16:40 23.04.2022
4038 Clouds 13 1001 66 10000 1.34 345 14:57 23.04.2022
4039 Clouds 12 999 62 10000 0.02 85 12:35 23.04.2022
4040 Clouds 10 1003 66 10000 0.45 163 10:41 23.04.2022
4041 Clouds 9 1003 59 10000 0.45 166 08:55 23.04.2022
4042 Clouds 8 1004 60 10000 2.43 152 06:29 23.04.2022
4043 Clouds 5 1004 85 10000 0.89 212 03:54 23.04.2022
4044 Clouds 6 1004 86 10000 0.45 184 00:53 23.04.2022
4045 Clouds 7 1004 82 10000 0.89 180 23:29 22.04.2022
4046 Clouds 8 1004 79 10000 0.89 219 22:19 22.04.2022
4047 Clouds 8 1005 84 10000 0.45 177 21:41 22.04.2022
4048 Clouds 9 1004 80 10000 0.45 151 20:45 22.04.2022
4049 Clouds 10 1004 72 10000 0.45 151 20:25 22.04.2022
4050 Clouds 13 1001 59 10000 1.82 15 19:18 22.04.2022
4051 Clouds 14 1001 57 10000 0.45 10 18:35 22.04.2022
4052 Clouds 14 1001 57 10000 3.13 345 17:37 22.04.2022
4053 Clouds 14 1001 60 10000 0.89 329 16:30 22.04.2022
4054 Clouds 13 1001 60 10000 0.89 286 15:32 22.04.2022
4055 Clouds 12 1001 63 10000 0.45 323 14:41 22.04.2022
4056 Clouds 11 1001 59 10000 2.68 327 13:42 22.04.2022
4057 Clouds 11 1001 59 10000 2.68 327 12:55 22.04.2022
4058 Clouds 10 999 62 10000 2.09 356 11:41 22.04.2022
4059 Clouds 9 998 62 10000 1.9 348 11:18 22.04.2022
4060 Clouds 8 1002 64 10000 1.9 348 10:47 22.04.2022
4061 Clouds 8 1002 64 10000 1.25 340 10:25 22.04.2022
4062 Clouds 7 999 65 10000 1.25 340 09:42 22.04.2022
4063 Clouds 5 999 68 10000 0.4 9 08:49 22.04.2022
4064 Clouds 2 1002 79 10000 2.01 160 06:54 22.04.2022
4065 Clouds 4 1004 81 10000 0.89 133 01:49 22.04.2022
4066 Clouds 6 1005 71 10000 0.45 227 23:49 21.04.2022
4067 Clouds 6 1005 70 10000 0.45 86 22:52 21.04.2022
4068 Clouds 7 1005 67 10000 0.45 200 21:49 21.04.2022
4069 Clouds 11 1006 89 10000 2.04 115 20:34 21.04.2022
4070 Clouds 14 1005 43 10000 2.24 284 19:36 21.04.2022
4071 Clouds 15 1005 43 10000 1.79 299 18:32 21.04.2022
4072 Clouds 15 1005 43 10000 3.13 311 17:46 21.04.2022
4073 Clouds 15 1005 42 10000 3.13 302 16:21 21.04.2022
4074 Clouds 15 1005 42 10000 2.68 349 15:19 21.04.2022
4075 Clouds 14 1006 44 10000 0.89 294 14:29 21.04.2022
4076 Clouds 14 1006 49 10000 2.68 309 13:22 21.04.2022
4077 Clouds 12 1007 51 9790 1.79 324 12:29 21.04.2022
4078 Clouds 8 1010 70 9537 0.89 351 10:19 21.04.2022
4079 Clouds 5 1011 72 10000 0.45 181 08:50 21.04.2022
4080 Clouds 2 1012 80 10000 0.45 170 06:46 21.04.2022
4081 Clouds 2 1011 82 10000 0.45 225 04:21 21.04.2022
4082 Clouds 2 1012 81 10000 0.45 147 03:23 21.04.2022
4083 Clouds 2 1012 80 10000 0.89 146 02:45 21.04.2022
4084 Clouds 2 1012 80 10000 0.89 146 02:45 21.04.2022
4085 Clouds 3 1013 73 10000 1.81 154 00:35 21.04.2022
4086 Clouds 5 1013 70 10000 0.45 217 23:46 20.04.2022
4087 Clouds 5 1011 68 10000 0.45 217 23:21 20.04.2022
4088 Clouds 5 1013 68 10000 0.89 171 22:41 20.04.2022
4089 Clouds 6 1013 68 10000 1.34 155 21:57 20.04.2022
4090 Clouds 7 1014 64 10000 1.42 121 20:50 20.04.2022
4091 Clouds 7 1014 64 10000 1.08 71 20:22 20.04.2022
4092 Clouds 10 1011 53 10000 0.45 284 19:47 20.04.2022
4093 Clouds 13 1010 46 10000 0.45 284 18:52 20.04.2022
4094 Clouds 13 1009 46 10000 2.16 22 17:52 20.04.2022
4095 Clouds 14 1009 45 10000 3.58 310 16:39 20.04.2022
4096 Clouds 14 1009 46 10000 3.13 285 15:39 20.04.2022
4097 Clouds 11 1010 53 10000 2.24 346 12:47 20.04.2022
4098 Clouds 9 1011 59 10000 3.13 346 11:42 20.04.2022
4099 Clouds 8 1012 63 9533 3.13 346 10:51 20.04.2022
4100 Clouds 8 1010 81 9620 0.87 24 09:45 20.04.2022
4101 Clouds 5 1011 86 10000 0.62 83 08:54 20.04.2022
4102 Clouds 4 1012 86 10000 1.14 142 08:20 20.04.2022
4103 Clear 1 1011 83 10000 2.12 168 06:26 20.04.2022
4104 Clear 4 1013 71 10000 0.89 167 03:33 20.04.2022
4105 Clouds 6 1016 65 10000 0.89 160 00:22 20.04.2022
4106 Clouds 7 1015 63 10000 0.45 287 23:31 19.04.2022
4107 Clouds 7 1015 60 10000 0.45 341 22:24 19.04.2022
4108 Clouds 8 1014 57 10000 0.92 121 21:55 19.04.2022
4109 Clouds 8 1014 57 10000 0.67 62 21:18 19.04.2022
4110 Clouds 9 1013 55 10000 0.67 62 20:37 19.04.2022
4111 Clouds 9 1013 55 10000 0.67 62 20:37 19.04.2022
4112 Clouds 10 1012 46 10000 0.45 323 19:43 19.04.2022
4113 Clouds 10 1012 42 10000 0.89 91 18:46 19.04.2022
4114 Clouds 10 1012 42 10000 0.89 91 18:46 19.04.2022
4115 Clouds 12 1012 43 10000 0.45 337 17:27 19.04.2022
4116 Clouds 12 1011 43 10000 0.45 185 16:43 19.04.2022
4117 Clouds 12 1011 43 10000 0.45 185 16:21 19.04.2022
4118 Clouds 12 1011 43 10000 0.45 331 14:47 19.04.2022
4119 Clouds 12 1011 44 10000 2.68 5 13:34 19.04.2022
4120 Clouds 12 1012 46 10000 2.68 5 12:50 19.04.2022
4121 Clouds 11 1012 47 10000 1.79 173 11:39 19.04.2022
4122 Clouds 9 1013 54 10000 0.89 360 09:57 19.04.2022
4123 Clouds 9 1015 49 10000 0.45 174 08:43 19.04.2022
4124 Clouds 1 1013 82 10000 0.45 211 04:41 19.04.2022
4125 Clouds 2 1014 81 10000 0.45 218 03:19 19.04.2022
4126 Clear 4 1017 69 10000 0.45 151 00:24 19.04.2022
4127 Clouds 5 1017 64 10000 2 179 22:58 18.04.2022
4128 Clouds 6 1019 59 10000 1.21 165 21:29 18.04.2022
4129 Clouds 7 1018 52 10000 0.45 343 20:53 18.04.2022
4130 Clouds 7 1018 52 10000 0.45 343 20:27 18.04.2022
4131 Clouds 8 1017 51 10000 0.45 320 19:42 18.04.2022
4132 Clouds 9 1017 50 10000 0.45 296 18:53 18.04.2022
4133 Clouds 12 1016 41 10000 0.89 11 17:53 18.04.2022
4134 Clouds 13 1015 38 10000 4.92 356 17:28 18.04.2022
4135 Clouds 13 1015 37 10000 1.34 336 16:40 18.04.2022
4136 Clouds 13 1015 37 10000 1.34 336 15:54 18.04.2022
4137 Clouds 13 1016 39 10000 2.24 325 14:42 18.04.2022
4138 Clouds 13 1016 39 10000 2.24 325 14:42 18.04.2022
4139 Clouds 12 1016 43 10000 1.79 2 13:31 18.04.2022
4140 Clear 10 1017 49 10000 0.89 325 12:28 18.04.2022
4141 Clear 9 1017 57 10000 2.24 344 11:20 18.04.2022
4142 Clear 8 1018 59 10000 0.45 179 10:28 18.04.2022
4143 Clear 6 1019 59 10000 0.89 168 09:30 18.04.2022
4144 Clear -2 1017 84 10000 0.45 205 07:34 18.04.2022
4145 Clear 0 1017 83 10000 0.45 216 04:40 18.04.2022
4146 Clear 3 1022 69 10000 0.45 269 23:41 17.04.2022
4147 Clear 3 1022 64 10000 0.45 243 22:40 17.04.2022
4148 Clear 4 1025 60 10000 0.45 149 21:42 17.04.2022
4149 Clear 4 1025 60 10000 0.45 149 21:21 17.04.2022
4150 Clear 6 1024 56 10000 1.34 96 20:32 17.04.2022
4151 Clouds 10 1020 42 10000 1.97 57 19:21 17.04.2022
4152 Clouds 11 1021 43 10000 4.47 310 17:38 17.04.2022
4153 Clouds 10 1022 46 10000 5.36 319 15:38 17.04.2022
4154 Clouds 12 1020 42 10000 5.36 319 14:53 17.04.2022
4155 Clouds 11 1021 49 10000 1.79 9 13:44 17.04.2022
4156 Clear 10 1021 51 10000 1.79 9 12:56 17.04.2022
4157 Clear 7 1023 63 10000 1.34 357 11:24 17.04.2022
4158 Clear 7 1022 57 10000 2.53 54 10:38 17.04.2022
4159 Clear 6 1023 73 10000 2.06 65 10:19 17.04.2022
4160 Clear 3 1029 78 10000 1.88 85 09:23 17.04.2022
4161 Clear 1 1030 87 10000 0.45 189 08:41 17.04.2022
4162 Clouds -1 1027 90 10000 0.45 110 06:52 17.04.2022
4163 Clouds 0 1029 87 10000 0.45 80 02:56 17.04.2022
4164 Clouds 2 1029 82 10000 0.45 152 00:53 17.04.2022
4165 Clouds 4 1029 78 10000 0.89 213 23:48 16.04.2022
4166 Clouds 4 1029 77 10000 0.45 230 21:55 16.04.2022
4167 Clouds 5 1029 73 10000 0.89 327 21:23 16.04.2022
4168 Clouds 8 1027 66 10000 3.58 310 19:33 16.04.2022
4169 Clouds 8 1027 66 10000 5.81 302 18:45 16.04.2022
4170 Clouds 8 1029 70 10000 0.89 2 17:21 16.04.2022
4171 Clouds 9 1029 69 10000 0.89 348 16:31 16.04.2022
4172 Clouds 10 1025 59 10000 0.89 1 15:23 16.04.2022
4173 Clouds 9 1025 65 10000 0.89 225 14:43 16.04.2022
4174 Clouds 9 1025 70 10000 0.89 225 13:55 16.04.2022
4175 Clouds 8 1025 73 8401 1.34 293 13:24 16.04.2022
4176 Clouds 7 1025 78 10000 2.68 6 11:58 16.04.2022
4177 Clouds 6 1024 87 2942 3.13 353 10:35 16.04.2022
4178 Clouds 5 1026 91 501 0.45 302 09:38 16.04.2022
4179 Clouds 5 1026 91 1011 0.45 302 08:52 16.04.2022
4180 Clouds 5 1026 92 9274 0.89 1 07:31 16.04.2022
4181 Clouds 5 1026 94 10000 0.45 324 06:18 16.04.2022
4182 Clouds 7 1026 89 10000 0.89 168 01:53 16.04.2022
4183 Clouds 8 1025 88 10000 0.45 167 23:53 15.04.2022
4184 Clouds 9 1025 88 10000 0.89 216 22:51 15.04.2022
4185 Clouds 9 1025 87 10000 0.89 158 22:31 15.04.2022
4186 Clouds 10 1025 85 10000 0.45 147 21:35 15.04.2022
4187 Clouds 11 1024 84 10000 1.34 218 20:44 15.04.2022
4188 Clouds 11 1024 85 10000 1.34 218 19:49 15.04.2022
4189 Clouds 11 1024 84 10000 0.89 165 19:30 15.04.2022
4190 Clouds 14 1022 78 10000 1.35 6 18:45 15.04.2022
4191 Clouds 15 1022 65 10000 1.44 355 18:23 15.04.2022
4192 Clouds 15 1022 63 10000 0.45 266 17:28 15.04.2022
4193 Clouds 16 1022 62 10000 0.89 311 16:25 15.04.2022
4194 Clouds 16 1022 62 10000 0.89 311 16:25 15.04.2022
4195 Clouds 15 1022 65 10000 0.89 311 15:52 15.04.2022
4196 Clouds 15 1023 72 9727 0.45 323 14:20 15.04.2022
4197 Clouds 14 1023 77 10000 0.45 277 12:53 15.04.2022
4198 Clouds 12 1024 82 10000 1.34 17 12:26 15.04.2022
4199 Clouds 13 1023 84 10000 1.34 17 11:52 15.04.2022
4200 Clouds 11 1024 84 10000 0.45 178 10:48 15.04.2022
4201 Clouds 11 1024 84 10000 0.45 178 10:21 15.04.2022
4202 Clouds 10 1024 85 10000 0.45 6 09:23 15.04.2022
4203 Clouds 10 1024 84 10000 1.34 181 08:57 15.04.2022
4204 Clouds 9 1023 85 9047 0.89 84 06:52 15.04.2022
4205 Clouds 9 1023 86 10000 0.45 183 05:56 15.04.2022
4206 Clouds 10 1023 79 10000 0.45 199 01:27 15.04.2022
4207 Clouds 13 1022 69 10000 0.89 182 23:29 14.04.2022
4208 Clouds 12 1023 68 10000 0.45 170 22:46 14.04.2022
4209 Clouds 12 1023 68 10000 0.45 170 22:27 14.04.2022
4210 Clouds 13 1022 64 10000 1.34 149 21:53 14.04.2022
4211 Clouds 14 1020 61 6611 0.45 344 19:53 14.04.2022
4212 Clouds 14 1020 61 10000 0.45 344 19:22 14.04.2022
4213 Clouds 15 1020 63 10000 1.41 332 17:56 14.04.2022
4214 Clouds 15 1020 63 10000 1.47 327 17:27 14.04.2022
4215 Clouds 17 1018 56 10000 1.34 2 16:32 14.04.2022
4216 Clouds 18 1019 50 10000 0.45 280 14:20 14.04.2022
4217 Clouds 18 1018 49 10000 2.24 360 13:26 14.04.2022
4218 Clouds 18 1018 55 10000 0.89 32 12:38 14.04.2022
4219 Clouds 17 1018 55 10000 0.89 32 12:19 14.04.2022
4220 Clouds 16 1019 56 10000 1.34 33 11:21 14.04.2022
4221 Clouds 14 1019 62 10000 0.89 72 10:36 14.04.2022
4222 Clouds 14 1019 64 10000 1.34 174 09:52 14.04.2022
4223 Clouds 10 1018 81 10000 0.81 264 08:39 14.04.2022
4224 Clouds 7 1018 85 10000 0.45 135 06:24 14.04.2022
4225 Clouds 9 1017 80 10000 0.89 223 01:49 14.04.2022
4226 Clouds 9 1017 80 10000 0.89 223 01:49 14.04.2022
4227 Clouds 13 1017 68 10000 1.34 162 22:45 13.04.2022
4228 Clouds 14 1017 64 10000 1.34 185 21:44 13.04.2022
4229 Clouds 14 1017 60 10000 1.79 149 20:48 13.04.2022
4230 Clouds 14 1017 60 10000 1.79 149 20:18 13.04.2022
4231 Clouds 17 1015 52 10000 0.89 347 18:50 13.04.2022
4232 Clouds 17 1015 52 10000 1.58 5 17:54 13.04.2022
4233 Clouds 20 1014 44 10000 1.34 331 17:23 13.04.2022
4234 Clouds 19 1014 44 10000 0.89 355 16:24 13.04.2022
4235 Clouds 20 1014 40 10000 3.58 0 15:31 13.04.2022
4236 Clouds 20 1015 42 10000 0.89 19 14:46 13.04.2022
4237 Clouds 20 1015 42 10000 0.89 19 13:57 13.04.2022
4238 Clouds 19 1015 45 10000 1.34 32 12:59 13.04.2022
4239 Clouds 18 1015 45 10000 1.34 308 12:19 13.04.2022
4240 Clouds 15 1016 48 10000 1.34 169 10:44 13.04.2022
4241 Clouds 11 1015 67 10000 1 149 08:50 13.04.2022
4242 Clouds 8 1015 76 10000 2.08 159 08:28 13.04.2022
4243 Clouds 7 1015 79 10000 0.45 173 06:50 13.04.2022
4244 Clouds 7 1015 81 10000 2.22 157 06:25 13.04.2022
4245 Clouds 8 1015 76 10000 0.89 216 02:37 13.04.2022
4246 Clouds 10 1015 74 10000 0.45 233 00:20 13.04.2022
4247 Clouds 12 1014 65 10000 0.45 96 22:46 12.04.2022
4248 Clouds 13 1014 63 10000 0.45 96 21:57 12.04.2022
4249 Clouds 8 1015 71 10000 2.9 164 20:49 12.04.2022
4250 Clouds 16 1014 76 10000 2.63 167 20:27 12.04.2022
4251 Clouds 8 1014 78 10000 2.6 167 19:41 12.04.2022
4252 Clouds 16 1014 76 10000 1.58 161 19:19 12.04.2022
4253 Clouds 20 1013 36 10000 0.68 144 17:50 12.04.2022
4254 Clouds 21 1012 35 10000 0.54 125 16:50 12.04.2022
4255 Clouds 21 1013 31 10000 1.79 334 15:39 12.04.2022
4256 Clouds 21 1013 30 10000 1.79 334 15:21 12.04.2022
4257 Clouds 20 1013 32 10000 1.34 336 13:53 12.04.2022
4258 Clouds 19 1013 33 10000 0.89 352 13:27 12.04.2022
4259 Clouds 17 1013 35 10000 0.45 17 12:31 12.04.2022
4260 Clouds 15 1014 37 10000 0.45 25 11:40 12.04.2022
4261 Clouds 12 1014 49 10000 0.45 140 10:29 12.04.2022
4262 Clouds 7 1014 59 10000 1.87 160 08:54 12.04.2022
4263 Clouds 3 1016 58 10000 2.6 156 07:47 12.04.2022
4264 Clouds 2 1015 82 10000 0.45 212 05:47 12.04.2022
4265 Clouds 3 1015 82 10000 0.89 173 02:53 12.04.2022
4266 Clouds 5 1015 77 10000 0.45 213 23:36 11.04.2022
4267 Clouds 6 1015 71 10000 3.25 166 22:44 11.04.2022
4268 Clouds 7 1018 70 10000 3.26 166 21:36 11.04.2022
4269 Clouds 8 1018 51 10000 0.89 143 20:49 11.04.2022
4270 Clouds 8 1018 51 10000 0.89 143 20:28 11.04.2022
4271 Clouds 12 1016 44 10000 0.89 82 19:29 11.04.2022
4272 Clouds 11 1016 43 10000 2.16 168 18:59 11.04.2022
4273 Clouds 12 1016 43 10000 2.16 168 18:33 11.04.2022
4274 Clouds 14 1015 35 10000 2.24 304 17:43 11.04.2022
4275 Clouds 14 1015 34 10000 0.45 333 16:38 11.04.2022
4276 Clouds 15 1015 33 10000 0.89 336 15:24 11.04.2022
4277 Clouds 13 1016 37 10000 0.89 25 13:44 11.04.2022
4278 Clouds 11 1016 36 10000 0.89 19 12:41 11.04.2022
4279 Clouds 11 1016 36 10000 0.89 19 12:22 11.04.2022
4280 Clouds 7 1019 35 10000 0.45 178 10:56 11.04.2022
4281 Clouds 6 1016 54 10000 0.59 153 09:58 11.04.2022
4282 Clouds -1 1020 55 10000 2.17 162 08:23 11.04.2022
4283 Clouds -2 1021 82 10000 0.89 212 04:57 11.04.2022
4284 Clouds -2 1026 88 10000 3.21 161 00:30 11.04.2022
4285 Clouds -1 1027 72 10000 0.89 140 22:27 10.04.2022
4286 Clouds -1 1027 72 10000 0.89 140 22:27 10.04.2022
4287 Clouds 0 1027 72 10000 0.45 172 21:53 10.04.2022
4288 Clouds 0 1026 73 10000 2.61 165 20:55 10.04.2022
4289 Clouds 1 1026 73 10000 1.91 169 20:18 10.04.2022
4290 Clouds 2 1025 66 10000 1.83 169 19:36 10.04.2022
4291 Clouds 6 1022 51 10000 0.29 259 18:50 10.04.2022
4292 Clouds 7 1019 51 10000 1.34 214 18:25 10.04.2022
4293 Clouds 6 1019 48 10000 2.68 160 17:43 10.04.2022
4294 Clouds 6 1019 49 10000 2.68 160 16:52 10.04.2022
4295 Clouds 4 1022 57 9578 2.68 155 15:38 10.04.2022
4296 Clouds 5 1020 60 6677 0.45 330 14:41 10.04.2022
4297 Clouds 4 1023 62 4725 1.34 80 13:22 10.04.2022
4298 Clouds 2 1023 84 5715 0.89 97 12:27 10.04.2022
4299 Snow 1 1020 95 5715 1.75 289 11:36 10.04.2022
4300 Snow 0 1023 95 4233 1.9 288 10:58 10.04.2022
4301 Snow 0 1023 95 4014 1.34 283 10:27 10.04.2022
4302 Snow -1 1023 94 4014 0.89 91 09:41 10.04.2022
4303 Snow 0 1019 94 320 1.62 252 08:26 10.04.2022
4304 Snow 0 1019 94 320 1.62 252 07:53 10.04.2022
4305 Clouds 0 1018 93 103 0.45 203 06:48 10.04.2022
4306 Snow -1 1017 93 135 0.89 136 03:36 10.04.2022
4307 Snow -1 1017 93 135 0.89 136 03:36 10.04.2022
4308 Clouds 0 1016 92 1748 0.45 156 01:29 10.04.2022
4309 Clouds 0 1016 91 1951 0.45 189 23:52 09.04.2022
4310 Clouds -1 1019 89 5670 1.34 201 22:52 09.04.2022
4311 Clouds -1 1022 90 10000 0.86 224 21:48 09.04.2022
4312 Clouds 0 1021 85 839 0.89 176 20:57 09.04.2022
4313 Snow -1 1021 84 2452 0.89 176 20:26 09.04.2022
4314 Clouds 0 1017 84 2543 1.34 174 19:42 09.04.2022
4315 Clouds 2 1014 81 10000 1.34 174 19:18 09.04.2022
4316 Clouds 2 1016 74 10000 0.89 260 18:22 09.04.2022
4317 Clouds 3 1012 66 10000 2.24 87 17:40 09.04.2022
4318 Clouds 4 1012 67 10000 2.24 87 16:55 09.04.2022
4319 Clouds 2 1012 75 10000 1.79 220 16:24 09.04.2022
4320 Clouds 3 1012 75 10000 0.89 79 15:43 09.04.2022
4321 Clouds 2 1015 84 3523 0.45 11 14:44 09.04.2022
4322 Clouds 2 1015 84 3523 0.45 11 14:44 09.04.2022
4323 Clouds 2 1015 84 2324 0.45 11 14:23 09.04.2022
4324 Clouds 1 1012 97 3686 0.45 296 13:21 09.04.2022
4325 Clouds 2 1012 97 3686 0.45 296 12:51 09.04.2022
4326 Snow 1 1014 96 550 1.34 223 11:40 09.04.2022
4327 Snow -1 1014 96 214 0.45 211 10:21 09.04.2022
4328 Clouds 0 1011 96 214 0.45 277 09:47 09.04.2022
4329 Clouds 0 1011 96 868 0.45 277 08:56 09.04.2022
4330 Snow 0 1008 97 117 3.13 351 07:29 09.04.2022
4331 Clouds 8 1001 89 6789 4.39 261 02:53 09.04.2022
4332 Clouds 7 999 81 10000 0.89 214 23:53 08.04.2022
4333 Clouds 7 1000 86 10000 2.24 180 22:57 08.04.2022
4334 Clouds 8 1000 85 8564 0.89 357 21:32 08.04.2022
4335 Clouds 8 1000 84 7400 2.68 176 20:40 08.04.2022
4336 Clouds 9 1000 83 4154 1.34 314 19:32 08.04.2022
4337 Rain 9 1000 82 8758 4.92 100 18:31 08.04.2022
4338 Rain 10 1000 80 833 4.92 100 17:52 08.04.2022
4339 Rain 10 1000 76 3130 3.58 182 17:26 08.04.2022
4340 Rain 11 999 75 3130 1.34 146 16:49 08.04.2022
4341 Rain 12 1000 68 4428 3.13 170 15:57 08.04.2022
4342 Rain 12 1000 70 5052 1.34 344 15:26 08.04.2022
4343 Rain 11 1001 75 5052 2.68 172 14:33 08.04.2022
4344 Clouds 10 1002 77 8675 0.45 141 13:47 08.04.2022
4345 Clouds 10 1002 78 8679 0.45 141 13:29 08.04.2022
4346 Clouds 9 1003 75 8683 3.13 181 12:18 08.04.2022
4347 Clouds 7 1005 88 386 1.34 144 10:37 08.04.2022
4348 Clouds 6 1006 88 1201 0.89 224 09:38 08.04.2022
4349 Clouds 6 1005 87 1607 0.89 224 08:51 08.04.2022
4350 Clouds 5 1007 90 179 1.79 197 07:31 08.04.2022
4351 Clouds 7 1005 86 203 0.89 248 05:23 08.04.2022
4352 Clouds 7 1003 86 5056 0.45 79 01:29 08.04.2022
4353 Clouds 8 1003 80 8741 1.79 166 00:25 08.04.2022
4354 Clouds 9 1002 72 10000 1.34 296 22:59 07.04.2022
4355 Clouds 9 1003 78 10000 0.89 186 22:40 07.04.2022
4356 Clouds 9 1003 78 10000 0.89 186 22:21 07.04.2022
4357 Clouds 8 1003 80 10000 4.02 170 21:53 07.04.2022
4358 Clouds 8 1002 83 10000 4.02 170 21:19 07.04.2022
4359 Clouds 7 1002 85 10000 3.58 188 20:37 07.04.2022
4360 Rain 10 1000 74 10000 0.45 128 18:48 07.04.2022
4361 Clouds 9 1000 77 10000 0.45 333 17:27 07.04.2022
4362 Rain 8 1002 84 10000 3.13 177 16:44 07.04.2022
4363 Rain 8 1002 84 4720 3.13 177 16:23 07.04.2022
4364 Clouds 11 1000 56 10000 2.24 234 14:50 07.04.2022
4365 Clouds 11 1002 51 10000 3.51 230 13:43 07.04.2022
4366 Clouds 11 1003 49 10000 0.89 65 12:58 07.04.2022
4367 Clouds 11 1003 50 10000 3.13 150 11:40 07.04.2022
4368 Clouds 7 1005 77 10000 3.58 183 09:42 07.04.2022
4369 Clouds 7 1005 85 10000 0.45 211 08:38 07.04.2022
4370 Clouds 6 1007 84 241 2.68 177 06:43 07.04.2022
4371 Clouds 6 1007 88 253 2.24 178 02:58 07.04.2022
4372 Clouds 7 1007 88 350 2.24 178 02:27 07.04.2022
4373 Clouds 7 1007 88 520 1.79 172 00:28 07.04.2022
4374 Clouds 8 1006 88 1862 1.34 141 22:52 06.04.2022
4375 Clouds 8 1006 84 597 1.34 300 22:27 06.04.2022
4376 Clouds 8 1008 83 597 0.45 17 21:45 06.04.2022
4377 Clouds 7 1008 80 1331 1.34 177 20:40 06.04.2022
4378 Clouds 7 1008 79 1765 0.89 63 19:54 06.04.2022
4379 Clouds 8 1007 76 2177 1.79 148 18:52 06.04.2022
4380 Clouds 8 1007 76 2177 1.79 148 18:32 06.04.2022
4381 Clouds 10 1006 70 2992 1 270 17:35 06.04.2022
4382 Clouds 11 1006 66 3427 0.45 183 16:38 06.04.2022
4383 Clouds 11 1006 64 9356 1.27 256 15:48 06.04.2022
4384 Clouds 11 1006 64 9320 1.38 235 15:21 06.04.2022
4385 Clouds 11 1009 66 2528 1.34 319 13:25 06.04.2022
4386 Clouds 8 1011 67 2151 0.45 157 12:27 06.04.2022
4387 Clouds 9 1012 75 2047 0.54 269 10:52 06.04.2022
4388 Clouds 8 1010 81 2047 0.89 217 10:30 06.04.2022
4389 Clouds 6 1010 91 3616 0.45 200 09:41 06.04.2022
4390 Clouds 5 1009 94 10000 0.45 203 08:34 06.04.2022
4391 Clouds 5 1009 95 10000 0.45 203 07:53 06.04.2022
4392 Clouds 5 1011 94 10000 1.34 171 04:30 06.04.2022
4393 Clouds 5 1014 92 10000 1.34 158 23:54 05.04.2022
4394 Clouds 6 1014 93 10000 0.89 161 22:58 05.04.2022
4395 Clouds 6 1014 90 10000 1.79 179 21:23 05.04.2022
4396 Clouds 6 1014 91 1937 0.45 138 20:26 05.04.2022
4397 Clouds 6 1014 90 2063 0.45 138 19:52 05.04.2022
4398 Clouds 7 1014 88 414 0.45 166 18:18 05.04.2022
4399 Clouds 7 1014 85 162 0.45 142 16:55 05.04.2022
4400 Clouds 7 1014 87 162 0.89 158 16:35 05.04.2022
4401 Clouds 7 1014 84 113 0.89 162 15:35 05.04.2022
4402 Clouds 6 1014 84 107 1.34 140 14:37 05.04.2022
4403 Clouds 6 1015 83 111 1.34 185 13:37 05.04.2022
4404 Clouds 5 1015 76 263 1.34 134 11:51 05.04.2022
4405 Clouds 5 1015 76 263 1.34 134 11:51 05.04.2022
4406 Clouds 5 1015 75 263 0.45 175 11:33 05.04.2022
4407 Clouds 5 1014 74 839 1.34 136 10:41 05.04.2022
4408 Clouds 4 1013 71 2560 0.89 143 08:55 05.04.2022
4409 Clouds 3 1013 74 10000 0.89 243 07:24 05.04.2022
4410 Clouds 3 1014 73 10000 0.45 177 02:39 05.04.2022
4411 Clouds 2 1018 89 10000 2.89 216 22:48 04.04.2022
4412 Clouds 3 1019 91 10000 2.68 213 22:29 04.04.2022
4413 Clouds 2 1019 92 10000 2.27 225 21:22 04.04.2022
4414 Clouds 2 1019 92 10000 2.27 225 20:50 04.04.2022
4415 Clouds 2 1019 92 10000 2.27 225 20:50 04.04.2022
4416 Clouds 2 1018 90 10000 2.03 235 20:22 04.04.2022
4417 Clouds 6 1013 56 10000 1.79 205 19:26 04.04.2022
4418 Clouds 6 1013 60 10000 0.89 218 18:39 04.04.2022
4419 Clouds 6 1013 59 10000 2.41 267 16:41 04.04.2022
4420 Clouds 6 1013 59 10000 2.72 261 16:23 04.04.2022
4421 Clouds 6 1014 59 10000 1.34 230 15:33 04.04.2022
4422 Clouds 5 1014 57 10000 1.79 216 14:46 04.04.2022
4423 Clouds 4 1015 58 10000 0.45 160 13:40 04.04.2022
4424 Clear 3 1016 60 10000 1.34 139 12:26 04.04.2022
4425 Clear 2 1017 62 10000 1.79 140 11:29 04.04.2022
4426 Clear -1 1017 74 10000 0.89 218 09:51 04.04.2022
4427 Clouds -7 1025 90 10000 2.58 172 05:27 04.04.2022
4428 Clouds -5 1025 92 10000 2.27 170 02:41 04.04.2022
4429 Clouds -3 1026 87 10000 0.45 351 22:49 03.04.2022
4430 Clouds -3 1026 87 4092 1.34 354 21:58 03.04.2022
4431 Clouds -2 1021 84 1826 1.34 354 21:25 03.04.2022
4432 Clouds -2 1020 83 827 0.45 353 19:52 03.04.2022
4433 Clouds -1 1016 83 375 1.79 342 18:34 03.04.2022
4434 Clouds -1 1016 83 431 1.79 342 17:49 03.04.2022
4435 Clouds -1 1016 83 712 2.24 1 17:27 03.04.2022
4436 Clouds -1 1016 83 712 2.24 318 16:48 03.04.2022
4437 Clouds 0 1016 82 910 2.24 330 15:32 03.04.2022
4438 Clouds -1 1019 81 1335 2.24 313 13:58 03.04.2022
4439 Clouds -1 1019 78 4179 1.79 11 12:56 03.04.2022
4440 Clouds -1 1019 79 7428 0.45 48 11:33 03.04.2022
4441 Clouds -2 1015 87 10000 1.16 45 09:41 03.04.2022
4442 Clouds -3 1015 90 10000 0.77 101 08:52 03.04.2022
4443 Clouds -5 1021 98 2292 1.59 160 05:44 03.04.2022
4444 Clouds -6 1020 98 989 1.13 147 02:55 03.04.2022
4445 Clouds -3 1012 89 335 0.89 349 23:22 02.04.2022
4446 Clouds -3 1012 89 335 0.89 349 23:22 02.04.2022
4447 Clouds -3 1012 91 335 1.79 355 22:41 02.04.2022
4448 Clouds -3 1012 91 166 1.79 355 21:55 02.04.2022
4449 Clouds -3 1011 93 122 0.45 312 21:19 02.04.2022
4450 Snow -3 1009 93 122 1.98 2 20:35 02.04.2022
4451 Snow -2 1008 91 149 3.13 324 18:47 02.04.2022
4452 Snow -2 1008 91 162 3.13 324 18:19 02.04.2022
4453 Snow -1 1006 89 181 1.79 295 16:45 02.04.2022
4454 Snow -1 1006 88 224 1.34 329 15:27 02.04.2022
4455 Snow -1 1006 89 224 1.34 329 14:52 02.04.2022
4456 Clouds -1 1005 90 227 1.79 19 14:20 02.04.2022
4457 Clouds -1 1005 91 239 1.34 348 13:29 02.04.2022
4458 Snow -1 1004 90 300 1.34 319 11:56 02.04.2022
4459 Snow -2 1005 91 250 0.45 48 09:57 02.04.2022
4460 Snow -3 1004 93 155 0.45 347 07:48 02.04.2022
4461 Snow -2 1003 94 180 1.34 316 04:25 02.04.2022
4462 Snow -1 1003 92 156 0.89 278 00:27 02.04.2022
4463 Snow -1 1003 92 156 0.89 278 23:53 01.04.2022
4464 Snow -1 1003 93 264 1.79 331 22:46 01.04.2022
4465 Snow 0 1002 93 162 0.45 303 20:55 01.04.2022
4466 Snow 0 1001 93 162 1.79 8 20:35 01.04.2022
4467 Rain 0 1001 93 77 2.24 344 19:41 01.04.2022
4468 Rain 1 999 92 105 2.24 344 19:23 01.04.2022
4469 Rain 1 1000 91 105 1.34 313 18:36 01.04.2022
4470 Clouds 1 1002 91 105 2.03 325 17:36 01.04.2022
4471 Clouds 1 1002 93 148 2.17 328 15:46 01.04.2022
4472 Clouds 1 1001 94 130 2.16 333 14:51 01.04.2022
4473 Clouds 1 1001 95 107 0.45 305 13:39 01.04.2022
4474 Snow 0 1001 95 99 2.32 313 12:33 01.04.2022
4475 Snow 0 1001 95 145 2.18 313 11:47 01.04.2022
4476 Snow 0 1001 95 134 2.15 310 10:49 01.04.2022
4477 Snow 0 997 94 89 1.91 314 09:39 01.04.2022
4478 Snow 0 1000 94 50 1.55 330 07:31 01.04.2022
4479 Clouds 1 999 93 32 1.25 296 04:59 01.04.2022
4480 Clouds 1 999 94 32 1.25 296 04:39 01.04.2022
4481 Clouds 2 999 95 58 0.45 148 02:37 01.04.2022
4482 Clouds 2 999 95 52 0.45 49 01:33 01.04.2022
4483 Clouds 2 999 94 69 0.75 255 22:27 31.03.2022
4484 Clouds 3 997 94 69 1.34 159 21:38 31.03.2022
4485 Clouds 4 996 94 61 1.34 159 20:51 31.03.2022
4486 Clouds 4 995 92 59 0.45 284 20:28 31.03.2022
4487 Clouds 6 994 89 103 1.34 27 19:21 31.03.2022
4488 Clouds 6 995 86 103 0.45 25 18:31 31.03.2022
4489 Clouds 9 994 72 738 1.64 330 16:47 31.03.2022
4490 Clouds 8 995 83 705 0.89 16 15:54 31.03.2022
4491 Clouds 8 994 80 2195 1.77 333 15:24 31.03.2022
4492 Clouds 8 995 83 2195 0.89 227 14:44 31.03.2022
4493 Clouds 7 995 90 1507 1.64 343 13:28 31.03.2022
4494 Clouds 6 996 92 2611 1.41 348 11:30 31.03.2022
4495 Clouds 6 996 91 5812 0.45 359 10:22 31.03.2022
4496 Clouds 6 996 91 10000 0.76 340 09:19 31.03.2022
4497 Clouds 5 996 92 10000 0.42 349 07:31 31.03.2022
4498 Clouds 5 1000 90 10000 0.89 153 01:27 31.03.2022
4499 Clouds 6 1001 86 10000 0.45 295 23:23 30.03.2022
4500 Clouds 7 1001 80 10000 1.79 335 21:54 30.03.2022
4501 Clouds 7 1001 78 10000 0.89 151 21:27 30.03.2022
4502 Clouds 8 1001 77 10000 0.45 314 20:32 30.03.2022
4503 Clouds 8 1000 75 10000 0.89 182 19:43 30.03.2022
4504 Clouds 9 1001 75 10000 1.79 168 18:41 30.03.2022
4505 Clouds 9 1001 74 10000 0.45 324 17:50 30.03.2022
4506 Clouds 9 1001 76 10000 0.45 340 16:58 30.03.2022
4507 Clouds 9 1001 73 10000 0.45 261 16:39 30.03.2022
4508 Clouds 9 1002 77 10000 1.79 336 15:38 30.03.2022
4509 Clouds 9 1003 73 5435 2.68 356 14:18 30.03.2022
4510 Clouds 10 1002 67 7643 2.24 149 13:19 30.03.2022
4511 Clouds 9 1004 65 10000 0.45 20 11:41 30.03.2022
4512 Clouds 9 1003 64 10000 0.99 257 10:38 30.03.2022
4513 Clouds 7 1005 71 10000 0.45 237 09:28 30.03.2022
4514 Clouds 7 1005 69 10000 0.89 174 07:59 30.03.2022
4515 Clouds 7 1006 65 10000 0.89 235 05:41 30.03.2022
4516 Clouds 7 1006 61 10000 1.34 176 04:54 30.03.2022
4517 Clouds 8 1008 59 10000 0.45 245 00:43 30.03.2022
4518 Clouds 10 1009 54 10000 1.34 208 22:35 29.03.2022
4519 Clouds 10 1011 52 10000 1.34 167 21:46 29.03.2022
4520 Clouds 9 1010 53 10000 0.45 81 20:55 29.03.2022
4521 Clouds 9 1010 53 10000 0.45 81 20:24 29.03.2022
4522 Clouds 11 1009 44 10000 1.79 173 18:57 29.03.2022
4523 Clouds 11 1009 44 10000 1.79 173 18:36 29.03.2022
4524 Clouds 14 1010 36 10000 0.45 348 17:37 29.03.2022
4525 Clouds 14 1010 35 10000 0.45 326 16:58 29.03.2022
4526 Clouds 16 1009 29 10000 1.1 298 15:58 29.03.2022
4527 Clouds 16 1010 30 10000 1.34 58 14:53 29.03.2022
4528 Clouds 15 1011 30 10000 2.68 4 14:22 29.03.2022
4529 Clouds 15 1012 34 10000 2.68 313 12:55 29.03.2022
4530 Clouds 13 1014 40 10000 0.89 116 11:44 29.03.2022
4531 Clouds 11 1016 44 10000 1.34 176 10:55 29.03.2022
4532 Clouds 9 1013 53 10000 0.45 154 09:49 29.03.2022
4533 Clouds 4 1015 71 10000 2.55 177 07:57 29.03.2022
4534 Clouds 4 1015 71 10000 0.89 213 05:35 29.03.2022
4535 Clouds 5 1017 65 10000 0.89 200 00:50 29.03.2022
4536 Clear 6 1018 63 10000 0.89 158 23:24 28.03.2022
4537 Clear 7 1018 61 10000 0.89 158 22:54 28.03.2022
4538 Clear 8 1019 59 10000 1.34 225 22:26 28.03.2022
4539 Clear 9 1023 69 10000 2.96 170 20:58 28.03.2022
4540 Clear 10 1022 72 10000 2.7 174 20:23 28.03.2022
4541 Clear 11 1022 44 10000 0.89 330 19:45 28.03.2022
4542 Clear 11 1022 44 10000 0.89 330 19:27 28.03.2022
4543 Clear 14 1021 34 10000 0.45 40 18:40 28.03.2022
4544 Clear 16 1021 32 10000 1.1 214 17:39 28.03.2022
4545 Clear 16 1021 28 10000 0.45 165 16:21 28.03.2022
4546 Clear 16 1023 26 10000 0.89 146 14:47 28.03.2022
4547 Clear 16 1023 28 10000 0.89 146 14:21 28.03.2022
4548 Clear 15 1024 35 10000 1.34 5 12:20 28.03.2022
4549 Clear 13 1025 37 10000 0.87 256 11:24 28.03.2022
4550 Clear 9 1028 38 10000 0.89 154 09:43 28.03.2022
4551 Clear 9 1028 38 10000 0.89 154 09:19 28.03.2022
4552 Clear 3 1028 76 10000 2.64 172 08:22 28.03.2022
4553 Clear 2 1029 54 10000 2.8 170 07:28 28.03.2022
4554 Clear 3 1029 77 10000 2.92 170 03:44 28.03.2022
4555 Clear 6 1026 67 10000 0.45 195 23:30 27.03.2022
4556 Clear 8 1026 61 10000 0.89 235 22:24 27.03.2022
4557 Clear 8 1026 61 10000 0.89 235 22:24 27.03.2022
4558 Clear 8 1031 59 10000 3 164 21:41 27.03.2022
4559 Clear 9 1030 66 10000 2.91 166 20:54 27.03.2022
4560 Clear 9 1030 66 10000 2.91 166 20:54 27.03.2022
4561 Clear 12 1028 43 10000 0.45 19 19:48 27.03.2022
4562 Clear 12 1028 43 10000 0.45 19 19:20 27.03.2022
4563 Clear 15 1027 36 10000 0.45 18 18:27 27.03.2022
4564 Clear 15 1027 35 10000 0.45 330 17:38 27.03.2022
4565 Clear 17 1026 32 10000 3.58 316 16:21 27.03.2022
4566 Clear 16 1026 30 10000 3.58 299 15:18 27.03.2022
4567 Clear 16 1026 32 10000 2.24 322 13:55 27.03.2022
4568 Clear 14 1027 36 10000 1.79 11 12:24 27.03.2022
4569 Clear 11 1027 34 10000 0.89 80 10:53 27.03.2022
4570 Clear 8 1030 32 10000 0.45 134 08:43 27.03.2022
4571 Clear 3 1029 66 10000 2.9 160 05:54 27.03.2022
4572 Clear 5 1028 70 10000 0.45 217 00:47 27.03.2022
4573 Clear 5 1029 68 10000 0.89 148 23:40 26.03.2022
4574 Clear 7 1028 63 10000 0.45 183 22:36 26.03.2022
4575 Clear 8 1028 59 10000 1.34 216 21:33 26.03.2022
4576 Clear 8 1027 57 10000 0.89 250 20:20 26.03.2022
4577 Clear 9 1029 50 10000 1.84 132 19:19 26.03.2022
4578 Clear 12 1027 48 10000 0.89 330 17:51 26.03.2022
4579 Clear 13 1027 43 10000 0.89 330 17:30 26.03.2022
4580 Clear 16 1025 40 10000 2.24 312 16:25 26.03.2022
4581 Clear 16 1025 38 10000 0.45 322 14:51 26.03.2022
4582 Clear 15 1026 41 10000 4.47 340 13:52 26.03.2022
4583 Clear 15 1025 42 10000 2.24 330 12:44 26.03.2022
4584 Clear 12 1026 45 10000 2.24 334 11:29 26.03.2022
4585 Clear 9 1029 46 10000 0.89 161 09:23 26.03.2022
4586 Clear 7 1029 49 10000 0.45 160 08:28 26.03.2022
4587 Clear 2 1028 79 10000 2.32 152 05:54 26.03.2022
4588 Clear 2 1028 80 10000 2.25 150 03:59 26.03.2022
4589 Clouds 6 1027 61 10000 0.89 167 23:39 25.03.2022
4590 Clouds 7 1026 53 10000 0.89 187 21:28 25.03.2022
4591 Clouds 8 1026 53 10000 0.89 209 20:45 25.03.2022
4592 Clouds 8 1028 47 10000 0.89 6 19:28 25.03.2022
4593 Clouds 10 1027 42 10000 0.89 336 18:46 25.03.2022
4594 Clouds 12 1026 40 10000 1.79 18 17:35 25.03.2022
4595 Clouds 13 1026 35 10000 0.45 15 16:41 25.03.2022
4596 Clouds 13 1026 35 10000 0.45 15 16:41 25.03.2022
4597 Clouds 14 1026 32 10000 1.34 90 15:56 25.03.2022
4598 Clouds 14 1027 34 10000 0.89 17 13:58 25.03.2022
4599 Clear 14 1025 35 10000 1.34 24 12:32 25.03.2022
4600 Clear 11 1025 49 10000 1.46 21 09:52 25.03.2022
4601 Clear 8 1025 62 10000 0.64 70 09:23 25.03.2022
4602 Clear 7 1029 50 10000 1.06 145 07:48 25.03.2022
4603 Clear 6 1029 50 10000 1.73 160 07:23 25.03.2022
4604 Clear 2 1028 78 10000 1.96 163 04:47 25.03.2022
4605 Clear 4 1027 65 10000 0.89 219 00:29 25.03.2022
4606 Clear 6 1027 59 10000 1.34 207 22:29 24.03.2022
4607 Clear 7 1027 55 10000 0.45 184 21:33 24.03.2022
4608 Clear 9 1027 48 10000 1.79 170 19:50 24.03.2022
4609 Clouds 10 1026 46 10000 0.89 214 18:49 24.03.2022
4610 Clouds 13 1027 37 10000 1.34 2 17:38 24.03.2022
4611 Clouds 14 1027 36 10000 0.45 320 16:44 24.03.2022
4612 Clouds 16 1025 31 10000 2.68 307 14:59 24.03.2022
4613 Clouds 16 1026 31 10000 0.89 314 14:40 24.03.2022
4614 Clouds 15 1026 33 10000 3.58 9 13:41 24.03.2022
4615 Clear 14 1027 35 10000 1.34 323 12:39 24.03.2022
4616 Clear 13 1027 35 10000 0.89 57 11:31 24.03.2022
4617 Clear 8 1026 49 10000 0.53 32 09:34 24.03.2022
4618 Clear 7 1027 65 10000 0.55 133 08:39 24.03.2022
4619 Clear 1 1031 66 10000 2.51 164 06:18 24.03.2022
4620 Clear 3 1027 72 10000 0.45 209 01:28 24.03.2022
4621 Clear 5 1027 63 10000 0.45 239 22:29 23.03.2022
4622 Clear 7 1027 57 10000 0.45 202 21:25 23.03.2022
4623 Clear 8 1032 54 10000 2.57 160 20:47 23.03.2022
4624 Clear 9 1027 49 10000 1.34 239 19:40 23.03.2022
4625 Clear 8 1028 73 10000 0.31 114 18:22 23.03.2022
4626 Clear 16 1028 30 10000 0.31 114 17:31 23.03.2022
4627 Clear 17 1027 29 10000 0.45 131 16:18 23.03.2022
4628 Clouds 17 1027 29 10000 0.54 121 14:49 23.03.2022
4629 Clouds 16 1027 25 10000 0.45 299 13:34 23.03.2022
4630 Clear 13 1030 30 10000 2.24 8 11:38 23.03.2022
4631 Clear 6 1034 30 10000 1.34 164 08:51 23.03.2022
4632 Clear 1 1034 56 10000 2.76 165 06:26 23.03.2022
4633 Clear 1 1033 58 10000 2.94 165 03:52 23.03.2022
4634 Clear 2 1028 72 10000 0.45 205 00:28 23.03.2022
4635 Clear 5 1031 63 10000 0.45 204 21:56 22.03.2022
4636 Clear 6 1031 59 10000 0.45 176 21:26 22.03.2022
4637 Clear 7 1031 56 10000 0.89 205 20:30 22.03.2022
4638 Clear 7 1033 51 10000 1.41 146 19:27 22.03.2022
4639 Clear 9 1032 45 10000 1.34 104 18:50 22.03.2022
4640 Clear 11 1031 39 10000 0.45 273 17:44 22.03.2022
4641 Clouds 13 1031 37 10000 0.45 266 16:58 22.03.2022
4642 Clouds 14 1029 33 10000 1.79 313 15:48 22.03.2022
4643 Clouds 14 1029 33 10000 1.79 313 15:21 22.03.2022
4644 Clouds 13 1030 33 10000 2.68 1 14:45 22.03.2022
4645 Clouds 13 1030 32 10000 2.68 1 13:52 22.03.2022
4646 Clear 12 1030 33 10000 1.79 117 12:34 22.03.2022
4647 Clear 11 1031 32 10000 1.79 344 11:24 22.03.2022
4648 Clear 8 1031 37 10000 0.89 151 09:52 22.03.2022
4649 Clear 2 1033 55 10000 2.05 166 07:44 22.03.2022
4650 Clear 0 1029 76 10000 2.96 164 04:29 22.03.2022
4651 Clear 0 1029 77 10000 0.45 182 02:52 22.03.2022
4652 Clear 3 1032 66 10000 0.45 217 23:19 21.03.2022
4653 Clear 5 1032 55 10000 0.89 186 21:39 21.03.2022
4654 Clear 5 1031 55 10000 0.89 232 20:44 21.03.2022
4655 Clear 5 1031 54 10000 0.89 232 20:23 21.03.2022
4656 Clear 6 1034 47 10000 1.79 32 19:47 21.03.2022
4657 Clouds 7 1033 47 10000 1.79 324 18:59 21.03.2022
4658 Clouds 10 1032 43 10000 0.89 350 17:36 21.03.2022
4659 Clouds 11 1032 40 10000 0.89 343 16:59 21.03.2022
4660 Clouds 12 1030 38 10000 2.24 296 16:35 21.03.2022
4661 Clouds 13 1030 36 10000 2.68 332 15:44 21.03.2022
4662 Clouds 12 1030 36 10000 1.34 314 14:45 21.03.2022
4663 Clear 13 1029 34 10000 2.24 318 13:20 21.03.2022
4664 Clear 10 1031 40 10000 2.24 313 11:59 21.03.2022
4665 Clear 10 1032 42 10000 1.34 20 11:28 21.03.2022
4666 Clear 7 1032 50 10000 0.66 78 09:51 21.03.2022
4667 Clear -1 1029 83 10000 1.93 157 07:39 21.03.2022
4668 Clear -1 1029 84 10000 0.89 208 06:29 21.03.2022
4669 Clear 1 1029 80 10000 0.89 169 02:23 21.03.2022
4670 Clear 3 1028 71 10000 3.11 168 22:57 20.03.2022
4671 Clouds 4 1028 66 10000 3.03 168 22:29 20.03.2022
4672 Clouds 5 1035 63 10000 3.03 168 21:38 20.03.2022
4673 Clouds 5 1034 81 10000 2.89 167 20:56 20.03.2022
4674 Clouds 5 1034 81 10000 2.89 167 20:36 20.03.2022
4675 Clouds 5 1033 82 10000 2.62 168 19:54 20.03.2022
4676 Clouds 6 1032 81 10000 2.19 173 19:24 20.03.2022
4677 Clouds 9 1030 42 10000 0.45 327 17:48 20.03.2022
4678 Clouds 10 1030 42 10000 0.45 327 17:26 20.03.2022
4679 Clouds 10 1030 41 10000 1.36 194 16:38 20.03.2022
4680 Clouds 12 1030 33 10000 0.45 67 14:50 20.03.2022
4681 Clear 12 1031 34 10000 0.89 349 13:39 20.03.2022
4682 Clear 11 1031 34 10000 0.89 257 12:19 20.03.2022
4683 Clear 8 1029 41 10000 0.89 343 09:59 20.03.2022
4684 Clear 1 1033 79 10000 3.2 164 08:26 20.03.2022
4685 Clear -2 1026 85 10000 0.45 285 06:39 20.03.2022
4686 Clear -1 1025 84 10000 3.06 166 03:25 20.03.2022
4687 Clouds 1 1028 77 10000 0.89 160 00:54 20.03.2022
4688 Clouds 1 1028 77 10000 0.89 160 00:54 20.03.2022
4689 Clouds 1 1028 77 10000 0.89 160 00:34 20.03.2022
4690 Clouds 1 1029 74 10000 0.45 154 22:39 19.03.2022
4691 Clouds 3 1026 68 10000 0.45 219 21:26 19.03.2022
4692 Clouds 5 1029 92 10000 1.34 131 19:39 19.03.2022
4693 Clouds 6 1026 51 10000 0.89 327 18:44 19.03.2022
4694 Clouds 7 1026 51 10000 0.89 327 17:52 19.03.2022
4695 Clouds 6 1029 57 10000 2.68 308 17:33 19.03.2022
4696 Clouds 9 1026 51 10000 2.68 310 15:40 19.03.2022
4697 Clouds 9 1027 52 10000 2.68 331 14:19 19.03.2022
4698 Clear 9 1028 54 10000 2.24 3 12:56 19.03.2022
4699 Clear 9 1029 58 10000 1.34 26 12:37 19.03.2022
4700 Clear 7 1030 66 10000 1.79 81 11:46 19.03.2022
4701 Clear 4 1032 75 10000 1.5 41 09:31 19.03.2022
4702 Clouds 0 1035 91 10000 0.45 179 05:44 19.03.2022
4703 Clouds 1 1036 90 10000 1.34 187 02:34 19.03.2022
4704 Clouds 2 1037 88 10000 0.45 222 00:32 19.03.2022
4705 Clouds 3 1036 82 10000 0.45 309 22:59 18.03.2022
4706 Clouds 3 1036 82 10000 0.89 237 22:22 18.03.2022
4707 Clouds 5 1036 76 10000 0.89 185 20:31 18.03.2022
4708 Clouds 5 1039 75 10000 0.45 14 19:45 18.03.2022
4709 Clouds 6 1039 73 10000 0.45 14 19:18 18.03.2022
4710 Clouds 9 1031 62 10000 1.34 100 16:59 18.03.2022
4711 Clouds 10 1031 61 10000 0.45 64 16:34 18.03.2022
4712 Clouds 10 1032 67 10000 2.82 59 14:29 18.03.2022
4713 Clouds 8 1031 75 10000 0.45 210 13:40 18.03.2022
4714 Clouds 6 1031 85 10000 0.45 190 11:43 18.03.2022
4715 Clouds 5 1031 88 2133 0.45 50 10:27 18.03.2022
4716 Clouds 4 1031 92 1755 0.89 21 08:50 18.03.2022
4717 Clouds 4 1030 93 187 0.45 350 07:26 18.03.2022
4718 Clouds 5 1029 93 389 1.57 51 05:20 18.03.2022
4719 Clouds 4 1029 95 255 1.79 351 01:51 18.03.2022
4720 Clouds 5 1031 93 189 1.34 358 23:59 17.03.2022
4721 Clouds 5 1031 91 164 0.45 356 22:50 17.03.2022
4722 Clouds 5 1031 90 152 1.79 318 22:19 17.03.2022
4723 Clouds 6 1030 89 152 0.45 338 21:31 17.03.2022
4724 Clouds 6 1029 89 168 0.89 88 20:54 17.03.2022
4725 Clouds 6 1029 88 213 1.34 357 20:20 17.03.2022
4726 Clouds 7 1028 88 213 0.45 17 19:38 17.03.2022
4727 Clouds 8 1028 86 1202 0.45 17 18:53 17.03.2022
4728 Clouds 9 1027 83 2194 0.89 307 17:40 17.03.2022
4729 Clouds 9 1026 82 10000 1.34 354 16:20 17.03.2022
4730 Clouds 10 1026 75 10000 1.79 328 15:43 17.03.2022
4731 Clouds 11 1026 71 10000 1.79 328 14:59 17.03.2022
4732 Clouds 11 1025 67 10000 1.79 324 13:45 17.03.2022
4733 Clouds 11 1025 64 10000 0.45 296 12:46 17.03.2022
4734 Clouds 9 1025 68 2990 0.45 230 11:33 17.03.2022
4735 Clouds 9 1027 57 2482 1.34 163 10:43 17.03.2022
4736 Clouds 9 1026 56 9794 1.34 177 09:36 17.03.2022
4737 Clouds 4 1024 78 10000 1.23 192 08:19 17.03.2022
4738 Clouds 3 1023 90 10000 0.7 187 05:49 17.03.2022
4739 Clouds 3 1022 90 10000 0.61 204 04:30 17.03.2022
4740 Clear 4 1022 90 10000 1.96 164 00:25 17.03.2022
4741 Clear 5 1021 87 10000 0.45 206 22:52 16.03.2022
4742 Clear 5 1021 87 10000 0.89 217 22:34 16.03.2022
4743 Clear 6 1021 87 10000 0.89 217 21:56 16.03.2022
4744 Clear 7 1023 81 10000 0.45 192 20:40 16.03.2022
4745 Clouds 9 1023 81 10000 0.89 154 19:23 16.03.2022
4746 Clouds 10 1022 79 10000 1.34 333 18:42 16.03.2022
4747 Clouds 11 1021 76 10000 0.89 24 17:46 16.03.2022
4748 Clouds 12 1021 71 10000 0.89 24 17:28 16.03.2022
4749 Clouds 13 1021 69 10000 0.89 348 15:56 16.03.2022
4750 Clouds 13 1021 65 10000 0.45 28 14:50 16.03.2022
4751 Clouds 14 1022 59 10000 0.89 339 13:36 16.03.2022
4752 Clouds 14 1022 59 10000 2.24 350 12:43 16.03.2022
4753 Clouds 12 1023 63 10000 0.45 335 11:23 16.03.2022
4754 Clouds 10 1024 67 10000 0.45 17 10:30 16.03.2022
4755 Clouds 10 1025 70 10000 0.45 17 09:56 16.03.2022
4756 Clouds 4 1023 88 10000 1.81 187 07:23 16.03.2022
4757 Clouds 8 1024 71 10000 2.24 186 02:44 16.03.2022
4758 Clouds 8 1025 72 10000 1.79 149 22:54 15.03.2022
4759 Clouds 8 1025 71 10000 1.79 178 22:35 15.03.2022
4760 Clouds 9 1024 64 10000 2.24 136 20:51 15.03.2022
4761 Clouds 9 1020 65 10000 2.63 199 19:37 15.03.2022
4762 Clouds 11 1022 56 10000 1.34 183 17:42 15.03.2022
4763 Clouds 12 1022 54 10000 1.79 174 16:35 15.03.2022
4764 Clouds 12 1023 53 10000 4.92 194 15:28 15.03.2022
4765 Clouds 11 1024 55 10000 2.24 149 14:52 15.03.2022
4766 Clouds 9 1028 60 10000 2.68 182 13:55 15.03.2022
4767 Clouds 9 1028 60 10000 2.68 182 13:55 15.03.2022
4768 Clouds 9 1028 60 10000 2.68 182 13:20 15.03.2022
4769 Clouds 8 1027 63 10000 0.89 163 11:32 15.03.2022
4770 Clouds 7 1025 67 10000 0.45 119 10:22 15.03.2022
4771 Clouds 5 1026 70 10000 0.89 234 08:53 15.03.2022
4772 Clouds 5 1026 74 10000 2.26 166 07:53 15.03.2022
4773 Clouds 4 1025 78 10000 0.45 84 07:35 15.03.2022
4774 Clouds 3 1025 75 10000 2.27 172 05:45 15.03.2022
4775 Clouds 2 1026 80 10000 0.45 197 00:25 15.03.2022
4776 Clouds 3 1027 80 10000 0.45 219 23:26 14.03.2022
4777 Clouds 3 1027 77 10000 0.45 152 22:37 14.03.2022
4778 Clouds 4 1027 75 10000 0.45 152 21:49 14.03.2022
4779 Clouds 4 1027 72 10000 2.38 143 20:54 14.03.2022
4780 Clouds 7 1027 66 10000 0.45 174 20:23 14.03.2022
4781 Clouds 6 1027 62 10000 0.45 227 19:21 14.03.2022
4782 Clouds 7 1029 88 10000 1.33 121 17:55 14.03.2022
4783 Clouds 12 1027 51 10000 0.87 48 17:24 14.03.2022
4784 Clouds 13 1027 49 10000 0.73 37 16:26 14.03.2022
4785 Clouds 13 1025 49 10000 2.24 343 14:41 14.03.2022
4786 Clouds 11 1028 51 10000 0.89 320 12:54 14.03.2022
4787 Clouds 9 1028 59 10000 0.35 93 10:54 14.03.2022
4788 Clouds 9 1026 56 10000 0.89 112 09:56 14.03.2022
4789 Clouds 7 1025 64 10000 0.89 196 09:22 14.03.2022
4790 Clouds 6 1025 68 10000 0.89 196 08:57 14.03.2022
4791 Clouds 3 1028 75 10000 1.34 215 07:43 14.03.2022
4792 Clouds 3 1025 67 10000 1.79 170 05:46 14.03.2022
4793 Clouds 3 1018 70 10000 0.45 220 01:58 14.03.2022
4794 Clouds 3 1017 70 10000 0.45 264 01:29 14.03.2022
4795 Clouds 2 1016 67 10000 0.89 9 22:52 13.03.2022
4796 Clear 3 1015 62 10000 0.45 81 21:31 13.03.2022
4797 Clear 4 1015 60 10000 0.45 81 20:56 13.03.2022
4798 Clear 5 1019 59 10000 3.49 163 20:31 13.03.2022
4799 Clear 6 1018 55 10000 3.41 165 19:59 13.03.2022
4800 Clear 6 1018 79 10000 3.41 165 19:37 13.03.2022
4801 Clear 6 1018 82 10000 3.13 166 19:18 13.03.2022
4802 Clear 6 1018 82 10000 3.13 166 19:18 13.03.2022
4803 Clear 6 1017 84 10000 2.91 170 18:38 13.03.2022
4804 Clear 11 1016 29 10000 0.45 90 17:47 13.03.2022
4805 Clear 11 1016 29 10000 0.45 90 17:20 13.03.2022
4806 Clear 11 1016 27 10000 1.34 165 16:30 13.03.2022
4807 Clear 14 1014 26 10000 1.34 328 15:47 13.03.2022
4808 Clear 13 1014 26 10000 0.45 305 14:58 13.03.2022
4809 Clear 13 1015 26 10000 0.89 292 13:49 13.03.2022
4810 Clear 12 1016 28 10000 2.24 310 12:57 13.03.2022
4811 Clear 11 1017 29 10000 1.79 352 11:53 13.03.2022
4812 Clear 10 1017 32 10000 0.45 38 11:32 13.03.2022
4813 Clear 8 1016 42 10000 0.45 346 10:47 13.03.2022
4814 Clear 7 1016 43 10000 0.45 346 10:24 13.03.2022
4815 Clear 7 1019 37 10000 1.63 156 09:41 13.03.2022
4816 Clear 3 1017 59 10000 2.4 157 08:46 13.03.2022
4817 Clear 0 1019 71 10000 2.98 158 07:42 13.03.2022
4818 Clear -2 1016 79 10000 0.89 210 05:41 13.03.2022
4819 Clear -1 1016 79 10000 0.45 136 02:43 13.03.2022
4820 Clouds 0 1016 76 10000 0.89 208 23:56 12.03.2022
4821 Clouds 2 1016 72 10000 0.45 217 22:31 12.03.2022
4822 Clouds 4 1016 65 10000 3.04 162 20:47 12.03.2022
4823 Clouds 4 1020 88 10000 2.79 165 19:48 12.03.2022
4824 Clouds 5 1020 88 10000 2.48 165 19:27 12.03.2022
4825 Clouds 7 1019 48 10000 0.89 147 18:23 12.03.2022
4826 Clouds 9 1019 43 10000 0.45 122 17:31 12.03.2022
4827 Clouds 11 1019 38 10000 0.45 123 16:23 12.03.2022
4828 Clouds 13 1016 32 10000 0.45 339 15:22 12.03.2022
4829 Clouds 11 1018 36 10000 0.89 347 14:28 12.03.2022
4830 Clouds 12 1017 36 10000 0.89 314 12:56 12.03.2022
4831 Clouds 10 1018 38 10000 1.34 306 11:56 12.03.2022
4832 Clouds 9 1020 40 10000 0.45 60 11:35 12.03.2022
4833 Clouds 8 1021 44 10000 1.34 160 10:52 12.03.2022
4834 Clouds 4 1021 56 10000 0.45 313 09:45 12.03.2022
4835 Clouds 3 1021 55 10000 0.45 171 08:55 12.03.2022
4836 Clouds -1 1018 76 10000 0.89 215 07:19 12.03.2022
4837 Clouds -1 1017 76 10000 1.34 148 02:34 12.03.2022
4838 Clouds 0 1017 73 10000 0.45 7 23:52 11.03.2022
4839 Clouds 1 1016 74 10000 0.45 192 22:56 11.03.2022
4840 Clouds 3 1016 68 10000 0.89 142 21:35 11.03.2022
4841 Clouds 3 1016 68 10000 0.89 142 20:54 11.03.2022
4842 Clouds 4 1016 61 10000 0.45 213 20:28 11.03.2022
4843 Clouds 0 1021 74 10000 2.88 169 19:42 11.03.2022
4844 Clouds -1 1020 74 10000 2.62 170 19:20 11.03.2022
4845 Clouds 8 1018 41 10000 0.45 78 17:29 11.03.2022
4846 Clouds 10 1018 24 10000 0.45 118 16:27 11.03.2022
4847 Clouds 9 1018 36 10000 0.45 335 15:53 11.03.2022
4848 Clouds 11 1017 29 10000 2.68 317 14:19 11.03.2022
4849 Clouds 10 1017 31 10000 2.68 0 12:43 11.03.2022
4850 Clouds 9 1019 32 10000 2.68 0 12:20 11.03.2022
4851 Clouds 8 1019 36 10000 0.45 307 11:43 11.03.2022
4852 Clouds 7 1021 25 10000 0.45 103 09:39 11.03.2022
4853 Clouds 5 1020 65 10000 1.97 169 08:40 11.03.2022
4854 Clouds -1 1022 74 10000 2.79 164 07:49 11.03.2022
4855 Clouds -2 1023 74 10000 3.11 162 06:59 11.03.2022
4856 Clouds -2 1023 74 10000 3.13 163 05:20 11.03.2022
4857 Clouds -2 1018 73 10000 3.24 164 02:45 11.03.2022
4858 Clear 0 1019 71 10000 3.12 164 22:56 10.03.2022
4859 Clear 0 1019 71 10000 0.45 151 22:28 10.03.2022
4860 Clear 1 1019 69 10000 0.45 216 21:26 10.03.2022
4861 Clear 2 1019 63 10000 0.45 226 20:45 10.03.2022
4862 Clear 4 1024 85 10000 2.57 155 19:22 10.03.2022
4863 Clear 6 1024 45 10000 0.89 139 18:30 10.03.2022
4864 Clear 7 1023 39 10000 0.58 79 16:53 10.03.2022
4865 Clear 10 1024 34 10000 0.7 48 15:41 10.03.2022
4866 Clear 10 1022 32 10000 1.34 310 14:23 10.03.2022
4867 Clear 9 1024 35 10000 2.68 352 12:46 10.03.2022
4868 Clear 8 1024 39 10000 0.89 128 11:37 10.03.2022
4869 Clear 5 1024 42 10000 0.45 99 10:19 10.03.2022
4870 Clear 2 1029 38 10000 0.45 148 08:40 10.03.2022
4871 Clear -3 1029 76 10000 2.56 160 05:50 10.03.2022
4872 Clear -3 1028 77 10000 2.59 162 03:33 10.03.2022
4873 Clear -2 1029 75 10000 2.59 164 00:23 10.03.2022
4874 Clear -1 1029 73 10000 2.65 167 22:43 09.03.2022
4875 Clear 0 1029 72 10000 2.63 165 21:48 09.03.2022
4876 Clear 1 1028 67 10000 2.59 161 20:53 09.03.2022
4877 Clear 1 1027 86 10000 2.34 161 19:23 09.03.2022
4878 Clear 7 1023 77 10000 0.42 90 17:29 09.03.2022
4879 Clear 8 1023 77 10000 0.42 90 16:48 09.03.2022
4880 Clear 10 1023 37 10000 0.99 27 15:41 09.03.2022
4881 Clear 9 1023 38 10000 1.27 22 14:24 09.03.2022
4882 Clear 9 1023 38 10000 1.27 22 13:38 09.03.2022
4883 Clear 8 1024 38 10000 0.93 352 12:20 09.03.2022
4884 Clear 8 1024 38 10000 0.93 352 11:46 09.03.2022
4885 Clear 6 1024 38 10000 0.92 352 10:54 09.03.2022
4886 Clear 0 1025 54 10000 0.76 148 09:28 09.03.2022
4887 Clear -4 1025 54 10000 0.76 148 08:44 09.03.2022
4888 Clouds -5 1027 72 10000 2.36 176 05:56 09.03.2022
4889 Clouds -4 1020 74 10000 0.89 214 00:58 09.03.2022
4890 Clouds -3 1020 71 10000 0.89 215 23:46 08.03.2022
4891 Clear -2 1019 70 10000 0.89 213 22:45 08.03.2022
4892 Clear -2 1019 69 10000 2.47 166 21:46 08.03.2022
4893 Clear -2 1019 69 10000 2.55 173 21:19 08.03.2022
4894 Clear -1 1022 64 10000 1.34 185 20:18 08.03.2022
4895 Clear 0 1025 59 10000 0.89 157 18:55 08.03.2022
4896 Clear 1 1021 57 10000 1.79 240 17:58 08.03.2022
4897 Clear 5 1020 45 10000 1.44 6 16:37 08.03.2022
4898 Clear 4 1019 51 10000 1.17 11 14:36 08.03.2022
4899 Clouds 3 1019 58 10000 1.44 360 13:23 08.03.2022
4900 Clouds 2 1019 63 10000 1.39 4 12:20 08.03.2022
4901 Clouds 1 1023 31 10000 1.39 4 11:41 08.03.2022
4902 Clouds -1 1024 47 10000 0.45 21 10:27 08.03.2022
4903 Clouds -4 1021 50 10000 0.82 115 08:54 08.03.2022
4904 Clear -7 1024 86 10000 2.29 158 05:49 08.03.2022
4905 Clear -5 1024 80 10000 2.52 154 01:49 08.03.2022
4906 Clear -3 1026 71 10000 2.29 142 22:41 07.03.2022
4907 Clear -3 1026 70 10000 2.22 141 21:36 07.03.2022
4908 Clear -3 1026 67 10000 2.17 138 20:55 07.03.2022
4909 Clear -2 1025 67 10000 1.96 126 20:26 07.03.2022
4910 Clear -2 1025 67 10000 1.96 126 19:48 07.03.2022
4911 Clouds -2 1024 85 10000 1.81 128 18:48 07.03.2022
4912 Clear 0 1022 61 10000 1.63 76 18:25 07.03.2022
4913 Clear 2 1017 55 10000 2.24 311 16:56 07.03.2022
4914 Clear 3 1017 54 10000 1.79 324 16:34 07.03.2022
4915 Clear 2 1017 55 10000 2.24 319 14:40 07.03.2022
4916 Clear 1 1018 61 10000 2.24 314 12:33 07.03.2022
4917 Clear -1 1018 69 10000 0.45 62 10:45 07.03.2022
4918 Clear -2 1018 71 10000 0.45 62 10:24 07.03.2022
4919 Clouds -7 1027 86 10000 0.45 170 07:24 07.03.2022
4920 Clouds -4 1026 82 10000 0.45 22 00:24 07.03.2022
4921 Clouds -4 1026 82 10000 0.89 95 23:58 06.03.2022
4922 Clouds -4 1026 78 10000 0.45 95 22:58 06.03.2022
4923 Clouds -4 1026 78 10000 0.45 95 22:24 06.03.2022
4924 Clouds -3 1025 76 10000 1.61 142 20:56 06.03.2022
4925 Clouds -3 1025 76 10000 1.38 138 20:28 06.03.2022
4926 Clouds -3 1024 77 10000 0.89 20 19:29 06.03.2022
4927 Clouds -1 1024 70 10000 0.93 47 18:25 06.03.2022
4928 Clouds 2 1016 60 10000 0.89 334 17:22 06.03.2022
4929 Clouds 2 1016 60 10000 2.68 308 16:44 06.03.2022
4930 Clouds 2 1016 60 10000 2.68 308 16:44 06.03.2022
4931 Clouds 2 1016 61 10000 2.68 308 16:20 06.03.2022
4932 Clouds 2 1016 65 10000 0.89 301 14:57 06.03.2022
4933 Clouds 2 1016 65 10000 2.41 14 14:38 06.03.2022
4934 Clouds 1 1016 65 10000 1.34 295 13:36 06.03.2022
4935 Clouds 0 1016 68 10000 0.89 302 12:35 06.03.2022
4936 Clouds -1 1016 71 10000 2.68 345 11:27 06.03.2022
4937 Clouds -2 1019 67 10000 0.45 77 10:29 06.03.2022
4938 Clouds -5 1020 72 10000 0.88 121 08:40 06.03.2022
4939 Clouds -5 1020 76 10000 1.92 156 08:20 06.03.2022
4940 Clear -6 1020 80 10000 0.89 209 06:22 06.03.2022
4941 Clouds -4 1019 75 10000 0.89 168 00:55 06.03.2022
4942 Clouds -4 1020 75 10000 0.89 168 00:33 06.03.2022
4943 Clouds -4 1020 75 10000 0.89 168 00:33 06.03.2022
4944 Clouds -4 1020 72 10000 0.45 230 23:26 05.03.2022
4945 Clouds -3 1020 73 10000 0.45 230 22:57 05.03.2022
4946 Clouds -3 1024 73 10000 2.13 159 22:23 05.03.2022
4947 Clouds -3 1024 70 10000 1.99 155 21:23 05.03.2022
4948 Clouds -2 1023 66 10000 1.84 155 19:49 05.03.2022
4949 Clouds -1 1022 60 10000 1.39 148 18:56 05.03.2022
4950 Clouds 0 1022 60 10000 0.69 72 18:27 05.03.2022
4951 Clouds 3 1017 49 10000 0.89 305 16:49 05.03.2022
4952 Clouds 5 1014 45 10000 1.34 327 15:31 05.03.2022
4953 Clouds 4 1014 46 10000 3.13 304 14:47 05.03.2022
4954 Clear 4 1014 46 10000 3.13 304 14:29 05.03.2022
4955 Clear 4 1015 48 10000 1.79 11 13:22 05.03.2022
4956 Clear 1 1019 55 10000 0.45 85 11:48 05.03.2022
4957 Clear 0 1019 57 10000 0.45 85 11:19 05.03.2022
4958 Clear -1 1016 63 10000 1.06 35 10:18 05.03.2022
4959 Clear -3 1023 65 10000 0.89 175 08:59 05.03.2022
4960 Clear -6 1015 80 10000 1.83 161 07:38 05.03.2022
4961 Clear -6 1019 76 10000 2.25 164 05:43 05.03.2022
4962 Clear -5 1019 74 10000 0.45 152 03:18 05.03.2022
4963 Clear -3 1020 67 10000 0.45 244 23:37 04.03.2022
4964 Clear -2 1024 64 10000 0.45 146 22:42 04.03.2022
4965 Clear -2 1024 62 10000 0.45 148 21:49 04.03.2022
4966 Clear -2 1024 57 10000 2.14 152 20:54 04.03.2022
4967 Clear -2 1024 57 10000 1.91 154 20:24 04.03.2022
4968 Clear -1 1022 84 10000 1.89 154 19:36 04.03.2022
4969 Clouds -1 1022 51 10000 0.45 354 18:44 04.03.2022
4970 Clouds 4 1014 39 10000 2.68 319 17:32 04.03.2022
4971 Clouds 5 1014 36 10000 0.89 317 16:46 04.03.2022
4972 Clouds 6 1014 38 10000 2.24 306 15:29 04.03.2022
4973 Clouds 5 1014 41 10000 1.34 304 14:19 04.03.2022
4974 Clouds 5 1015 44 10000 2.24 324 13:26 04.03.2022
4975 Clouds 3 1018 62 10000 0.89 83 11:41 04.03.2022
4976 Clouds 1 1015 69 10000 0.45 76 10:42 04.03.2022
4977 Clouds 0 1018 82 10000 1.47 11 09:42 04.03.2022
4978 Clouds -3 1018 81 10000 0.58 65 08:36 04.03.2022
4979 Clouds -4 1018 82 10000 0.89 175 07:23 04.03.2022
4980 Clouds -3 1017 82 10000 0.45 151 03:50 04.03.2022
4981 Clouds -1 1017 74 10000 0.45 119 00:24 04.03.2022
4982 Clouds 1 1017 69 10000 0.89 341 22:21 03.03.2022
4983 Clouds 1 1020 63 10000 1.43 177 21:40 03.03.2022
4984 Clouds 1 1020 63 10000 1.15 180 21:21 03.03.2022
4985 Clouds 1 1019 97 10000 1.17 175 19:50 03.03.2022
4986 Clouds 2 1018 96 10000 1.09 182 18:53 03.03.2022
4987 Clouds 4 1017 94 10000 0.12 215 18:22 03.03.2022
4988 Clouds 6 1017 48 10000 0.45 343 17:28 03.03.2022
4989 Clouds 7 1017 50 5368 0.45 329 16:22 03.03.2022
4990 Clouds 8 1017 43 3468 0.71 320 15:20 03.03.2022
4991 Clouds 9 1017 40 3468 0.45 104 14:42 03.03.2022
4992 Clouds 9 1016 34 3099 1.79 305 13:19 03.03.2022
4993 Clouds 7 1016 33 3869 2.68 354 11:51 03.03.2022
4994 Clouds 5 1017 40 6963 0.45 188 10:41 03.03.2022
4995 Clouds 1 1022 31 10000 0.89 161 08:52 03.03.2022
4996 Clouds -3 1016 74 10000 0.45 260 07:25 03.03.2022
4997 Clouds -3 1017 76 10000 0.45 217 06:34 03.03.2022
4998 Clouds 0 1021 62 10000 0.89 214 01:52 03.03.2022
4999 Clouds 1 1023 65 10000 2.49 171 23:29 02.03.2022
5000 Clouds 2 1024 49 10000 1.34 157 22:52 02.03.2022
5001 Clouds 2 1021 53 10000 1.34 184 21:30 02.03.2022
5002 Clouds 2 1021 54 10000 0.89 213 20:45 02.03.2022
5003 Clouds 2 1021 53 10000 0.89 213 20:24 02.03.2022
5004 Clouds 3 1024 50 10000 0.89 93 19:35 02.03.2022
5005 Clouds 3 1024 38 7209 1.28 190 18:44 02.03.2022
5006 Clouds 4 1023 36 10000 0.45 109 17:59 02.03.2022
5007 Clouds 5 1023 39 7346 0.45 109 17:28 02.03.2022
5008 Clouds 6 1020 32 7346 3.13 357 16:45 02.03.2022
5009 Clouds 7 1020 27 7646 1.34 314 14:45 02.03.2022
5010 Clouds 7 1021 26 6992 0.89 321 13:24 02.03.2022
5011 Clouds 7 1021 23 6965 0.45 67 12:43 02.03.2022
5012 Clouds 5 1022 30 3919 0.45 205 11:47 02.03.2022
5013 Clouds 5 1022 30 10000 0.45 205 11:24 02.03.2022
5014 Clouds 2 1026 12 10000 0.89 158 09:42 02.03.2022
5015 Clouds -1 1023 53 10000 1.57 174 08:55 02.03.2022
5016 Clouds -4 1026 51 10000 2.56 167 07:38 02.03.2022
5017 Clouds -5 1028 72 10000 2.79 171 06:51 02.03.2022
5018 Clouds -5 1023 72 10000 0.89 226 02:35 02.03.2022
5019 Clouds -4 1024 78 10000 0.45 228 23:55 01.03.2022
5020 Clouds -3 1024 72 10000 1.34 132 22:46 01.03.2022
5021 Clouds -2 1024 72 10000 1.34 132 22:19 01.03.2022
5022 Clouds -2 1024 67 10000 0.45 234 21:25 01.03.2022
5023 Clouds -1 1031 65 10000 3.18 167 20:30 01.03.2022
5024 Clouds -1 1031 65 10000 3 168 20:30 01.03.2022
5025 Clouds 0 1031 88 10000 2.64 170 19:28 01.03.2022
5026 Clouds 0 1031 52 10000 1.34 163 18:49 01.03.2022
5027 Clouds 1 1031 52 10000 1.34 163 18:19 01.03.2022
5028 Clear 3 1030 42 10000 0.89 94 17:19 01.03.2022
5029 Clear 5 1030 34 10000 0.45 337 16:31 01.03.2022
5030 Clear 6 1026 30 10000 0.89 322 15:38 01.03.2022
5031 Clear 6 1026 29 10000 0.89 103 14:34 01.03.2022
5032 Clear 5 1026 33 10000 0.45 291 13:52 01.03.2022
5033 Clear 5 1026 33 10000 0.45 17 13:24 01.03.2022
5034 Clear 4 1027 37 10000 0.89 172 12:30 01.03.2022
5035 Clear 1 1032 38 10000 0.89 172 10:34 01.03.2022
5036 Clear -3 1030 57 10000 1.86 168 08:41 01.03.2022
5037 Clear -7 1025 82 10000 2.93 168 07:44 01.03.2022
5038 Clear -6 1025 84 10000 0.89 182 05:49 01.03.2022
5039 Clear -4 1026 82 10000 0.89 156 01:48 01.03.2022
5040 Clear -3 1030 76 10000 0.45 171 00:25 01.03.2022
5041 Clear -3 1030 75 10000 0.89 146 23:19 28.02.2022
5042 Clear -2 1026 74 10000 0.45 190 21:59 28.02.2022
5043 Clear -2 1034 73 10000 2.42 163 21:24 28.02.2022
5044 Clear -1 1034 88 10000 2.29 159 19:53 28.02.2022
5045 Clear 0 1033 89 10000 2.02 155 19:27 28.02.2022
5046 Clear 0 1034 61 10000 0.45 241 18:38 28.02.2022
5047 Clear 4 1033 50 10000 0.45 80 17:24 28.02.2022
5048 Clear 4 1029 43 10000 1.34 354 16:33 28.02.2022
5049 Clear 5 1029 43 10000 0.89 352 15:23 28.02.2022
5050 Clear 5 1029 42 10000 0.89 100 14:31 28.02.2022
5051 Clear 5 1029 40 10000 1.34 328 13:47 28.02.2022
5052 Clear 4 1030 44 10000 0.89 7 12:41 28.02.2022
5053 Clear 3 1030 45 10000 0.89 7 11:55 28.02.2022
5054 Clear 1 1030 53 10000 0.45 161 10:48 28.02.2022
5055 Clear 0 1030 53 10000 0.45 161 10:20 28.02.2022
5056 Clear -2 1030 73 10000 0.76 36 09:32 28.02.2022
5057 Clear -6 1027 84 10000 2.37 166 08:29 28.02.2022
5058 Clear -7 1027 84 10000 2.6 167 07:28 28.02.2022
5059 Clear -6 1026 82 10000 2.6 170 04:44 28.02.2022
5060 Clear -6 1026 82 10000 2.85 169 04:23 28.02.2022
5061 Clear -4 1026 81 10000 0.45 229 23:42 27.02.2022
5062 Clear -2 1035 77 10000 3.16 157 22:34 27.02.2022
5063 Clear -3 1035 80 10000 3.07 154 21:51 27.02.2022
5064 Clear -2 1034 82 10000 2.97 152 20:59 27.02.2022
5065 Clear -1 1034 84 10000 2.79 150 20:27 27.02.2022
5066 Clear -1 1034 84 10000 2.79 150 19:57 27.02.2022
5067 Clear 0 1033 84 10000 2.63 145 19:26 27.02.2022
5068 Clear 0 1033 84 10000 2.63 145 18:47 27.02.2022
5069 Clear 1 1031 84 10000 2.07 135 17:56 27.02.2022
5070 Clear 4 1024 56 10000 0.45 183 16:54 27.02.2022
5071 Clear 4 1024 51 10000 0.89 333 16:21 27.02.2022
5072 Clear 4 1025 52 10000 0.89 272 13:25 27.02.2022
5073 Clear 2 1025 53 10000 0.89 126 12:32 27.02.2022
5074 Clear 0 1026 64 10000 1.34 2 10:56 27.02.2022
5075 Clear -2 1026 69 10000 2.07 109 10:19 27.02.2022
5076 Clear -3 1031 75 10000 0.45 163 09:49 27.02.2022
5077 Clear -5 1036 79 10000 0.45 163 09:20 27.02.2022
5078 Clear -7 1026 86 10000 0.89 155 07:54 27.02.2022
5079 Clear -5 1035 78 10000 3.29 146 05:38 27.02.2022
5080 Clear -3 1036 92 10000 3.24 147 02:21 27.02.2022
5081 Clouds -3 1036 94 10000 3.06 144 23:23 26.02.2022
5082 Clouds -2 1036 95 10000 2.89 143 21:58 26.02.2022
5083 Clouds -2 1037 96 10000 2.67 139 21:18 26.02.2022
5084 Clouds -4 1038 87 10000 0.89 162 20:20 26.02.2022
5085 Clouds -1 1036 97 10000 2.48 140 19:50 26.02.2022
5086 Clouds -2 1036 97 10000 2.22 132 19:29 26.02.2022
5087 Clouds -1 1036 69 10000 1.34 350 17:52 26.02.2022
5088 Clouds 1 1036 68 10000 1.34 350 17:28 26.02.2022
5089 Clouds 2 1031 62 10000 1.34 5 15:57 26.02.2022
5090 Clouds 2 1031 64 10000 1.79 311 15:25 26.02.2022
5091 Clouds 3 1027 58 10000 1.79 311 14:56 26.02.2022
5092 Clouds 3 1028 60 10000 2.34 31 14:38 26.02.2022
5093 Clouds 2 1029 65 10000 1.34 97 13:27 26.02.2022
5094 Clouds 2 1029 65 10000 1.34 97 12:51 26.02.2022
5095 Clouds 1 1029 79 10000 2.24 335 11:29 26.02.2022
5096 Clouds 1 1029 81 10000 2.24 335 10:55 26.02.2022
5097 Clouds -1 1033 91 10000 0.45 20 09:18 26.02.2022
5098 Snow -2 1033 91 1771 0.89 291 07:57 26.02.2022
5099 Snow -1 1031 90 152 0.98 283 02:53 26.02.2022
5100 Clouds -1 1030 88 1020 1 282 23:31 25.02.2022
5101 Clouds -1 1029 77 97 0.45 249 21:48 25.02.2022
5102 Clouds -1 1029 76 99 0.45 249 21:29 25.02.2022
5103 Clouds 0 1029 76 99 0.89 292 20:33 25.02.2022
5104 Clouds 0 1029 74 112 0.45 239 19:41 25.02.2022
5105 Clouds 1 1024 78 9408 2.24 126 17:35 25.02.2022
5106 Clouds 1 1028 73 10000 0.89 55 16:45 25.02.2022
5107 Clouds 3 1023 55 4736 4.02 313 15:48 25.02.2022
5108 Clouds 2 1027 60 5710 4.02 313 15:23 25.02.2022
5109 Clouds 2 1031 58 5710 2.24 183 14:45 25.02.2022
5110 Clouds 2 1031 57 8290 2.24 183 14:18 25.02.2022
5111 Clouds 2 1027 56 10000 4.02 157 13:20 25.02.2022
5112 Clouds 1 1028 67 10000 1.79 229 11:30 25.02.2022
5113 Clouds 1 1027 68 10000 1.79 229 10:54 25.02.2022
5114 Clouds 0 1027 73 10000 0.89 285 10:23 25.02.2022
5115 Clouds 0 1023 92 10000 0.45 160 09:35 25.02.2022
5116 Clouds -1 1022 93 10000 0.89 337 07:44 25.02.2022
5117 Clouds -1 1021 90 273 0.45 320 06:19 25.02.2022
5118 Clouds 0 1021 87 273 1.79 81 05:36 25.02.2022
5119 Clouds 3 1021 96 2197 1.76 218 00:30 25.02.2022
5120 Clouds 7 1022 93 10000 2.85 194 22:20 24.02.2022
5121 Clouds 7 1022 93 10000 2.85 194 21:42 24.02.2022
5122 Clouds 6 1022 93 10000 2.67 197 21:20 24.02.2022
5123 Clouds 5 1017 73 10000 1.34 211 20:30 24.02.2022
5124 Clouds 5 1018 74 10000 2.24 140 18:52 24.02.2022
5125 Clouds 6 1021 75 10000 0.89 200 18:19 24.02.2022
5126 Clouds 6 1020 76 10000 0.45 188 17:42 24.02.2022
5127 Clouds 6 1020 72 10000 0.45 28 16:56 24.02.2022
5128 Clouds 8 1018 59 2705 1.84 216 16:25 24.02.2022
5129 Clouds 8 1018 59 2705 1.84 216 16:25 24.02.2022
5130 Clouds 8 1019 60 2705 1.84 216 15:30 24.02.2022
5131 Clouds 9 1018 49 2400 0.89 9 14:37 24.02.2022
5132 Clouds 9 1016 41 2407 0.89 19 13:42 24.02.2022
5133 Clouds 10 1016 44 3092 0.89 19 13:24 24.02.2022
5134 Clouds 5 1022 45 7676 0.45 126 10:43 24.02.2022
5135 Clouds 5 1021 32 10000 2.12 167 09:40 24.02.2022
5136 Clouds 2 1021 78 10000 2.73 165 08:42 24.02.2022
5137 Clouds -2 1019 93 10000 0.89 222 06:25 24.02.2022
5138 Clouds -1 1019 92 10000 0.45 205 05:36 24.02.2022
5139 Clouds 0 1022 93 10000 0.89 228 23:45 23.02.2022
5140 Clouds 1 1021 95 10000 0.89 210 21:55 23.02.2022
5141 Clouds 3 1028 80 10000 3.42 169 20:32 23.02.2022
5142 Clouds 3 1029 95 10000 0.45 163 19:55 23.02.2022
5143 Clouds 4 1029 94 10000 0.45 149 18:57 23.02.2022
5144 Clouds 5 1026 85 10000 1.34 282 17:46 23.02.2022
5145 Clouds 9 1024 66 3874 0.89 290 15:28 23.02.2022
5146 Clouds 7 1028 81 3463 0.45 359 13:34 23.02.2022
5147 Clouds 6 1029 84 7798 0.89 360 12:26 23.02.2022
5148 Clouds 4 1030 94 5890 0.45 115 10:45 23.02.2022
5149 Clouds 3 1027 95 288 0.89 318 09:24 23.02.2022
5150 Clouds 2 1026 94 72 0.45 179 08:27 23.02.2022
5151 Clouds 2 1026 94 67 1.34 145 07:18 23.02.2022
5152 Clouds 3 1026 89 10000 1.34 236 01:21 23.02.2022
5153 Clouds 2 1027 89 10000 2.24 154 23:39 22.02.2022
5154 Clouds 3 1027 86 246 2.24 154 22:59 22.02.2022
5155 Clouds 3 1026 79 827 1.79 159 21:56 22.02.2022
5156 Clouds 3 1026 81 827 0.45 282 21:37 22.02.2022
5157 Clouds 3 1026 82 1477 0.45 282 21:18 22.02.2022
5158 Clouds 3 1022 88 1477 1.34 235 20:31 22.02.2022
5159 Clouds 3 1025 77 10000 2.24 169 19:51 22.02.2022
5160 Clouds 3 1028 65 10000 2.24 169 19:31 22.02.2022
5161 Clouds 3 1029 80 10000 0.45 203 18:23 22.02.2022
5162 Clouds 4 1025 76 10000 0.89 139 17:26 22.02.2022
5163 Clouds 5 1026 74 10000 2.17 214 16:41 22.02.2022
5164 Clouds 5 1026 74 10000 2.09 261 15:59 22.02.2022
5165 Clouds 4 1022 78 10000 2.68 173 14:48 22.02.2022
5166 Clouds 4 1024 81 756 1.34 108 12:48 22.02.2022
5167 Clouds 1 1026 92 673 1.34 98 10:53 22.02.2022
5168 Snow 1 1024 81 611 0.45 294 08:53 22.02.2022
5169 Snow 1 1022 87 113 1.79 245 07:27 22.02.2022
5170 Clouds 1 1021 86 148 2.24 25 06:30 22.02.2022
5171 Clouds 1 1019 83 89 0.89 275 02:45 22.02.2022
5172 Rain 2 1017 87 574 1.34 128 22:53 21.02.2022
5173 Rain 1 1015 90 57 2.24 92 21:46 21.02.2022
5174 Rain 1 1014 86 103 3.09 253 20:37 21.02.2022
5175 Rain 2 1013 80 159 4.47 172 18:47 21.02.2022
5176 Snow 1 1013 82 317 3.58 120 17:39 21.02.2022
5177 Clouds 3 1013 72 3524 1.79 57 15:25 21.02.2022
5178 Clouds 3 1012 71 10000 2.24 196 14:22 21.02.2022
5179 Clouds 3 1013 80 10000 1.34 194 13:30 21.02.2022
5180 Clouds 2 1014 81 8467 4.02 77 12:24 21.02.2022
5181 Clouds 1 1015 87 7425 0.89 46 11:20 21.02.2022
5182 Snow 1 1012 97 3273 4.47 81 09:54 21.02.2022
5183 Clouds 5 1008 74 10000 1.79 173 05:35 21.02.2022
5184 Clouds 5 1017 82 10000 3.01 211 00:18 21.02.2022
5185 Clouds 4 1014 86 10000 0.45 235 22:27 20.02.2022
5186 Clouds 4 1014 83 10000 0.45 219 21:42 20.02.2022
5187 Clouds 5 1014 83 10000 0.45 219 20:59 20.02.2022
5188 Clouds 6 1018 84 10000 3.28 195 20:41 20.02.2022
5189 Clouds 6 1019 87 10000 3.41 194 19:36 20.02.2022
5190 Clouds 6 1020 89 10000 3.11 199 18:51 20.02.2022
5191 Clouds 5 1020 89 10000 3.15 197 18:32 20.02.2022
5192 Clouds 6 1016 65 10000 0.45 48 17:49 20.02.2022
5193 Clouds 8 1019 54 8761 2.32 240 15:41 20.02.2022
5194 Clouds 8 1019 90 7042 2.73 233 14:48 20.02.2022
5195 Clouds 7 1019 62 6845 0.89 174 13:23 20.02.2022
5196 Clouds 6 1020 70 10000 0.89 202 12:28 20.02.2022
5197 Clouds 4 1021 79 10000 0.89 205 10:47 20.02.2022
5198 Clouds 3 1021 78 10000 0.89 205 10:19 20.02.2022
5199 Clouds 2 1023 85 5199 1.34 138 08:50 20.02.2022
5200 Clouds 0 1018 88 10000 2.24 214 00:54 20.02.2022
5201 Clouds 0 1018 88 10000 2.24 214 00:54 20.02.2022
5202 Clouds 0 1019 89 10000 1.34 203 00:30 20.02.2022
5203 Clouds 0 1026 90 10000 2.79 199 22:47 19.02.2022
5204 Clouds 0 1026 90 10000 2.79 192 22:22 19.02.2022
5205 Clouds 0 1026 85 10000 0.45 175 20:51 19.02.2022
5206 Clouds 1 1025 87 10000 0.89 189 19:53 19.02.2022
5207 Clouds 1 1025 87 10000 0.89 189 19:28 19.02.2022
5208 Clouds 1 1024 83 10000 0.45 158 18:33 19.02.2022
5209 Clouds 3 1021 77 10000 1.34 143 17:35 19.02.2022
5210 Clouds 4 1019 69 10000 0.45 209 16:22 19.02.2022
5211 Clouds 4 1019 70 5484 0.45 286 14:56 19.02.2022
5212 Clouds 4 1019 70 5484 1.34 211 14:37 19.02.2022
5213 Clouds 3 1019 80 1568 1.34 130 12:50 19.02.2022
5214 Clouds 3 1020 86 1929 0.45 192 11:36 19.02.2022
5215 Rain 1 1022 93 1009 2.12 275 09:45 19.02.2022
5216 Rain 1 1020 88 332 0.89 161 06:54 19.02.2022
5217 Clouds 2 1018 84 162 1.34 144 02:52 19.02.2022
5218 Clouds 5 1013 87 1104 3.13 152 23:28 18.02.2022
5219 Clouds 8 1012 93 6031 3.48 256 21:49 18.02.2022
5220 Clouds 9 1009 59 10000 0.45 267 20:39 18.02.2022
5221 Clouds 9 1009 57 10000 0.89 27 19:52 18.02.2022
5222 Clouds 8 1009 55 10000 1.34 178 18:50 18.02.2022
5223 Clouds 9 1008 54 10000 1.34 178 18:20 18.02.2022
5224 Clouds 11 1009 93 3287 2.78 195 17:25 18.02.2022
5225 Clouds 11 1008 53 1619 0.45 254 14:48 18.02.2022
5226 Clouds 11 1010 53 1819 4.47 192 13:54 18.02.2022
5227 Clouds 10 1009 60 1828 0.45 107 12:53 18.02.2022
5228 Clouds 9 1011 60 10000 2.24 192 11:58 18.02.2022
5229 Clouds 9 1011 60 10000 2.24 192 11:58 18.02.2022
5230 Clouds 8 1011 64 10000 2.24 192 11:21 18.02.2022
5231 Clouds 5 1014 82 10000 0.89 167 09:33 18.02.2022
5232 Clouds 4 1015 88 10000 1.79 167 06:52 18.02.2022
5233 Clouds 4 1018 81 10000 1.34 171 05:38 18.02.2022
5234 Clouds 6 1019 74 10000 0.89 346 22:47 17.02.2022
5235 Clouds 6 1019 81 10000 2.68 169 21:44 17.02.2022
5236 Clouds 6 1019 83 3346 0.89 139 20:59 17.02.2022
5237 Clouds 6 1018 83 3346 0.89 165 20:34 17.02.2022
5238 Clouds 6 1017 80 462 1.34 344 19:48 17.02.2022
5239 Clouds 7 1017 78 1016 0.89 168 18:38 17.02.2022
5240 Clouds 7 1017 82 142 0.45 191 17:48 17.02.2022
5241 Clouds 8 1015 79 10000 0.45 184 16:20 17.02.2022
5242 Clouds 9 1013 78 10000 2.24 59 15:26 17.02.2022
5243 Clouds 8 1014 86 7732 0.89 313 14:20 17.02.2022
5244 Clouds 8 1014 79 802 0.45 127 12:24 17.02.2022
5245 Clouds 9 1013 77 864 2.24 112 11:21 17.02.2022
5246 Clouds 9 1010 82 1578 0.89 192 08:38 17.02.2022
5247 Clouds 6 1011 91 1247 3.13 193 00:29 17.02.2022
5248 Clouds 6 1012 88 2648 3.58 184 22:41 16.02.2022
5249 Clouds 6 1013 90 8809 4.02 197 20:46 16.02.2022
5250 Clouds 5 1013 93 2264 1.34 190 19:43 16.02.2022
5251 Clouds 5 1012 92 10000 3.13 190 18:36 16.02.2022
5252 -273 0 0 0 0 0 17:36 16.02.2022
5253 Clouds 5 1012 92 10000 1.79 190 17:35 16.02.2022
5254 Clouds 4 1013 91 7482 0.89 190 15:26 16.02.2022
5255 Clouds 4 1013 90 7482 2.24 156 14:57 16.02.2022
5256 Clouds 4 1013 79 3559 1.79 162 12:34 16.02.2022
5257 Clouds 4 1013 72 1958 1.34 125 11:52 16.02.2022
5258 Clouds 4 1013 73 10000 0.45 53 10:52 16.02.2022
5259 Clouds 3 1013 77 10000 0.45 223 10:29 16.02.2022
5260 Clouds -1 1013 89 10000 0.45 207 06:56 16.02.2022
5261 Clouds -1 1021 91 10000 3.58 172 03:46 16.02.2022
5262 Clouds 0 1023 94 10000 3.12 181 22:35 15.02.2022
5263 Clouds 1 1024 78 10000 2.81 194 21:59 15.02.2022
5264 Clouds 1 1024 78 10000 2.81 194 21:59 15.02.2022
5265 Clouds 1 1020 87 10000 1.34 252 21:39 15.02.2022
5266 Clouds 1 1020 88 10000 1.34 252 21:21 15.02.2022
5267 Clouds 1 1020 88 10000 0.45 119 20:48 15.02.2022
5268 Clouds 1 1020 89 2627 0.45 134 19:48 15.02.2022
5269 Clouds 2 1019 89 1842 0.89 3 18:41 15.02.2022
5270 Clouds 2 1019 90 149 0.89 3 18:18 15.02.2022
5271 Clouds 2 1019 92 149 0.89 153 17:46 15.02.2022
5272 Clouds 2 1018 91 292 0.89 176 16:20 15.02.2022
5273 Clouds 2 1018 89 187 1.34 282 14:39 15.02.2022
5274 Clouds 2 1018 92 94 0.45 96 13:26 15.02.2022
5275 Clouds 2 1017 95 70 0.45 141 11:52 15.02.2022
5276 Rain 1 1016 95 68 0.89 54 10:39 15.02.2022
5277 Clouds 1 1013 95 68 0.45 235 09:23 15.02.2022
5278 Rain 1 1014 94 133 0.74 211 06:47 15.02.2022
5279 Clouds 1 1013 81 6812 0.45 205 00:26 15.02.2022
5280 Clouds 3 1015 75 3703 0.89 181 21:59 14.02.2022
5281 Clouds 3 1015 74 10000 0.89 181 21:19 14.02.2022
5282 Clouds 3 1014 72 10000 0.45 190 20:19 14.02.2022
5283 Clouds 3 1014 66 10000 2.68 188 19:30 14.02.2022
5284 Clear 3 1012 88 10000 2.58 173 18:27 14.02.2022
5285 Clear 4 1011 50 10000 2.58 173 17:43 14.02.2022
5286 Clear 5 1011 50 10000 1.91 170 17:23 14.02.2022
5287 Clear 7 1010 40 9361 0.45 91 15:58 14.02.2022
5288 Clear 9 1009 38 10000 0.45 179 13:37 14.02.2022
5289 Clear 9 1009 39 10000 0.45 179 13:18 14.02.2022
5290 Clear 8 1008 41 10000 1.68 181 12:32 14.02.2022
5291 Clear 6 1009 49 10000 0.45 172 11:43 14.02.2022
5292 Clear 3 1013 55 10000 3.31 165 10:22 14.02.2022
5293 Clear -2 1010 69 10000 0.45 178 08:32 14.02.2022
5294 Clear -5 1010 71 10000 4.29 158 07:26 14.02.2022
5295 Clear -3 1014 80 10000 0.45 204 23:19 13.02.2022
5296 Clear -3 1014 77 10000 0.89 218 22:41 13.02.2022
5297 Clear -3 1014 78 10000 0.89 218 22:22 13.02.2022
5298 Clear -2 1014 77 10000 3.65 164 21:24 13.02.2022
5299 Clear -1 1014 77 10000 0.45 226 20:30 13.02.2022
5300 Clear 0 1015 71 10000 0.45 147 19:23 13.02.2022
5301 Clear 1 1021 72 10000 3.36 165 18:42 13.02.2022
5302 Clear 2 1020 49 10000 0.45 348 17:52 13.02.2022
5303 Clear 6 1021 45 10000 0.45 276 15:53 13.02.2022
5304 Clear 7 1019 41 10000 1.79 349 14:52 13.02.2022
5305 Clear 7 1020 42 7025 0.45 104 13:42 13.02.2022
5306 Clouds 6 1021 40 7238 0.89 178 12:49 13.02.2022
5307 Clouds 3 1023 52 10000 0.89 157 10:50 13.02.2022
5308 Clouds 1 1024 62 10000 0.89 157 10:27 13.02.2022
5309 Clouds -1 1026 58 10000 2.77 158 08:59 13.02.2022
5310 Clouds -4 1022 81 10000 0.45 149 05:27 13.02.2022
5311 Clouds -4 1023 81 10000 0.89 234 00:34 13.02.2022
5312 Clouds -4 1024 82 10000 0.45 185 22:58 12.02.2022
5313 Clouds -4 1024 84 10000 0.45 289 22:33 12.02.2022
5314 Clouds -3 1024 84 10000 0.45 162 21:18 12.02.2022
5315 Clouds -3 1024 83 10000 0.45 229 20:25 12.02.2022
5316 Clouds -2 1024 80 10000 0.45 179 18:54 12.02.2022
5317 Clouds -1 1024 75 10000 0.89 223 18:36 12.02.2022
5318 Clouds 0 1027 63 10000 0.89 223 17:55 12.02.2022
5319 Clear 1 1024 62 10000 1.34 185 16:54 12.02.2022
5320 Clear 2 1024 55 10000 0.45 17 16:18 12.02.2022
5321 Clear 2 1027 55 10000 2.24 332 15:23 12.02.2022
5322 Clear 2 1027 52 10000 0.89 52 14:30 12.02.2022
5323 Clear 1 1031 33 10000 0.45 159 12:26 12.02.2022
5324 Clear -2 1034 43 10000 0.45 191 10:34 12.02.2022
5325 Clear -3 1035 46 10000 0.45 201 09:38 12.02.2022
5326 Clear -7 1026 89 10000 0.45 128 08:48 12.02.2022
5327 Clear -7 1026 90 10000 0.45 128 07:50 12.02.2022
5328 Clear -7 1028 90 10000 0.45 145 05:31 12.02.2022
5329 Clouds -5 1040 92 10000 3.14 151 02:20 12.02.2022
5330 Clouds -4 1040 92 10000 2.99 150 00:31 12.02.2022
5331 Clouds -2 1040 91 10000 2.49 153 22:24 11.02.2022
5332 Clouds -2 1040 91 10000 2.49 153 21:43 11.02.2022
5333 Clouds -1 1040 93 10000 2.33 159 20:37 11.02.2022
5334 Clouds -1 1040 95 10000 2.17 166 19:31 11.02.2022
5335 Clouds 0 1039 95 10000 1.95 174 18:58 11.02.2022
5336 Clouds 0 1037 83 10000 0.94 274 17:28 11.02.2022
5337 Clouds 0 1037 88 10000 0.94 274 16:58 11.02.2022
5338 Clouds 2 1031 77 10000 1.32 298 15:33 11.02.2022
5339 Clouds 3 1027 83 10000 1.34 105 14:38 11.02.2022
5340 Clouds 3 1027 85 10000 1.34 105 14:20 11.02.2022
5341 Clouds 1 1031 94 10000 1.34 313 13:47 11.02.2022
5342 Clouds 1 1031 94 6151 1.34 313 13:28 11.02.2022
5343 Snow 0 1031 95 134 1.79 328 11:26 11.02.2022
5344 Snow 0 1028 94 91 0.45 302 09:39 11.02.2022
5345 Snow 1 1025 94 69 0.89 161 08:39 11.02.2022
5346 Snow 1 1025 94 63 0.89 161 08:21 11.02.2022
5347 Rain 2 1022 91 373 0.45 192 06:31 11.02.2022
5348 Clouds 3 1020 81 10000 0.89 143 02:24 11.02.2022
5349 Clouds 4 1021 72 10000 0.89 200 00:44 11.02.2022
5350 Clouds 3 1023 73 10000 0.89 164 22:45 10.02.2022
5351 Clouds 3 1023 75 10000 0.89 214 21:44 10.02.2022
5352 Clouds 4 1028 81 10000 2.79 189 20:52 10.02.2022
5353 Clear 4 1028 81 10000 2.89 188 20:24 10.02.2022
5354 Clouds 4 1021 68 10000 0.89 221 19:24 10.02.2022
5355 Clouds 5 1027 78 10000 2.95 187 18:33 10.02.2022
5356 Clouds 6 1026 86 10000 2.27 199 17:25 10.02.2022
5357 Clouds 7 1026 50 10000 0.45 188 16:47 10.02.2022
5358 Clouds 8 1026 46 9655 1.83 214 15:42 10.02.2022
5359 Clouds 9 1026 46 5413 1.86 230 15:24 10.02.2022
5360 Clouds 9 1026 42 5413 1.34 197 14:35 10.02.2022
5361 Clouds 9 1025 36 4948 0.45 203 13:59 10.02.2022
5362 Clouds 10 1025 40 1668 0.45 203 13:19 10.02.2022
5363 Clouds 9 1025 39 4919 0.45 272 11:57 10.02.2022
5364 Clouds 8 1025 43 4919 0.45 195 11:32 10.02.2022
5365 Clouds 5 1029 50 10000 0.89 145 10:25 10.02.2022
5366 Clouds 4 1026 62 10000 1.71 204 09:46 10.02.2022
5367 Clouds 4 1026 62 10000 1.71 204 09:46 10.02.2022
5368 Clouds 1 1024 72 10000 0.89 263 08:42 10.02.2022
5369 Clouds -2 1023 77 10000 0.45 192 06:34 10.02.2022
5370 Clouds -1 1029 73 10000 3.19 178 03:33 10.02.2022
5371 Clouds -1 1030 78 10000 3.12 176 00:57 10.02.2022
5372 Clouds -1 1025 78 10000 0.45 224 00:38 10.02.2022
5373 Clouds -1 1025 79 10000 0.45 224 00:20 10.02.2022
5374 Clouds -1 1030 80 10000 3.21 174 22:56 09.02.2022
5375 Clouds -1 1030 82 10000 3.21 174 22:33 09.02.2022
5376 Clouds -1 1026 79 10000 0.45 235 21:47 09.02.2022
5377 Clear -1 1026 79 10000 0.45 235 21:27 09.02.2022
5378 Clear 0 1026 81 10000 0.45 172 20:44 09.02.2022
5379 Clear 0 1026 81 10000 0.45 172 20:44 09.02.2022
5380 Clear 0 1026 81 10000 0.45 172 20:22 09.02.2022
5381 Clear 1 1026 80 10000 0.45 222 19:42 09.02.2022
5382 Clouds 3 1026 75 10000 0.89 181 18:38 09.02.2022
5383 Clouds 7 1027 46 10000 0.45 234 16:57 09.02.2022
5384 Clouds 8 1028 45 10000 0.89 226 16:20 09.02.2022
5385 Clouds 9 1028 41 9541 0.45 213 15:23 09.02.2022
5386 Clouds 8 1029 45 1830 1.34 163 12:53 09.02.2022
5387 Clouds 5 1029 82 10000 1.71 193 11:29 09.02.2022
5388 Clouds 7 1031 18 10000 0.89 174 10:34 09.02.2022
5389 Clouds 3 1029 71 10000 1.98 190 09:50 09.02.2022
5390 Clouds -1 1031 59 10000 2.61 179 09:22 09.02.2022
5391 Clouds -1 1031 59 10000 2.61 179 08:45 09.02.2022
5392 Clear -3 1033 92 10000 3.02 173 05:57 09.02.2022
5393 Clear -2 1033 93 10000 3.1 170 03:51 09.02.2022
5394 Clear -3 1034 93 10000 2.94 171 03:25 09.02.2022
5395 Clear -1 1030 94 10000 0.45 170 23:45 08.02.2022
5396 Clear -1 1030 95 10000 0.45 170 23:19 08.02.2022
5397 Clear -1 1030 95 10000 0.45 170 23:19 08.02.2022
5398 Clear -1 1030 93 10000 0.89 215 22:38 08.02.2022
5399 Clear -1 1030 93 10000 0.89 215 22:19 08.02.2022
5400 Clear -1 1030 91 10000 0.89 160 21:22 08.02.2022
5401 Clear -1 1030 91 10000 0.89 160 21:22 08.02.2022
5402 Clear -1 1030 91 10000 0.89 160 20:57 08.02.2022
5403 Clear 0 1029 90 10000 0.45 119 20:34 08.02.2022
5404 Clouds 1 1029 88 10000 0.89 235 19:18 08.02.2022
5405 Clouds 2 1029 84 10000 1.79 144 18:19 08.02.2022
5406 Clouds 5 1032 66 10000 2.24 187 16:56 08.02.2022
5407 Clouds 6 1031 63 9303 1.34 204 15:46 08.02.2022
5408 Clouds 6 1032 64 5209 1.34 204 14:58 08.02.2022
5409 Clouds 5 1032 60 5182 0.89 157 13:39 08.02.2022
5410 Clouds 4 1033 61 9627 0.89 167 12:24 08.02.2022
5411 Clouds 2 1038 33 10000 1.56 210 10:48 08.02.2022
5412 Clouds 1 1034 53 10000 1.34 236 09:47 08.02.2022
5413 Clouds -1 1034 66 10000 2.24 172 08:34 08.02.2022
5414 Clouds -2 1035 71 10000 1.34 168 06:24 08.02.2022
5415 Clouds -3 1030 83 10000 0.45 156 04:40 08.02.2022
5416 Clouds -3 1030 83 10000 0.45 156 04:22 08.02.2022
5417 Clouds -3 1038 84 10000 3.19 182 03:36 08.02.2022
5418 Clear -4 1030 86 10000 0.89 158 03:18 08.02.2022
5419 Clear -4 1030 85 10000 0.89 158 02:59 08.02.2022
5420 Clear -4 1030 85 10000 0.45 243 02:36 08.02.2022
5421 Clear -4 1030 86 10000 0.45 243 02:18 08.02.2022
5422 Clear -4 1030 87 10000 0.89 189 01:44 08.02.2022
5423 Clouds -4 1030 87 10000 0.89 189 01:24 08.02.2022
5424 Clouds -4 1030 87 10000 0.89 189 00:55 08.02.2022
5425 Clouds -3 1039 85 10000 3.28 181 00:19 08.02.2022
5426 Clouds -3 1039 84 10000 3.28 181 23:42 07.02.2022
5427 Clouds -2 1039 80 10000 3.32 186 23:18 07.02.2022
5428 Clouds -2 1039 80 10000 3.32 186 22:56 07.02.2022
5429 Clouds -3 1039 87 10000 3.36 186 22:18 07.02.2022
5430 Clouds -2 1039 87 10000 3.36 186 21:47 07.02.2022
5431 Clouds -2 1038 92 10000 3.07 187 21:26 07.02.2022
5432 Clouds -2 1038 92 10000 3.07 187 20:41 07.02.2022
5433 Clouds -2 1037 94 10000 2.8 192 20:18 07.02.2022
5434 Clouds -2 1036 81 10000 2.8 192 19:45 07.02.2022
5435 Clouds 0 1031 79 7103 2.24 133 18:22 07.02.2022
5436 Snow 0 1030 80 2478 0.45 141 16:53 07.02.2022
5437 Rain 1 1025 74 1682 0.45 87 16:20 07.02.2022
5438 Clouds 1 1025 76 1682 0.45 112 15:48 07.02.2022
5439 Clouds 1 1023 77 1039 1.79 205 13:37 07.02.2022
5440 Clouds 1 1023 77 6456 1.79 205 13:19 07.02.2022
5441 Clouds 0 1022 78 10000 0.45 7 11:58 07.02.2022
5442 Clouds 0 1022 78 9991 0.45 7 11:58 07.02.2022
5443 Clouds 0 1021 82 10000 0.89 227 11:37 07.02.2022
5444 Clouds 0 1021 83 1224 0.89 227 10:52 07.02.2022
5445 Clouds -1 1024 86 1224 0.89 241 10:32 07.02.2022
5446 Clouds -1 1023 90 737 0.89 241 09:53 07.02.2022
5447 Clouds -1 1023 93 549 3.13 3 09:18 07.02.2022
5448 Snow -1 1020 94 549 2.24 350 08:43 07.02.2022
5449 Snow -1 1019 92 180 1.79 215 07:26 07.02.2022
5450 Snow -1 1018 93 136 0.45 180 06:34 07.02.2022
5451 Snow 2 1009 90 50 0.89 72 03:48 07.02.2022
5452 Rain 4 1009 88 4486 2.24 73 00:46 07.02.2022
5453 Rain 4 1010 87 10000 2.24 73 23:49 06.02.2022
5454 Rain 4 1011 80 684 0.89 155 22:49 06.02.2022
5455 Rain 4 1011 84 1430 0.89 289 21:56 06.02.2022
5456 Rain 4 1012 83 1430 0.45 304 21:35 06.02.2022
5457 Rain 3 1013 84 449 0.45 304 20:55 06.02.2022
5458 Rain 3 1014 84 449 1.34 249 20:32 06.02.2022
5459 Rain 3 1016 82 2053 0.45 173 19:40 06.02.2022
5460 Rain 4 1015 64 3278 1.79 115 18:41 06.02.2022
5461 Rain 3 1015 55 8250 1.79 115 17:56 06.02.2022
5462 Rain 4 1015 57 10000 0.45 327 17:21 06.02.2022
5463 Rain 3 1017 61 10000 1.34 164 16:47 06.02.2022
5464 Rain 3 1017 58 10000 1.34 164 15:49 06.02.2022
5465 Rain 3 1017 57 10000 0.45 239 15:27 06.02.2022
5466 Clouds 4 1017 56 10000 1.34 202 14:47 06.02.2022
5467 Clouds 4 1018 54 10000 1.79 220 13:28 06.02.2022
5468 Clouds 4 1019 51 10000 1.79 220 12:58 06.02.2022
5469 Clouds 3 1021 52 10000 2.24 186 11:38 06.02.2022
5470 Clouds 3 1020 48 10000 1.34 216 10:31 06.02.2022
5471 Clouds 0 1020 71 10000 0.45 194 09:25 06.02.2022
5472 Clouds -1 1024 70 10000 1.34 227 08:30 06.02.2022
5473 Clouds -3 1025 76 10000 0.45 187 05:33 06.02.2022
5474 Clouds -4 1026 81 10000 1.79 202 02:50 06.02.2022
5475 Clouds -4 1026 82 10000 0.45 222 02:24 06.02.2022
5476 Clouds -2 1027 81 10000 0.45 198 00:29 06.02.2022
5477 Clouds -2 1023 84 10000 0.45 239 22:31 05.02.2022
5478 Clouds -2 1023 83 10000 1.34 221 21:32 05.02.2022
5479 Clouds -2 1023 83 10000 0.89 156 20:24 05.02.2022
5480 Clouds -1 1023 82 10000 0.45 198 19:46 05.02.2022
5481 Clear -1 1023 79 10000 0.45 198 18:59 05.02.2022
5482 Clear 1 1029 38 10000 0.45 179 17:45 05.02.2022
5483 Clear 2 1029 54 10000 0.45 179 17:25 05.02.2022
5484 Clear 4 1025 55 10000 1.28 266 15:40 05.02.2022
5485 Clear 4 1025 55 10000 1.49 271 15:21 05.02.2022
5486 Clouds 3 1022 68 10000 0.89 131 12:47 05.02.2022
5487 Clouds 3 1022 70 10000 0.89 131 12:27 05.02.2022
5488 Clouds 1 1025 81 10000 1.37 274 10:48 05.02.2022
5489 Clouds 1 1025 82 10000 1.24 271 10:20 05.02.2022
5490 Clouds 0 1025 84 10000 0.45 23 09:43 05.02.2022
5491 Clouds 0 1024 88 10000 0.45 226 07:51 05.02.2022
5492 Clouds 0 1021 95 353 1.34 151 06:57 05.02.2022
5493 Snow 1 1021 94 67 3.13 333 04:29 05.02.2022
5494 Clouds 4 1020 88 1529 0.45 163 01:19 05.02.2022
5495 Clouds 3 1019 91 665 0.45 163 00:52 05.02.2022
5496 Clouds 3 1019 88 217 0.45 212 23:39 04.02.2022
5497 Clouds 3 1019 88 506 0.45 212 23:21 04.02.2022
5498 Clouds 3 1019 85 1266 2.68 160 21:54 04.02.2022
5499 Clouds 3 1020 84 1266 0.45 176 21:36 04.02.2022
5500 Clouds 4 1020 84 10000 0.45 176 21:18 04.02.2022
5501 Clouds 3 1018 86 10000 0.45 143 19:39 04.02.2022
5502 Clouds 4 1020 76 10000 2.15 245 17:40 04.02.2022
5503 Clouds 6 1016 54 4546 0.45 183 15:39 04.02.2022
5504 Clouds 6 1017 65 2708 1.34 188 14:52 04.02.2022
5505 Clouds 7 1016 64 2398 1.34 181 13:24 04.02.2022
5506 Clear 5 1018 72 2879 1.43 260 12:43 04.02.2022
5507 Clear 4 1021 79 9563 0.45 148 11:41 04.02.2022
5508 Clear 3 1022 83 10000 0.45 126 10:34 04.02.2022
5509 Clear 0 1016 90 10000 2.34 207 08:34 04.02.2022
5510 Clear 0 1015 88 10000 0.45 155 05:23 04.02.2022
5511 Clear 1 1015 84 10000 1.34 143 02:42 04.02.2022
5512 Clouds 1 1015 84 10000 0.89 166 01:22 04.02.2022
5513 Clouds 2 1015 90 10000 0.89 80 23:28 03.02.2022
5514 Clouds 2 1015 91 10000 0.45 230 22:31 03.02.2022
5515 Clouds 2 1015 90 10000 0.45 201 21:48 03.02.2022
5516 Clouds 3 1016 91 10000 1.34 144 20:36 03.02.2022
5517 Clouds 3 1016 92 10000 1.34 144 20:18 03.02.2022
5518 Clouds 3 1016 93 10000 0.89 223 19:26 03.02.2022
5519 Clouds 4 1016 92 10000 0.45 203 18:28 03.02.2022
5520 Clouds 5 1015 90 10000 0.45 202 17:32 03.02.2022
5521 Clouds 7 1016 75 10000 0.45 161 15:53 03.02.2022
5522 Clouds 7 1018 78 4312 1.34 154 14:26 03.02.2022
5523 Clouds 6 1020 83 5842 2.24 162 12:37 03.02.2022
5524 Clouds 4 1022 93 10000 1.79 154 10:35 03.02.2022
5525 Clouds 2 1023 91 10000 0.89 163 08:23 03.02.2022
5526 Clouds 2 1026 97 416 0.45 153 03:28 03.02.2022
5527 Clouds 2 1026 97 149 1.34 196 00:30 03.02.2022
5528 Clouds 2 1026 96 47 0.45 217 22:47 02.02.2022
5529 Rain 2 1026 96 43 0.45 217 21:53 02.02.2022
5530 Clouds 2 1025 96 54 0.45 172 21:29 02.02.2022
5531 Clouds 2 1025 95 49 1.34 228 20:28 02.02.2022
5532 Clouds 2 1025 95 49 1.34 228 19:49 02.02.2022
5533 Clouds 2 1025 95 33 0.45 198 19:20 02.02.2022
5534 Clouds 2 1024 94 34 0.45 90 18:25 02.02.2022
5535 Clouds 2 1023 94 31 0.89 82 17:23 02.02.2022
5536 Clouds 2 1023 93 31 0.89 82 16:59 02.02.2022
5537 Clouds 2 1023 91 37 0.45 64 15:49 02.02.2022
5538 Clouds 3 1022 88 37 0.89 289 12:47 02.02.2022
5539 Clouds 3 1021 90 35 0.89 289 11:51 02.02.2022
5540 Clouds 2 1021 89 35 0.45 241 11:30 02.02.2022
5541 Clouds 3 1020 89 48 0.45 135 09:18 02.02.2022
5542 Clouds 2 1018 88 52 1.79 113 04:57 02.02.2022
5543 Rain 0 1020 94 145 2.24 90 22:34 01.02.2022
5544 Snow 0 1019 92 164 1.34 115 20:55 01.02.2022
5545 Snow -1 1019 90 278 1.79 153 19:29 01.02.2022
5546 Snow -1 1021 89 258 0.89 216 17:34 01.02.2022
5547 Snow -1 1022 86 8459 0.89 201 16:21 01.02.2022
5548 Clouds -1 1025 91 366 0.89 98 12:57 01.02.2022
5549 Clouds -1 1025 91 212 0.89 98 12:21 01.02.2022
5550 Snow -2 1023 95 81 1.79 170 08:52 01.02.2022
5551 Snow -1 1018 95 73 1.34 157 02:20 01.02.2022
5552 Snow -1 1017 94 84 1.34 133 23:37 31.01.2022
5553 Snow -1 1017 94 86 0.45 135 22:33 31.01.2022
5554 Snow -1 1016 93 94 0.89 138 21:35 31.01.2022
5555 Snow -1 1016 93 94 0.89 138 21:35 31.01.2022
5556 Clouds -1 1016 93 91 0.45 186 20:34 31.01.2022
5557 Snow -1 1016 93 82 0.45 186 19:57 31.01.2022
5558 Snow 0 1015 92 83 2.24 72 18:32 31.01.2022
5559 Snow 0 1015 92 86 2.24 72 17:57 31.01.2022
5560 Snow 0 1015 89 140 0.89 180 17:18 31.01.2022
5561 Rain 0 1014 85 113 0.89 186 16:21 31.01.2022
5562 Snow 1 1014 82 121 0.89 156 14:51 31.01.2022
5563 Clouds 1 1013 89 75 0.89 144 13:29 31.01.2022
5564 Snow 1 1014 89 75 2.68 77 12:37 31.01.2022
5565 Snow 1 1014 85 1140 0.89 5 11:20 31.01.2022
5566 Snow 1 1015 81 1140 3.1 247 10:47 31.01.2022
5567 Clouds 1 1016 76 3434 0.89 82 09:36 31.01.2022
5568 Clouds 1 1016 80 10000 0.89 82 08:56 31.01.2022
5569 Clouds 0 1020 93 10000 0.45 60 08:20 31.01.2022
5570 Clouds 0 1017 77 10000 0.45 88 07:37 31.01.2022
5571 Clouds -2 1018 85 10000 0.45 183 05:24 31.01.2022
5572 Clouds -2 1025 88 10000 0.45 165 00:23 31.01.2022
5573 Clouds -1 1023 92 10000 3.14 178 22:33 30.01.2022
5574 Clouds -1 1024 91 10000 0.45 224 21:45 30.01.2022
5575 Clouds -1 1024 90 10000 0.45 224 21:24 30.01.2022
5576 Clouds 0 1024 90 10000 0.45 224 20:51 30.01.2022
5577 Clouds 0 1025 92 10000 0.45 207 20:31 30.01.2022
5578 Clouds 1 1025 89 10000 0.45 207 19:55 30.01.2022
5579 Clouds 2 1032 83 10000 2.36 185 18:51 30.01.2022
5580 Clouds 2 1025 84 10000 0.45 220 18:22 30.01.2022
5581 Clouds 3 1032 74 10000 2.68 184 17:30 30.01.2022
5582 Clouds 5 1030 67 10000 1.45 245 16:42 30.01.2022
5583 Clouds 5 1030 67 10000 1.57 270 16:23 30.01.2022
5584 Clouds 5 1030 66 10000 1.57 270 15:54 30.01.2022
5585 Clouds 5 1030 69 10000 1.57 270 15:32 30.01.2022
5586 Clouds 5 1030 70 10000 1.74 279 14:47 30.01.2022
5587 Clouds 4 1027 83 9130 1.84 283 13:44 30.01.2022
5588 Clouds 4 1034 90 6148 0.45 37 12:44 30.01.2022
5589 Clouds 3 1030 88 2872 1.79 130 10:39 30.01.2022
5590 Clouds 3 1027 89 991 1.79 130 09:58 30.01.2022
5591 Clouds 3 1027 90 296 1.79 48 09:21 30.01.2022
5592 Clouds 3 1030 92 396 0.45 248 07:57 30.01.2022
5593 Clouds 2 1030 80 3084 0.89 214 02:44 30.01.2022
5594 Clouds 3 1030 72 10000 0.89 214 01:52 30.01.2022
5595 Clouds 2 1031 75 10000 2.86 227 23:46 29.01.2022
5596 Clouds 2 1033 75 10000 2.68 221 22:48 29.01.2022
5597 Clouds 2 1027 60 10000 0.45 217 21:28 29.01.2022
5598 Clouds 2 1027 55 10000 1.79 245 20:53 29.01.2022
5599 Clouds 3 1027 55 10000 1.79 245 19:51 29.01.2022
5600 Clouds 3 1027 52 10000 0.89 210 19:30 29.01.2022
5601 Clouds 3 1027 53 10000 2.24 221 18:43 29.01.2022
5602 Clouds 3 1034 33 10000 2.24 192 17:46 29.01.2022
5603 Clouds 4 1033 29 10000 1.34 173 16:43 29.01.2022
5604 Clouds 5 1032 26 10000 2.25 239 15:20 29.01.2022
5605 Clouds 5 1031 38 10000 1.34 225 13:47 29.01.2022
5606 Clouds 5 1031 38 10000 1.34 225 13:26 29.01.2022
5607 Clouds 4 1032 38 10000 0.89 184 12:42 29.01.2022
5608 Clouds 3 1032 43 10000 0.45 291 11:39 29.01.2022
5609 Snow 2 1032 51 10000 0.89 201 10:31 29.01.2022
5610 Clouds -1 1029 74 10000 0.45 75 07:57 29.01.2022
5611 Clouds -1 1036 80 10000 1.79 149 01:37 29.01.2022
5612 Clouds -1 1036 82 10000 0.89 165 00:31 29.01.2022
5613 Clouds -1 1036 80 10000 1.34 188 23:22 28.01.2022
5614 Clouds -1 1036 81 10000 0.45 148 22:42 28.01.2022
5615 Clouds 0 1036 80 10000 0.45 148 22:18 28.01.2022
5616 Clouds -1 1042 76 10000 0.45 331 20:40 28.01.2022
5617 Clouds -1 1041 78 10000 2.48 189 19:51 28.01.2022
5618 Clouds -1 1041 88 10000 2.13 195 18:49 28.01.2022
5619 Clouds -1 1040 85 10000 0.45 46 17:52 28.01.2022
5620 Clouds 2 1031 66 10000 0.89 238 15:46 28.01.2022
5621 Clouds 2 1032 70 10000 1.79 135 14:20 28.01.2022
5622 Clouds 1 1035 78 10000 0.45 19 12:35 28.01.2022
5623 Clouds 0 1036 80 10000 0.89 281 11:38 28.01.2022
5624 Snow 0 1035 85 1925 0.89 356 10:22 28.01.2022
5625 Snow 0 1035 85 1925 0.89 356 10:22 28.01.2022
5626 Snow 0 1035 83 1925 0.89 93 09:45 28.01.2022
5627 Clouds 0 1033 92 301 0.45 76 07:40 28.01.2022
5628 Clouds 0 1032 93 236 0.89 190 05:24 28.01.2022
5629 Snow 0 1031 93 88 0.89 142 03:47 28.01.2022
5630 Snow 0 1030 86 107 1.34 141 02:23 28.01.2022
5631 Rain 0 1030 79 107 2.24 278 01:35 28.01.2022
5632 Snow -1 1031 89 613 2.53 226 23:47 27.01.2022
5633 Clouds 0 1026 65 1232 0.89 157 21:54 27.01.2022
5634 Clouds 0 1025 64 1232 2.12 240 21:32 27.01.2022
5635 Snow 0 1025 65 10000 3.59 195 20:53 27.01.2022
5636 Clear -1 1025 62 10000 0.45 289 19:35 27.01.2022
5637 Clouds 0 1025 63 10000 1.79 175 17:56 27.01.2022
5638 Clouds 5 1029 33 10000 0.89 172 15:31 27.01.2022
5639 Clouds 5 1027 40 10000 0.89 162 13:39 27.01.2022
5640 Clouds 5 1030 38 10000 3.13 198 12:46 27.01.2022
5641 Clouds 3 1031 25 10000 1.34 181 10:57 27.01.2022
5642 Clouds -3 1030 55 10000 3.25 185 09:20 27.01.2022
5643 Clouds -4 1030 55 10000 3.25 185 08:37 27.01.2022
5644 Clouds -5 1032 57 10000 3.16 187 07:22 27.01.2022
5645 Clouds -5 1032 58 10000 2.76 185 02:57 27.01.2022
5646 Clouds -3 1033 62 10000 2.77 186 23:33 26.01.2022
5647 Clouds -3 1028 78 10000 0.45 224 22:26 26.01.2022
5648 Clouds -3 1028 77 10000 0.89 163 21:37 26.01.2022
5649 Clouds -2 1028 74 10000 0.89 259 20:41 26.01.2022
5650 Clouds -2 1028 74 10000 0.89 259 20:23 26.01.2022
5651 Clouds -2 1028 73 10000 1.34 218 19:23 26.01.2022
5652 Clouds -1 1028 71 10000 0.89 178 18:45 26.01.2022
5653 Clear 0 1028 64 10000 0.89 178 17:51 26.01.2022
5654 Clear 2 1027 60 10000 1.79 211 17:23 26.01.2022
5655 Clear 4 1029 44 10000 0.45 162 16:33 26.01.2022
5656 Clear 5 1029 40 10000 0.45 65 15:49 26.01.2022
5657 Clear 6 1029 40 7106 0.45 317 14:20 26.01.2022
5658 Clear 3 1030 64 10000 1.48 249 11:53 26.01.2022
5659 Clear 1 1035 49 10000 0.89 165 10:28 26.01.2022
5660 Clear 1 1035 51 10000 0.89 161 09:48 26.01.2022
5661 Clear -5 1034 73 10000 2.51 185 07:45 26.01.2022
5662 Clear -4 1028 89 10000 0.45 217 04:24 26.01.2022
5663 Clear -4 1035 71 10000 2.56 184 23:58 25.01.2022
5664 Clear -4 1035 90 10000 2.57 184 23:19 25.01.2022
5665 Clear -4 1035 70 10000 2.62 183 22:21 25.01.2022
5666 Clear -4 1035 70 10000 2.62 183 21:58 25.01.2022
5667 Clear -3 1029 88 10000 0.45 96 20:47 25.01.2022
5668 Clear -3 1029 88 10000 0.45 96 20:28 25.01.2022
5669 Clear -3 1029 88 10000 0.45 96 20:28 25.01.2022
5670 Clear -3 1029 88 10000 0.45 96 20:28 25.01.2022
5671 Clear -2 1029 86 10000 0.45 96 19:52 25.01.2022
5672 Clear -1 1028 82 10000 0.45 214 18:37 25.01.2022
5673 Clear 0 1028 76 10000 0.45 229 17:44 25.01.2022
5674 Clear 4 1030 58 10000 0.89 216 16:35 25.01.2022
5675 Clear 5 1030 56 10000 0.89 216 15:49 25.01.2022
5676 Clear 6 1030 48 10000 0.89 180 15:31 25.01.2022
5677 Clear 6 1030 50 10000 1.34 184 14:57 25.01.2022
5678 Clouds 5 1031 55 10000 0.45 156 13:42 25.01.2022
5679 Clear 5 1034 42 10000 0.45 147 10:42 25.01.2022
5680 Clear -4 1034 67 10000 2.25 168 08:37 25.01.2022
5681 Clear -5 1034 68 10000 2.66 165 07:29 25.01.2022
5682 Clear -5 1034 68 10000 2.6 165 06:47 25.01.2022
5683 Clear -5 1034 68 10000 2.66 164 05:22 25.01.2022
5684 Clear -4 1035 71 10000 2.57 161 23:37 24.01.2022
5685 Clear -4 1035 71 10000 2.6 162 23:18 24.01.2022
5686 Clear -4 1035 71 10000 2.61 161 22:59 24.01.2022
5687 Clear -4 1035 71 10000 2.6 162 22:41 24.01.2022
5688 Clear -4 1035 72 10000 2.68 161 21:52 24.01.2022
5689 Clear -4 1035 72 10000 2.7 161 21:28 24.01.2022
5690 Clear -3 1034 73 10000 2.72 161 20:29 24.01.2022
5691 Clear -3 1034 87 10000 2.72 161 19:39 24.01.2022
5692 Clear -3 1034 87 10000 2.62 159 19:20 24.01.2022
5693 Clear -1 1028 81 10000 0.45 252 17:45 24.01.2022
5694 Clear -1 1028 79 10000 0.45 252 17:23 24.01.2022
5695 Clear -1 1028 79 10000 0.45 252 17:23 24.01.2022
5696 Clear 2 1030 61 10000 0.45 246 16:40 24.01.2022
5697 Clear 2 1030 60 10000 0.45 246 16:18 24.01.2022
5698 Clear 3 1030 51 10000 0.45 53 14:35 24.01.2022
5699 Clear 3 1034 37 6940 0.89 180 12:40 24.01.2022
5700 Clear 2 1034 37 7079 0.89 180 12:22 24.01.2022
5701 Clear -3 1031 66 10000 1.5 137 10:25 24.01.2022
5702 Clear -2 1031 66 10000 1.5 137 09:47 24.01.2022
5703 Clear -6 1034 68 10000 2.66 152 08:24 24.01.2022
5704 Clear -5 1033 69 10000 2.97 156 04:50 24.01.2022
5705 Clear -4 1035 93 10000 2.37 144 01:30 24.01.2022
5706 Clear -4 1030 92 10000 0.45 232 00:35 24.01.2022
5707 Clear -4 1030 91 10000 0.45 232 23:49 23.01.2022
5708 Clear -3 1030 90 10000 0.45 240 22:28 23.01.2022
5709 Clear -3 1030 90 10000 0.45 236 21:44 23.01.2022
5710 Clear -3 1030 90 10000 0.45 236 21:24 23.01.2022
5711 Clear -2 1032 83 10000 2.24 137 20:30 23.01.2022
5712 Clouds -1 1033 87 10000 1.34 134 19:21 23.01.2022
5713 Clouds -1 1034 88 10000 0.45 184 18:44 23.01.2022
5714 Clouds 0 1033 88 10000 0.45 176 17:28 23.01.2022
5715 Clouds 1 1030 84 10000 0.89 81 16:38 23.01.2022
5716 Clouds 2 1032 85 10000 1.59 41 14:56 23.01.2022
5717 Clouds 2 1032 84 10000 1.07 43 14:19 23.01.2022
5718 Clouds 1 1032 86 10000 0.85 60 12:51 23.01.2022
5719 Clouds 1 1033 87 10000 1.17 90 12:22 23.01.2022
5720 Clouds 1 1033 91 10000 1.17 90 11:51 23.01.2022
5721 Clouds 0 1031 89 10000 0.45 294 11:18 23.01.2022
5722 Clouds 0 1031 93 10000 0.89 138 10:27 23.01.2022
5723 Clouds -2 1035 93 10000 0.45 305 09:39 23.01.2022
5724 Clouds -2 1035 94 10000 0.45 305 08:51 23.01.2022
5725 Clouds -2 1034 95 10000 0.45 93 05:37 23.01.2022
5726 Clouds -3 1037 91 10000 2.23 165 01:46 23.01.2022
5727 Clouds -2 1037 94 10000 2.26 172 01:23 23.01.2022
5728 Clouds -1 1034 94 10000 0.89 183 00:23 23.01.2022
5729 Clouds -1 1035 94 10000 0.45 341 23:34 22.01.2022
5730 Clouds -1 1035 94 10000 0.45 72 22:34 22.01.2022
5731 Clouds -1 1035 95 10000 0.45 155 21:19 22.01.2022
5732 Clouds -1 1035 94 784 1.37 213 19:49 22.01.2022
5733 Clouds -1 1030 93 233 0.45 183 18:45 22.01.2022
5734 Clouds -1 1034 94 677 0.45 183 17:56 22.01.2022
5735 Clouds -1 1034 95 677 0.45 225 17:35 22.01.2022
5736 Clouds 0 1034 94 1010 0.45 225 16:55 22.01.2022
5737 Clouds -1 1034 91 1243 0.89 150 15:49 22.01.2022
5738 Snow 0 1030 91 1108 1.34 145 14:57 22.01.2022
5739 Snow 0 1030 90 3519 0.89 130 13:36 22.01.2022
5740 Snow -1 1030 91 6695 1.34 148 12:48 22.01.2022
5741 Snow -1 1030 91 9867 1.34 148 12:24 22.01.2022
5742 Snow -2 1035 91 10000 1.34 163 10:55 22.01.2022
5743 Snow -2 1034 91 10000 0.45 168 10:28 22.01.2022
5744 Snow -2 1034 91 10000 0.45 168 09:57 22.01.2022
5745 Clouds -3 1034 88 10000 0.45 200 08:51 22.01.2022
5746 Clouds -3 1034 81 10000 0.89 152 07:29 22.01.2022
5747 Clouds -4 1033 79 10000 1.34 132 04:52 22.01.2022
5748 Clouds -5 1039 72 10000 0.45 168 01:33 22.01.2022
5749 Clouds -5 1040 72 10000 0.45 172 23:30 21.01.2022
5750 Clouds -6 1040 84 10000 2.7 173 22:19 21.01.2022
5751 Clouds -5 1040 93 10000 2.6 175 19:56 21.01.2022
5752 Clouds -6 1039 96 10000 1.76 180 18:23 21.01.2022
5753 Clouds -6 1040 82 10000 1.34 179 17:18 21.01.2022
5754 Clouds -2 1029 78 10000 0.45 300 15:28 21.01.2022
5755 Clouds -2 1034 78 10000 1.36 324 13:18 21.01.2022
5756 Clouds -2 1028 82 10000 2.24 355 12:28 21.01.2022
5757 Clouds -3 1033 84 10000 0.45 355 11:27 21.01.2022
5758 Clouds -4 1035 90 10000 0.68 174 09:46 21.01.2022
5759 Clouds -4 1037 96 4031 1.85 170 08:22 21.01.2022
5760 Clouds -4 1036 96 10000 1.76 179 04:49 21.01.2022
5761 Clouds -2 1026 88 383 0.89 147 23:27 20.01.2022
5762 Snow -2 1026 91 302 1.34 214 21:50 20.01.2022
5763 Clouds -2 1025 92 302 0.89 242 21:32 20.01.2022
5764 Snow -2 1024 90 735 2.24 8 20:31 20.01.2022
5765 Clouds -1 1024 84 6342 0.45 170 19:19 20.01.2022
5766 Snow 0 1030 77 465 1.82 228 18:18 20.01.2022
5767 Clouds 1 1023 72 1615 1.34 135 16:40 20.01.2022
5768 Clouds 1 1023 77 2027 0.45 334 15:40 20.01.2022
5769 Clouds 1 1023 85 2863 1.34 149 14:40 20.01.2022
5770 Clouds 0 1023 88 814 0.45 93 13:32 20.01.2022
5771 Rain 0 1024 86 463 0.89 93 12:31 20.01.2022
5772 Clouds 0 1024 82 305 1.79 101 11:36 20.01.2022
5773 Clouds 0 1023 88 323 0.89 70 10:37 20.01.2022
5774 Snow -1 1026 90 169 1.79 155 09:29 20.01.2022
5775 Snow -1 1026 86 187 0.89 111 07:24 20.01.2022
5776 Clouds 0 1027 86 459 0.45 158 00:43 20.01.2022
5777 Clouds 0 1026 84 3159 0.89 233 22:52 19.01.2022
5778 Clouds 0 1027 86 7740 0.89 202 21:45 19.01.2022
5779 Clouds 0 1027 86 9093 0.89 202 21:22 19.01.2022
5780 Clouds 0 1027 84 9093 1.34 221 20:46 19.01.2022
5781 Clear -1 1027 84 10000 0.45 110 19:27 19.01.2022
5782 Clear 1 1026 72 10000 0.45 26 17:52 19.01.2022
5783 Clear 1 1029 72 10000 1.79 180 17:32 19.01.2022
5784 Clear 5 1025 45 10000 0.89 194 15:44 19.01.2022
5785 Clear 5 1025 45 10000 0.45 74 13:38 19.01.2022
5786 Clear 3 1029 51 10000 0.89 170 12:24 19.01.2022
5787 Clear 3 1030 28 10000 0.45 135 11:38 19.01.2022
5788 Clear -2 1028 62 10000 1.97 190 09:52 19.01.2022
5789 Clear -3 1028 62 10000 1.97 190 09:33 19.01.2022
5790 Clear -2 1031 89 10000 2.92 177 06:34 19.01.2022
5791 Clear -2 1029 87 10000 0.45 229 00:33 19.01.2022
5792 Clear -2 1030 87 10000 0.89 190 23:18 18.01.2022
5793 Clear -1 1034 78 10000 0.89 236 21:55 18.01.2022
5794 Clear -1 1035 80 10000 0.45 250 20:44 18.01.2022
5795 Clear -1 1035 86 10000 0.45 250 19:52 18.01.2022
5796 Clear -1 1035 86 10000 0.45 235 19:33 18.01.2022
5797 Clear -1 1035 87 10000 0.45 235 18:25 18.01.2022
5798 Clear 0 1035 86 10000 2.5 144 17:33 18.01.2022
5799 Clear 2 1031 80 10000 2.24 344 16:33 18.01.2022
5800 Clear 3 1031 75 10000 1.34 336 15:26 18.01.2022
5801 Clear 3 1031 76 10000 1.79 9 14:34 18.01.2022
5802 Clear 2 1032 79 10000 0.45 338 11:52 18.01.2022
5803 Clear -1 1042 91 10000 1.5 93 10:30 18.01.2022
5804 Clear -2 1037 90 10000 0.89 181 08:49 18.01.2022
5805 Clear -2 1037 90 10000 2.28 140 07:45 18.01.2022
5806 Clear -2 1037 90 10000 2.28 140 07:45 18.01.2022
5807 Clouds 0 1041 93 10000 0.45 330 01:34 18.01.2022
5808 Clouds 0 1041 90 10000 1.32 195 22:47 17.01.2022
5809 Clouds 1 1041 86 10000 0.9 210 21:58 17.01.2022
5810 Clouds 1 1036 82 10000 0.45 42 21:31 17.01.2022
5811 Clouds 1 1036 83 8335 1.79 146 19:42 17.01.2022
5812 Clouds 1 1040 83 10000 1.79 168 18:27 17.01.2022
5813 Clouds 2 1034 74 10000 1.79 180 17:22 17.01.2022
5814 Clouds 3 1034 69 10000 1.34 179 16:22 17.01.2022
5815 Clouds 4 1034 59 10000 2.04 271 14:58 17.01.2022
5816 Clouds 4 1034 59 10000 1.34 167 14:32 17.01.2022
5817 Clouds 3 1034 65 10000 0.89 190 13:19 17.01.2022
5818 Clouds 2 1035 70 10000 0.45 182 12:27 17.01.2022
5819 Clouds 2 1035 77 10000 0.45 260 11:33 17.01.2022
5820 Clouds 0 1035 82 10000 1.34 138 10:21 17.01.2022
5821 Clouds 0 1034 86 6460 0.45 186 08:44 17.01.2022
5822 Clouds 0 1034 86 10000 1.79 160 07:21 17.01.2022
5823 Clouds 0 1037 67 5328 0.89 32 01:52 17.01.2022
5824 Clouds 0 1031 71 10000 0.45 343 23:44 16.01.2022
5825 Clouds -1 1036 79 10000 2.15 208 21:21 16.01.2022
5826 Clouds 0 1036 77 10000 0.45 148 20:18 16.01.2022
5827 Snow -1 1035 87 10000 3.58 183 18:46 16.01.2022
5828 Clouds -1 1034 90 10000 1.9 212 17:50 16.01.2022
5829 Clouds 2 1031 59 10000 1.61 228 16:54 16.01.2022
5830 Clouds 3 1026 62 10000 2.24 350 15:40 16.01.2022
5831 Clear 3 1029 59 10000 0.45 44 14:29 16.01.2022
5832 Clear 4 1026 53 10000 1.34 222 13:23 16.01.2022
5833 Clear 3 1030 59 10000 1.79 163 11:58 16.01.2022
5834 Clear 2 1030 46 10000 1.79 163 11:27 16.01.2022
5835 Clear 1 1029 45 10000 1.34 180 10:27 16.01.2022
5836 Clear -1 1027 69 10000 1.86 228 09:57 16.01.2022
5837 Clear -3 1028 68 10000 2.46 196 09:23 16.01.2022
5838 Clear -3 1028 68 10000 2.46 196 08:53 16.01.2022
5839 Clear -4 1026 68 10000 2.6 195 05:52 16.01.2022
5840 Clear -4 1026 65 10000 2.75 178 00:19 16.01.2022
5841 Clear -3 1026 65 10000 2.76 175 22:49 15.01.2022
5842 Clear -3 1027 68 10000 2.67 176 21:21 15.01.2022
5843 Clear -3 1027 68 10000 2.67 176 20:44 15.01.2022
5844 Clear -3 1027 91 10000 2.71 171 20:18 15.01.2022
5845 Clear -2 1027 91 10000 2.67 169 19:25 15.01.2022
5846 Clear -1 1022 91 10000 0.45 162 17:52 15.01.2022
5847 Clear 1 1022 81 10000 0.45 237 16:43 15.01.2022
5848 Clear 5 1024 65 8462 0.45 146 14:32 15.01.2022
5849 Clear 5 1028 52 6952 0.89 152 12:38 15.01.2022
5850 Clear 4 1028 51 10000 0.89 174 11:20 15.01.2022
5851 Clear -2 1027 72 10000 1.65 143 09:35 15.01.2022
5852 Clear -4 1032 77 10000 2.62 155 01:25 15.01.2022
5853 Clear -3 1034 79 10000 2.68 156 21:57 14.01.2022
5854 Clear -3 1034 79 10000 2.64 157 20:54 14.01.2022
5855 Clear -2 1035 81 10000 2.55 156 20:23 14.01.2022
5856 Clear -2 1035 93 10000 2.55 156 19:49 14.01.2022
5857 Clouds -1 1034 92 10000 2.58 155 18:33 14.01.2022
5858 Clouds 1 1034 85 10000 2.31 153 16:51 14.01.2022
5859 Clouds 4 1033 77 10000 0.45 226 16:33 14.01.2022
5860 Clouds 4 1034 74 2546 0.45 117 14:47 14.01.2022
5861 Clouds 4 1033 63 3089 0.45 125 13:47 14.01.2022
5862 Clear 4 1036 57 3912 0.77 124 12:32 14.01.2022
5863 Clear 4 1038 60 10000 0.45 136 11:29 14.01.2022
5864 Clear 0 1035 77 10000 1.8 151 09:51 14.01.2022
5865 Clear -4 1036 75 10000 2.47 154 08:52 14.01.2022
5866 Clear -6 1037 72 10000 2.79 157 07:21 14.01.2022
5867 Clear -5 1038 73 10000 2.86 157 01:37 14.01.2022
5868 Clouds -5 1039 71 10000 2.94 154 23:32 13.01.2022
5869 Clouds -4 1040 69 10000 3 153 21:41 13.01.2022
5870 Clouds -4 1040 68 10000 2.98 152 21:23 13.01.2022
5871 Clouds -4 1040 89 10000 2.9 149 19:41 13.01.2022
5872 Clouds -4 1040 88 10000 2.79 149 19:22 13.01.2022
5873 Clouds -4 1040 88 10000 2.79 149 19:22 13.01.2022
5874 Clouds -2 1041 69 10000 1.34 170 17:54 13.01.2022
5875 Clouds 0 1037 64 10000 0.45 238 16:21 13.01.2022
5876 Clouds 1 1041 60 10000 0.89 153 15:37 13.01.2022
5877 Clouds 0 1037 74 10000 1.28 101 14:47 13.01.2022
5878 Clear -1 1037 63 10000 1.36 83 12:46 13.01.2022
5879 Clear -1 1043 36 10000 0.45 172 10:25 13.01.2022
5880 Clear -8 1042 61 10000 2.5 147 09:20 13.01.2022
5881 Clear -9 1043 58 10000 2.79 153 08:27 13.01.2022
5882 Clear -9 1043 57 10000 2.73 154 07:24 13.01.2022
5883 Clear -9 1042 53 10000 2.74 152 05:59 13.01.2022
5884 Clear -8 1042 52 10000 2.72 152 05:19 13.01.2022
5885 Clear -8 1043 52 10000 2.55 153 02:33 13.01.2022
5886 Clear -7 1042 52 10000 2.68 158 00:55 13.01.2022
5887 Clear -8 1042 55 10000 2.56 158 23:49 12.01.2022
5888 Clear -8 1042 55 10000 2.56 158 23:49 12.01.2022
5889 Clear -7 1043 56 10000 2.63 157 23:20 12.01.2022
5890 Clear -7 1042 57 10000 2.62 155 21:57 12.01.2022
5891 Clear -6 1042 59 10000 2.67 156 21:22 12.01.2022
5892 Clear -6 1042 59 10000 2.67 156 20:56 12.01.2022
5893 Clear -7 1042 90 10000 2.54 158 19:45 12.01.2022
5894 Clouds -7 1034 87 10000 0.45 345 18:42 12.01.2022
5895 Clouds -5 1037 74 10000 1.34 158 17:22 12.01.2022
5896 Clouds -3 1037 70 10000 2.11 143 16:33 12.01.2022
5897 Clouds -1 1036 66 10000 1.53 42 14:48 12.01.2022
5898 Clouds -2 1036 49 10000 1.29 50 13:24 12.01.2022
5899 Clouds -4 1042 53 10000 1.34 179 10:56 12.01.2022
5900 Clear -8 1040 90 10000 2.31 149 08:43 12.01.2022
5901 Clear -8 1041 85 10000 0.45 192 07:50 12.01.2022
5902 Clear -8 1041 82 10000 0.45 192 07:31 12.01.2022
5903 Clouds -6 1035 89 10000 1.34 166 23:53 11.01.2022
5904 Clouds -6 1034 89 10000 2.78 153 22:56 11.01.2022
5905 Clouds -6 1034 89 10000 0.45 217 22:23 11.01.2022
5906 Clouds -5 1034 87 10000 0.45 271 20:56 11.01.2022
5907 Clouds -4 1039 88 10000 2.92 151 20:20 11.01.2022
5908 Clear -3 1038 87 10000 1.34 189 18:32 11.01.2022
5909 Clear -2 1037 87 10000 2.16 134 17:26 11.01.2022
5910 Clear -1 1031 84 10000 0.45 317 16:38 11.01.2022
5911 Clear 0 1027 83 10000 1.51 88 15:46 11.01.2022
5912 Clear 0 1027 84 10000 0.45 191 14:42 11.01.2022
5913 Clear 0 1027 84 10000 0.45 191 13:56 11.01.2022
5914 Clear 0 1027 84 10000 0.45 203 13:36 11.01.2022
5915 Clouds 0 1027 85 10000 1.66 57 12:48 11.01.2022
5916 Clouds -1 1031 85 10000 0.45 197 11:45 11.01.2022
5917 Clouds -3 1033 94 10000 1.97 133 09:39 11.01.2022
5918 Clouds -3 1034 94 10000 2.39 144 07:18 11.01.2022
5919 Clouds -1 1032 94 10000 2.32 138 00:32 11.01.2022
5920 Clouds -1 1032 93 10000 2.08 131 23:43 10.01.2022
5921 Clouds -1 1031 93 10000 1.97 128 23:22 10.01.2022
5922 Clouds -1 1031 93 8979 1.79 123 22:19 10.01.2022
5923 Clouds -2 1031 92 8979 0.45 100 21:54 10.01.2022
5924 Clouds -2 1031 92 3062 0.45 100 21:20 10.01.2022
5925 Clouds -2 1030 92 3062 0.89 348 20:57 10.01.2022
5926 Clouds -1 1030 92 1130 0.89 348 20:28 10.01.2022
5927 Clouds -2 1030 93 1130 1.43 97 19:44 10.01.2022
5928 Clouds -2 1030 93 1130 1.28 94 19:21 10.01.2022
5929 Clouds -2 1029 93 895 1.31 96 18:49 10.01.2022
5930 Clouds -1 1024 92 990 0.89 68 17:41 10.01.2022
5931 Clouds -1 1023 92 2455 1.79 343 16:42 10.01.2022
5932 Clouds -1 1022 92 613 1.79 343 15:49 10.01.2022
5933 Clouds 0 1017 90 804 2.29 19 14:30 10.01.2022
5934 Clouds -1 1019 91 7952 0.89 10 11:58 10.01.2022
5935 Clouds -1 1019 92 10000 0.89 10 11:25 10.01.2022
5936 Snow -2 1018 93 10000 0.45 141 09:52 10.01.2022
5937 Clouds -3 1015 92 3474 0.45 6 07:31 10.01.2022
5938 Clouds -2 1017 93 1457 1.47 152 05:49 10.01.2022
5939 Clouds -2 1016 91 7644 2.17 161 01:31 10.01.2022
5940 Clouds -2 1015 90 10000 2.56 161 00:25 10.01.2022
5941 Clouds -2 1015 90 10000 2.56 161 23:40 09.01.2022
5942 Clouds -2 1010 91 10000 0.45 303 22:38 09.01.2022
5943 Clouds -2 1014 89 10000 0.45 173 21:46 09.01.2022
5944 Clouds -2 1014 89 10000 0.45 173 21:24 09.01.2022
5945 Snow -1 1013 92 10000 0.45 193 20:52 09.01.2022
5946 Snow -2 1010 93 10000 0.45 207 20:34 09.01.2022
5947 Clouds -1 1009 94 4420 0.89 175 19:45 09.01.2022
5948 Clouds -1 1009 94 590 0.89 175 19:23 09.01.2022
5949 Clouds -1 1009 92 10000 2.06 182 18:56 09.01.2022
5950 Snow -1 1009 93 1352 0.45 220 18:34 09.01.2022
5951 Snow -1 1009 94 1305 1.34 85 17:40 09.01.2022
5952 Snow -1 1009 94 2515 1.34 85 17:20 09.01.2022
5953 Snow 0 1008 87 3099 0.89 219 15:58 09.01.2022
5954 Clouds 0 1008 87 3099 0.45 193 15:35 09.01.2022
5955 Clouds 1 1008 82 4627 0.45 111 14:40 09.01.2022
5956 Clouds 1 1008 83 3463 0.45 111 13:51 09.01.2022
5957 Snow 0 1008 83 10000 0.89 80 13:22 09.01.2022
5958 Snow 0 1008 92 2653 4.47 79 11:54 09.01.2022
5959 Snow 0 1008 93 146 0.45 64 10:53 09.01.2022
5960 Snow 0 1006 94 145 3.13 124 09:47 09.01.2022
5961 Snow 0 1005 92 141 3.13 124 08:51 09.01.2022
5962 Snow 1 1004 74 2729 2.92 218 05:21 09.01.2022
5963 Snow 0 1000 85 10000 0.89 175 01:24 09.01.2022
5964 Clouds -1 1003 87 10000 0.89 168 23:47 08.01.2022
5965 Clouds -2 1003 87 10000 0.89 168 23:26 08.01.2022
5966 Clouds -2 1005 84 10000 0.89 246 22:28 08.01.2022
5967 Clouds -1 1009 79 10000 0.89 244 21:25 08.01.2022
5968 Clouds -1 1011 77 10000 0.45 119 20:42 08.01.2022
5969 Clouds -1 1011 77 10000 0.45 119 20:20 08.01.2022
5970 Clouds -2 1010 85 10000 0.89 216 18:40 08.01.2022
5971 Clouds -1 1014 77 10000 1.34 168 17:22 08.01.2022
5972 Clouds 0 1016 82 10000 1.34 201 15:56 08.01.2022
5973 Clouds 0 1017 73 10000 0.89 122 14:46 08.01.2022
5974 Clouds 0 1018 75 6965 1.34 177 13:28 08.01.2022
5975 Snow -1 1018 80 2058 2.68 206 11:28 08.01.2022
5976 Snow -1 1017 82 431 3.13 184 10:28 08.01.2022
5977 Snow -1 1016 88 431 3.58 86 09:48 08.01.2022
5978 Snow -1 1015 88 5285 0.89 162 08:22 08.01.2022
5979 Clear -3 1015 87 10000 0.89 216 03:31 08.01.2022
5980 Clouds -1 1018 87 10000 1.34 218 00:42 08.01.2022
5981 Snow -1 1019 92 4438 2.13 197 22:49 07.01.2022
5982 Snow -2 1019 89 887 0.89 274 21:18 07.01.2022
5983 Snow -2 1019 88 1318 0.89 146 20:20 07.01.2022
5984 Snow -2 1021 91 5511 1.94 214 19:25 07.01.2022
5985 Clouds -2 1018 81 5795 0.89 356 18:45 07.01.2022
5986 Clouds -2 1018 77 10000 1.79 87 17:28 07.01.2022
5987 Clouds -2 1018 76 10000 1.34 142 16:41 07.01.2022
5988 Clouds -2 1016 82 10000 0.45 130 14:29 07.01.2022
5989 Clouds -1 1019 72 10000 0.89 173 13:41 07.01.2022
5990 Clouds -1 1016 81 10000 1.42 264 12:49 07.01.2022
5991 Clouds -1 1016 81 10000 1.42 264 12:49 07.01.2022
5992 Clouds -4 1025 59 10000 1.76 207 09:42 07.01.2022
5993 Clear -8 1022 88 10000 0.89 157 02:56 07.01.2022
5994 Clear -8 1018 91 10000 2.98 165 01:55 07.01.2022
5995 Clouds -7 1019 91 10000 0.45 243 01:28 07.01.2022
5996 Clouds -7 1023 89 10000 0.45 243 00:59 07.01.2022
5997 Clouds -7 1023 90 10000 0.89 173 00:28 07.01.2022
5998 Clouds -6 1023 90 10000 0.45 77 21:34 06.01.2022
5999 Clouds -5 1023 92 10000 2.1 158 20:22 06.01.2022
6000 Clouds -4 1023 92 10000 0.45 247 19:45 06.01.2022
6001 Clouds -3 1023 91 7112 0.45 126 18:34 06.01.2022
6002 Clouds -3 1022 91 990 0.45 123 17:41 06.01.2022
6003 Clouds -2 1022 91 804 0.45 123 16:52 06.01.2022
6004 Snow -2 1021 92 4347 0.45 297 15:48 06.01.2022
6005 Snow -1 1021 92 6866 0.45 297 15:26 06.01.2022
6006 Snow -1 1020 92 6866 0.45 297 14:51 06.01.2022
6007 Clouds -2 1020 91 10000 0.45 17 14:18 06.01.2022
6008 Snow -2 1021 89 10000 1.3 326 12:50 06.01.2022
6009 Snow -2 1021 89 6199 0.45 75 11:43 06.01.2022
6010 Snow -2 1021 88 10000 0.45 75 11:22 06.01.2022
6011 Clouds -3 1020 87 6663 0.45 248 08:52 06.01.2022
6012 Clouds -3 1022 88 10000 1.4 202 01:24 06.01.2022
6013 Clouds -3 1022 88 10000 1.47 201 23:38 05.01.2022
6014 Clouds -4 1022 86 10000 1.68 194 22:59 05.01.2022
6015 Clouds -4 1022 87 10000 1.68 194 22:33 05.01.2022
6016 Clouds -4 1021 87 10000 1.45 201 21:49 05.01.2022
6017 Clouds -4 1021 87 10000 1.66 201 21:20 05.01.2022
6018 Clouds -4 1021 85 10000 2.23 186 20:18 05.01.2022
6019 Clouds -3 1016 84 10000 0.45 129 18:44 05.01.2022
6020 Clouds -3 1020 83 10000 1.46 215 17:44 05.01.2022
6021 Clouds -2 1018 82 10000 1.38 235 16:51 05.01.2022
6022 Snow -1 1010 77 600 4.47 131 15:26 05.01.2022
6023 Snow -2 1012 91 148 1.34 318 13:52 05.01.2022
6024 Snow -1 1011 92 208 1.79 356 13:22 05.01.2022
6025 Snow 0 1008 94 159 0.45 213 10:34 05.01.2022
6026 Snow 1 1006 95 83 1.66 253 07:47 05.01.2022
6027 Snow 1 1006 95 83 1.66 253 07:47 05.01.2022
6028 Snow 1 1006 95 75 0.45 155 06:25 05.01.2022
6029 Clouds 5 1002 91 6547 3.13 348 00:58 05.01.2022
6030 Clouds 6 1004 89 10000 0.89 191 23:28 04.01.2022
6031 Rain 6 1004 89 10000 0.89 191 23:28 04.01.2022
6032 Clouds 7 1003 78 10000 0.45 56 22:46 04.01.2022
6033 Rain 8 1002 83 10000 2.78 182 21:24 04.01.2022
6034 Clouds 9 1002 83 10000 2.8 193 19:20 04.01.2022
6035 Clouds 10 1002 80 10000 3.08 188 17:52 04.01.2022
6036 Clouds 10 1001 78 10000 3.3 185 16:44 04.01.2022
6037 Clouds 10 1000 78 10000 3.48 185 16:24 04.01.2022
6038 Clouds 11 1000 49 10000 3.58 181 14:54 04.01.2022
6039 Clouds 11 1000 49 10000 3.58 181 14:34 04.01.2022
6040 Clouds 11 1001 52 10000 1.79 193 13:27 04.01.2022
6041 Clouds 8 1003 92 10000 1.34 215 10:41 04.01.2022
6042 Clouds 7 1004 93 10000 0.45 207 09:20 04.01.2022
6043 Rain 6 1004 84 10000 0.89 312 08:32 04.01.2022
6044 Rain 6 1010 75 10000 0.45 138 02:32 04.01.2022
6045 Clouds 6 1011 71 10000 1.98 210 00:41 04.01.2022
6046 Clouds 6 1012 66 10000 0.45 185 23:26 03.01.2022
6047 Clouds 6 1013 69 10000 1.34 159 21:52 03.01.2022
6048 Clouds 6 1014 71 10000 0.89 146 21:33 03.01.2022
6049 Clouds 6 1014 72 10000 1.34 220 20:22 03.01.2022
6050 Clouds 7 1015 73 10000 1.34 165 18:54 03.01.2022
6051 Clouds 7 1016 76 10000 0.89 183 18:28 03.01.2022
6052 Clouds 8 1016 71 10000 2.72 201 16:58 03.01.2022
6053 Clouds 9 1018 65 10000 0.45 227 15:39 03.01.2022
6054 Clouds 8 1018 65 10000 1.34 88 14:30 03.01.2022
6055 Clouds 9 1022 64 10000 0.89 140 12:46 03.01.2022
6056 Clouds 9 1022 64 10000 1.79 319 11:35 03.01.2022
6057 Clouds 8 1022 67 10000 1.79 162 10:27 03.01.2022
6058 Clouds 7 1024 88 10000 2.38 227 08:47 03.01.2022
6059 Clouds 7 1023 86 10000 2.5 214 07:34 03.01.2022
6060 Clouds 7 1023 86 10000 2.5 214 07:34 03.01.2022
6061 Clouds 7 1024 74 10000 2.7 228 23:55 02.01.2022
6062 Clouds 7 1020 67 10000 0.45 60 23:21 02.01.2022
6063 Clouds 7 1020 67 10000 0.45 60 22:53 02.01.2022
6064 Clouds 6 1020 68 10000 1.34 153 21:39 02.01.2022
6065 Clouds 7 1020 60 10000 0.45 92 20:33 02.01.2022
6066 Clouds 7 1020 59 10000 0.45 92 19:54 02.01.2022
6067 Clouds 8 1020 57 10000 1.79 137 19:29 02.01.2022
6068 Clouds 7 1021 58 10000 0.89 207 18:44 02.01.2022
6069 Clouds 8 1021 51 10000 1.34 245 17:43 02.01.2022
6070 Clouds 9 1021 51 10000 1.34 245 17:22 02.01.2022
6071 Clouds 10 1022 44 10000 1.34 245 16:59 02.01.2022
6072 Clouds 10 1022 48 10000 0.89 204 16:24 02.01.2022
6073 Clouds 11 1025 34 10000 1.79 192 14:21 02.01.2022
6074 Clouds 12 1022 38 10000 0.89 153 12:49 02.01.2022
6075 Clouds 11 1023 43 10000 1.79 181 11:57 02.01.2022
6076 Clouds 11 1023 28 10000 1.79 181 11:23 02.01.2022
6077 Clouds 8 1022 67 10000 2.65 194 10:44 02.01.2022
6078 Clouds 3 1024 60 10000 3.16 176 08:42 02.01.2022
6079 Clouds 2 1026 52 10000 3.05 174 03:25 02.01.2022
6080 Clouds 3 1027 52 10000 3.08 168 00:58 02.01.2022
6081 Clouds 3 1028 78 10000 3 172 23:39 01.01.2022
6082 Clouds 3 1028 79 10000 3.1 170 22:55 01.01.2022
6083 Clouds 3 1028 52 10000 3.14 169 22:19 01.01.2022
6084 Clouds 2 1028 52 10000 3.14 169 21:43 01.01.2022
6085 Clouds 3 1028 53 10000 3.13 169 20:53 01.01.2022
6086 Clouds 4 1028 77 10000 3.12 169 19:55 01.01.2022
6087 Clouds 4 1025 79 10000 0.45 210 18:58 01.01.2022
6088 Clouds 5 1025 75 10000 1.34 213 17:58 01.01.2022
6089 Clouds 8 1026 68 10000 0.45 276 16:37 01.01.2022
6090 Clouds 8 1026 68 10000 0.45 276 16:19 01.01.2022
6091 Clouds 11 1026 53 10000 2.02 172 15:22 01.01.2022
6092 Clouds 12 1027 46 10000 0.45 99 13:46 01.01.2022
6093 Clouds 11 1026 55 10000 0.45 99 12:49 01.01.2022
6094 Clouds 9 1027 61 10000 0.45 169 11:51 01.01.2022
6095 Clear 8 1028 70 10000 2.34 177 11:22 01.01.2022
6096 Clear 5 1029 79 10000 2.59 177 10:26 01.01.2022
6097 Clear 5 1029 68 10000 2.59 177 09:41 01.01.2022
6098 Clear 2 1031 85 10000 3.06 171 08:25 01.01.2022
6099 Clear 1 1031 86 10000 3.06 171 07:43 01.01.2022
6100 Clouds 2 1027 88 10000 0.45 146 06:46 01.01.2022
6101 Clear 2 1030 61 10000 2.86 177 05:26 01.01.2022
6102 Clear 2 1030 85 10000 2.86 177 04:37 01.01.2022
6103 Clear 4 1030 74 10000 3.03 181 00:53 01.01.2022
6104 Clear 5 1027 71 10000 0.89 135 23:22 31.12.2021
6105 Clear 6 1026 67 10000 0.89 232 21:52 31.12.2021
6106 Clear 6 1030 71 10000 2.97 201 20:33 31.12.2021
6107 Clear 6 1025 77 10000 1.34 164 19:30 31.12.2021
6108 Clear 7 1028 59 10000 3.44 187 18:32 31.12.2021
6109 Clear 8 1024 69 10000 1.79 225 17:38 31.12.2021
6110 Clear 8 1024 69 10000 1.79 225 17:18 31.12.2021
6111 Clear 8 1024 72 10000 0.89 224 16:21 31.12.2021
6112 Clear 8 1024 73 10000 0.89 224 15:53 31.12.2021
6113 Clear 11 1023 67 10000 0.45 244 15:28 31.12.2021
6114 Clear 12 1024 52 10000 0.45 192 14:47 31.12.2021
6115 Clear 11 1023 79 10000 0.45 192 14:28 31.12.2021
6116 Clear 11 1023 70 10000 0.89 145 13:36 31.12.2021
6117 Clear 10 1023 75 10000 0.89 128 12:45 31.12.2021
6118 Clear 8 1024 81 10000 2.55 190 11:43 31.12.2021
6119 Clear 8 1024 86 10000 2.71 182 11:24 31.12.2021
6120 Clear 6 1024 72 10000 2.71 182 10:34 31.12.2021
6121 Clear 5 1025 64 10000 2.92 178 09:52 31.12.2021
6122 Clear 4 1025 64 10000 2.92 178 09:32 31.12.2021
6123 Clear 3 1026 96 10000 3.26 173 08:25 31.12.2021
6124 Clear 3 1026 58 10000 3.26 173 07:30 31.12.2021
6125 Clouds 6 1026 95 10000 0.45 118 23:23 30.12.2021
6126 Clouds 6 1027 95 10000 1.34 144 22:33 30.12.2021
6127 Clouds 6 1025 95 10000 1.34 144 21:54 30.12.2021
6128 Clouds 6 1024 96 10000 0.45 226 21:36 30.12.2021
6129 Clouds 7 1026 94 10000 1.34 211 20:45 30.12.2021
6130 Clouds 8 1026 94 10000 1.34 211 20:24 30.12.2021
6131 Clouds 8 1026 92 10000 1.34 239 19:44 30.12.2021
6132 Clouds 8 1023 95 195 1.34 225 18:29 30.12.2021
6133 Clouds 8 1023 95 195 1.34 225 17:52 30.12.2021
6134 Clouds 9 1024 94 64 1.34 175 16:19 30.12.2021
6135 Clouds 10 1024 92 64 0.45 183 15:42 30.12.2021
6136 Clouds 10 1023 91 78 0.89 218 14:38 30.12.2021
6137 Clouds 10 1024 93 88 0.89 218 13:49 30.12.2021
6138 Clouds 9 1024 95 1751 1.34 135 12:40 30.12.2021
6139 Clouds 8 1025 96 2086 1.79 213 10:58 30.12.2021
6140 Clouds 7 1024 95 1835 1.34 162 09:58 30.12.2021
6141 Clouds 7 1024 95 1203 0.89 236 08:56 30.12.2021
6142 Rain 8 1022 93 208 2.68 189 06:52 30.12.2021
6143 Clouds 8 1020 96 88 1.34 150 03:42 30.12.2021
6144 Clouds 8 1019 96 93 1.34 81 02:47 30.12.2021
6145 Rain 7 1017 96 173 1.34 119 23:43 29.12.2021
6146 Clouds 6 1017 96 192 1.34 119 23:22 29.12.2021
6147 Clouds 6 1016 96 456 0.89 183 22:21 29.12.2021
6148 Rain 5 1015 96 456 0.89 182 21:33 29.12.2021
6149 Rain 5 1015 96 1021 1.34 129 20:38 29.12.2021
6150 Clouds 5 1014 95 2088 0.89 221 19:48 29.12.2021
6151 Clouds 4 1015 95 4776 0.89 221 18:52 29.12.2021
6152 Rain 4 1015 95 6707 0.89 214 17:56 29.12.2021
6153 Clouds 4 1015 95 565 1.79 211 17:28 29.12.2021
6154 Rain 5 1015 91 565 1.34 211 16:41 29.12.2021
6155 Rain 5 1015 89 198 1.34 211 15:59 29.12.2021
6156 Rain 6 1014 82 787 1.34 138 14:24 29.12.2021
6157 Clouds 5 1014 88 5564 1.34 169 12:39 29.12.2021
6158 Clouds 6 1015 80 10000 0.89 253 11:43 29.12.2021
6159 Clouds 5 1014 89 10000 0.45 75 09:59 29.12.2021
6160 Clouds 4 1013 94 6782 0.89 132 07:52 29.12.2021
6161 Clouds 4 1012 92 144 2.24 124 06:40 29.12.2021
6162 Clouds 4 1012 92 88 2.24 124 06:22 29.12.2021
6163 Clouds 5 1012 91 88 1.34 96 05:39 29.12.2021
6164 Clouds 5 1010 86 113 1.79 127 02:46 29.12.2021
6165 Clouds 5 1009 83 1765 1.79 124 00:23 29.12.2021
6166 Clouds 5 1008 84 1765 0.45 318 23:35 28.12.2021
6167 Clouds 5 1007 81 1033 0.89 170 22:42 28.12.2021
6168 Clouds 5 1007 83 125 0.89 170 22:24 28.12.2021
6169 Clouds 5 1008 89 125 2.24 184 21:38 28.12.2021
6170 Clouds 5 1007 91 203 1.79 120 20:40 28.12.2021
6171 Rain 5 1007 88 418 0.45 276 19:25 28.12.2021
6172 Clouds 5 1007 87 259 0.45 186 18:39 28.12.2021
6173 Clouds 5 1006 87 2848 0.45 186 17:59 28.12.2021
6174 Rain 6 1004 91 4661 0.89 134 16:34 28.12.2021
6175 Rain 6 1004 91 4661 0.89 134 16:34 28.12.2021
6176 Clouds 6 1004 93 1472 0.89 134 15:50 28.12.2021
6177 Clouds 6 1004 92 10000 0.89 161 15:21 28.12.2021
6178 Clouds 6 1004 90 10000 0.89 130 14:48 28.12.2021
6179 Clouds 6 1004 90 3841 0.89 130 14:21 28.12.2021
6180 Clouds 6 1005 92 3841 1.79 219 13:42 28.12.2021
6181 Clouds 6 1005 92 2494 1.79 219 13:24 28.12.2021
6182 Clouds 6 1005 91 2494 1.79 219 12:49 28.12.2021
6183 Clouds 5 1005 89 4220 1.79 146 11:46 28.12.2021
6184 Clouds 2 1003 97 10000 0.45 236 08:35 28.12.2021
6185 Snow 1 1002 96 10000 0.45 248 06:42 28.12.2021
6186 Clouds 3 1008 94 10000 1.34 157 23:44 27.12.2021
6187 Clouds 3 1008 94 10000 1.34 157 23:23 27.12.2021
6188 Rain 3 1007 91 10000 0.89 147 21:42 27.12.2021
6189 Clouds 3 1007 91 10000 0.89 147 21:21 27.12.2021
6190 Rain 3 1006 87 10000 0.45 176 20:23 27.12.2021
6191 Clouds 3 1006 83 10000 0.45 169 19:41 27.12.2021
6192 Clouds 4 1005 84 10000 0.45 146 18:34 27.12.2021
6193 Clouds 4 1005 86 10000 0.89 206 17:48 27.12.2021
6194 Clouds 4 1005 84 10000 0.45 253 16:40 27.12.2021
6195 Clouds 5 1003 74 10000 0.45 253 15:52 27.12.2021
6196 Clouds 7 1002 72 10000 0.89 176 14:33 27.12.2021
6197 Clouds 6 1003 74 10000 0.45 239 13:39 27.12.2021
6198 Clouds 6 1005 77 10000 0.45 223 12:36 27.12.2021
6199 Clouds 3 1006 85 10000 0.45 268 10:31 27.12.2021
6200 Clouds 1 1005 97 10000 0.45 108 09:47 27.12.2021
6201 Clouds 1 1007 94 10000 0.45 124 07:50 27.12.2021
6202 Clouds 1 1008 94 10000 0.89 120 07:29 27.12.2021
6203 Clouds 2 1008 94 10000 0.45 254 02:19 27.12.2021
6204 Clouds 3 1009 95 10000 0.89 204 23:58 26.12.2021
6205 Clouds 3 1009 95 10000 1.34 191 23:38 26.12.2021
6206 Clouds 3 1009 96 10000 0.89 152 22:34 26.12.2021
6207 Clouds 3 1009 96 10000 0.45 214 20:59 26.12.2021
6208 Clouds 3 1009 95 10000 0.45 296 19:47 26.12.2021
6209 Clouds 3 1009 96 10000 0.89 205 18:24 26.12.2021
6210 Clouds 3 1009 96 10000 0.45 97 17:24 26.12.2021
6211 Clouds 4 1009 96 8356 0.89 180 14:29 26.12.2021
6212 Clouds 4 1009 97 8356 0.89 135 13:40 26.12.2021
6213 Clouds 3 1009 96 1602 0.89 135 13:20 26.12.2021
6214 Clouds 3 1009 97 3266 0.87 258 12:33 26.12.2021
6215 Clouds 3 1009 97 5182 0.45 274 10:42 26.12.2021
6216 Clouds 2 1009 96 10000 0.89 174 09:26 26.12.2021
6217 Rain 2 1008 96 10000 0.9 230 08:44 26.12.2021
6218 Clouds 2 1008 96 10000 0.89 189 07:58 26.12.2021
6219 Clouds 2 1007 94 10000 2.24 188 01:29 26.12.2021
6220 Clouds 2 1007 93 10000 0.45 235 23:58 25.12.2021
6221 Clouds 2 1007 93 10000 1.72 171 23:27 25.12.2021
6222 Clouds 3 1007 93 10000 0.45 153 22:28 25.12.2021
6223 Clouds 3 1008 94 10000 0.89 155 21:00 25.12.2021
6224 Clouds 3 1007 93 10000 0.45 221 19:28 25.12.2021
6225 Clouds 3 1007 93 10000 0.45 221 18:56 25.12.2021
6226 Clouds 3 1007 93 10000 1.34 229 18:21 25.12.2021
6227 Clouds 4 1010 93 10000 1.98 182 16:42 25.12.2021
6228 Rain 4 1010 93 8501 1.5 191 15:26 25.12.2021
6229 Clouds 4 1008 93 3893 0.89 213 13:41 25.12.2021
6230 Clouds 4 1008 92 7791 0.45 293 11:54 25.12.2021
6231 Clouds 3 1008 91 10000 1.79 50 10:18 25.12.2021
6232 Clouds 3 1007 91 10000 0.45 218 09:42 25.12.2021
6233 Clouds 4 1008 90 10000 0.89 160 04:36 25.12.2021
6234 Clouds 3 1009 94 10000 0.45 221 01:30 25.12.2021
6235 Clouds 4 1008 93 10000 0.45 201 23:55 24.12.2021
6236 Rain 3 1010 95 1366 0.45 250 20:53 24.12.2021
6237 Clouds 3 1010 94 10000 1.79 108 19:25 24.12.2021
6238 Clouds 3 1010 93 7616 0.45 210 18:23 24.12.2021
6239 Clouds 3 1010 92 8725 0.45 255 16:30 24.12.2021
6240 Clouds 4 1010 90 1430 0.45 102 15:49 24.12.2021
6241 Clouds 4 1010 90 1212 0.45 102 15:20 24.12.2021
6242 Clouds 4 1010 89 1212 0.89 226 14:31 24.12.2021
6243 Clouds 4 1012 89 314 1.34 81 13:45 24.12.2021
6244 Clouds 5 1011 82 280 1.34 81 12:55 24.12.2021
6245 Clouds 5 1011 82 593 0.89 271 12:34 24.12.2021
6246 Clouds 5 1013 80 9180 0.45 192 11:42 24.12.2021
6247 Clouds 5 1013 80 10000 0.45 192 11:19 24.12.2021
6248 Clouds 5 1012 80 10000 0.45 211 10:33 24.12.2021
6249 Clouds 3 1013 89 10000 1.34 221 08:38 24.12.2021
6250 Clouds 2 1012 90 10000 1.34 221 07:58 24.12.2021
6251 Clouds 2 1011 90 10000 1.34 155 06:18 24.12.2021
6252 Clouds 4 1016 91 10000 1.34 234 00:21 24.12.2021
6253 Clouds 4 1016 89 10000 0.89 221 23:39 23.12.2021
6254 Clouds 4 1016 87 10000 0.89 221 22:50 23.12.2021
6255 Clouds 4 1016 84 10000 1.34 109 22:22 23.12.2021
6256 Clouds 4 1017 81 10000 1.34 216 21:39 23.12.2021
6257 Clouds 4 1017 78 10000 0.45 261 20:27 23.12.2021
6258 Clouds 4 1016 62 10000 0.45 308 19:28 23.12.2021
6259 Clouds 2 1014 65 10000 1.34 179 18:18 23.12.2021
6260 Clouds 2 1014 62 10000 0.45 290 17:29 23.12.2021
6261 Clouds 3 1016 47 10000 0.89 169 16:26 23.12.2021
6262 Clouds 4 1016 45 10000 0.45 271 15:33 23.12.2021
6263 Clouds 5 1016 42 10000 0.45 271 14:59 23.12.2021
6264 Clouds 5 1016 42 10000 0.89 221 14:39 23.12.2021
6265 Clouds 4 1020 44 10000 1.34 204 13:25 23.12.2021
6266 Clouds 5 1020 23 10000 0.89 189 11:49 23.12.2021
6267 Clouds -3 1019 57 10000 2.78 189 09:53 23.12.2021
6268 Clouds -3 1019 57 10000 2.78 189 09:53 23.12.2021
6269 Clouds -3 1019 57 10000 2.78 189 09:34 23.12.2021
6270 Clouds -6 1021 52 10000 3.49 180 08:28 23.12.2021
6271 Clouds -6 1021 52 10000 3.49 180 08:28 23.12.2021
6272 Clouds -6 1022 54 10000 3.3 182 05:30 23.12.2021
6273 Clouds -7 1024 53 10000 3.19 175 01:31 23.12.2021
6274 Clouds -8 1025 57 10000 3.19 169 22:51 22.12.2021
6275 Clouds -8 1025 58 10000 3.12 169 21:59 22.12.2021
6276 Clouds -8 1025 58 10000 3.12 169 21:30 22.12.2021
6277 Clouds -8 1025 58 10000 3.19 170 20:59 22.12.2021
6278 Clouds -8 1025 58 10000 3.19 170 20:40 22.12.2021
6279 Clouds -7 1025 60 10000 3.03 169 19:54 22.12.2021
6280 Clouds -7 1025 62 10000 2.85 171 18:55 22.12.2021
6281 Clouds -6 1025 66 10000 2.72 171 17:38 22.12.2021
6282 Clouds -4 1024 77 10000 1.84 170 16:22 22.12.2021
6283 Clear 0 1025 16 10000 0.45 174 14:28 22.12.2021
6284 Clear 1 1026 23 10000 0.45 183 12:53 22.12.2021
6285 Clear 1 1027 28 10000 0.45 134 11:42 22.12.2021
6286 Clear -6 1026 60 10000 1.91 162 09:52 22.12.2021
6287 Clear -9 1028 58 10000 2.82 164 07:57 22.12.2021
6288 Clear -8 1028 59 10000 2.75 164 05:54 22.12.2021
6289 Clear -8 1028 59 10000 2.75 164 05:34 22.12.2021
6290 Clear -8 1028 59 10000 2.72 166 04:57 22.12.2021
6291 Clear -8 1028 59 10000 2.72 166 04:37 22.12.2021
6292 Clear -7 1028 59 10000 2.73 166 03:49 22.12.2021
6293 Clear -7 1028 59 10000 2.73 166 03:31 22.12.2021
6294 Clear -7 1029 91 10000 2.71 173 23:48 21.12.2021
6295 Clear -7 1021 90 10000 0.45 220 22:41 21.12.2021
6296 Clear -7 1021 90 10000 0.45 220 21:56 21.12.2021
6297 Clear -7 1021 89 10000 2.47 172 21:32 21.12.2021
6298 Clear -7 1021 89 10000 2.67 174 20:24 21.12.2021
6299 Clear -7 1021 89 10000 2.67 174 19:55 21.12.2021
6300 Clear -8 1020 90 10000 2.67 174 19:33 21.12.2021
6301 Clear -8 1020 89 10000 0.45 321 18:23 21.12.2021
6302 Clear -7 1020 89 10000 0.45 321 17:53 21.12.2021
6303 Clear -5 1019 85 10000 2.27 169 16:47 21.12.2021
6304 Clear -3 1022 64 10000 0.45 153 15:34 21.12.2021
6305 Clear -2 1024 42 10000 0.82 357 14:20 21.12.2021
6306 Clear -3 1021 71 10000 0.82 357 13:41 21.12.2021
6307 Clouds -1 1025 39 10000 0.92 336 12:25 21.12.2021
6308 Clouds -4 1022 59 10000 0.22 190 10:38 21.12.2021
6309 Clouds -5 1024 60 10000 1.5 170 09:42 21.12.2021
6310 Clouds -7 1025 58 10000 2.45 165 08:55 21.12.2021
6311 Clouds -9 1026 91 10000 2.69 163 07:42 21.12.2021
6312 Clouds -10 1026 91 10000 2.64 163 07:19 21.12.2021
6313 Clouds -7 1026 64 10000 2.62 158 03:24 21.12.2021
6314 Clouds -5 1028 78 10000 2.67 155 01:20 21.12.2021
6315 Clear -6 1030 91 10000 2.64 155 23:54 20.12.2021
6316 Clear -6 1025 90 10000 0.45 213 22:35 20.12.2021
6317 Clear -5 1025 91 10000 0.45 213 21:51 20.12.2021
6318 Clear -6 1025 90 10000 0.45 233 21:24 20.12.2021
6319 Clear -5 1025 90 10000 0.45 233 20:51 20.12.2021
6320 Clear -5 1025 90 10000 0.45 74 20:19 20.12.2021
6321 Clear -4 1025 90 10000 0.89 227 19:36 20.12.2021
6322 Clouds -4 1025 90 10000 0.89 227 19:18 20.12.2021
6323 Clear -4 1025 89 10000 0.45 219 18:28 20.12.2021
6324 Clear -3 1025 89 10000 0.45 219 17:49 20.12.2021
6325 Clear -2 1025 84 10000 0.45 191 16:45 20.12.2021
6326 Clouds 0 1021 79 10000 0.45 191 15:55 20.12.2021
6327 Clouds 1 1021 77 10000 0.45 219 15:31 20.12.2021
6328 Clouds 1 1021 75 10000 0.89 232 13:31 20.12.2021
6329 Clear -1 1024 86 10000 0.81 26 11:36 20.12.2021
6330 Clear -2 1022 89 10000 0.89 171 10:35 20.12.2021
6331 Clear -3 1026 91 10000 0.45 198 09:38 20.12.2021
6332 Clouds -4 1026 92 10000 0.45 222 08:44 20.12.2021
6333 Clouds -5 1026 92 10000 0.45 222 08:00 20.12.2021
6334 Clouds -5 1026 93 10000 1.34 208 07:31 20.12.2021
6335 Clear -5 1026 93 10000 0.89 140 06:32 20.12.2021
6336 Clear -5 1028 65 10000 2.45 188 00:19 20.12.2021
6337 Clear -4 1028 90 10000 2.36 184 22:56 19.12.2021
6338 Clear -4 1028 85 10000 2.3 180 21:58 19.12.2021
6339 Clear -3 1028 85 10000 2.3 180 21:32 19.12.2021
6340 Clear -3 1028 86 10000 2.3 173 20:35 19.12.2021
6341 Clear -3 1027 85 10000 2.55 172 19:53 19.12.2021
6342 Clear -2 1028 85 10000 2.44 170 19:32 19.12.2021
6343 Clear -2 1023 90 10000 0.45 221 18:30 19.12.2021
6344 Clear -2 1023 89 10000 0.45 221 17:53 19.12.2021
6345 Clear -2 1028 86 10000 2.76 171 17:21 19.12.2021
6346 Clear 2 1026 71 10000 0.45 212 16:27 19.12.2021
6347 Clear 2 1026 68 10000 0.45 212 15:50 19.12.2021
6348 Clear 4 1026 65 10000 0.45 214 15:23 19.12.2021
6349 Clear 3 1026 65 10000 0.89 145 14:44 19.12.2021
6350 Clear 4 1031 48 9147 0.89 154 13:26 19.12.2021
6351 Clear 3 1032 51 9147 0.89 163 12:47 19.12.2021
6352 Clear 4 1032 51 10000 0.89 163 12:28 19.12.2021
6353 Clear 3 1032 52 10000 0.92 153 11:26 19.12.2021
6354 Clear -2 1031 74 10000 1.7 162 10:28 19.12.2021
6355 Clear -3 1031 74 10000 1.7 162 09:48 19.12.2021
6356 Clear -4 1033 74 10000 2.21 162 08:43 19.12.2021
6357 Clear -4 1034 72 10000 2.19 168 04:45 19.12.2021
6358 Clear -3 1035 70 10000 2.15 167 01:33 19.12.2021
6359 Clear -3 1035 70 10000 2.03 165 00:52 19.12.2021
6360 Clear -4 1035 70 10000 2.2 170 22:37 18.12.2021
6361 Clouds -4 1035 70 10000 2.32 167 21:58 18.12.2021
6362 Clouds -4 1035 70 10000 2.32 167 21:35 18.12.2021
6363 Clouds -3 1035 71 10000 2.41 161 20:44 18.12.2021
6364 Clear -3 1035 71 10000 2.51 158 20:18 18.12.2021
6365 Clear -3 1035 70 10000 2.69 154 19:20 18.12.2021
6366 Clear -3 1034 75 10000 2.77 149 18:21 18.12.2021
6367 Clear -2 1034 75 10000 2.77 149 17:48 18.12.2021
6368 Clear 1 1036 49 10000 0.89 160 16:26 18.12.2021
6369 Clear 1 1036 49 10000 0.89 160 16:26 18.12.2021
6370 Clear 2 1036 51 10000 0.89 172 15:27 18.12.2021
6371 Clear 3 1036 45 10000 1.82 111 14:48 18.12.2021
6372 Clear 1 1033 75 10000 1.64 99 13:21 18.12.2021
6373 Clear 2 1039 51 10000 0.45 197 11:22 18.12.2021
6374 Clear 0 1040 54 10000 0.89 162 09:40 18.12.2021
6375 Clear -2 1038 68 10000 2.79 144 08:47 18.12.2021
6376 Clear -3 1038 70 10000 3.01 147 08:23 18.12.2021
6377 Clouds -2 1038 74 10000 2.8 145 03:42 18.12.2021
6378 Clear -2 1039 74 10000 2.65 146 00:28 18.12.2021
6379 Clear -1 1039 74 10000 2.65 146 23:44 17.12.2021
6380 Clear 0 1040 62 10000 0.45 192 21:57 17.12.2021
6381 Clear -2 1040 82 10000 0.45 192 21:18 17.12.2021
6382 Clear -2 1040 93 10000 2.47 143 20:38 17.12.2021
6383 Clear -2 1033 93 10000 0.45 319 19:19 17.12.2021
6384 Clear -2 1034 92 10000 1.34 154 18:38 17.12.2021
6385 Clear -1 1033 91 10000 0.45 225 17:31 17.12.2021
6386 Clear 1 1035 76 10000 0.45 157 16:46 17.12.2021
6387 Clear 1 1035 76 10000 0.45 157 16:46 17.12.2021
6388 Clear 1 1035 72 10000 0.45 157 16:22 17.12.2021
6389 Clear 2 1038 70 10000 0.89 178 15:21 17.12.2021
6390 Clear 2 1038 70 10000 0.89 178 15:21 17.12.2021
6391 Clear 3 1039 67 10000 0.95 122 14:39 17.12.2021
6392 Clear 3 1038 46 7287 0.89 154 12:46 17.12.2021
6393 Clear 1 1034 80 10000 1.33 103 11:34 17.12.2021
6394 Clear 1 1039 60 10000 0.89 168 10:37 17.12.2021
6395 Clear -1 1039 60 10000 0.89 176 09:31 17.12.2021
6396 Clear -1 1040 72 10000 0.89 151 08:30 17.12.2021
6397 Clear -2 1041 79 10000 2.64 143 05:58 17.12.2021
6398 Clear -1 1037 88 10000 0.89 197 02:53 17.12.2021
6399 Clouds -1 1036 84 10000 0.89 231 23:23 16.12.2021
6400 Clouds -1 1036 85 10000 1.34 156 22:24 16.12.2021
6401 Clouds -1 1036 85 10000 1.34 156 22:24 16.12.2021
6402 Clouds -1 1037 90 10000 1.34 156 21:50 16.12.2021
6403 Clouds -1 1038 90 10000 0.89 131 21:25 16.12.2021
6404 Clouds -1 1037 88 10000 0.89 168 20:30 16.12.2021
6405 Clouds -1 1037 90 10000 0.89 126 19:42 16.12.2021
6406 Clouds -1 1037 92 10000 0.45 98 18:38 16.12.2021
6407 Clouds 0 1033 90 10000 0.45 98 17:56 16.12.2021
6408 Clouds 0 1033 92 10000 0.89 149 17:28 16.12.2021
6409 Clouds 0 1033 93 10000 1.79 138 16:21 16.12.2021
6410 Clouds 1 1036 89 10000 1.42 50 14:50 16.12.2021
6411 Clouds 0 1035 88 10000 1.49 28 13:25 16.12.2021
6412 Clouds 0 1035 84 10000 0.64 61 11:20 16.12.2021
6413 Clouds 0 1039 70 10000 0.64 61 10:58 16.12.2021
6414 Clouds 0 1039 70 10000 0.6 123 10:20 16.12.2021
6415 Clouds -1 1034 91 10000 0.45 262 07:31 16.12.2021
6416 Clouds -2 1031 97 10000 1.4 174 06:19 16.12.2021
6417 Clouds -2 1035 95 10000 1.86 165 00:54 16.12.2021
6418 Clouds -1 1035 80 10000 1.93 167 23:22 15.12.2021
6419 Clouds -2 1034 95 10000 1.83 166 22:29 15.12.2021
6420 Clouds -2 1034 95 10000 1.83 166 21:52 15.12.2021
6421 Clouds -1 1030 97 10000 0.45 211 21:26 15.12.2021
6422 Clouds -1 1030 96 10000 2.02 165 19:55 15.12.2021
6423 Clouds -1 1029 94 10000 2.02 165 19:36 15.12.2021
6424 Clouds -1 1029 94 10000 1.97 161 18:36 15.12.2021
6425 Clouds -1 1029 93 10000 2.09 158 17:51 15.12.2021
6426 Clouds 0 1028 91 10000 2.09 158 17:32 15.12.2021
6427 Clouds 2 1030 83 10000 0.45 238 16:27 15.12.2021
6428 Clouds 1 1028 86 10000 0.45 337 15:46 15.12.2021
6429 Clouds 4 1030 71 9060 0.45 337 15:27 15.12.2021
6430 Clouds 5 1030 72 2605 0.89 347 14:18 15.12.2021
6431 Clouds 5 1031 72 5890 0.89 157 12:24 15.12.2021
6432 Clouds 0 1031 78 10000 1.29 162 10:24 15.12.2021
6433 Clouds -2 1028 96 10000 0.45 274 08:48 15.12.2021
6434 Clouds -1 1028 95 10000 2.05 163 05:59 15.12.2021
6435 Clouds 1 1027 93 10000 1.98 173 00:52 15.12.2021
6436 Clouds 1 1027 92 10000 1.78 177 23:41 14.12.2021
6437 Clouds 1 1027 94 10000 1.53 170 22:48 14.12.2021
6438 Clouds 1 1027 94 10000 1.77 165 21:51 14.12.2021
6439 Clouds 1 1027 94 10000 0.45 233 20:27 14.12.2021
6440 Clouds 1 1026 93 10000 0.45 292 19:40 14.12.2021
6441 Clouds 2 1027 92 10000 1.34 115 18:42 14.12.2021
6442 Clouds 2 1027 92 10000 1.34 115 17:58 14.12.2021
6443 Clouds 2 1026 92 10000 0.89 180 17:27 14.12.2021
6444 Clouds 3 1026 90 10000 0.45 133 16:38 14.12.2021
6445 Clouds 4 1026 88 10000 2.24 147 14:52 14.12.2021
6446 Clouds 4 1027 91 10000 0.85 212 13:31 14.12.2021
6447 Clouds 3 1027 75 10000 1.49 194 11:57 14.12.2021
6448 Clouds 1 1028 70 10000 2.06 175 11:23 14.12.2021
6449 Clouds 0 1029 64 10000 2.23 171 09:56 14.12.2021
6450 Clouds -1 1029 64 10000 2.23 171 09:34 14.12.2021
6451 Clouds -2 1030 62 10000 2.95 166 08:23 14.12.2021
6452 Clouds -2 1030 62 10000 2.95 166 07:43 14.12.2021
6453 Clear -1 1026 98 10000 0.45 194 01:46 14.12.2021
6454 Clear -1 1027 97 10000 0.45 120 22:49 13.12.2021
6455 Clear 0 1026 97 10000 0.45 220 21:52 13.12.2021
6456 Clear 0 1026 98 10000 0.45 234 20:59 13.12.2021
6457 Clear 0 1027 98 10000 0.45 162 20:31 13.12.2021
6458 Clear 1 1027 98 10000 0.45 162 19:52 13.12.2021
6459 Clouds 2 1028 97 10000 0.45 144 17:56 13.12.2021
6460 Clouds 2 1031 96 2100 0.45 151 17:23 13.12.2021
6461 Clouds 2 1031 96 2100 0.45 151 17:23 13.12.2021
6462 Clouds 4 1031 97 758 0.45 160 15:49 13.12.2021
6463 Clouds 4 1031 96 60 0.45 160 15:18 13.12.2021
6464 Clouds 5 1031 97 90 0.45 197 13:38 13.12.2021
6465 Clouds 5 1031 98 95 0.45 87 12:42 13.12.2021
6466 Clouds 4 1031 96 92 1.33 116 11:54 13.12.2021
6467 Clouds 4 1031 96 92 1.33 116 11:35 13.12.2021
6468 Clouds 3 1032 96 160 0.45 143 10:43 13.12.2021
6469 Clouds 1 1028 99 1214 1.23 126 08:52 13.12.2021
6470 Snow 0 1028 98 1063 1.31 144 07:38 13.12.2021
6471 Clouds 1 1027 95 6942 1.23 135 05:34 13.12.2021
6472 Clouds 1 1032 93 7256 1.26 149 00:43 13.12.2021
6473 Clouds 1 1033 86 10000 1.64 175 21:59 12.12.2021
6474 Clouds 1 1033 86 10000 1.64 175 21:33 12.12.2021
6475 Clouds 1 1033 80 10000 2.06 181 19:40 12.12.2021
6476 Clouds 1 1029 80 10000 2.19 176 18:35 12.12.2021
6477 Clouds 1 1029 79 10000 1.34 168 16:58 12.12.2021
6478 Clouds 1 1028 79 10000 1.34 183 16:27 12.12.2021
6479 Clouds 2 1028 79 10000 0.45 175 15:41 12.12.2021
6480 Clouds 2 1028 78 10000 0.45 175 15:21 12.12.2021
6481 Clouds 2 1025 79 10000 0.89 181 14:28 12.12.2021
6482 Clouds 1 1026 72 10000 1.34 164 12:55 12.12.2021
6483 Clouds 1 1028 81 10000 1.11 250 12:24 12.12.2021
6484 Clouds 1 1026 83 10000 0.89 202 11:43 12.12.2021
6485 Clouds -1 1035 81 10000 1.44 217 10:45 12.12.2021
6486 Clouds -2 1035 81 10000 1.89 187 10:21 12.12.2021
6487 Clouds -4 1030 92 10000 1.34 175 08:53 12.12.2021
6488 Clouds -4 1034 91 10000 2.6 177 07:31 12.12.2021
6489 Clouds -3 1033 90 10000 2.75 173 05:56 12.12.2021
6490 Clouds -2 1033 91 10000 2.6 173 04:55 12.12.2021
6491 Clouds -1 1033 92 10000 2.61 170 02:52 12.12.2021
6492 Clouds -1 1031 96 8816 2.4 183 23:30 11.12.2021
6493 Clouds -1 1030 97 8999 2.4 184 22:21 11.12.2021
6494 Clouds -1 1030 97 8999 2.4 184 21:50 11.12.2021
6495 Clouds -1 1029 90 4503 1.96 203 20:21 11.12.2021
6496 Clouds -1 1028 92 1291 1.62 218 19:21 11.12.2021
6497 Clouds -1 1027 94 1417 1.47 232 18:50 11.12.2021
6498 Snow -1 1022 93 922 0.89 147 17:56 11.12.2021
6499 Snow -1 1025 93 610 1.15 277 16:40 11.12.2021
6500 Snow 0 1023 94 823 1.45 297 15:46 11.12.2021
6501 Snow 0 1022 93 788 1.74 298 14:54 11.12.2021
6502 Snow 0 1020 92 804 1.82 278 12:41 11.12.2021
6503 Snow 0 1020 91 285 1.74 263 11:18 11.12.2021
6504 Snow 0 1016 90 325 1.88 255 09:45 11.12.2021
6505 Snow 0 1013 88 1245 2.44 223 05:36 11.12.2021
6506 Snow 0 1009 83 3296 2.25 238 00:50 11.12.2021
6507 Snow 1 1007 81 287 2.39 262 23:45 10.12.2021
6508 Snow 1 1006 79 121 2.3 261 23:18 10.12.2021
6509 Snow 0 1005 94 113 2.23 254 21:51 10.12.2021
6510 Snow 0 1000 93 126 0.45 248 20:35 10.12.2021
6511 Rain 0 999 94 177 2.45 199 19:19 10.12.2021
6512 Snow 0 998 95 1066 0.45 213 17:54 10.12.2021
6513 Snow -1 999 93 2820 2.77 184 16:41 10.12.2021
6514 Snow -1 999 93 4983 2.85 182 15:47 10.12.2021
6515 Snow -1 998 91 3636 3.01 175 15:28 10.12.2021
6516 Snow -1 998 91 3636 3.01 175 14:56 10.12.2021
6517 Snow -2 997 91 7464 2.63 183 13:50 10.12.2021
6518 Clouds -2 997 67 10000 2.37 183 13:18 10.12.2021
6519 Snow -3 997 64 10000 2.62 185 12:23 10.12.2021
6520 Snow -2 998 48 5298 1.79 197 11:27 10.12.2021
6521 Clouds -4 999 67 10000 3.47 168 09:54 10.12.2021
6522 Clouds -8 1001 67 10000 3.97 159 08:23 10.12.2021
6523 Clouds -9 999 92 10000 0.45 216 05:46 10.12.2021
6524 Clear -7 1009 81 10000 3.81 155 02:47 10.12.2021
6525 Clouds -1 1014 84 10000 3.43 166 23:43 09.12.2021
6526 Clouds -1 1015 87 10000 3.29 173 22:44 09.12.2021
6527 Clouds 0 1015 89 10000 3.15 175 22:23 09.12.2021
6528 Clouds -1 1015 89 10000 3.15 175 21:40 09.12.2021
6529 Clouds 0 1015 92 10000 3 179 20:38 09.12.2021
6530 Clouds -3 1015 87 10000 2.54 189 19:46 09.12.2021
6531 Clouds -2 1015 91 10000 1.87 201 19:21 09.12.2021
6532 Clouds -1 1011 94 10000 0.45 153 18:24 09.12.2021
6533 Clouds -1 1011 94 10000 0.45 153 17:51 09.12.2021
6534 Snow -1 1010 94 1102 0.89 315 17:24 09.12.2021
6535 Snow -1 1010 95 1102 0.45 212 16:43 09.12.2021
6536 Snow -1 1010 95 502 1.34 69 15:31 09.12.2021
6537 Snow -1 1010 95 214 1.74 294 14:43 09.12.2021
6538 Snow -1 1009 96 120 0.89 157 12:49 09.12.2021
6539 Snow -1 1009 96 107 1.88 309 12:24 09.12.2021
6540 Snow -1 1009 96 111 1.61 303 10:47 09.12.2021
6541 Snow -1 1008 97 83 1.62 307 08:19 09.12.2021
6542 Snow -1 1005 96 92 1.07 292 03:59 09.12.2021
6543 Snow -1 1005 96 91 1.27 297 01:43 09.12.2021
6544 Snow -1 1004 96 106 0.45 100 23:38 08.12.2021
6545 Snow -1 1003 96 101 0.45 100 22:59 08.12.2021
6546 Snow -1 1003 95 101 0.45 216 22:37 08.12.2021
6547 Snow -1 1003 95 100 1.44 296 21:39 08.12.2021
6548 Snow -1 1003 95 100 1.44 296 21:39 08.12.2021
6549 Snow -1 1003 95 103 1.35 307 20:58 08.12.2021
6550 Snow -1 1003 95 108 0.89 71 19:57 08.12.2021
6551 Snow -1 1002 96 104 0.89 82 19:29 08.12.2021
6552 Clouds -1 1002 96 790 0.45 130 18:28 08.12.2021
6553 Snow 0 1002 96 2950 1.34 147 17:24 08.12.2021
6554 Snow 0 1001 95 1382 0.45 13 15:45 08.12.2021
6555 Snow 0 1001 95 4456 0.45 13 15:23 08.12.2021
6556 Snow 0 1002 95 10000 0.57 342 13:27 08.12.2021
6557 Snow 0 1003 94 8799 0.89 203 10:45 08.12.2021
6558 Snow 0 1003 94 10000 0.89 203 10:23 08.12.2021
6559 Snow -1 1003 81 10000 0.45 178 08:54 08.12.2021
6560 Snow -2 1002 88 5159 0.45 230 06:36 08.12.2021
6561 Clouds -4 1006 68 10000 3.39 161 01:20 08.12.2021
6562 Clouds -4 1008 63 10000 3.78 158 23:23 07.12.2021
6563 Clouds -6 1007 86 10000 4.26 158 21:26 07.12.2021
6564 Clouds -5 1008 88 10000 0.45 236 20:26 07.12.2021
6565 Clouds -5 1008 88 10000 0.45 236 20:26 07.12.2021
6566 Clouds -5 1009 85 10000 0.45 173 19:23 07.12.2021
6567 Clouds -3 1009 84 10000 0.45 237 18:32 07.12.2021
6568 Clouds -3 1017 81 10000 3.55 166 17:27 07.12.2021
6569 Clouds -2 1017 57 10000 2.24 191 16:56 07.12.2021
6570 Clouds -1 1014 72 10000 2.68 216 16:26 07.12.2021
6571 Clouds 1 1015 71 10000 0.89 154 14:38 07.12.2021
6572 Clouds 2 1014 70 10000 0.45 159 13:41 07.12.2021
6573 Snow 0 1017 82 2773 2.24 89 12:22 07.12.2021
6574 Snow -1 1017 88 1928 0.89 116 11:23 07.12.2021
6575 Snow -1 1017 84 1054 0.89 330 09:40 07.12.2021
6576 Snow -1 1016 93 115 0.45 143 07:50 07.12.2021
6577 Snow -2 1015 92 358 0.45 271 05:52 07.12.2021
6578 Snow -2 1015 91 407 0.89 188 05:26 07.12.2021
6579 Clouds -4 1016 84 10000 0.89 203 23:36 06.12.2021
6580 Clouds -5 1012 90 10000 0.45 165 22:41 06.12.2021
6581 Clouds -4 1012 90 10000 0.45 165 21:59 06.12.2021
6582 Clouds -4 1019 92 10000 2.86 182 21:31 06.12.2021
6583 Clouds -5 1020 89 10000 3.13 169 20:32 06.12.2021
6584 Clouds -4 1020 93 10000 2.99 172 19:24 06.12.2021
6585 Clouds -4 1020 93 10000 2.99 172 18:42 06.12.2021
6586 Clouds -1 1021 94 10000 2.73 182 17:54 06.12.2021
6587 Clouds -1 1021 94 10000 2.74 182 17:33 06.12.2021
6588 Snow -1 1020 87 10000 0.97 229 15:52 06.12.2021
6589 Clouds 0 1020 88 10000 0.89 189 14:40 06.12.2021
6590 Clouds -1 1020 86 10000 0.45 176 13:28 06.12.2021
6591 Clouds 0 1016 91 10000 1.06 284 12:37 06.12.2021
6592 Clouds -1 1019 88 6854 0.48 258 10:23 06.12.2021
6593 Snow -2 1017 89 429 0.45 151 07:41 06.12.2021
6594 Clouds -1 1015 93 10000 2.21 167 02:28 06.12.2021
6595 Clouds -3 1013 93 10000 2.36 166 22:26 05.12.2021
6596 Clouds -1 1013 94 10000 2.15 169 21:25 05.12.2021
6597 Clouds -1 1012 85 10000 0.89 164 20:52 05.12.2021
6598 Clouds -1 1012 86 10000 0.89 164 20:18 05.12.2021
6599 Clouds -1 1011 87 4696 0.89 160 19:24 05.12.2021
6600 Clouds 0 1011 92 10000 2.1 166 18:29 05.12.2021
6601 Clouds 0 1011 92 10000 2.1 166 17:52 05.12.2021
6602 Clouds 0 1011 92 10000 2.1 166 17:34 05.12.2021
6603 Clouds -2 1010 79 10000 0.45 164 16:36 05.12.2021
6604 Clouds -1 1010 79 10000 0.45 164 16:18 05.12.2021
6605 Clouds 2 1006 80 10000 0.45 181 14:48 05.12.2021
6606 Clouds 2 1006 82 10000 0.45 181 14:30 05.12.2021
6607 Clouds 1 1006 84 10000 0.84 297 13:35 05.12.2021
6608 Clouds 2 1004 84 10000 1.34 152 12:45 05.12.2021
6609 Clouds 1 1006 84 10000 1.34 152 12:26 05.12.2021
6610 Clouds 0 1007 85 10000 0.89 121 11:44 05.12.2021
6611 Clouds 0 1007 88 10000 0.89 212 10:25 05.12.2021
6612 Clouds -1 1008 87 10000 0.89 215 09:47 05.12.2021
6613 Snow 0 1007 90 275 2.24 83 06:30 05.12.2021
6614 Rain 0 1007 93 205 1.34 83 01:29 05.12.2021
6615 Clouds 2 1003 90 62 1.79 89 22:45 04.12.2021
6616 Rain 3 1003 90 85 1.79 89 21:51 04.12.2021
6617 Clouds 4 1003 93 142 0.45 160 20:47 04.12.2021
6618 Rain 4 1002 92 7631 0.45 160 19:54 04.12.2021
6619 Clouds 3 1002 92 7631 1.34 167 19:30 04.12.2021
6620 Rain 3 1003 97 140 1.34 247 17:53 04.12.2021
6621 Rain 3 1006 96 140 2.26 249 17:35 04.12.2021
6622 Rain 3 1005 95 163 0.89 187 16:47 04.12.2021
6623 Rain 3 1005 95 1535 0.89 187 16:28 04.12.2021
6624 Clouds 3 1004 95 1439 0.45 161 13:30 04.12.2021
6625 Clouds 2 1003 95 10000 3.12 179 11:41 04.12.2021
6626 Clouds 2 1004 95 5479 3.31 185 11:19 04.12.2021
6627 Snow 1 1004 95 10000 3.43 185 09:57 04.12.2021
6628 Snow 1 1003 96 5908 0.89 202 08:38 04.12.2021
6629 Snow 0 1007 93 5282 0.89 219 05:18 04.12.2021
6630 Snow -1 1005 92 5282 2.74 199 04:39 04.12.2021
6631 Clouds -3 1009 89 10000 0.45 107 23:48 03.12.2021
6632 Clouds -3 1009 88 10000 0.45 107 22:54 03.12.2021
6633 Clouds -4 1010 88 10000 0.45 272 21:58 03.12.2021
6634 Clouds -4 1011 87 10000 3.41 170 21:24 03.12.2021
6635 Clouds -4 1012 86 10000 1.34 221 20:43 03.12.2021
6636 Clouds -4 1020 87 10000 3.16 174 19:29 03.12.2021
6637 Clouds -4 1021 74 10000 3.33 174 18:25 03.12.2021
6638 Clouds -4 1013 84 10000 1.34 157 17:42 03.12.2021
6639 Clear 0 1013 76 10000 0.89 211 13:48 03.12.2021
6640 Clouds 0 1013 80 10000 0.89 211 12:51 03.12.2021
6641 Clouds -1 1014 89 10000 0.89 137 11:24 03.12.2021
6642 Clouds -2 1019 94 10000 1.85 190 09:44 03.12.2021
6643 Clouds -3 1021 95 3007 2.19 196 08:21 03.12.2021
6644 Snow -3 1019 95 1832 1.45 221 07:29 03.12.2021
6645 Snow -2 1009 95 210 0.45 259 01:51 03.12.2021
6646 Snow -2 1008 95 168 1.34 139 00:42 03.12.2021
6647 Snow -2 1007 96 134 0.45 134 23:42 02.12.2021
6648 Snow -1 1006 97 97 0.45 173 21:42 02.12.2021
6649 Snow -1 1006 96 88 0.45 173 20:56 02.12.2021